# Wetter Temperatur Luftdruck Luftfeuchtigkeit Sichtweite Windgeschwindigkeit Windrichtung Zeit
1 Mist 8 1015 100 4000 0.5 0 21:42 28.01.2020
2 Mist 8 1015 93 4000 1 0 21:22 28.01.2020
3 Mist 8 1015 100 4000 0.5 0 20:57 28.01.2020
4 Mist 8 1015 100 4000 2 170 20:39 28.01.2020
5 Mist 8 1015 100 4000 0.5 0 20:39 28.01.2020
6 Mist 8 1015 100 4000 2.11 199 20:21 28.01.2020
7 Clouds 8 1015 100 6000 2.11 199 19:39 28.01.2020
8 Clouds 8 1015 93 7000 0.5 100 19:20 28.01.2020
9 Clouds 8 1015 93 8000 1.5 180 18:58 28.01.2020
10 Clouds 8 1015 100 8000 2.1 170 18:39 28.01.2020
11 Clouds 8 1015 100 8000 2.1 170 18:21 28.01.2020
12 Clouds 8 1014 93 8000 3.1 190 17:57 28.01.2020
13 Clouds 9 1014 100 10000 3.6 170 17:37 28.01.2020
14 Clouds 9 1014 100 10000 3.6 170 17:19 28.01.2020
15 Clouds 9 1014 100 10000 3.6 170 17:19 28.01.2020
16 Clouds 9 1014 100 10000 3.6 170 17:19 28.01.2020
17 Clouds 10 1014 93 10000 2.1 190 16:46 28.01.2020
18 Clouds 10 1014 93 10000 3.6 180 16:27 28.01.2020
19 Clouds 10 1014 93 10000 3.1 190 15:59 28.01.2020
20 Clouds 10 1014 93 10000 3.1 190 15:41 28.01.2020
21 Clouds 10 1014 81 10000 3.1 200 15:18 28.01.2020
22 Clouds 10 1014 81 10000 3.1 200 14:45 28.01.2020
23 Clouds 11 1014 81 10000 3.6 210 14:20 28.01.2020
24 Clouds 10 1014 87 10000 3.6 210 13:58 28.01.2020
25 Clouds 10 1014 87 10000 3.6 210 13:39 28.01.2020
26 Clouds 10 1014 87 10000 3.6 220 13:20 28.01.2020
27 Clouds 10 1014 76 10000 2.6 200 12:42 28.01.2020
28 Clouds 10 1014 81 10000 2.1 230 12:42 28.01.2020
29 Clouds 10 1014 81 10000 2.1 230 12:22 28.01.2020
30 Clouds 10 1015 76 10000 1.5 220 11:48 28.01.2020
31 Clouds 9 1015 93 10000 2.1 280 11:23 28.01.2020
32 Clouds 9 1015 87 10000 2.1 320 10:58 28.01.2020
33 Clouds 9 1015 87 10000 3.6 360 10:39 28.01.2020
34 Clouds 9 1015 87 10000 3.6 360 10:20 28.01.2020
35 Clouds 9 1015 87 7000 3.6 350 09:43 28.01.2020
36 Clouds 9 1015 87 7000 3.6 350 09:21 28.01.2020
37 Clouds 9 1015 87 7000 3.6 350 08:57 28.01.2020
38 Clouds 9 1014 93 7000 5.7 350 08:39 28.01.2020
39 Clouds 9 1014 93 7000 5.7 350 08:18 28.01.2020
40 Rain 9 1013 93 5000 9.3 350 07:37 28.01.2020
41 Rain 9 1013 100 4000 6.7 210 06:50 28.01.2020
42 Rain 10 1013 93 6000 6.7 200 06:26 28.01.2020
43 Clouds 10 1013 87 10000 6.7 200 05:54 28.01.2020
44 Clouds 10 1013 93 10000 5.1 200 05:26 28.01.2020
45 Rain 10 1013 87 8000 4.6 220 03:59 28.01.2020
46 Rain 10 1013 93 7000 6.2 190 02:58 28.01.2020
47 Rain 10 1013 93 7000 5.1 170 02:25 28.01.2020
48 Rain 11 1014 93 7000 3.1 170 01:57 28.01.2020
49 Rain 10 1014 93 7000 2.1 160 01:23 28.01.2020
50 Rain 10 1014 93 7000 1.5 170 00:45 28.01.2020
51 Rain 11 1014 87 10000 2.6 170 00:24 28.01.2020
52 Clouds 11 1014 87 10000 2.1 220 23:48 27.01.2020
53 Rain 11 1014 58 10000 2.1 250 23:29 27.01.2020
54 Rain 11 1015 87 10000 1.5 360 22:54 27.01.2020
55 Rain 11 1015 87 10000 2.6 340 22:36 27.01.2020
56 Rain 12 1015 76 10000 1 0 22:18 27.01.2020
57 Clouds 12 1015 76 10000 2.6 80 21:40 27.01.2020
58 Clouds 12 1015 76 10000 2.6 80 21:19 27.01.2020
59 Clouds 12 1015 76 10000 1 0 20:59 27.01.2020
60 Clouds 12 1015 76 10000 1 0 20:40 27.01.2020
61 Clouds 12 1015 76 10000 2.1 110 20:21 27.01.2020
62 Clouds 12 1015 76 10000 3.1 110 19:58 27.01.2020
63 Rain 12 1016 76 10000 2.1 110 19:40 27.01.2020
64 Rain 12 1016 76 10000 2.1 110 19:21 27.01.2020
65 Clouds 13 1016 71 10000 2.6 90 18:55 27.01.2020
66 Clouds 12 1016 71 10000 2.6 90 18:37 27.01.2020
67 Clouds 13 1016 71 10000 2.6 90 18:19 27.01.2020
68 Clouds 13 1016 71 10000 2.6 100 17:39 27.01.2020
69 Clouds 13 1016 71 10000 2.1 100 17:19 27.01.2020
70 Clouds 13 1016 71 10000 2.1 100 16:57 27.01.2020
71 Clouds 13 1016 66 10000 2.1 110 16:39 27.01.2020
72 Clouds 13 1016 66 10000 2.1 110 16:21 27.01.2020
73 Clouds 14 1017 62 10000 2.1 100 15:54 27.01.2020
74 Clouds 14 1017 62 10000 2.1 100 15:36 27.01.2020
75 Clouds 14 1017 62 10000 2.1 100 15:18 27.01.2020
76 Clouds 14 1017 66 10000 2.6 110 14:40 27.01.2020
77 Clouds 14 1017 66 10000 2.6 110 14:21 27.01.2020
78 Clouds 14 1018 58 10000 3.1 110 13:54 27.01.2020
79 Clouds 14 1018 66 10000 2.6 100 13:36 27.01.2020
80 Clouds 13 1018 66 10000 2.1 90 13:18 27.01.2020
81 Rain 13 1019 76 10000 1.5 240 12:41 27.01.2020
82 Rain 13 1019 76 10000 1.5 240 12:22 27.01.2020
83 Rain 12 1020 76 10000 1.5 200 11:43 27.01.2020
84 Rain 12 1020 76 10000 1.5 200 11:22 27.01.2020
85 Rain 12 1020 81 10000 1 90 10:57 27.01.2020
86 Clouds 12 1020 66 10000 6.2 200 10:39 27.01.2020
87 Clouds 12 1020 66 10000 6.2 200 10:20 27.01.2020
88 Clouds 12 1021 71 10000 1.5 90 09:40 27.01.2020
89 Clouds 11 1021 71 10000 1.5 90 09:19 27.01.2020
90 Clouds 11 1021 71 10000 1.5 110 08:56 27.01.2020
91 Clouds 11 1021 76 10000 2.6 120 08:38 27.01.2020
92 Clouds 11 1021 76 10000 2.6 120 08:18 27.01.2020
93 Clouds 10 1021 76 10000 3.1 100 07:46 27.01.2020
94 Clouds 10 1021 76 10000 3.1 100 07:26 27.01.2020
95 Clouds 10 1021 71 10000 3.1 110 06:38 27.01.2020
96 Clouds 10 1021 71 10000 1.5 90 05:45 27.01.2020
97 Clouds 10 1022 76 10000 2.1 80 04:37 27.01.2020
98 Clouds 9 1022 81 10000 1 0 03:35 27.01.2020
99 Clouds 9 1023 81 10000 2.1 110 01:55 27.01.2020
100 Clouds 9 1023 81 10000 2.1 120 01:27 27.01.2020
101 Clouds 9 1023 76 10000 2.1 140 00:41 27.01.2020
102 Clouds 9 1024 76 10000 2.6 140 00:21 27.01.2020
103 Clouds 9 1024 66 10000 3.1 170 23:44 26.01.2020
104 Clouds 10 1024 71 10000 3.6 180 23:26 26.01.2020
105 Clouds 10 1024 81 10000 1 0 22:59 26.01.2020
106 Clouds 10 1024 81 10000 1 80 22:38 26.01.2020
107 Clouds 10 1024 81 10000 1 80 22:20 26.01.2020
108 Clouds 10 1025 81 10000 1.5 150 21:58 26.01.2020
109 Clouds 10 1025 76 10000 1.5 120 21:39 26.01.2020
110 Clouds 10 1025 76 10000 1.5 120 21:21 26.01.2020
111 Clouds 10 1025 76 10000 1.5 120 21:21 26.01.2020
112 Clouds 10 1025 76 10000 1.5 170 20:58 26.01.2020
113 Clouds 10 1025 76 10000 2.1 190 20:38 26.01.2020
114 Clouds 10 1025 76 10000 1.5 170 20:38 26.01.2020
115 Clouds 10 1025 76 10000 1.5 170 20:38 26.01.2020
116 Clouds 10 1025 76 10000 2.1 190 20:19 26.01.2020
117 Clouds 9 1025 81 10000 1.76 184 19:58 26.01.2020
118 Clouds 9 1025 81 10000 1.76 184 19:38 26.01.2020
119 Clouds 9 1025 81 10000 1.76 184 19:38 26.01.2020
120 Clouds 10 1025 76 10000 0.5 0 19:20 26.01.2020
121 Clouds 10 1025 76 10000 1.76 184 18:56 26.01.2020
122 Clouds 11 1025 76 10000 1.5 190 18:38 26.01.2020
123 Clouds 10 1025 76 10000 1.5 190 18:20 26.01.2020
124 Clouds 11 1025 81 10000 2.1 180 17:55 26.01.2020
125 Clouds 11 1025 76 10000 2.6 170 17:36 26.01.2020
126 Clouds 11 1025 76 10000 2.6 170 17:18 26.01.2020
127 Clouds 11 1025 81 10000 2.1 210 16:55 26.01.2020
128 Clouds 11 1025 81 10000 2.1 210 16:55 26.01.2020
129 Clouds 12 1025 76 10000 2.1 200 16:37 26.01.2020
130 Clouds 12 1025 76 10000 2.1 200 16:18 26.01.2020
131 Clouds 13 1031 75 0 2.74 238 15:43 26.01.2020
132 Clouds 14 1031 73 0 2.74 238 15:21 26.01.2020
133 Clouds 14 1032 72 0 2.74 238 14:56 26.01.2020
134 Clouds 14 1032 71 0 2.74 238 14:38 26.01.2020
135 Clouds 14 1031 71 0 4.56 242 14:18 26.01.2020
136 Clouds 14 1031 70 0 3.45 230 13:39 26.01.2020
137 Clouds 14 1031 70 0 3.45 230 13:18 26.01.2020
138 Clouds 14 1032 69 0 3.45 230 12:54 26.01.2020
139 Clouds 15 1032 70 0 3.45 230 12:36 26.01.2020
140 Clouds 14 1032 70 0 3.45 230 12:18 26.01.2020
141 Clouds 14 1032 71 0 3.45 230 11:56 26.01.2020
142 Clouds 14 1032 71 0 3.45 230 11:36 26.01.2020
143 Clouds 12 1026 76 10000 5.7 190 11:18 26.01.2020
144 Clouds 12 1026 76 10000 5.7 190 10:39 26.01.2020
145 Clouds 12 1026 76 10000 5.7 190 10:21 26.01.2020
146 Clouds 12 1026 71 10000 5.7 210 09:59 26.01.2020
147 Clouds 11 1026 76 10000 5.7 210 09:41 26.01.2020
148 Clouds 11 1026 76 10000 5.7 210 09:22 26.01.2020
149 Clouds 10 1026 76 10000 5.1 210 08:45 26.01.2020
150 Clouds 9 1026 76 10000 5.1 210 08:24 26.01.2020
151 Clouds 9 1026 76 10000 3.6 240 07:59 26.01.2020
152 Clouds 9 1026 76 10000 3.6 230 07:41 26.01.2020
153 Clouds 8 1026 76 10000 3.6 230 07:22 26.01.2020
154 Clouds 8 1026 71 10000 4.1 230 06:32 26.01.2020
155 Clouds 8 1025 81 10000 4.1 210 05:35 26.01.2020
156 Clouds 8 1025 76 10000 4.6 210 04:52 26.01.2020
157 Clouds 8 1025 71 10000 6.2 200 02:59 26.01.2020
158 Clouds 8 1025 71 10000 6.2 200 02:59 26.01.2020
159 Clouds 8 1025 70 10000 6.7 200 01:59 26.01.2020
160 Clouds 8 1025 66 10000 7.7 190 01:38 26.01.2020
161 Clouds 8 1025 66 10000 7.7 190 01:19 26.01.2020
162 Clouds 8 1026 70 10000 6.2 190 00:39 26.01.2020
163 Clouds 8 1026 81 10000 5.1 190 00:20 26.01.2020
164 Clouds 8 1026 81 10000 5.1 190 00:20 26.01.2020
165 Clouds 8 1026 81 10000 5.1 190 00:20 26.01.2020
166 Clouds 8 1033 88 0 3.92 204 23:37 25.01.2020
167 Clouds 7 1033 89 0 3.69 217 23:19 25.01.2020
168 Clouds 8 1033 88 0 3.69 217 22:43 25.01.2020
169 Clouds 7 1033 87 0 3.69 217 22:43 25.01.2020
170 Clouds 7 1033 86 0 3.69 217 22:20 25.01.2020
171 Clouds 7 1033 84 0 3.69 217 21:57 25.01.2020
172 Clouds 8 1033 84 0 3.69 217 21:39 25.01.2020
173 Clouds 8 1033 83 0 3.69 217 21:21 25.01.2020
174 Clouds 8 1027 69 0 3.69 217 20:45 25.01.2020
175 Clear 8 1033 83 0 3.22 237 20:26 25.01.2020
176 Clear 8 1033 83 0 3.22 237 20:26 25.01.2020
177 Clear 8 1026 64 0 3.22 237 19:57 25.01.2020
178 Clear 8 1033 81 0 3.22 237 19:38 25.01.2020
179 Clear 9 1033 81 0 3.22 237 19:19 25.01.2020
180 Clear 9 1033 83 0 3.04 236 18:55 25.01.2020
181 Clear 9 1033 82 0 3.22 237 18:37 25.01.2020
182 Clear 9 1033 81 0 3.22 237 18:18 25.01.2020
183 Clear 9 1033 81 0 3.22 237 18:18 25.01.2020
184 Clear 9 1032 80 0 3.22 237 17:39 25.01.2020
185 Clear 9 1032 79 0 4.85 248 17:19 25.01.2020
186 Clear 9 1032 79 0 4.85 248 16:56 25.01.2020
187 Clear 10 1032 78 0 4.85 248 16:37 25.01.2020
188 Clear 10 1032 77 0 4.85 248 16:18 25.01.2020
189 Clear 11 1032 75 0 4.85 248 15:42 25.01.2020
190 Clear 11 1032 73 0 4.85 248 15:23 25.01.2020
191 Clear 11 1032 71 0 4.85 248 14:47 25.01.2020
192 Clear 12 1032 69 0 6.27 233 14:20 25.01.2020
193 Clear 12 1032 67 0 6.27 233 13:57 25.01.2020
194 Clear 12 1032 67 0 6.27 233 13:39 25.01.2020
195 Clear 12 1032 66 0 6 232 13:20 25.01.2020
196 Clear 11 1027 47 10000 6.2 200 12:43 25.01.2020
197 Clear 11 1027 47 10000 6.2 200 12:21 25.01.2020
198 Clear 10 1027 47 10000 6.7 200 11:45 25.01.2020
199 Clear 10 1027 47 10000 6.7 200 11:21 25.01.2020
200 Clear 10 1028 47 10000 6.7 210 10:57 25.01.2020
201 Clear 10 1028 57 10000 6.7 200 10:39 25.01.2020
202 Clear 9 1028 57 10000 6.7 200 10:20 25.01.2020
203 Clear 9 1028 47 10000 8.2 200 09:41 25.01.2020
204 Clear 8 1028 47 10000 7.7 200 09:22 25.01.2020
205 Clear 7 1028 61 10000 8.2 200 08:44 25.01.2020
206 Clear 6 1028 56 10000 7.7 200 08:21 25.01.2020
207 Clear 6 1027 56 10000 7.7 200 07:43 25.01.2020
208 Clear 5 1027 58 10000 6.7 200 06:51 25.01.2020
209 Clear 5 1027 60 10000 6.7 200 06:27 25.01.2020
210 Clear 5 1027 60 10000 7.2 200 05:45 25.01.2020
211 Clear 5 1027 58 10000 7.2 190 04:26 25.01.2020
212 Clear 5 1027 58 10000 6.7 200 03:50 25.01.2020
213 Clear 4 1028 60 10000 7.7 200 02:54 25.01.2020
214 Clear 4 1028 70 10000 6.7 200 01:59 25.01.2020
215 Clear 4 1028 70 10000 7.2 200 01:37 25.01.2020
216 Clear 4 1029 75 10000 5.7 200 00:43 25.01.2020
217 Clear 4 1029 75 10000 5.7 200 00:24 25.01.2020
218 Clear 4 1029 62 10000 4.6 200 23:57 24.01.2020
219 Clear 4 1030 62 10000 4.1 190 23:38 24.01.2020
220 Clear 4 1030 58 10000 4.1 190 23:20 24.01.2020
221 Clear 4 1030 60 10000 3.6 200 22:42 24.01.2020
222 Clear 4 1030 60 10000 3.6 200 22:24 24.01.2020
223 Clear 4 1031 65 10000 3.1 210 21:43 24.01.2020
224 Clear 3 1031 60 10000 2.6 190 21:20 24.01.2020
225 Clear 3 1031 60 10000 2.6 190 21:20 24.01.2020
226 Clear 4 1031 69 10000 0.5 0 20:56 24.01.2020
227 Clear 4 1031 69 10000 2.28 187 20:38 24.01.2020
228 Clear 4 1031 69 10000 1.39 183 20:19 24.01.2020
229 Clear 4 1031 69 10000 0.5 130 19:56 24.01.2020
230 Clear 4 1031 69 10000 1 270 19:38 24.01.2020
231 Clear 4 1031 69 10000 1 270 19:20 24.01.2020
232 Clear 5 1031 60 10000 1.5 290 18:43 24.01.2020
233 Clear 5 1031 60 10000 1.5 290 18:43 24.01.2020
234 Clear 5 1031 60 10000 1.5 290 18:23 24.01.2020
235 Clear 6 1031 52 10000 2.1 290 17:46 24.01.2020
236 Clear 6 1031 56 10000 2.1 270 17:23 24.01.2020
237 Clear 6 1031 56 10000 2.6 260 16:58 24.01.2020
238 Clear 7 1031 52 10000 3.1 240 16:39 24.01.2020
239 Clear 7 1032 48 10000 3.6 240 16:20 24.01.2020
240 Clear 8 1032 48 10000 3.6 240 15:43 24.01.2020
241 Clear 8 1032 45 10000 3.1 210 15:22 24.01.2020
242 Clear 8 1032 45 10000 3.1 210 15:22 24.01.2020
243 Clear 8 1032 42 10000 3.1 170 14:56 24.01.2020
244 Clouds 8 1032 49 10000 4.1 180 14:38 24.01.2020
245 Clouds 8 1032 49 10000 4.1 180 14:19 24.01.2020
246 Clouds 8 1032 45 10000 4.1 180 13:42 24.01.2020
247 Clouds 8 1033 52 10000 4.6 170 13:22 24.01.2020
248 Clouds 8 1033 52 10000 4.6 170 13:22 24.01.2020
249 Clouds 8 1033 49 10000 4.1 140 12:44 24.01.2020
250 Clouds 8 1033 49 10000 4.1 140 12:44 24.01.2020
251 Clouds 7 1033 49 10000 4.1 140 12:21 24.01.2020
252 Clouds 8 1034 49 10000 4.1 130 11:45 24.01.2020
253 Clouds 8 1034 45 10000 1 0 11:19 24.01.2020
254 Clouds 7 1034 52 10000 1 0 10:58 24.01.2020
255 Clear 7 1034 52 10000 2.6 350 10:40 24.01.2020
256 Clear 7 1034 52 10000 2.6 350 10:19 24.01.2020
257 Clear 7 1034 52 10000 2.6 350 10:19 24.01.2020
258 Clear 7 1034 65 10000 4.1 350 09:42 24.01.2020
259 Clear 6 1034 65 10000 4.1 350 09:23 24.01.2020
260 Clear 5 1034 51 10000 4.6 340 08:41 24.01.2020
261 Clouds 5 1034 57 10000 4.6 340 08:21 24.01.2020
262 Clouds 4 1034 57 10000 4.1 340 08:00 24.01.2020
263 Clouds 4 1034 57 10000 4.1 340 07:41 24.01.2020
264 Clouds 3 1034 80 10000 3.6 330 07:18 24.01.2020
265 Clouds 3 1033 74 10000 4.6 340 06:42 24.01.2020
266 Clouds 3 1033 69 10000 4.1 330 06:18 24.01.2020
267 Clouds 4 1032 64 10000 2.6 330 05:20 24.01.2020
268 Clouds 4 1032 69 10000 4.1 350 02:56 24.01.2020
269 Clouds 5 1032 74 10000 3.6 350 02:38 24.01.2020
270 Clouds 5 1032 74 10000 3.6 350 02:18 24.01.2020
271 Clouds 5 1033 74 10000 3.6 340 01:37 24.01.2020
272 Clouds 5 1033 69 10000 3.6 310 00:40 24.01.2020
273 Rain 6 1032 62 10000 2.85 28 00:18 24.01.2020
274 Clouds 6 1032 60 10000 2.1 300 23:41 23.01.2020
275 Clouds 6 1033 56 10000 3.6 300 23:21 23.01.2020
276 Clouds 6 1032 60 10000 3.1 310 22:58 23.01.2020
277 Clouds 6 1032 52 10000 2.6 30 22:36 23.01.2020
278 Clouds 6 1032 52 10000 2.6 30 22:18 23.01.2020
279 Clouds 6 1032 52 10000 2.6 40 21:55 23.01.2020
280 Clouds 7 1032 52 10000 3.6 40 21:37 23.01.2020
281 Clouds 6 1032 56 10000 2.6 50 21:18 23.01.2020
282 Clouds 6 1032 60 10000 3.1 20 20:41 23.01.2020
283 Clouds 6 1032 60 10000 3.1 20 20:22 23.01.2020
284 Clouds 6 1032 60 10000 3.1 10 19:57 23.01.2020
285 Clouds 6 1032 60 10000 3.1 10 19:39 23.01.2020
286 Clouds 6 1032 48 10000 4.1 20 19:20 23.01.2020
287 Clouds 6 1031 45 10000 5.1 10 18:56 23.01.2020
288 Clouds 6 1031 45 10000 6.2 10 18:37 23.01.2020
289 Clouds 6 1031 45 10000 6.2 10 18:19 23.01.2020
290 Clouds 6 1031 45 10000 6.7 10 17:44 23.01.2020
291 Clouds 6 1031 45 10000 6.7 10 17:21 23.01.2020
292 Clouds 6 1031 41 10000 7.2 20 16:58 23.01.2020
293 Snow 6 1030 56 10000 5.7 10 16:38 23.01.2020
294 Snow 6 1030 56 10000 5.7 10 16:19 23.01.2020
295 Snow 7 1029 48 10000 6.2 360 15:57 23.01.2020
296 Clouds 7 1030 45 10000 9.8 360 15:38 23.01.2020
297 Clouds 7 1030 45 10000 9.8 360 15:19 23.01.2020
298 Clouds 7 1029 48 10000 9.3 360 14:57 23.01.2020
299 Clouds 7 1029 48 10000 10.3 360 14:39 23.01.2020
300 Clouds 7 1029 48 10000 10.3 360 14:21 23.01.2020
301 Rain 7 1027 60 10000 7.7 20 13:45 23.01.2020
302 Rain 6 1027 60 10000 7.7 20 13:21 23.01.2020
303 Clouds 7 1028 48 10000 12.3 350 12:56 23.01.2020
304 Clouds 7 1028 52 10000 10.8 350 12:38 23.01.2020
305 Clouds 7 1028 52 10000 10.8 350 12:20 23.01.2020
306 Clouds 7 1028 52 10000 9.8 360 11:43 23.01.2020
307 Clouds 7 1028 52 10000 9.8 360 11:24 23.01.2020
308 Clouds 7 1028 52 10000 8.7 360 10:58 23.01.2020
309 Clouds 7 1028 52 10000 8.7 360 10:40 23.01.2020
310 Clouds 7 1028 52 10000 8.7 360 10:19 23.01.2020
311 Clouds 7 1028 63 10000 7.7 350 09:41 23.01.2020
312 Clouds 7 1027 63 10000 7.7 350 09:22 23.01.2020
313 Clouds 7 1026 65 10000 8.2 360 08:56 23.01.2020
314 Clouds 7 1026 65 10000 7.2 360 08:38 23.01.2020
315 Clouds 7 1026 65 10000 7.2 360 08:19 23.01.2020
316 Clouds 7 1024 70 10000 8.2 350 07:39 23.01.2020
317 Clouds 7 1024 70 10000 8.2 350 07:18 23.01.2020
318 Clouds 7 1023 70 10000 8.2 360 06:44 23.01.2020
319 Clouds 7 1023 75 10000 5.1 340 06:18 23.01.2020
320 Clouds 7 1021 81 10000 6.7 260 04:25 23.01.2020
321 Clouds 7 1020 75 10000 7.2 240 03:36 23.01.2020
322 Clouds 6 1021 70 10000 7.2 230 01:55 23.01.2020
323 Clouds 6 1021 75 10000 8.2 240 00:44 23.01.2020
324 Clouds 6 1021 75 10000 7.7 230 00:24 23.01.2020
325 Clouds 6 1022 81 10000 6.7 230 23:46 22.01.2020
326 Clouds 6 1022 75 10000 6.7 230 23:28 22.01.2020
327 Clouds 6 1023 75 10000 6.7 230 22:43 22.01.2020
328 Clouds 6 1023 75 10000 6.7 230 22:25 22.01.2020
329 Clouds 6 1023 75 10000 7.2 220 21:59 22.01.2020
330 Clouds 6 1023 75 10000 6.2 220 21:38 22.01.2020
331 Clouds 6 1023 75 10000 6.2 220 21:19 22.01.2020
332 Clouds 6 1024 75 10000 5.7 220 20:42 22.01.2020
333 Clouds 6 1024 75 10000 5.7 220 20:42 22.01.2020
334 Clouds 6 1024 75 10000 5.7 220 20:23 22.01.2020
335 Clouds 6 1024 81 10000 5.1 220 19:59 22.01.2020
336 Clouds 5 1024 81 10000 5.7 220 19:41 22.01.2020
337 Clouds 5 1024 81 10000 5.7 220 19:21 22.01.2020
338 Clouds 5 1025 81 10000 5.1 220 18:59 22.01.2020
339 Clouds 5 1025 81 10000 5.1 220 18:40 22.01.2020
340 Clouds 5 1025 81 10000 5.1 220 18:21 22.01.2020
341 Clouds 5 1025 75 10000 5.1 220 17:57 22.01.2020
342 Clouds 6 1026 70 10000 4.1 220 17:39 22.01.2020
343 Clouds 6 1026 70 10000 4.1 220 17:20 22.01.2020
344 Clouds 5 1026 75 10000 3.1 220 16:55 22.01.2020
345 Clouds 5 1026 75 10000 3.1 220 16:55 22.01.2020
346 Clouds 6 1027 70 10000 4.1 260 16:37 22.01.2020
347 Clouds 6 1027 70 10000 4.1 260 16:18 22.01.2020
348 Clouds 7 1027 70 10000 5.1 250 15:41 22.01.2020
349 Clouds 7 1027 70 10000 5.1 250 15:23 22.01.2020
350 Clouds 7 1027 70 10000 5.1 240 14:58 22.01.2020
351 Clouds 8 1028 70 10000 5.1 250 14:37 22.01.2020
352 Clear 7 1028 70 10000 5.1 250 14:19 22.01.2020
353 Clear 8 1028 65 10000 4.6 240 13:56 22.01.2020
354 Clear 8 1028 65 10000 4.6 240 13:56 22.01.2020
355 Clear 8 1028 65 10000 4.6 240 13:56 22.01.2020
356 Clear 8 1029 65 10000 4.6 230 13:37 22.01.2020
357 Clear 8 1029 65 10000 4.6 230 13:19 22.01.2020
358 Clear 7 1029 70 10000 4.1 230 12:56 22.01.2020
359 Clear 7 1030 70 10000 4.6 230 12:38 22.01.2020
360 Clear 7 1030 70 10000 4.6 230 12:18 22.01.2020
361 Clear 7 1030 63 10000 4.6 220 11:56 22.01.2020
362 Clear 7 1031 63 10000 4.1 230 11:38 22.01.2020
363 Clear 6 1031 65 10000 4.1 230 11:19 22.01.2020
364 Clear 6 1032 65 10000 4.1 230 10:44 22.01.2020
365 Clear 6 1032 65 10000 3.6 240 10:21 22.01.2020
366 Clear 5 1033 65 10000 2.1 240 09:45 22.01.2020
367 Clear 5 1033 65 10000 2.1 240 09:26 22.01.2020
368 Clear 4 1033 64 10000 1.5 360 08:59 22.01.2020
369 Clear 3 1033 80 10000 1.5 340 08:40 22.01.2020
370 Clear 3 1033 80 10000 1.5 340 08:21 22.01.2020
371 Clear 2 1033 80 10000 2.1 360 07:59 22.01.2020
372 Clear 1 1033 80 10000 2.1 360 07:40 22.01.2020
373 Clear 0 1033 86 10000 2.6 330 07:21 22.01.2020
374 Clear 0 1033 86 10000 3.1 350 06:31 22.01.2020
375 Clear 0 1033 86 10000 2.6 360 05:42 22.01.2020
376 Clear 0 1034 86 10000 3.6 340 04:23 22.01.2020
377 Clear 1 1034 86 10000 3.1 340 03:26 22.01.2020
378 Clear 1 1034 71 10000 3.1 340 02:32 22.01.2020
379 Clouds 2 1035 80 10000 3.1 320 00:46 22.01.2020
380 Clouds 2 1035 80 10000 2.6 320 00:27 22.01.2020
381 Clouds 2 1036 80 10000 2.6 350 23:55 21.01.2020
382 Clouds 2 1036 80 10000 3.1 360 23:36 21.01.2020
383 Clouds 3 1036 86 10000 3.6 340 23:18 21.01.2020
384 Clouds 3 1036 86 10000 3.6 340 22:39 21.01.2020
385 Clouds 3 1036 80 10000 3.6 330 22:20 21.01.2020
386 Clouds 3 1036 80 10000 3.6 330 22:20 21.01.2020
387 Clouds 4 1037 74 10000 4.1 320 21:56 21.01.2020
388 Clouds 4 1037 69 10000 2.6 320 21:38 21.01.2020
389 Clouds 4 1037 69 10000 2.1 320 21:19 21.01.2020
390 Clouds 4 1037 69 10000 2.1 320 20:56 21.01.2020
391 Clouds 4 1037 69 10000 2.1 320 20:37 21.01.2020
392 Clouds 4 1037 69 10000 2.1 320 20:18 21.01.2020
393 Clouds 4 1037 64 10000 3.1 350 19:56 21.01.2020
394 Clouds 4 1037 64 10000 3.6 350 19:37 21.01.2020
395 Clouds 4 1037 64 10000 3.6 350 19:37 21.01.2020
396 Clouds 5 1037 64 10000 3.6 350 19:19 21.01.2020
397 Clouds 5 1038 64 10000 3.1 350 18:55 21.01.2020
398 Clouds 5 1038 64 10000 5.1 350 18:36 21.01.2020
399 Clouds 5 1038 64 10000 5.1 350 18:18 21.01.2020
400 Clouds 5 1038 69 10000 3.6 350 17:43 21.01.2020
401 Clouds 5 1038 69 10000 3.6 350 17:20 21.01.2020
402 Clouds 5 1038 69 10000 3.1 330 16:58 21.01.2020
403 Clouds 5 1038 64 10000 3.6 340 16:37 21.01.2020
404 Clouds 5 1038 64 10000 3.6 340 16:18 21.01.2020
405 Clouds 5 1038 69 10000 5.7 350 15:41 21.01.2020
406 Clouds 5 1038 69 10000 5.7 350 15:21 21.01.2020
407 Clouds 5 1038 60 10000 6.7 350 14:58 21.01.2020
408 Clouds 5 1038 60 10000 6.2 340 14:37 21.01.2020
409 Clouds 5 1038 60 10000 6.2 340 14:19 21.01.2020
410 Clouds 5 1039 64 10000 6.2 340 13:39 21.01.2020
411 Clouds 5 1039 64 10000 6.2 340 13:19 21.01.2020
412 Clouds 4 1039 69 10000 5.1 330 12:43 21.01.2020
413 Clouds 4 1039 69 10000 5.1 330 12:25 21.01.2020
414 Clouds 4 1039 69 10000 4.6 330 11:57 21.01.2020
415 Clouds 4 1039 69 10000 4.6 330 11:38 21.01.2020
416 Clouds 4 1039 69 10000 4.6 330 11:20 21.01.2020
417 Clouds 4 1040 64 10000 4.6 340 10:44 21.01.2020
418 Clouds 4 1040 69 10000 6.2 340 10:24 21.01.2020
419 Clouds 4 1040 69 10000 6.2 340 09:59 21.01.2020
420 Clouds 4 1040 69 10000 6.2 340 09:41 21.01.2020
421 Clouds 4 1040 69 10000 6.7 350 09:22 21.01.2020
422 Clouds 4 1040 74 10000 5.7 330 08:48 21.01.2020
423 Clouds 4 1040 74 10000 4.6 340 08:29 21.01.2020
424 Rain 4 1039 87 10000 4.1 330 07:57 21.01.2020
425 Clouds 4 1040 69 10000 6.2 340 07:38 21.01.2020
426 Clouds 4 1040 69 10000 6.2 340 07:20 21.01.2020
427 Clouds 4 1040 69 10000 6.7 340 06:45 21.01.2020
428 Clouds 4 1040 69 10000 7.2 350 06:23 21.01.2020
429 Clouds 4 1040 69 10000 8.2 350 05:41 21.01.2020
430 Clouds 4 1040 64 10000 6.2 350 04:39 21.01.2020
431 Clouds 4 1040 64 10000 6.2 350 02:55 21.01.2020
432 Clouds 4 1040 64 10000 7.2 350 01:47 21.01.2020
433 Clouds 4 1040 64 10000 6.2 20 00:54 21.01.2020
434 Clouds 4 1040 69 10000 8.7 350 00:32 21.01.2020
435 Clouds 4 1040 64 10000 8.2 350 23:57 20.01.2020
436 Clouds 4 1040 69 10000 8.7 340 23:37 20.01.2020
437 Clouds 4 1040 69 10000 8.7 340 23:18 20.01.2020
438 Clouds 4 1041 69 10000 6.2 360 22:56 20.01.2020
439 Clouds 4 1040 73 10000 6.2 350 22:37 20.01.2020
440 Clouds 4 1040 73 10000 6.2 350 22:18 20.01.2020
441 Clouds 4 1040 73 10000 9.8 340 21:57 20.01.2020
442 Clouds 4 1040 74 10000 7.2 350 21:36 20.01.2020
443 Clouds 4 1040 74 10000 7.2 350 21:18 20.01.2020
444 Rain 4 1040 73 10000 10.3 10 20:55 20.01.2020
445 Clouds 4 1039 64 10000 11.3 340 20:36 20.01.2020
446 Clouds 4 1039 64 10000 11.3 340 20:18 20.01.2020
447 Clouds 4 1040 64 10000 10.8 360 19:56 20.01.2020
448 Clouds 4 1039 69 10000 10.3 350 19:37 20.01.2020
449 Clouds 4 1039 69 10000 10.3 350 19:18 20.01.2020
450 Clouds 4 1039 69 10000 9.3 360 18:42 20.01.2020
451 Clouds 4 1038 69 10000 9.3 350 18:21 20.01.2020
452 Clouds 5 1038 73 10000 9.8 350 17:39 20.01.2020
453 Clouds 5 1038 76 10000 9.8 350 17:19 20.01.2020
454 Clouds 5 1038 76 10000 11.3 350 16:55 20.01.2020
455 Clouds 5 1037 76 10000 11.3 350 16:36 20.01.2020
456 Clouds 5 1037 76 10000 11.3 350 16:18 20.01.2020
457 Clouds 6 1037 75 10000 11.8 360 15:41 20.01.2020
458 Clouds 6 1037 75 10000 11.8 360 15:22 20.01.2020
459 Clouds 6 1037 80 10000 9.8 350 14:59 20.01.2020
460 Rain 6 1037 86 8000 10.3 350 14:40 20.01.2020
461 Rain 6 1037 86 8000 10.3 350 14:21 20.01.2020
462 Rain 6 1037 93 8000 8.7 360 13:57 20.01.2020
463 Clouds 5 1036 80 10000 13.9 360 13:38 20.01.2020
464 Clouds 5 1036 80 10000 13.9 360 13:20 20.01.2020
465 Rain 5 1036 86 10000 9.8 350 12:42 20.01.2020
466 Rain 6 1035 81 10000 10.8 340 12:23 20.01.2020
467 Rain 6 1035 75 10000 9.8 360 11:56 20.01.2020
468 Clouds 6 1035 65 10000 9.3 360 11:37 20.01.2020
469 Clouds 6 1035 70 10000 7.7 10 11:18 20.01.2020
470 Clouds 6 1035 70 10000 7.7 10 10:46 20.01.2020
471 Clouds 7 1035 70 10000 8.7 10 10:20 20.01.2020
472 Rain 6 1034 81 8000 7.7 20 09:42 20.01.2020
473 Rain 6 1034 81 8000 7.7 20 09:24 20.01.2020
474 Rain 6 1033 75 9000 8.2 360 08:56 20.01.2020
475 Rain 6 1032 81 10000 7.2 20 08:34 20.01.2020
476 Rain 6 1033 81 10000 11.3 20 07:59 20.01.2020
477 Rain 6 1032 81 10000 6.2 360 07:41 20.01.2020
478 Rain 6 1032 81 10000 6.2 360 07:21 20.01.2020
479 Rain 6 1032 86 10000 7.2 10 06:44 20.01.2020
480 Rain 6 1031 86 10000 6.2 10 06:22 20.01.2020
481 Rain 6 1029 81 10000 4.6 360 05:38 20.01.2020
482 Rain 6 1029 81 10000 4.6 360 05:19 20.01.2020
483 Clouds 6 1030 86 10000 5.1 320 04:23 20.01.2020
484 Rain 5 1029 86 10000 3.1 310 01:59 20.01.2020
485 Rain 6 1029 86 10000 2.6 340 01:40 20.01.2020
486 Rain 6 1029 86 10000 2.6 340 01:18 20.01.2020
487 Rain 6 1029 86 10000 2.6 310 00:42 20.01.2020
488 Rain 5 1029 93 10000 2.1 360 00:20 20.01.2020
489 Rain 5 1027 86 10000 4.1 360 23:38 19.01.2020
490 Rain 5 1027 86 10000 4.1 360 23:19 19.01.2020
491 Clouds 6 1028 86 10000 2.6 320 22:56 19.01.2020
492 Clouds 6 1028 80 10000 2.1 360 22:37 19.01.2020
493 Clouds 6 1028 80 10000 2.1 360 22:19 19.01.2020
494 Rain 6 1027 93 10000 2.6 40 21:56 19.01.2020
495 Clouds 6 1027 86 10000 4.1 350 21:38 19.01.2020
496 Clouds 6 1027 86 10000 4.1 350 21:38 19.01.2020
497 Clouds 6 1027 86 10000 4.1 350 21:19 19.01.2020
498 Rain 6 1027 80 10000 6.2 350 20:56 19.01.2020
499 Clouds 5 1027 86 10000 4.1 340 20:38 19.01.2020
500 Clouds 5 1027 86 10000 4.1 340 20:38 19.01.2020
501 Clouds 5 1027 86 10000 4.1 340 20:19 19.01.2020
502 Clouds 5 1027 80 10000 4.1 350 19:55 19.01.2020
503 Clouds 6 1026 75 10000 5.1 340 19:37 19.01.2020
504 Clouds 6 1026 75 10000 5.1 340 19:37 19.01.2020
505 Clouds 6 1026 75 10000 5.1 340 19:19 19.01.2020
506 Clouds 6 1026 75 10000 5.1 340 19:19 19.01.2020
507 Clouds 6 1026 75 10000 5.1 340 19:19 19.01.2020
508 Clouds 6 1026 70 10000 4.1 340 18:55 19.01.2020
509 Clouds 6 1026 75 10000 4.6 350 18:37 19.01.2020
510 Clouds 6 1026 75 10000 4.6 350 18:37 19.01.2020
511 Clouds 6 1025 70 10000 6.2 330 18:19 19.01.2020
512 Clouds 6 1025 70 10000 6.2 330 17:57 19.01.2020
513 Clouds 6 1025 70 10000 6.2 330 17:57 19.01.2020
514 Clouds 6 1025 69 10000 4.1 350 17:38 19.01.2020
515 Clouds 6 1025 72 10000 4.1 350 17:20 19.01.2020
516 Clouds 6 1024 70 10000 5.1 350 16:57 19.01.2020
517 Clouds 6 1024 65 10000 5.1 350 16:37 19.01.2020
518 Clouds 6 1024 65 10000 5.1 350 16:19 19.01.2020
519 Clouds 7 1024 72 10000 7.2 10 15:57 19.01.2020
520 Clouds 7 1024 72 10000 6.2 20 15:37 19.01.2020
521 Clouds 7 1024 72 10000 6.2 20 15:19 19.01.2020
522 Clouds 7 1023 65 10000 6.2 10 14:56 19.01.2020
523 Clouds 7 1023 70 10000 6.2 360 14:37 19.01.2020
524 Clouds 6 1023 70 10000 6.2 360 14:18 19.01.2020
525 Clouds 6 1023 70 10000 6.2 10 13:54 19.01.2020
526 Clouds 7 1023 65 10000 6.2 20 13:36 19.01.2020
527 Clouds 7 1023 65 10000 6.2 20 13:18 19.01.2020
528 Clouds 7 1023 65 10000 5.1 30 12:42 19.01.2020
529 Clouds 7 1023 70 10000 7.7 10 12:23 19.01.2020
530 Rain 7 1022 80 10000 5.1 50 11:57 19.01.2020
531 Clouds 7 1023 70 10000 5.7 50 11:39 19.01.2020
532 Clouds 7 1023 70 10000 5.7 50 11:19 19.01.2020
533 Clouds 7 1023 75 10000 4.1 90 10:55 19.01.2020
534 Clouds 7 1023 57 10000 6.7 50 10:37 19.01.2020
535 Clouds 7 1023 57 10000 6.7 50 10:18 19.01.2020
536 Clouds 7 1023 57 10000 4.1 50 09:41 19.01.2020
537 Clouds 7 1023 57 10000 4.1 50 09:23 19.01.2020
538 Clouds 6 1023 75 10000 2.1 70 08:57 19.01.2020
539 Clouds 6 1023 75 10000 5.7 30 08:38 19.01.2020
540 Clouds 6 1023 75 10000 5.7 30 08:20 19.01.2020
541 Clouds 6 1023 65 10000 5.1 40 07:40 19.01.2020
542 Clouds 6 1023 65 10000 4.6 30 07:21 19.01.2020
543 Clouds 6 1023 70 10000 5.1 40 06:44 19.01.2020
544 Clouds 6 1022 75 10000 3.6 360 04:41 19.01.2020
545 Clouds 6 1023 70 10000 4.6 10 02:37 19.01.2020
546 Clouds 6 1023 70 10000 4.6 10 02:19 19.01.2020
547 Clouds 6 1023 70 10000 3.6 30 01:24 19.01.2020
548 Clouds 6 1023 70 10000 3.1 70 00:45 19.01.2020
549 Clouds 6 1023 70 10000 4.1 30 00:27 19.01.2020
550 Clouds 6 1023 70 10000 4.1 30 23:55 18.01.2020
551 Rain 6 1023 75 10000 5.1 60 23:37 18.01.2020
552 Rain 6 1023 75 10000 5.1 60 23:18 18.01.2020
553 Rain 7 1024 75 10000 5.1 50 22:54 18.01.2020
554 Clouds 7 1023 52 10000 5.7 50 22:36 18.01.2020
555 Clouds 7 1023 52 10000 5.7 50 22:36 18.01.2020
556 Clouds 7 1024 64 10000 5.7 40 22:18 18.01.2020
557 Clouds 7 1024 64 10000 5.7 40 21:56 18.01.2020
558 Clouds 8 1024 61 10000 6.7 50 21:36 18.01.2020
559 Clouds 8 1024 61 10000 6.7 50 21:18 18.01.2020
560 Clouds 8 1024 65 10000 6.2 40 20:41 18.01.2020
561 Clouds 8 1024 65 10000 6.2 40 20:20 18.01.2020
562 Clouds 8 1024 52 10000 6.2 60 19:55 18.01.2020
563 Clouds 8 1024 66 10000 6.7 60 19:36 18.01.2020
564 Clouds 8 1024 66 10000 6.7 60 19:18 18.01.2020
565 Clouds 8 1024 66 10000 5.7 40 18:40 18.01.2020
566 Clouds 8 1024 66 10000 6.2 40 18:21 18.01.2020
567 Clouds 8 1024 61 10000 4.6 50 17:41 18.01.2020
568 Clouds 8 1024 61 10000 4.6 50 17:21 18.01.2020
569 Clouds 8 1024 61 10000 5.7 50 16:59 18.01.2020
570 Clouds 8 1024 61 10000 5.7 50 16:41 18.01.2020
571 Clouds 8 1025 65 10000 6.7 40 16:22 18.01.2020
572 Clouds 8 1025 65 10000 6.7 40 16:22 18.01.2020
573 Clouds 8 1024 75 10000 6.2 50 15:58 18.01.2020
574 Clouds 8 1024 75 10000 7.2 40 15:40 18.01.2020
575 Clouds 8 1024 75 10000 7.2 40 15:21 18.01.2020
576 Clouds 8 1024 81 10000 6.2 30 14:44 18.01.2020
577 Clouds 8 1024 81 10000 6.2 40 14:21 18.01.2020
578 Rain 9 1025 81 10000 6.7 30 13:59 18.01.2020
579 Clouds 9 1025 70 10000 7.7 60 13:41 18.01.2020
580 Rain 9 1025 70 10000 7.7 20 13:20 18.01.2020
581 Clouds 9 1025 66 10000 6.7 20 12:55 18.01.2020
582 Clouds 9 1025 61 10000 6.7 40 12:36 18.01.2020
583 Clouds 9 1025 61 10000 6.7 40 12:18 18.01.2020
584 Clouds 9 1025 61 10000 7.7 30 11:43 18.01.2020
585 Clouds 9 1026 61 10000 7.7 20 11:21 18.01.2020
586 Clouds 9 1026 65 10000 9.3 20 10:45 18.01.2020
587 Clouds 8 1026 65 10000 9.3 20 10:22 18.01.2020
588 Clouds 8 1026 70 10000 9.8 30 09:59 18.01.2020
589 Clouds 8 1026 70 10000 9.8 30 09:41 18.01.2020
590 Clouds 8 1026 65 10000 8.2 20 09:19 18.01.2020
591 Clouds 7 1026 70 10000 8.2 20 08:42 18.01.2020
592 Clouds 7 1026 75 10000 8.7 360 08:20 18.01.2020
593 Clouds 7 1026 70 10000 7.7 10 07:59 18.01.2020
594 Clouds 7 1026 70 10000 7.7 10 07:40 18.01.2020
595 Clouds 7 1027 70 10000 6.2 10 07:18 18.01.2020
596 Clouds 7 1026 75 10000 6.2 10 06:44 18.01.2020
597 Rain 7 1027 81 10000 6.2 30 05:52 18.01.2020
598 Clouds 7 1026 75 10000 5.1 20 04:25 18.01.2020
599 Clouds 7 1027 75 10000 6.7 10 02:49 18.01.2020
600 Clouds 7 1027 81 10000 6.2 10 01:40 18.01.2020
601 Clouds 7 1027 75 10000 6.7 10 00:39 18.01.2020
602 Clouds 7 1027 81 10000 5.7 20 00:20 18.01.2020
603 Clouds 7 1027 81 10000 6.7 20 23:58 17.01.2020
604 Clouds 7 1027 81 10000 6.7 20 23:39 17.01.2020
605 Rain 8 1027 81 10000 7.7 10 23:18 17.01.2020
606 Rain 8 1027 75 10000 6.2 10 22:42 17.01.2020
607 Rain 8 1027 75 10000 6.2 10 22:20 17.01.2020
608 Rain 8 1027 75 10000 6.2 10 22:20 17.01.2020
609 Clouds 7 1028 81 10000 5.7 360 21:56 17.01.2020
610 Clouds 7 1028 81 10000 6.7 10 21:38 17.01.2020
611 Clouds 7 1028 81 10000 6.7 10 21:19 17.01.2020
612 Clouds 8 1028 81 10000 6.7 10 20:43 17.01.2020
613 Clouds 8 1028 81 10000 6.2 20 20:21 17.01.2020
614 Clouds 7 1028 81 10000 6.2 20 19:58 17.01.2020
615 Clouds 8 1027 81 10000 7.2 10 19:39 17.01.2020
616 Clouds 7 1027 81 10000 7.2 10 19:20 17.01.2020
617 Clouds 8 1027 81 10000 7.2 20 18:58 17.01.2020
618 Rain 8 1027 87 10000 7.2 10 18:40 17.01.2020
619 Rain 7 1027 87 10000 7.2 10 18:21 17.01.2020
620 Rain 7 1027 87 10000 8.2 20 17:40 17.01.2020
621 Rain 7 1027 87 10000 8.2 20 17:22 17.01.2020
622 Rain 7 1027 87 10000 7.2 20 16:57 17.01.2020
623 Rain 8 1026 87 10000 8.2 20 16:39 17.01.2020
624 Rain 8 1026 87 10000 7.7 30 16:19 17.01.2020
625 Rain 8 1026 87 8000 8.2 20 15:45 17.01.2020
626 Rain 8 1026 87 8000 8.2 20 15:26 17.01.2020
627 Rain 8 1026 87 8000 7.2 10 14:46 17.01.2020
628 Rain 8 1026 81 8000 8.2 20 14:27 17.01.2020
629 Rain 8 1026 87 8000 7.7 20 13:58 17.01.2020
630 Rain 8 1026 87 8000 7.7 20 13:58 17.01.2020
631 Rain 8 1025 87 7000 7.2 10 13:38 17.01.2020
632 Rain 8 1025 87 7000 7.2 10 13:19 17.01.2020
633 Rain 9 1025 70 7000 8.7 20 12:44 17.01.2020
634 Clouds 9 1025 57 10000 8.2 10 12:22 17.01.2020
635 Clouds 9 1026 53 10000 8.2 30 11:40 17.01.2020
636 Clouds 9 1026 53 10000 8.2 30 11:19 17.01.2020
637 Clouds 9 1026 53 10000 8.2 20 10:44 17.01.2020
638 Clouds 9 1026 57 10000 7.2 20 10:23 17.01.2020
639 Clouds 9 1026 61 10000 8.2 30 09:58 17.01.2020
640 Rain 8 1027 81 7000 10.3 20 09:40 17.01.2020
641 Rain 8 1027 81 7000 10.3 20 09:20 17.01.2020
642 Clouds 8 1026 70 10000 5.1 10 08:45 17.01.2020
643 Clouds 8 1026 70 10000 7.7 30 08:25 17.01.2020
644 Clouds 8 1026 61 10000 8.2 20 07:55 17.01.2020
645 Clouds 8 1026 61 10000 8.2 10 07:32 17.01.2020
646 Clouds 8 1026 61 10000 8.2 10 07:32 17.01.2020
647 Clouds 7 1026 70 10000 4.6 30 06:59 17.01.2020
648 Clouds 8 1026 61 10000 7.7 20 06:41 17.01.2020
649 Clouds 8 1026 61 10000 7.2 20 05:57 17.01.2020
650 Rain 9 1025 58 0 4.92 359 03:39 17.01.2020
651 Rain 10 1025 58 0 3.58 352 02:55 17.01.2020
652 Clouds 9 1026 58 0 2.68 24 01:48 17.01.2020
653 Rain 9 1026 58 0 3.13 0 01:29 17.01.2020
654 Rain 9 1026 59 0 3.58 0 00:55 17.01.2020
655 Rain 9 1026 58 0 4.47 321 00:28 17.01.2020
656 Clouds 8 1026 65 10000 8.2 30 23:46 16.01.2020
657 Clouds 7 1026 65 10000 8.2 30 23:26 16.01.2020
658 Clouds 7 1026 61 10000 7.7 50 22:58 16.01.2020
659 Clouds 8 1026 61 10000 6.2 50 22:40 16.01.2020
660 Clouds 8 1026 61 10000 6.2 50 22:21 16.01.2020
661 Clouds 8 1026 61 10000 6.2 50 21:55 16.01.2020
662 Clouds 8 1026 61 10000 6.7 30 21:37 16.01.2020
663 Clouds 8 1026 61 10000 6.7 30 21:18 16.01.2020
664 Clouds 8 1026 61 10000 6.7 30 21:18 16.01.2020
665 Clouds 8 1026 61 10000 8.2 50 20:56 16.01.2020
666 Clouds 8 1026 65 10000 7.2 40 20:36 16.01.2020
667 Clouds 8 1026 65 10000 7.2 40 20:18 16.01.2020
668 Clouds 8 1026 65 10000 7.2 40 19:41 16.01.2020
669 Clouds 9 1026 57 10000 7.2 30 19:23 16.01.2020
670 Clouds 9 1026 61 10000 7.2 30 18:58 16.01.2020
671 Clouds 9 1025 75 10000 6.2 50 18:39 16.01.2020
672 Clouds 9 1025 75 10000 6.2 50 18:21 16.01.2020
673 Clouds 9 1026 66 10000 8.2 30 17:59 16.01.2020
674 Clouds 9 1025 66 10000 7.7 30 17:41 16.01.2020
675 Clouds 9 1025 66 10000 7.7 30 17:41 16.01.2020
676 Clouds 9 1025 66 10000 7.7 30 17:21 16.01.2020
677 Clouds 9 1025 66 10000 6.2 30 16:56 16.01.2020
678 Clouds 9 1025 66 10000 7.2 30 16:36 16.01.2020
679 Clouds 9 1025 66 10000 7.2 30 16:18 16.01.2020
680 Clouds 9 1025 70 10000 6.7 30 15:42 16.01.2020
681 Clouds 9 1025 70 10000 6.7 30 15:21 16.01.2020
682 Clouds 10 1026 70 10000 8.2 20 14:45 16.01.2020
683 Clouds 10 1026 70 10000 8.2 20 14:24 16.01.2020
684 Clouds 10 1026 70 10000 7.2 30 13:57 16.01.2020
685 Clouds 10 1026 66 10000 6.2 40 13:39 16.01.2020
686 Clouds 10 1026 66 10000 6.2 40 13:21 16.01.2020
687 Clouds 10 1026 66 10000 6.7 40 12:45 16.01.2020
688 Clouds 10 1026 71 10000 5.1 40 12:27 16.01.2020
689 Clouds 10 1026 66 10000 6.2 60 11:55 16.01.2020
690 Clouds 10 1027 71 10000 6.7 40 11:37 16.01.2020
691 Clouds 10 1027 71 10000 6.7 40 11:19 16.01.2020
692 Clouds 10 1027 71 10000 7.2 40 10:39 16.01.2020
693 Clouds 10 1027 71 10000 5.7 40 10:20 16.01.2020
694 Clouds 10 1027 66 10000 6.7 30 09:56 16.01.2020
695 Clouds 10 1028 61 10000 6.7 40 09:38 16.01.2020
696 Clouds 10 1028 61 10000 6.7 40 09:19 16.01.2020
697 Clouds 10 1028 61 10000 6.2 30 08:49 16.01.2020
698 Clouds 9 1028 57 10000 7.2 40 08:29 16.01.2020
699 Clouds 9 1028 66 10000 6.2 50 07:58 16.01.2020
700 Clouds 9 1028 76 10000 5.1 40 07:38 16.01.2020
701 Clouds 8 1028 76 10000 5.1 40 07:19 16.01.2020
702 Clouds 9 1028 76 10000 4.1 20 06:42 16.01.2020
703 Clouds 8 1028 70 10000 5.7 20 05:59 16.01.2020
704 Clouds 8 1028 70 10000 5.7 30 05:40 16.01.2020
705 Clouds 8 1028 66 10000 5.1 40 04:37 16.01.2020
706 Clouds 8 1028 66 10000 5.1 40 04:37 16.01.2020
707 Clouds 8 1028 65 10000 4.6 40 03:28 16.01.2020
708 Clouds 8 1029 65 10000 5.1 40 02:42 16.01.2020
709 Clouds 9 1029 61 10000 5.7 50 00:53 16.01.2020
710 Clouds 9 1029 61 10000 5.1 40 00:24 16.01.2020
711 Clouds 9 1029 61 10000 5.1 50 23:50 15.01.2020
712 Clouds 9 1030 61 10000 5.7 60 23:23 15.01.2020
713 Clouds 8 1030 61 10000 5.7 50 22:58 15.01.2020
714 Clouds 8 1030 66 10000 5.7 60 22:40 15.01.2020
715 Clouds 8 1030 66 10000 5.7 60 22:19 15.01.2020
716 Clouds 8 1030 66 10000 5.7 60 22:19 15.01.2020
717 Clouds 8 1030 66 10000 5.1 60 21:58 15.01.2020
718 Clouds 9 1030 76 10000 4.6 40 21:38 15.01.2020
719 Clouds 8 1030 76 10000 4.6 40 21:20 15.01.2020
720 Clouds 8 1030 81 10000 4.6 30 20:58 15.01.2020
721 Clouds 8 1030 75 10000 5.1 50 20:40 15.01.2020
722 Clouds 8 1030 75 10000 5.1 50 20:20 15.01.2020
723 Clouds 8 1030 81 10000 5.1 50 19:55 15.01.2020
724 Clouds 8 1030 81 10000 4.1 50 19:37 15.01.2020
725 Clouds 8 1030 81 10000 4.1 50 19:19 15.01.2020
726 Clouds 8 1030 81 10000 3.1 30 18:57 15.01.2020
727 Clouds 8 1030 81 10000 3.1 30 18:57 15.01.2020
728 Clouds 8 1030 81 10000 4.1 30 18:38 15.01.2020
729 Clouds 8 1030 81 10000 4.1 30 18:20 15.01.2020
730 Clouds 8 1030 75 10000 4.1 30 17:58 15.01.2020
731 Clouds 8 1030 75 10000 5.1 20 17:39 15.01.2020
732 Clouds 8 1030 75 10000 5.1 20 17:20 15.01.2020
733 Clouds 9 1029 66 10000 5.7 30 16:42 15.01.2020
734 Clouds 9 1029 66 10000 5.7 30 16:23 15.01.2020
735 Clouds 10 1029 61 10000 6.2 50 15:59 15.01.2020
736 Clouds 10 1029 61 10000 6.2 50 15:41 15.01.2020
737 Clouds 10 1029 61 10000 6.2 50 15:41 15.01.2020
738 Clouds 10 1029 61 10000 5.1 30 15:20 15.01.2020
739 Clouds 10 1029 66 10000 5.7 40 14:44 15.01.2020
740 Clouds 10 1029 61 10000 6.2 20 14:21 15.01.2020
741 Clouds 10 1029 61 10000 5.7 30 13:56 15.01.2020
742 Clouds 10 1029 66 10000 5.7 30 13:38 15.01.2020
743 Clouds 10 1029 66 10000 5.7 30 13:19 15.01.2020
744 Clouds 10 1029 66 10000 6.2 20 12:41 15.01.2020
745 Clouds 10 1029 71 10000 6.2 10 12:20 15.01.2020
746 Clouds 10 1029 71 10000 4.6 30 11:59 15.01.2020
747 Clouds 10 1030 66 10000 4.6 40 11:38 15.01.2020
748 Clouds 10 1030 66 10000 4.6 40 11:38 15.01.2020
749 Clouds 10 1030 66 10000 4.6 40 11:19 15.01.2020
750 Clouds 10 1030 61 10000 5.1 40 10:46 15.01.2020
751 Clouds 10 1030 62 10000 5.1 50 10:28 15.01.2020
752 Clouds 9 1030 66 10000 4.1 60 09:55 15.01.2020
753 Clear 8 1030 70 10000 3.6 70 09:37 15.01.2020
754 Clear 8 1030 70 10000 3.6 70 09:19 15.01.2020
755 Clear 8 1030 76 10000 3.1 50 08:41 15.01.2020
756 Clear 7 1030 81 10000 3.6 50 08:23 15.01.2020
757 Clouds 6 1030 87 8000 2.1 40 07:54 15.01.2020
758 Clouds 6 1030 87 8000 2.6 30 07:32 15.01.2020
759 Clear 6 1030 87 7000 2.1 40 06:48 15.01.2020
760 Clear 6 1029 87 10000 2.1 30 06:23 15.01.2020
761 Clouds 6 1029 81 10000 2.1 50 04:45 15.01.2020
762 Clouds 6 1029 81 10000 2.6 50 02:39 15.01.2020
763 Clouds 6 1029 81 10000 2.6 40 01:43 15.01.2020
764 Clouds 6 1029 87 10000 2.1 60 01:20 15.01.2020
765 Clouds 6 1029 81 10000 1.5 70 00:36 15.01.2020
766 Clouds 6 1029 81 10000 1.5 70 00:18 15.01.2020
767 Clouds 6 1029 81 10000 1.5 70 23:45 14.01.2020
768 Clouds 7 1029 81 10000 2.1 70 23:24 14.01.2020
769 Clouds 7 1028 87 10000 1 0 22:41 14.01.2020
770 Clouds 7 1028 87 10000 1 0 22:20 14.01.2020
771 Clouds 7 1028 81 10000 1 0 21:59 14.01.2020
772 Clouds 7 1028 81 10000 2.1 40 21:41 14.01.2020
773 Clouds 7 1028 81 10000 2.1 40 21:23 14.01.2020
774 Clouds 7 1028 75 10000 2.1 50 21:00 14.01.2020
775 Clouds 7 1028 75 10000 2.1 50 20:41 14.01.2020
776 Clouds 8 1027 75 10000 2.1 60 20:21 14.01.2020
777 Clouds 8 1027 75 10000 2.1 60 19:56 14.01.2020
778 Clouds 8 1027 75 10000 2.1 80 19:38 14.01.2020
779 Clouds 8 1027 75 10000 2.1 80 19:19 14.01.2020
780 Clouds 8 1027 75 10000 1.5 80 18:56 14.01.2020
781 Clouds 8 1027 75 10000 2.1 300 18:37 14.01.2020
782 Clouds 8 1027 75 10000 2.1 300 18:19 14.01.2020
783 Clouds 8 1027 81 10000 2.1 280 17:39 14.01.2020
784 Clouds 8 1027 81 10000 2.1 280 17:19 14.01.2020
785 Clouds 9 1026 75 10000 2.6 280 16:55 14.01.2020
786 Clouds 9 1026 70 10000 3.1 290 16:37 14.01.2020
787 Clouds 9 1026 70 10000 3.1 290 16:19 14.01.2020
788 Clouds 9 1026 66 10000 1.5 240 15:43 14.01.2020
789 Clouds 9 1026 66 10000 1.5 240 15:19 14.01.2020
790 Clouds 9 1026 66 10000 2.1 230 14:57 14.01.2020
791 Clouds 9 1026 66 10000 2.1 230 14:39 14.01.2020
792 Clear 9 1026 70 10000 2.6 240 14:18 14.01.2020
793 Clouds 10 1026 66 10000 2.1 210 13:42 14.01.2020
794 Clouds 10 1026 66 10000 2.1 210 13:19 14.01.2020
795 Clouds 10 1026 66 10000 1.5 170 12:43 14.01.2020
796 Clouds 9 1026 70 10000 2.6 140 12:25 14.01.2020
797 Clouds 10 1026 57 10000 2.6 110 11:59 14.01.2020
798 Clear 9 1026 66 10000 2.6 110 11:40 14.01.2020
799 Clear 9 1026 66 10000 2.6 110 11:40 14.01.2020
800 Clear 9 1026 66 10000 2.6 110 11:22 14.01.2020
801 Clear 9 1027 70 10000 1 0 10:56 14.01.2020
802 Clear 9 1027 76 10000 0.5 0 10:37 14.01.2020
803 Clear 8 1027 76 10000 0.5 0 10:19 14.01.2020
804 Clear 7 1027 81 10000 1.27 94 09:43 14.01.2020
805 Clear 7 1027 81 10000 1.27 94 09:43 14.01.2020
806 Clear 7 1027 81 10000 1.27 94 09:24 14.01.2020
807 Clear 6 1027 93 10000 1.5 330 08:59 14.01.2020
808 Clear 5 1026 93 10000 2.6 340 08:40 14.01.2020
809 Clear 5 1026 93 10000 2.6 340 08:21 14.01.2020
810 Clouds 4 1026 93 10000 3.1 350 07:51 14.01.2020
811 Mist 4 1026 93 5000 3.1 40 07:24 14.01.2020
812 Clear 4 1026 93 10000 1.5 360 06:43 14.01.2020
813 Clear 4 1026 84 10000 1.5 360 05:58 14.01.2020
814 Clear 3 1025 100 10000 2.6 340 04:50 14.01.2020
815 Clear 3 1025 84 10000 3.1 340 03:46 14.01.2020
816 Clear 3 1026 93 10000 3.1 340 02:33 14.01.2020
817 Clear 4 1025 86 10000 2.6 20 01:19 14.01.2020
818 Clear 4 1025 93 10000 2.6 10 00:47 14.01.2020
819 Clear 4 1025 93 10000 2.1 350 00:21 14.01.2020
820 Clear 4 1026 86 10000 2.1 30 23:44 13.01.2020
821 Clear 4 1026 86 10000 2.1 10 23:19 13.01.2020
822 Clear 5 1026 81 10000 2.6 40 22:57 13.01.2020
823 Clear 5 1026 86 10000 2.1 30 22:39 13.01.2020
824 Clear 5 1026 86 10000 2.1 30 22:19 13.01.2020
825 Clear 5 1026 75 10000 2.1 30 21:55 13.01.2020
826 Clear 5 1026 81 10000 2.1 30 21:36 13.01.2020
827 Clear 6 1026 81 10000 2.1 30 21:18 13.01.2020
828 Clear 5 1026 81 10000 2.6 30 20:55 13.01.2020
829 Clear 6 1026 86 10000 3.1 10 20:37 13.01.2020
830 Clear 6 1026 86 10000 3.1 10 20:37 13.01.2020
831 Clouds 6 1026 86 10000 3.1 10 20:19 13.01.2020
832 Clouds 6 1026 86 10000 3.1 10 20:19 13.01.2020
833 Clouds 7 1026 80 10000 2.6 10 19:41 13.01.2020
834 Clouds 7 1026 80 10000 3.6 360 19:21 13.01.2020
835 Clouds 7 1026 80 10000 3.6 360 18:58 13.01.2020
836 Clouds 7 1027 80 10000 4.1 350 18:38 13.01.2020
837 Clouds 7 1027 80 10000 4.1 350 18:19 13.01.2020
838 Clouds 7 1026 80 10000 4.1 350 17:58 13.01.2020
839 Clouds 7 1026 81 10000 4.1 350 17:39 13.01.2020
840 Clouds 7 1026 81 10000 4.1 350 17:20 13.01.2020
841 Clouds 9 1034 78 0 3.69 52 16:42 13.01.2020
842 Clouds 9 1034 78 0 3.69 52 16:23 13.01.2020
843 Clouds 9 1034 77 0 3.69 52 15:59 13.01.2020
844 Clouds 9 1034 77 0 3.69 52 15:41 13.01.2020
845 Clouds 9 1035 75 0 3.69 52 15:21 13.01.2020
846 Clouds 10 1035 74 0 3.69 52 14:54 13.01.2020
847 Clouds 10 1035 72 0 3.69 52 14:36 13.01.2020
848 Clouds 10 1035 72 0 3.81 46 14:18 13.01.2020
849 Clouds 10 1035 73 0 3.81 46 13:40 13.01.2020
850 Clouds 10 1035 73 0 3.58 49 13:22 13.01.2020
851 Clouds 10 1035 72 0 3.58 49 12:58 13.01.2020
852 Clouds 9 1027 61 10000 4.1 20 12:40 13.01.2020
853 Clouds 9 1027 61 10000 4.1 20 12:21 13.01.2020
854 Clouds 9 1028 57 10000 3.1 50 11:40 13.01.2020
855 Clouds 9 1028 57 10000 3.1 50 11:20 13.01.2020
856 Clouds 9 1028 57 10000 3.1 50 11:20 13.01.2020
857 Clouds 9 1028 57 10000 3.1 50 11:20 13.01.2020
858 Clouds 8 1028 66 10000 4.6 10 10:58 13.01.2020
859 Clouds 9 1028 66 10000 4.6 10 10:39 13.01.2020
860 Clouds 9 1029 66 10000 4.6 30 10:20 13.01.2020
861 Clouds 9 1029 66 10000 4.6 30 10:20 13.01.2020
862 Clouds 8 1029 70 10000 5.1 10 09:59 13.01.2020
863 Clouds 8 1029 70 10000 4.1 30 09:40 13.01.2020
864 Clouds 8 1029 70 10000 4.1 30 09:21 13.01.2020
865 Clouds 7 1029 75 10000 4.1 20 08:41 13.01.2020
866 Clouds 7 1029 75 10000 4.1 20 08:20 13.01.2020
867 Clouds 7 1029 75 10000 4.6 20 07:52 13.01.2020
868 Clouds 7 1029 75 10000 4.6 20 07:33 13.01.2020
869 Clouds 7 1029 75 10000 5.1 20 06:44 13.01.2020
870 Clouds 7 1029 75 10000 5.1 20 06:22 13.01.2020
871 Clouds 7 1029 75 10000 4.1 20 05:36 13.01.2020
872 Clouds 7 1029 75 10000 4.1 30 03:57 13.01.2020
873 Clouds 7 1029 75 10000 5.1 20 03:25 13.01.2020
874 Clouds 7 1029 81 10000 4.6 10 02:47 13.01.2020
875 Clouds 7 1029 81 10000 4.6 20 02:28 13.01.2020
876 Clouds 7 1029 81 10000 3.6 20 01:22 13.01.2020
877 Clouds 7 1029 81 10000 3.6 20 01:22 13.01.2020
878 Clouds 7 1029 87 10000 3.6 30 00:41 13.01.2020
879 Clouds 7 1029 87 10000 3.6 10 00:23 13.01.2020
880 Clouds 7 1029 87 10000 4.1 10 23:54 12.01.2020
881 Drizzle 7 1028 93 10000 4.6 20 23:36 12.01.2020
882 Drizzle 7 1028 93 10000 4.6 20 23:18 12.01.2020
883 Clouds 8 1029 81 10000 4.6 20 22:42 12.01.2020
884 Clouds 8 1029 87 10000 4.1 340 22:23 12.01.2020
885 Clouds 7 1029 86 10000 3.6 340 21:57 12.01.2020
886 Clouds 7 1029 86 10000 3.1 350 21:38 12.01.2020
887 Clouds 7 1029 86 10000 3.1 350 21:19 12.01.2020
888 Clouds 8 1029 81 10000 3.1 10 20:56 12.01.2020
889 Clouds 8 1029 81 10000 3.1 20 20:38 12.01.2020
890 Clouds 8 1029 81 10000 3.1 20 20:20 12.01.2020
891 Clouds 8 1029 75 10000 4.1 20 19:56 12.01.2020
892 Clouds 8 1029 75 10000 6.2 10 19:37 12.01.2020
893 Clouds 8 1029 75 10000 6.2 10 19:18 12.01.2020
894 Clouds 8 1029 75 10000 5.1 20 18:57 12.01.2020
895 Clouds 8 1029 75 10000 5.1 20 18:57 12.01.2020
896 Clouds 8 1029 81 10000 4.6 20 18:39 12.01.2020
897 Clouds 8 1029 81 10000 4.6 20 18:21 12.01.2020
898 Clouds 9 1029 70 10000 4.1 30 17:54 12.01.2020
899 Clouds 9 1028 81 10000 3.6 30 17:36 12.01.2020
900 Clouds 9 1028 81 10000 3.6 30 17:18 12.01.2020
901 Clouds 9 1028 76 10000 4.6 20 16:54 12.01.2020
902 Clouds 9 1028 76 10000 5.7 20 16:36 12.01.2020
903 Clouds 9 1028 76 10000 4.6 30 16:18 12.01.2020
904 Clouds 9 1028 76 10000 4.6 40 15:40 12.01.2020
905 Clouds 9 1028 76 10000 4.6 40 15:21 12.01.2020
906 Clouds 9 1028 76 10000 5.7 20 14:44 12.01.2020
907 Clouds 9 1028 76 10000 5.7 20 14:25 12.01.2020
908 Clouds 10 1028 71 10000 5.1 30 13:58 12.01.2020
909 Clouds 10 1028 76 10000 5.1 20 13:40 12.01.2020
910 Clouds 10 1028 76 10000 5.1 20 13:22 12.01.2020
911 Clouds 10 1028 76 10000 5.1 30 12:58 12.01.2020
912 Clouds 10 1028 76 10000 5.1 20 12:38 12.01.2020
913 Clouds 10 1028 76 10000 5.1 20 12:19 12.01.2020
914 Clouds 10 1028 81 10000 5.1 20 11:43 12.01.2020
915 Clouds 9 1028 76 10000 5.7 30 11:23 12.01.2020
916 Clouds 10 1028 81 10000 5.7 20 10:59 12.01.2020
917 Clouds 9 1028 87 10000 4.6 40 10:40 12.01.2020
918 Clouds 9 1028 87 10000 4.6 40 10:21 12.01.2020
919 Rain 9 1028 87 8000 4.1 20 09:44 12.01.2020
920 Clouds 9 1028 87 10000 2.1 30 09:24 12.01.2020
921 Clouds 9 1027 87 10000 3.1 30 08:57 12.01.2020
922 Clouds 9 1027 87 7000 3.6 20 08:38 12.01.2020
923 Clouds 9 1027 87 7000 3.6 20 08:19 12.01.2020
924 Rain 8 1027 93 4000 2.1 50 07:38 12.01.2020
925 Rain 8 1027 93 4000 2.1 50 07:19 12.01.2020
926 Rain 8 1026 93 4000 2.6 10 06:41 12.01.2020
927 Rain 8 1026 87 10000 2.6 350 05:58 12.01.2020
928 Clouds 8 1026 87 10000 3.6 10 05:20 12.01.2020
929 Clouds 8 1025 70 10000 3.6 360 03:44 12.01.2020
930 Clouds 8 1025 70 10000 3.6 10 02:59 12.01.2020
931 Clouds 8 1025 70 10000 3.1 30 02:30 12.01.2020
932 Clouds 7 1025 70 10000 2.6 20 01:40 12.01.2020
933 Clouds 7 1025 70 10000 2.1 10 01:21 12.01.2020
934 Clouds 7 1024 75 10000 4.1 350 00:40 12.01.2020
935 Clouds 7 1024 75 10000 4.1 350 00:18 12.01.2020
936 Clouds 8 1024 61 10000 3.1 20 23:41 11.01.2020
937 Clouds 7 1024 65 10000 2.6 330 23:19 11.01.2020
938 Clouds 7 1024 65 10000 2.6 330 22:57 11.01.2020
939 Clouds 7 1024 70 10000 3.1 350 22:39 11.01.2020
940 Clouds 7 1024 70 10000 3.1 350 22:20 11.01.2020
941 Clouds 7 1024 75 10000 3.1 350 21:54 11.01.2020
942 Clouds 8 1024 75 10000 3.1 360 21:36 11.01.2020
943 Clouds 7 1024 75 10000 3.1 360 21:18 11.01.2020
944 Clouds 7 1024 81 10000 3.1 360 20:40 11.01.2020
945 Clouds 7 1024 70 10000 1.5 300 20:22 11.01.2020
946 Clouds 7 1023 70 10000 2.6 240 19:58 11.01.2020
947 Clouds 7 1023 65 10000 1 0 19:38 11.01.2020
948 Clouds 8 1023 65 10000 1 0 19:20 11.01.2020
949 Clouds 7 1023 70 10000 1 80 18:57 11.01.2020
950 Clouds 8 1023 75 10000 1.5 50 18:37 11.01.2020
951 Clouds 8 1023 75 10000 1.5 50 18:19 11.01.2020
952 Clouds 8 1023 75 10000 0.5 50 17:57 11.01.2020
953 Clouds 8 1023 70 10000 1 0 17:39 11.01.2020
954 Clouds 8 1023 70 10000 1 0 17:19 11.01.2020
955 Clouds 9 1023 65 10000 0.54 174 16:44 11.01.2020
956 Clouds 10 1023 57 10000 1.5 240 16:25 11.01.2020
957 Clouds 10 1023 53 10000 3.1 250 15:57 11.01.2020
958 Clouds 11 1023 53 10000 3.1 250 15:39 11.01.2020
959 Clouds 11 1023 53 10000 3.1 250 15:20 11.01.2020
960 Clouds 12 1023 53 10000 3.6 240 14:47 11.01.2020
961 Clouds 11 1023 57 10000 4.1 250 14:25 11.01.2020
962 Clear 12 1023 57 10000 4.6 230 13:58 11.01.2020
963 Clear 11 1022 57 10000 4.6 230 13:38 11.01.2020
964 Clear 11 1022 57 10000 4.6 230 13:20 11.01.2020
965 Clear 11 1023 61 10000 4.6 240 12:56 11.01.2020
966 Clear 12 1023 57 10000 4.6 230 12:37 11.01.2020
967 Clear 12 1023 57 10000 4.6 230 12:19 11.01.2020
968 Clear 11 1023 61 10000 4.1 230 11:45 11.01.2020
969 Clear 11 1024 66 10000 4.6 230 11:24 11.01.2020
970 Clear 11 1024 66 10000 3.1 230 10:50 11.01.2020
971 Clear 10 1024 62 10000 3.1 210 10:30 11.01.2020
972 Clear 9 1024 53 10000 1.5 190 09:44 11.01.2020
973 Clear 9 1024 61 10000 1 80 09:21 11.01.2020
974 Clear 9 1024 61 10000 1 80 09:21 11.01.2020
975 Clear 9 1024 61 10000 1.5 210 08:59 11.01.2020
976 Clear 8 1024 61 10000 1.5 210 08:40 11.01.2020
977 Clear 8 1024 66 10000 2.6 220 08:19 11.01.2020
978 Clear 6 1024 70 10000 3.1 210 07:43 11.01.2020
979 Clear 5 1024 75 10000 3.6 210 07:24 11.01.2020
980 Clear 5 1024 75 10000 3.1 220 06:43 11.01.2020
981 Clear 5 1024 75 10000 3.1 240 05:30 11.01.2020
982 Clear 5 1024 70 10000 3.1 220 04:42 11.01.2020
983 Clear 5 1024 75 10000 3.6 220 04:24 11.01.2020
984 Clear 5 1024 75 10000 3.6 220 02:48 11.01.2020
985 Clear 5 1024 93 10000 2.1 240 01:47 11.01.2020
986 Clear 5 1024 93 10000 1.5 250 01:27 11.01.2020
987 Clear 5 1024 93 10000 1 270 00:52 11.01.2020
988 Clear 4 1024 93 10000 1 0 00:25 11.01.2020
989 Clear 4 1024 93 10000 0.94 152 23:58 10.01.2020
990 Clear 4 1024 86 10000 0.94 152 23:39 10.01.2020
991 Clear 4 1024 86 10000 0.94 152 23:39 10.01.2020
992 Clear 5 1024 86 10000 0.58 117 23:20 10.01.2020
993 Clear 5 1024 86 10000 0.58 117 22:41 10.01.2020
994 Clear 5 1024 86 10000 0.58 117 22:22 10.01.2020
995 Clear 4 1024 93 10000 0.5 0 21:59 10.01.2020
996 Clear 4 1024 93 10000 0.5 0 21:41 10.01.2020
997 Clear 5 1024 86 10000 1 290 21:20 10.01.2020
998 Clear 5 1025 86 10000 1 0 20:58 10.01.2020
999 Clear 5 1025 86 10000 1 0 20:40 10.01.2020
1000 Clear 5 1024 86 10000 1 290 20:40 10.01.2020
1001 Clear 5 1024 86 10000 1 290 20:22 10.01.2020
1002 Clouds 5 1024 86 10000 1 290 19:41 10.01.2020
1003 Clouds 6 1024 86 10000 1 320 19:21 10.01.2020
1004 Clouds 5 1024 80 10000 0.79 70 18:57 10.01.2020
1005 Clouds 6 1024 80 10000 0.79 70 18:39 10.01.2020
1006 Clouds 6 1024 80 10000 0.79 70 18:18 10.01.2020
1007 Clouds 6 1024 75 10000 0.5 320 17:56 10.01.2020
1008 Clouds 7 1024 70 10000 1.5 250 17:38 10.01.2020
1009 Clouds 7 1024 70 10000 1.5 250 17:19 10.01.2020
1010 Clouds 7 1024 70 10000 1.5 250 17:19 10.01.2020
1011 Clouds 8 1024 65 10000 1.5 210 16:43 10.01.2020
1012 Clouds 8 1024 65 10000 1.5 210 16:22 10.01.2020
1013 Clouds 8 1024 65 10000 2.1 250 15:58 10.01.2020
1014 Clouds 9 1024 61 10000 2.1 230 15:39 10.01.2020
1015 Clouds 9 1024 61 10000 2.1 230 15:20 10.01.2020
1016 Clouds 10 1024 57 10000 2.1 0 14:59 10.01.2020
1017 Clouds 10 1024 58 10000 2.1 0 14:40 10.01.2020
1018 Clouds 10 1024 56 10000 2.1 0 14:19 10.01.2020
1019 Clouds 10 1024 53 10000 2.1 210 13:57 10.01.2020
1020 Clear 10 1024 57 10000 2.6 180 13:38 10.01.2020
1021 Clear 10 1024 57 10000 2.6 180 13:19 10.01.2020
1022 Clear 9 1024 57 10000 3.1 0 12:56 10.01.2020
1023 Clouds 10 1024 61 10000 2.6 130 12:38 10.01.2020
1024 Clouds 10 1024 61 10000 2.6 130 12:18 10.01.2020
1025 Clear 9 1025 66 10000 2.6 150 11:42 10.01.2020
1026 Clear 9 1025 66 10000 2.6 150 11:22 10.01.2020
1027 Clear 8 1025 70 10000 2.1 130 10:59 10.01.2020
1028 Clear 8 1026 65 10000 2.1 140 10:38 10.01.2020
1029 Clear 8 1026 65 10000 2.1 140 10:20 10.01.2020
1030 Clear 8 1026 70 10000 2.1 100 09:48 10.01.2020
1031 Clear 6 1026 75 10000 1.5 80 09:27 10.01.2020
1032 Clear 6 1026 75 10000 2.1 70 08:59 10.01.2020
1033 Clear 5 1026 86 10000 2.1 40 08:39 10.01.2020
1034 Clear 4 1026 86 10000 2.1 40 08:20 10.01.2020
1035 Clear 3 1026 75 10000 2.1 360 07:44 10.01.2020
1036 Clear 2 1026 75 10000 2.1 360 07:22 10.01.2020
1037 Clear 2 1025 75 10000 2.1 360 06:45 10.01.2020
1038 Clear 2 1025 75 10000 4.1 350 06:25 10.01.2020
1039 Clear 2 1025 75 10000 3.1 350 05:44 10.01.2020
1040 Clear 2 1025 93 10000 3.6 360 03:34 10.01.2020
1041 Clear 2 1025 75 6000 2.6 50 02:57 10.01.2020
1042 Mist 2 1025 75 4000 2.6 60 02:36 10.01.2020
1043 Mist 2 1025 100 4000 2.1 70 01:38 10.01.2020
1044 Clouds 3 1026 86 10000 3.6 350 00:57 10.01.2020
1045 Clouds 3 1026 93 10000 4.1 340 00:38 10.01.2020
1046 Clouds 3 1026 86 10000 4.1 340 23:57 09.01.2020
1047 Clouds 4 1026 86 10000 3.6 350 23:38 09.01.2020
1048 Clouds 4 1026 86 10000 3.6 350 23:38 09.01.2020
1049 Clouds 4 1026 86 10000 3.6 350 23:38 09.01.2020
1050 Clouds 4 1026 86 10000 3.6 350 23:38 09.01.2020
1051 Clouds 4 1026 86 10000 3.6 350 23:19 09.01.2020
1052 Clouds 4 1026 86 10000 3.1 340 22:57 09.01.2020
1053 Clouds 4 1026 86 10000 2.1 350 22:37 09.01.2020
1054 Clouds 4 1026 86 10000 2.1 350 22:18 09.01.2020
1055 Clouds 4 1026 86 10000 2.6 320 21:56 09.01.2020
1056 Clouds 4 1026 93 10000 1.5 310 21:37 09.01.2020
1057 Clouds 4 1026 93 10000 1.5 310 21:37 09.01.2020
1058 Clouds 4 1026 93 10000 1.5 310 21:37 09.01.2020
1059 Clouds 4 1026 93 10000 1.5 310 21:37 09.01.2020
1060 Clouds 4 1026 93 10000 1.5 310 21:37 09.01.2020
1061 Clouds 4 1026 93 10000 1.5 310 21:18 09.01.2020
1062 Clouds 5 1026 86 10000 3.1 340 20:56 09.01.2020
1063 Clouds 5 1026 75 10000 2.6 340 20:38 09.01.2020
1064 Clouds 4 1026 86 10000 2.1 360 20:19 09.01.2020
1065 Clouds 5 1026 75 10000 3.1 20 19:54 09.01.2020
1066 Clouds 5 1026 75 10000 2.6 20 19:36 09.01.2020
1067 Clouds 5 1026 75 10000 2.6 20 19:18 09.01.2020
1068 Clouds 5 1026 75 10000 3.1 10 18:54 09.01.2020
1069 Clouds 5 1026 75 10000 3.1 10 18:36 09.01.2020
1070 Clouds 5 1026 75 10000 3.1 30 18:18 09.01.2020
1071 Clouds 5 1026 75 10000 3.1 30 18:18 09.01.2020
1072 Clouds 6 1026 70 10000 4.6 20 17:40 09.01.2020
1073 Clouds 5 1027 75 10000 3.1 360 17:18 09.01.2020
1074 Clouds 5 1027 75 10000 3.1 360 17:18 09.01.2020
1075 Clouds 6 1026 75 10000 4.1 360 16:47 09.01.2020
1076 Clouds 6 1026 70 10000 2.6 360 16:22 09.01.2020
1077 Clouds 6 1026 70 10000 1.5 10 15:44 09.01.2020
1078 Clouds 6 1026 70 10000 7.2 360 15:25 09.01.2020
1079 Rain 7 1025 70 10000 5.1 40 14:59 09.01.2020
1080 Rain 7 1025 70 10000 5.1 40 14:41 09.01.2020
1081 Clouds 7 1026 70 10000 5.7 10 14:21 09.01.2020
1082 Clouds 7 1026 75 10000 6.2 360 13:57 09.01.2020
1083 Clouds 7 1026 75 10000 6.2 360 13:39 09.01.2020
1084 Clouds 7 1026 70 10000 6.7 360 13:20 09.01.2020
1085 Clouds 7 1026 70 10000 6.7 360 12:58 09.01.2020
1086 Clouds 7 1026 81 10000 4.6 10 12:38 09.01.2020
1087 Clouds 7 1026 81 10000 4.6 10 12:19 09.01.2020
1088 Clouds 6 1027 75 10000 5.1 10 11:43 09.01.2020
1089 Clouds 7 1027 75 10000 5.1 360 11:25 09.01.2020
1090 Clouds 7 1027 75 10000 5.1 360 10:59 09.01.2020
1091 Clouds 6 1027 75 10000 3.6 10 10:41 09.01.2020
1092 Clouds 6 1028 81 10000 3.1 20 10:22 09.01.2020
1093 Clouds 6 1028 75 10000 5.7 20 09:49 09.01.2020
1094 Rain 6 1028 86 10000 5.1 20 09:26 09.01.2020
1095 Rain 6 1028 86 10000 5.1 20 08:59 09.01.2020
1096 Rain 6 1028 80 10000 1.5 50 08:40 09.01.2020
1097 Rain 6 1027 80 10000 4.1 10 08:22 09.01.2020
1098 Rain 6 1027 80 10000 6.2 360 07:57 09.01.2020
1099 Rain 6 1027 80 10000 6.2 360 07:38 09.01.2020
1100 Clouds 6 1027 80 10000 7.2 350 07:19 09.01.2020
1101 Clouds 6 1027 75 10000 7.2 360 06:38 09.01.2020
1102 Clouds 6 1027 75 10000 6.7 360 06:18 09.01.2020
1103 Clouds 6 1027 75 10000 5.1 10 05:40 09.01.2020
1104 Clouds 6 1027 80 10000 5.1 360 04:42 09.01.2020
1105 Clouds 6 1027 80 10000 4.1 60 03:28 09.01.2020
1106 Clouds 5 1027 80 10000 2.6 60 02:47 09.01.2020
1107 Clouds 6 1027 80 10000 5.1 350 01:56 09.01.2020
1108 Clouds 5 1027 80 10000 5.1 350 01:34 09.01.2020
1109 Clouds 5 1027 72 10000 4.6 10 00:40 09.01.2020
1110 Clouds 5 1028 80 10000 4.1 10 00:19 09.01.2020
1111 Rain 5 1026 72 10000 4.1 40 23:41 08.01.2020
1112 Clouds 5 1027 75 10000 10.3 10 23:23 08.01.2020
1113 Rain 5 1027 80 10000 6.7 350 22:58 08.01.2020
1114 Rain 5 1027 80 10000 6.7 350 22:38 08.01.2020
1115 Rain 5 1027 86 10000 7.7 360 22:20 08.01.2020
1116 Rain 5 1027 86 10000 7.7 350 21:56 08.01.2020
1117 Rain 5 1028 80 10000 6.7 350 21:37 08.01.2020
1118 Rain 5 1028 80 10000 6.7 350 21:18 08.01.2020
1119 Rain 5 1028 80 10000 5.7 360 20:56 08.01.2020
1120 Rain 5 1028 80 10000 5.7 360 20:37 08.01.2020
1121 Clouds 5 1028 86 10000 5.1 340 20:19 08.01.2020
1122 Rain 5 1027 86 10000 7.7 350 19:39 08.01.2020
1123 Rain 4 1027 86 10000 8.7 350 19:20 08.01.2020
1124 Rain 5 1027 86 10000 8.7 350 18:59 08.01.2020
1125 Rain 5 1028 80 10000 7.2 360 18:40 08.01.2020
1126 Rain 5 1027 86 10000 6.2 30 18:19 08.01.2020
1127 Rain 5 1027 86 10000 6.2 30 18:19 08.01.2020
1128 Rain 5 1027 86 10000 6.2 30 17:59 08.01.2020
1129 Rain 5 1027 86 10000 8.2 350 17:40 08.01.2020
1130 Rain 5 1027 80 10000 5.1 20 17:22 08.01.2020
1131 Clouds 5 1027 86 10000 7.7 350 16:57 08.01.2020
1132 Clouds 5 1027 86 10000 7.7 350 16:38 08.01.2020
1133 Clouds 5 1027 80 10000 7.2 360 16:19 08.01.2020
1134 Rain 5 1027 93 6000 10.8 20 15:55 08.01.2020
1135 Clouds 6 1027 80 10000 7.2 350 15:37 08.01.2020
1136 Clouds 6 1026 80 10000 8.7 360 15:18 08.01.2020
1137 Clouds 6 1026 80 10000 7.7 350 14:40 08.01.2020
1138 Clouds 6 1026 80 10000 8.2 360 14:21 08.01.2020
1139 Clouds 6 1026 75 10000 10.8 350 13:42 08.01.2020
1140 Rain 6 1026 86 6000 11.8 20 13:24 08.01.2020
1141 Clouds 6 1025 80 10000 10.8 350 12:59 08.01.2020
1142 Clouds 6 1025 80 10000 10.8 350 12:40 08.01.2020
1143 Clouds 6 1025 80 10000 10.3 350 12:18 08.01.2020
1144 Rain 6 1026 80 10000 9.8 350 11:48 08.01.2020
1145 Rain 6 1026 80 10000 8.7 350 11:20 08.01.2020
1146 Rain 6 1026 80 10000 8.7 350 10:59 08.01.2020
1147 Rain 6 1026 80 10000 10.3 360 10:41 08.01.2020
1148 Clouds 6 1026 80 10000 9.8 360 10:21 08.01.2020
1149 Clouds 6 1026 80 10000 9.3 350 09:57 08.01.2020
1150 Clouds 6 1026 80 10000 9.3 350 09:36 08.01.2020
1151 Clouds 6 1026 80 10000 13.9 10 09:18 08.01.2020
1152 Rain 6 1025 80 8000 8.7 350 08:41 08.01.2020
1153 Rain 6 1025 80 6000 8.2 10 08:22 08.01.2020
1154 Rain 6 1025 80 6000 8.2 10 07:59 08.01.2020
1155 Rain 5 1024 93 6000 10.3 350 07:40 08.01.2020
1156 Rain 5 1024 86 6000 10.8 360 07:19 08.01.2020
1157 Rain 6 1024 86 6000 8.7 360 06:42 08.01.2020
1158 Rain 6 1023 86 6000 9.3 360 05:56 08.01.2020
1159 Rain 5 1023 93 6000 9.3 360 05:26 08.01.2020
1160 Rain 6 1023 86 6000 8.7 360 04:37 08.01.2020
1161 Rain 6 1023 80 10000 8.2 350 02:46 08.01.2020
1162 Rain 6 1023 80 10000 8.2 350 02:28 08.01.2020
1163 Rain 6 1021 93 10000 8.2 30 01:57 08.01.2020
1164 Rain 6 1021 93 10000 8.2 30 01:32 08.01.2020
1165 Rain 6 1022 80 6000 9.3 360 00:51 08.01.2020
1166 Rain 6 1022 80 6000 10.3 360 00:23 08.01.2020
1167 Rain 6 1021 80 6000 10.8 360 23:46 07.01.2020
1168 Rain 6 1021 80 6000 11.3 360 23:21 07.01.2020
1169 Rain 6 1022 80 6000 10.3 360 22:56 07.01.2020
1170 Rain 6 1022 80 6000 10.3 360 22:37 07.01.2020
1171 Rain 6 1021 80 6000 10.3 360 22:18 07.01.2020
1172 Rain 6 1021 80 6000 10.3 360 21:42 07.01.2020
1173 Rain 6 1021 80 6000 11.8 360 21:22 07.01.2020
1174 Rain 6 1021 80 6000 11.8 360 20:58 07.01.2020
1175 Rain 6 1021 80 6000 11.8 360 20:39 07.01.2020
1176 Rain 6 1021 80 6000 12.3 360 20:21 07.01.2020
1177 Rain 6 1021 86 6000 11.8 360 19:57 07.01.2020
1178 Rain 6 1021 86 6000 11.8 360 19:37 07.01.2020
1179 Rain 6 1020 80 6000 12.3 360 19:19 07.01.2020
1180 Rain 5 1020 86 6000 12.9 360 18:56 07.01.2020
1181 Rain 5 1020 86 6000 12.9 360 18:56 07.01.2020
1182 Rain 5 1020 86 6000 12.9 360 18:37 07.01.2020
1183 Rain 6 1020 86 6000 12.3 360 18:18 07.01.2020
1184 Rain 6 1020 80 6000 13.4 360 17:42 07.01.2020
1185 Rain 6 1019 86 6000 13.9 360 17:23 07.01.2020
1186 Rain 6 1019 86 6000 13.9 360 17:23 07.01.2020
1187 Rain 6 1019 86 6000 13.9 360 16:58 07.01.2020
1188 Rain 6 1019 86 6000 13.9 360 16:39 07.01.2020
1189 Rain 6 1018 86 3200 12.3 360 16:20 07.01.2020
1190 Rain 6 1018 86 3200 15.4 360 15:59 07.01.2020
1191 Rain 6 1018 86 3200 15.4 360 15:41 07.01.2020
1192 Rain 6 1018 86 4000 13.9 360 15:23 07.01.2020
1193 Rain 6 1017 86 10000 15.4 360 14:57 07.01.2020
1194 Rain 6 1017 86 10000 15.4 360 14:37 07.01.2020
1195 Rain 6 1016 87 3100 13.4 20 14:19 07.01.2020
1196 Rain 6 1016 87 3100 13.4 20 14:19 07.01.2020
1197 Rain 6 1017 86 6000 13.9 360 13:40 07.01.2020
1198 Rain 6 1017 86 6000 14.4 360 13:20 07.01.2020
1199 Rain 6 1017 93 6000 12.9 360 12:54 07.01.2020
1200 Rain 6 1017 93 6000 12.9 360 12:36 07.01.2020
1201 Rain 6 1017 86 6000 12.3 360 12:18 07.01.2020
1202 Rain 6 1017 93 6000 12.9 360 11:41 07.01.2020
1203 Rain 6 1017 86 6000 14.9 360 11:21 07.01.2020
1204 Rain 6 1017 86 6000 13.4 360 10:43 07.01.2020
1205 Rain 6 1017 86 6000 13.4 360 10:43 07.01.2020
1206 Rain 6 1017 93 6000 14.4 360 10:24 07.01.2020
1207 Rain 6 1017 93 6000 14.4 360 09:59 07.01.2020
1208 Rain 6 1017 86 4000 14.4 360 09:38 07.01.2020
1209 Rain 6 1016 87 4000 15.4 360 09:20 07.01.2020
1210 Rain 7 1016 87 4000 12.9 10 08:47 07.01.2020
1211 Rain 7 1016 87 6000 14.4 10 08:27 07.01.2020
1212 Rain 7 1016 87 6000 12.3 10 07:55 07.01.2020
1213 Rain 7 1016 87 6000 12.3 10 07:34 07.01.2020
1214 Rain 7 1015 87 6000 12.3 10 06:54 07.01.2020
1215 Rain 7 1015 87 6000 12.3 10 06:35 07.01.2020
1216 Rain 7 1015 87 6000 13.4 10 05:58 07.01.2020
1217 Rain 7 1015 87 6000 13.4 20 05:38 07.01.2020
1218 Rain 7 1014 87 6000 13.4 10 03:44 07.01.2020
1219 Rain 7 1014 87 6000 11.8 10 02:38 07.01.2020
1220 Rain 7 1014 87 6000 13.4 10 01:59 07.01.2020
1221 Rain 7 1014 87 6000 12.3 10 01:35 07.01.2020
1222 Rain 7 1014 87 6000 10.3 10 00:51 07.01.2020
1223 Rain 7 1014 87 10000 12.3 10 00:20 07.01.2020
1224 Rain 7 1014 81 6000 12.9 10 23:56 06.01.2020
1225 Rain 7 1014 81 6000 12.9 10 23:37 06.01.2020
1226 Rain 7 1014 87 6000 13.4 20 23:18 06.01.2020
1227 Rain 7 1014 81 10000 12.3 20 22:43 06.01.2020
1228 Rain 7 1014 75 10000 14.4 20 22:24 06.01.2020
1229 Rain 7 1014 75 10000 14.4 20 21:58 06.01.2020
1230 Rain 8 1013 81 8000 14.9 20 21:39 06.01.2020
1231 Rain 8 1013 81 8000 13.4 20 21:20 06.01.2020
1232 Rain 8 1013 81 8000 13.4 20 21:20 06.01.2020
1233 Rain 8 1013 81 8000 13.4 20 21:20 06.01.2020
1234 Clouds 8 1013 81 10000 14.4 20 20:57 06.01.2020
1235 Clouds 8 1013 81 10000 14.4 20 20:38 06.01.2020
1236 Rain 8 1013 81 8000 13.9 20 20:20 06.01.2020
1237 Rain 8 1013 81 8000 13.9 20 20:20 06.01.2020
1238 Rain 7 1013 81 8000 14.9 20 19:56 06.01.2020
1239 Rain 7 1013 81 8000 14.9 20 19:38 06.01.2020
1240 Rain 7 1013 81 8000 13.4 20 19:20 06.01.2020
1241 Rain 7 1013 81 6000 14.4 10 18:48 06.01.2020
1242 Rain 7 1013 87 10000 14.4 20 18:22 06.01.2020
1243 Rain 7 1014 81 6000 13.4 20 17:58 06.01.2020
1244 Rain 7 1014 81 6000 13.4 20 17:38 06.01.2020
1245 Rain 7 1014 87 6000 21.1 30 17:18 06.01.2020
1246 Rain 7 1014 87 6000 21.1 30 17:18 06.01.2020
1247 Rain 7 1013 81 6000 14.4 20 16:44 06.01.2020
1248 Rain 7 1013 81 6000 13.4 20 16:25 06.01.2020
1249 Rain 7 1013 81 6000 13.4 20 16:25 06.01.2020
1250 Rain 7 1012 81 6000 13.4 10 15:59 06.01.2020
1251 Rain 7 1012 81 6000 13.4 10 15:39 06.01.2020
1252 Rain 7 1012 87 6000 13.9 20 15:19 06.01.2020
1253 Rain 7 1012 87 6000 13.9 20 14:57 06.01.2020
1254 Rain 8 1012 87 6000 13.9 20 14:39 06.01.2020
1255 Rain 8 1012 87 6000 12.9 20 14:19 06.01.2020
1256 Rain 8 1012 87 6000 12.3 20 13:54 06.01.2020
1257 Rain 8 1012 87 6000 11.3 20 13:36 06.01.2020
1258 Rain 8 1012 87 6000 11.3 20 13:18 06.01.2020
1259 Rain 8 1012 87 6000 12.3 20 12:41 06.01.2020
1260 Rain 8 1012 81 6000 10.3 30 12:20 06.01.2020
1261 Rain 8 1012 87 4000 11.3 30 11:57 06.01.2020
1262 Rain 8 1012 87 4000 11.3 30 11:38 06.01.2020
1263 Rain 8 1012 87 4000 11.3 30 11:38 06.01.2020
1264 Rain 8 1012 87 4000 9.8 20 11:20 06.01.2020
1265 Rain 8 1013 87 4000 10.3 30 10:43 06.01.2020
1266 Rain 8 1013 87 4000 10.3 30 10:43 06.01.2020
1267 Rain 8 1013 87 4000 11.3 20 10:25 06.01.2020
1268 Rain 8 1014 81 4000 10.3 30 09:57 06.01.2020
1269 Rain 8 1014 81 4000 10.3 30 09:37 06.01.2020
1270 Rain 8 1014 87 4000 11.3 20 09:19 06.01.2020
1271 Rain 8 1014 87 10000 10.3 30 08:42 06.01.2020
1272 Rain 7 1014 87 4000 11.8 20 08:23 06.01.2020
1273 Rain 7 1014 87 4000 12.3 20 07:48 06.01.2020
1274 Rain 7 1014 87 4000 11.8 20 07:21 06.01.2020
1275 Rain 7 1014 87 4000 10.3 20 06:44 06.01.2020
1276 Rain 7 1013 93 4000 11.3 20 05:52 06.01.2020
1277 Rain 7 1013 93 4000 11.3 20 05:33 06.01.2020
1278 Rain 7 1013 87 4000 10.3 10 04:26 06.01.2020
1279 Rain 7 1014 87 4000 10.8 20 03:53 06.01.2020
1280 Rain 7 1014 87 4000 10.8 20 02:40 06.01.2020
1281 Rain 7 1015 93 4000 8.7 30 02:20 06.01.2020
1282 Rain 7 1014 93 4000 9.3 20 01:41 06.01.2020
1283 Rain 7 1015 87 4000 8.7 20 01:20 06.01.2020
1284 Rain 7 1015 87 4000 7.7 40 00:40 06.01.2020
1285 Rain 7 1015 93 4000 8.2 20 00:19 06.01.2020
1286 Rain 7 1015 93 4000 7.2 20 23:41 05.01.2020
1287 Rain 7 1015 93 7000 8.2 20 23:21 05.01.2020
1288 Rain 7 1015 87 6000 6.7 20 22:55 05.01.2020
1289 Rain 7 1015 87 6000 6.7 20 22:37 05.01.2020
1290 Rain 7 1015 87 7000 5.7 20 22:18 05.01.2020
1291 Rain 7 1015 87 7000 5.7 20 21:41 05.01.2020
1292 Rain 7 1015 87 7000 5.1 20 21:21 05.01.2020
1293 Rain 7 1015 87 7000 5.1 20 20:58 05.01.2020
1294 Rain 6 1015 87 7000 6.7 20 20:39 05.01.2020
1295 Rain 7 1015 87 3500 9.8 20 20:20 05.01.2020
1296 Rain 7 1015 87 7000 5.7 20 19:59 05.01.2020
1297 Rain 7 1015 87 7000 5.7 20 19:40 05.01.2020
1298 Rain 6 1015 81 7000 6.7 20 19:21 05.01.2020
1299 Rain 7 1015 81 7000 5.7 30 18:56 05.01.2020
1300 Rain 7 1015 81 7000 5.7 30 18:38 05.01.2020
1301 Rain 7 1015 81 7000 5.1 30 18:19 05.01.2020
1302 Rain 7 1015 81 7000 6.7 20 17:59 05.01.2020
1303 Rain 7 1015 81 7000 6.7 20 17:39 05.01.2020
1304 Rain 7 1015 81 7000 6.7 20 17:39 05.01.2020
1305 Rain 7 1015 81 10000 7.2 10 17:20 05.01.2020
1306 Rain 7 1014 81 10000 6.7 360 16:57 05.01.2020
1307 Rain 7 1014 81 10000 6.7 360 16:39 05.01.2020
1308 Rain 7 1014 81 10000 6.7 360 16:39 05.01.2020
1309 Clouds 7 1014 75 10000 8.2 360 16:20 05.01.2020
1310 Clouds 7 1014 70 10000 8.2 360 15:40 05.01.2020
1311 Clouds 7 1014 75 10000 9.3 360 15:21 05.01.2020
1312 Clouds 8 1013 75 10000 9.8 360 14:57 05.01.2020
1313 Clouds 8 1013 75 10000 9.8 360 14:38 05.01.2020
1314 Clouds 8 1013 70 10000 9.3 360 14:20 05.01.2020
1315 Rain 8 1012 70 10000 6.2 30 13:57 05.01.2020
1316 Rain 8 1012 70 10000 6.2 30 13:38 05.01.2020
1317 Rain 8 1012 70 10000 6.2 30 13:38 05.01.2020
1318 Rain 9 1013 75 10000 8.2 350 13:19 05.01.2020
1319 Rain 9 1013 75 10000 8.2 350 12:56 05.01.2020
1320 Rain 9 1013 75 10000 8.2 350 12:56 05.01.2020
1321 Clouds 9 1013 70 10000 4.6 340 12:37 05.01.2020
1322 Clouds 9 1013 70 10000 2.6 340 12:19 05.01.2020
1323 Clouds 9 1013 61 10000 0.5 0 11:44 05.01.2020
1324 Clouds 9 1014 61 10000 0.5 240 11:20 05.01.2020
1325 Clouds 9 1014 61 10000 0.5 240 11:00 05.01.2020
1326 Clouds 9 1014 57 10000 0.5 170 10:40 05.01.2020
1327 Clouds 9 1015 61 10000 1.5 200 10:20 05.01.2020
1328 Clouds 8 1015 61 10000 2.6 210 09:42 05.01.2020
1329 Clouds 8 1015 66 10000 2.6 240 09:22 05.01.2020
1330 Clouds 7 1015 70 10000 1.5 240 08:54 05.01.2020
1331 Clouds 7 1015 70 10000 1.5 240 08:35 05.01.2020
1332 Clouds 6 1015 81 10000 1 310 07:59 05.01.2020
1333 Clouds 6 1014 75 10000 1 200 07:39 05.01.2020
1334 Clouds 6 1014 70 10000 2.1 220 07:20 05.01.2020
1335 Clouds 6 1014 70 10000 2.1 230 06:47 05.01.2020
1336 Clouds 6 1014 66 10000 3.6 220 05:39 05.01.2020
1337 Clouds 7 1014 66 10000 4.1 210 04:55 05.01.2020
1338 Clouds 6 1014 70 10000 3.6 200 04:18 05.01.2020
1339 Clouds 6 1014 70 10000 3.6 200 04:18 05.01.2020
1340 Clouds 5 1014 70 10000 4.1 190 03:26 05.01.2020
1341 Clouds 5 1014 66 10000 4.6 190 02:32 05.01.2020
1342 Clouds 6 1015 70 10000 4.1 200 01:49 05.01.2020
1343 Clouds 6 1015 70 10000 4.1 200 01:20 05.01.2020
1344 Clouds 5 1015 70 10000 3.6 200 00:57 05.01.2020
1345 Clouds 5 1015 70 10000 4.1 200 00:57 05.01.2020
1346 Clouds 5 1015 70 10000 3.6 200 00:39 05.01.2020
1347 Clouds 5 1015 70 10000 3.6 200 00:19 05.01.2020
1348 Clouds 5 1016 70 10000 4.1 200 23:41 04.01.2020
1349 Clouds 5 1016 70 10000 4.1 200 23:41 04.01.2020
1350 Clear 5 1016 75 10000 4.6 210 23:20 04.01.2020
1351 Clear 5 1016 70 10000 4.6 200 22:55 04.01.2020
1352 Clear 6 1016 70 10000 4.6 200 22:37 04.01.2020
1353 Clear 6 1016 70 10000 3.6 200 22:19 04.01.2020
1354 Clear 6 1016 70 10000 3.1 220 21:55 04.01.2020
1355 Clear 6 1016 75 10000 2.6 210 21:36 04.01.2020
1356 Clear 6 1016 75 10000 2.6 210 21:18 04.01.2020
1357 Clear 6 1016 75 10000 2.1 260 20:41 04.01.2020
1358 Clouds 6 1016 70 10000 2.6 230 20:22 04.01.2020
1359 Clouds 7 1016 65 10000 2.1 240 19:57 04.01.2020
1360 Clouds 7 1016 65 10000 2.1 240 19:39 04.01.2020
1361 Clouds 7 1017 70 10000 3.1 240 19:20 04.01.2020
1362 Clouds 7 1017 65 10000 3.1 240 18:56 04.01.2020
1363 Clouds 7 1017 65 10000 3.1 240 18:38 04.01.2020
1364 Clouds 7 1017 70 10000 3.1 230 18:19 04.01.2020
1365 Clouds 7 1017 65 10000 3.1 240 17:42 04.01.2020
1366 Clouds 7 1017 65 10000 3.1 240 17:42 04.01.2020
1367 Clouds 7 1017 65 10000 3.1 240 17:42 04.01.2020
1368 Clouds 7 1016 70 10000 2.1 250 17:24 04.01.2020
1369 Clouds 7 1016 70 10000 2.1 250 16:59 04.01.2020
1370 Clouds 8 1017 70 10000 2.6 260 16:40 04.01.2020
1371 Clouds 8 1016 65 10000 3.6 250 16:22 04.01.2020
1372 Clouds 9 1016 61 10000 5.1 240 15:56 04.01.2020
1373 Clouds 9 1016 61 10000 5.1 240 15:38 04.01.2020
1374 Clouds 9 1016 61 10000 5.1 230 15:19 04.01.2020
1375 Clouds 10 1016 61 10000 5.1 240 14:54 04.01.2020
1376 Clouds 10 1016 61 10000 5.1 240 14:36 04.01.2020
1377 Clouds 10 1016 61 10000 5.7 240 14:18 04.01.2020
1378 Clouds 10 1016 61 10000 5.1 240 13:39 04.01.2020
1379 Clouds 10 1016 57 10000 5.1 240 13:20 04.01.2020
1380 Clouds 10 1017 65 10000 4.6 240 12:59 04.01.2020
1381 Clouds 10 1017 65 10000 4.6 240 12:40 04.01.2020
1382 Clouds 10 1017 65 10000 4.6 240 12:40 04.01.2020
1383 Clouds 10 1017 61 10000 5.1 240 12:19 04.01.2020
1384 Clouds 10 1017 45 10000 5.1 240 11:57 04.01.2020
1385 Clouds 10 1017 45 10000 5.1 240 11:38 04.01.2020
1386 Clouds 10 1018 50 10000 4.6 240 11:18 04.01.2020
1387 Clouds 9 1018 50 10000 4.6 260 10:41 04.01.2020
1388 Clouds 8 1018 52 10000 5.7 240 10:22 04.01.2020
1389 Clouds 8 1018 45 10000 4.1 250 09:50 04.01.2020
1390 Clouds 7 1018 52 10000 4.6 240 09:26 04.01.2020
1391 Clouds 7 1018 52 10000 4.6 240 08:57 04.01.2020
1392 Clouds 7 1018 50 10000 3.6 250 08:37 04.01.2020
1393 Clouds 7 1018 45 10000 2.6 270 08:19 04.01.2020
1394 Clouds 7 1018 48 10000 3.6 260 07:42 04.01.2020
1395 Clouds 6 1018 52 10000 4.1 260 06:49 04.01.2020
1396 Clouds 6 1018 64 10000 3.1 260 05:59 04.01.2020
1397 Clouds 6 1018 67 10000 3.1 260 05:18 04.01.2020
1398 Clouds 7 1018 67 10000 3.1 260 04:32 04.01.2020
1399 Clouds 6 1018 65 10000 2.6 250 03:39 04.01.2020
1400 Clouds 6 1018 70 10000 2.1 240 03:18 04.01.2020
1401 Clouds 5 1019 66 10000 2.6 280 02:20 04.01.2020
1402 Clouds 5 1019 60 10000 2.6 270 01:53 04.01.2020
1403 Clouds 5 1019 60 10000 2.6 270 01:30 04.01.2020
1404 Clouds 5 1020 75 10000 1 280 00:30 04.01.2020
1405 Clouds 6 1020 75 10000 1 280 23:59 03.01.2020
1406 Clouds 6 1020 80 10000 2.1 310 23:38 03.01.2020
1407 Clouds 6 1020 80 10000 1.5 310 23:20 03.01.2020
1408 Clouds 6 1021 80 10000 2.6 310 22:41 03.01.2020
1409 Clouds 6 1021 80 10000 2.6 320 22:20 03.01.2020
1410 Clouds 5 1021 86 10000 2.6 350 21:58 03.01.2020
1411 Clouds 5 1021 86 10000 2.6 350 21:38 03.01.2020
1412 Clouds 5 1021 80 10000 3.1 340 21:19 03.01.2020
1413 Clouds 6 1021 80 10000 3.1 340 20:57 03.01.2020
1414 Clouds 6 1021 80 10000 3.6 340 20:39 03.01.2020
1415 Clouds 6 1021 75 10000 3.1 340 20:18 03.01.2020
1416 Clouds 6 1022 75 10000 3.1 330 19:55 03.01.2020
1417 Clouds 6 1022 75 10000 3.1 330 19:37 03.01.2020
1418 Clouds 6 1022 75 10000 3.6 340 19:18 03.01.2020
1419 Clouds 6 1022 75 10000 2.6 360 18:41 03.01.2020
1420 Clouds 7 1022 70 10000 4.1 10 18:23 03.01.2020
1421 Clouds 7 1022 70 10000 4.1 10 17:55 03.01.2020
1422 Clouds 7 1022 70 10000 4.6 360 17:36 03.01.2020
1423 Clouds 7 1022 70 10000 4.1 10 17:36 03.01.2020
1424 Clouds 7 1022 70 10000 4.6 360 17:18 03.01.2020
1425 Clouds 7 1022 70 10000 4.6 350 16:42 03.01.2020
1426 Clouds 7 1022 70 10000 5.1 350 16:22 03.01.2020
1427 Clouds 7 1022 65 10000 4.6 350 15:43 03.01.2020
1428 Clouds 8 1023 65 10000 4.6 350 15:19 03.01.2020
1429 Clouds 8 1023 61 10000 5.1 10 14:57 03.01.2020
1430 Clouds 8 1023 61 10000 5.1 10 14:37 03.01.2020
1431 Clouds 8 1023 61 10000 4.6 20 14:19 03.01.2020
1432 Clouds 8 1023 70 10000 6.2 350 13:43 03.01.2020
1433 Clouds 8 1023 70 10000 6.2 350 13:23 03.01.2020
1434 Clouds 8 1023 70 10000 6.2 350 12:57 03.01.2020
1435 Clouds 8 1023 70 10000 6.2 360 12:38 03.01.2020
1436 Clouds 8 1024 70 10000 5.1 20 12:20 03.01.2020
1437 Clouds 8 1024 70 10000 4.6 20 11:44 03.01.2020
1438 Clouds 8 1024 70 10000 4.1 20 11:19 03.01.2020
1439 Clouds 8 1025 75 10000 4.6 30 10:44 03.01.2020
1440 Clouds 7 1025 75 10000 4.6 40 10:25 03.01.2020
1441 Clouds 7 1025 75 10000 4.6 40 09:57 03.01.2020
1442 Clouds 7 1026 75 10000 4.1 20 09:39 03.01.2020
1443 Clouds 7 1026 81 10000 3.6 20 09:21 03.01.2020
1444 Clouds 7 1026 75 10000 3.6 20 08:56 03.01.2020
1445 Clouds 7 1026 75 10000 3.6 20 08:36 03.01.2020
1446 Clouds 6 1026 75 10000 4.1 40 08:18 03.01.2020
1447 Clouds 6 1026 81 10000 3.1 50 07:39 03.01.2020
1448 Clouds 6 1026 75 10000 3.1 20 07:18 03.01.2020
1449 Clouds 6 1026 75 10000 3.1 20 06:43 03.01.2020
1450 Clouds 6 1026 75 10000 3.1 30 06:24 03.01.2020
1451 Clouds 6 1026 81 10000 2.1 40 05:28 03.01.2020
1452 Clouds 6 1026 93 10000 1 10 03:55 03.01.2020
1453 Clouds 6 1026 81 10000 2.1 20 02:55 03.01.2020
1454 Clouds 6 1027 81 10000 2.6 10 01:57 03.01.2020
1455 Clouds 6 1027 75 10000 2.6 70 01:38 03.01.2020
1456 Clouds 6 1027 75 10000 4.1 30 00:46 03.01.2020
1457 Clouds 6 1027 75 10000 3.6 30 00:26 03.01.2020
1458 Rain 6 1027 81 10000 4.1 30 23:55 02.01.2020
1459 Rain 6 1027 81 10000 4.1 30 23:37 02.01.2020
1460 Rain 6 1027 86 10000 3.6 10 23:18 02.01.2020
1461 Rain 6 1028 86 10000 3.6 20 22:44 02.01.2020
1462 Rain 7 1028 81 10000 3.1 30 22:20 02.01.2020
1463 Rain 7 1028 81 10000 3.1 30 21:57 02.01.2020
1464 Rain 7 1028 81 10000 5.7 20 21:57 02.01.2020
1465 Rain 7 1028 81 10000 5.7 20 21:38 02.01.2020
1466 Rain 7 1028 81 10000 5.7 20 21:38 02.01.2020
1467 Rain 7 1028 81 10000 5.1 30 21:20 02.01.2020
1468 Rain 7 1028 81 10000 4.1 30 20:57 02.01.2020
1469 Rain 7 1028 81 10000 4.1 30 20:38 02.01.2020
1470 Rain 7 1028 81 10000 4.6 20 20:20 02.01.2020
1471 Clouds 7 1028 81 10000 6.2 20 19:55 02.01.2020
1472 Clouds 7 1027 81 10000 6.7 20 19:36 02.01.2020
1473 Clouds 7 1027 81 10000 6.7 20 19:18 02.01.2020
1474 Rain 7 1027 81 10000 7.2 20 18:54 02.01.2020
1475 Rain 7 1027 81 10000 7.2 20 18:36 02.01.2020
1476 Rain 7 1027 81 10000 6.7 30 18:18 02.01.2020
1477 Rain 7 1027 81 10000 6.7 20 17:55 02.01.2020
1478 Rain 7 1027 81 10000 6.7 20 17:36 02.01.2020
1479 Rain 7 1027 87 10000 8.2 10 17:18 02.01.2020
1480 Rain 7 1027 87 10000 7.2 10 16:42 02.01.2020
1481 Rain 7 1027 87 10000 5.1 20 16:21 02.01.2020
1482 Rain 7 1027 87 10000 6.2 10 15:58 02.01.2020
1483 Rain 7 1027 81 10000 11.8 30 15:40 02.01.2020
1484 Rain 7 1027 87 10000 6.2 10 15:40 02.01.2020
1485 Rain 7 1027 87 10000 6.2 20 15:22 02.01.2020
1486 Rain 7 1027 75 10000 11.3 30 14:57 02.01.2020
1487 Rain 8 1026 87 10000 8.2 10 14:37 02.01.2020
1488 Rain 8 1026 87 10000 8.2 10 14:18 02.01.2020
1489 Rain 7 1026 87 7000 6.7 10 13:51 02.01.2020
1490 Rain 8 1026 87 7000 6.7 10 13:32 02.01.2020
1491 Rain 8 1026 81 7000 7.2 20 12:47 02.01.2020
1492 Rain 8 1026 81 7000 7.2 20 12:28 02.01.2020
1493 Rain 7 1027 87 7000 5.1 20 11:59 02.01.2020
1494 Rain 7 1027 87 7000 5.1 20 11:41 02.01.2020
1495 Rain 7 1027 81 6000 7.2 40 11:20 02.01.2020
1496 Rain 7 1027 87 6000 7.2 10 10:45 02.01.2020
1497 Rain 6 1027 86 9000 8.2 10 10:26 02.01.2020
1498 Rain 6 1028 86 10000 7.7 360 09:55 02.01.2020
1499 Rain 6 1028 86 10000 7.7 360 09:34 02.01.2020
1500 Clouds 6 1027 75 10000 7.2 10 08:50 02.01.2020
1501 Clouds 6 1027 75 10000 8.2 10 08:28 02.01.2020
1502 Rain 6 1027 80 10000 8.2 10 07:57 02.01.2020
1503 Clouds 6 1027 76 10000 9.3 360 07:31 02.01.2020
1504 Clouds 6 1026 76 10000 8.7 10 06:57 02.01.2020
1505 Clouds 6 1026 76 10000 8.7 10 06:57 02.01.2020
1506 Clouds 6 1026 76 10000 8.7 10 06:57 02.01.2020
1507 Clouds 6 1026 76 10000 8.7 10 06:39 02.01.2020
1508 Rain 6 1026 75 10000 7.7 10 05:37 02.01.2020
1509 Rain 6 1026 86 10000 6.7 30 04:34 02.01.2020
1510 Clouds 6 1026 80 10000 6.7 10 03:19 02.01.2020
1511 Clouds 5 1026 86 10000 6.2 360 02:20 02.01.2020
1512 Snow 5 1026 86 10000 7.2 340 01:47 02.01.2020
1513 Rain 6 1026 75 10000 6.2 360 01:19 02.01.2020
1514 Rain 6 1026 75 10000 7.7 360 00:36 02.01.2020
1515 Rain 6 1026 80 7000 7.2 10 00:18 02.01.2020
1516 Clouds 6 1026 65 10000 5.1 360 23:40 01.01.2020
1517 Clouds 6 1026 60 10000 6.2 350 23:20 01.01.2020
1518 Clouds 6 1026 65 10000 5.1 350 22:38 01.01.2020
1519 Clouds 6 1026 65 10000 5.1 350 22:38 01.01.2020
1520 Rain 6 1026 66 10000 7.2 340 22:20 01.01.2020
1521 Rain 6 1026 66 10000 7.2 340 22:20 01.01.2020
1522 Rain 7 1026 66 10000 7.2 340 22:20 01.01.2020
1523 Rain 7 1026 66 10000 6.2 350 21:56 01.01.2020
1524 Rain 7 1026 66 10000 6.2 350 21:38 01.01.2020
1525 Rain 7 1026 66 10000 6.2 350 21:38 01.01.2020
1526 Rain 6 1026 75 10000 8.2 350 21:19 01.01.2020
1527 Clouds 7 1026 56 10000 7.7 360 20:56 01.01.2020
1528 Clouds 7 1026 56 10000 7.7 360 20:56 01.01.2020
1529 Clouds 7 1026 56 10000 7.7 360 20:38 01.01.2020
1530 Rain 7 1026 56 10000 7.7 360 20:38 01.01.2020
1531 Rain 6 1026 60 10000 9.3 360 20:19 01.01.2020
1532 Rain 7 1026 66 10000 8.2 360 19:55 01.01.2020
1533 Rain 7 1026 66 10000 8.2 360 19:55 01.01.2020
1534 Rain 7 1026 66 10000 8.2 360 19:55 01.01.2020
1535 Rain 7 1026 66 10000 9.3 350 19:37 01.01.2020
1536 Rain 7 1026 66 10000 9.3 350 19:37 01.01.2020
1537 Rain 7 1026 66 10000 9.3 350 19:19 01.01.2020
1538 Rain 7 1026 56 10000 6.7 360 18:55 01.01.2020
1539 Rain 7 1026 56 10000 6.7 360 18:36 01.01.2020
1540 Clouds 7 1026 66 10000 7.2 350 18:18 01.01.2020
1541 Clouds 7 1025 66 10000 7.2 350 17:56 01.01.2020
1542 Clouds 7 1025 66 10000 7.2 350 17:38 01.01.2020
1543 Clouds 7 1025 63 10000 6.2 360 17:18 01.01.2020
1544 Clouds 8 1025 63 10000 6.7 360 16:41 01.01.2020
1545 Clouds 8 1024 63 10000 8.2 360 16:22 01.01.2020
1546 Clouds 8 1024 63 10000 8.2 360 15:58 01.01.2020
1547 Clouds 8 1024 63 10000 8.7 360 15:40 01.01.2020
1548 Clouds 8 1024 61 10000 7.2 40 15:21 01.01.2020
1549 Clouds 8 1024 61 10000 8.7 360 14:59 01.01.2020
1550 Clouds 8 1024 61 10000 8.7 360 14:40 01.01.2020
1551 Clouds 8 1024 65 10000 8.2 360 14:21 01.01.2020
1552 Clouds 9 1024 61 10000 9.3 360 13:56 01.01.2020
1553 Clouds 9 1024 61 10000 9.3 360 13:37 01.01.2020
1554 Clouds 9 1024 61 10000 9.3 360 13:37 01.01.2020
1555 Clouds 9 1024 61 10000 9.3 360 13:37 01.01.2020
1556 Clouds 9 1024 61 10000 9.3 360 13:37 01.01.2020
1557 Clouds 9 1023 61 10000 8.2 360 13:18 01.01.2020
1558 Clouds 8 1023 61 10000 8.2 360 12:56 01.01.2020
1559 Clouds 8 1023 65 10000 9.3 360 12:56 01.01.2020
1560 Clouds 9 1023 65 10000 9.3 360 12:38 01.01.2020
1561 Clouds 8 1023 61 10000 8.2 10 12:18 01.01.2020
1562 Clouds 8 1023 66 10000 6.2 10 11:43 01.01.2020
1563 Clouds 8 1023 70 10000 5.1 360 11:23 01.01.2020
1564 Clouds 8 1023 70 10000 5.1 360 10:59 01.01.2020
1565 Clouds 8 1024 81 10000 2.6 330 10:41 01.01.2020
1566 Clouds 7 1024 93 10000 1 0 10:20 01.01.2020
1567 Rain 7 1024 93 10000 1 0 09:57 01.01.2020
1568 Rain 7 1024 93 10000 1 0 09:37 01.01.2020
1569 Clouds 7 1024 70 10000 9.8 20 09:18 01.01.2020
1570 Rain 7 1023 93 10000 2.1 350 08:55 01.01.2020
1571 Rain 7 1023 93 10000 2.1 350 08:36 01.01.2020
1572 Rain 7 1023 93 10000 0.5 0 08:18 01.01.2020
1573 Rain 7 1022 86 10000 3.1 330 07:51 01.01.2020
1574 Rain 7 1022 86 10000 3.1 330 07:32 01.01.2020
1575 Clouds 7 1022 85 10000 2.6 340 06:44 01.01.2020
1576 Clouds 6 1022 65 10000 2.6 310 06:20 01.01.2020
1577 Clouds 6 1021 65 10000 2.6 340 05:21 01.01.2020
1578 Clouds 5 1021 65 10000 3.6 320 03:43 01.01.2020
1579 Clouds 5 1022 65 10000 4.6 310 03:22 01.01.2020
1580 Clouds 5 1022 65 10000 4.6 310 02:56 01.01.2020
1581 Clouds 5 1022 75 10000 3.6 310 02:33 01.01.2020
1582 Clouds 5 1021 80 10000 1.5 280 01:55 01.01.2020
1583 Clouds 5 1021 80 10000 1.5 280 01:36 01.01.2020
1584 Clouds 5 1021 80 10000 1.5 300 01:18 01.01.2020
1585 Clouds 5 1021 80 10000 2.1 320 00:44 01.01.2020
1586 Clouds 5 1021 75 10000 2.6 300 00:24 01.01.2020
1587 Clouds 5 1022 81 10000 3.6 250 23:41 31.12.2019
1588 Clouds 5 1022 75 10000 4.1 230 23:21 31.12.2019
1589 Clouds 4 1022 86 10000 1.5 280 22:57 31.12.2019
1590 Clouds 4 1022 86 10000 1.5 280 22:38 31.12.2019
1591 Clouds 5 1022 76 10000 2.1 290 22:19 31.12.2019
1592 Clouds 5 1022 76 10000 2.1 290 21:57 31.12.2019
1593 Clear 5 1023 75 10000 2.1 250 21:37 31.12.2019
1594 Clouds 5 1023 76 10000 1.5 270 21:19 31.12.2019
1595 Clouds 5 1023 76 10000 1.5 270 21:19 31.12.2019
1596 Clouds 5 1023 75 10000 1 140 20:54 31.12.2019
1597 Clouds 5 1023 75 10000 1 140 20:36 31.12.2019
1598 Clouds 5 1023 75 10000 1.5 140 20:18 31.12.2019
1599 Clouds 5 1024 80 10000 2.1 350 19:41 31.12.2019
1600 Clouds 5 1024 75 10000 2.6 340 19:22 31.12.2019
1601 Clouds 6 1024 75 10000 3.1 340 18:59 31.12.2019
1602 Clouds 5 1024 75 10000 3.1 340 18:40 31.12.2019
1603 Clouds 6 1024 75 10000 3.6 320 18:20 31.12.2019
1604 Clouds 6 1024 75 10000 3.6 330 17:56 31.12.2019
1605 Clouds 6 1024 75 10000 3.6 330 17:38 31.12.2019
1606 Clouds 6 1024 80 10000 4.6 340 17:19 31.12.2019
1607 Clouds 6 1024 80 10000 4.6 340 16:57 31.12.2019
1608 Clouds 6 1024 75 10000 4.1 340 16:38 31.12.2019
1609 Clouds 6 1024 75 10000 6.2 350 16:19 31.12.2019
1610 Clouds 6 1024 75 10000 6.7 360 15:56 31.12.2019
1611 Clouds 7 1024 81 10000 6.7 360 15:38 31.12.2019
1612 Clouds 6 1024 81 10000 6.7 360 15:20 31.12.2019
1613 Clouds 6 1024 81 10000 7.2 360 14:58 31.12.2019
1614 Clouds 7 1024 81 10000 7.2 360 14:38 31.12.2019
1615 Clouds 7 1024 81 10000 6.7 360 14:19 31.12.2019
1616 Clouds 7 1024 81 10000 6.2 350 13:57 31.12.2019
1617 Clouds 7 1024 81 10000 6.2 350 13:39 31.12.2019
1618 Clouds 7 1024 81 10000 5.7 360 13:21 31.12.2019
1619 Clouds 7 1024 81 10000 5.7 360 13:21 31.12.2019
1620 Clouds 7 1024 81 10000 5.7 360 12:58 31.12.2019
1621 Clouds 7 1024 81 10000 6.2 350 12:39 31.12.2019
1622 Clouds 7 1024 81 10000 8.2 360 12:20 31.12.2019
1623 Clouds 7 1025 81 10000 7.2 360 11:56 31.12.2019
1624 Clouds 7 1025 81 10000 7.2 360 11:38 31.12.2019
1625 Clouds 7 1025 87 10000 7.7 360 11:20 31.12.2019
1626 Clouds 7 1025 87 10000 7.2 350 10:57 31.12.2019
1627 Clouds 7 1025 87 10000 7.2 350 10:38 31.12.2019
1628 Clouds 7 1025 87 10000 7.2 350 10:38 31.12.2019
1629 Clouds 7 1026 87 10000 8.2 360 10:20 31.12.2019
1630 Clouds 7 1026 87 10000 8.2 360 09:58 31.12.2019
1631 Clouds 7 1026 87 10000 8.2 360 09:39 31.12.2019
1632 Rain 7 1026 86 10000 8.7 10 09:20 31.12.2019
1633 Rain 7 1025 93 7000 9.8 360 08:57 31.12.2019
1634 Rain 7 1025 93 7000 9.8 360 08:37 31.12.2019
1635 Rain 7 1025 93 7000 9.8 360 08:37 31.12.2019
1636 Rain 7 1025 87 6000 10.3 360 08:18 31.12.2019
1637 Rain 7 1025 87 7000 10.3 360 07:41 31.12.2019
1638 Clouds 7 1025 87 10000 11.8 360 07:19 31.12.2019
1639 Clouds 7 1025 87 10000 11.3 360 06:49 31.12.2019
1640 Clouds 7 1024 87 10000 10.3 360 05:55 31.12.2019
1641 Rain 7 1023 81 10000 13.4 360 04:27 31.12.2019
1642 Rain 7 1023 81 10000 13.4 360 03:27 31.12.2019
1643 Rain 7 1023 87 10000 12.3 10 02:49 31.12.2019
1644 Rain 8 1023 81 10000 12.9 360 01:55 31.12.2019
1645 Rain 8 1023 81 10000 12.9 360 01:34 31.12.2019
1646 Rain 8 1022 87 10000 11.3 10 00:58 31.12.2019
1647 Rain 8 1022 87 10000 11.3 10 00:39 31.12.2019
1648 Rain 8 1022 87 10000 11.3 10 00:21 31.12.2019
1649 Rain 8 1022 87 8000 11.8 10 23:56 30.12.2019
1650 Rain 8 1022 87 8000 11.8 10 23:37 30.12.2019
1651 Rain 8 1022 87 8000 11.3 10 23:19 30.12.2019
1652 Rain 8 1023 87 8000 10.3 10 22:56 30.12.2019
1653 Rain 8 1023 87 8000 10.3 10 22:56 30.12.2019
1654 Rain 8 1023 87 8000 10.3 10 22:37 30.12.2019
1655 Rain 8 1022 87 8000 12.3 10 22:18 30.12.2019
1656 Rain 8 1022 87 10000 12.3 10 21:55 30.12.2019
1657 Rain 8 1022 87 10000 12.3 10 21:37 30.12.2019
1658 Rain 8 1022 75 10000 12.3 20 21:18 30.12.2019
1659 Rain 8 1022 75 10000 10.8 10 20:55 30.12.2019
1660 Rain 8 1022 75 10000 10.8 10 20:55 30.12.2019
1661 Rain 8 1022 75 10000 10.8 10 20:37 30.12.2019
1662 Rain 8 1022 75 10000 11.3 20 20:18 30.12.2019
1663 Rain 8 1022 75 10000 10.8 10 19:55 30.12.2019
1664 Rain 8 1022 75 10000 10.8 10 19:36 30.12.2019
1665 Rain 8 1022 75 10000 11.8 20 19:18 30.12.2019
1666 Rain 8 1022 75 10000 12.3 10 18:42 30.12.2019
1667 Rain 8 1021 70 10000 13.4 20 18:21 30.12.2019
1668 Rain 8 1021 70 10000 13.4 20 17:59 30.12.2019
1669 Rain 8 1021 70 10000 13.4 20 17:59 30.12.2019
1670 Rain 8 1021 70 10000 13.9 30 17:41 30.12.2019
1671 Clouds 8 1021 75 10000 14.4 20 17:20 30.12.2019
1672 Clouds 9 1020 70 10000 12.9 20 17:00 30.12.2019
1673 Clouds 9 1020 70 10000 12.9 20 16:41 30.12.2019
1674 Clouds 9 1020 66 10000 13.9 20 16:20 30.12.2019
1675 Rain 9 1020 70 7000 13.9 20 15:57 30.12.2019
1676 Rain 9 1020 70 7000 13.9 20 15:39 30.12.2019
1677 Rain 9 1020 75 7000 12.3 20 15:19 30.12.2019
1678 Rain 9 1020 70 10000 12.9 20 14:55 30.12.2019
1679 Rain 9 1020 70 10000 12.9 20 14:37 30.12.2019
1680 Rain 9 1020 70 10000 12.3 20 14:18 30.12.2019
1681 Rain 9 1019 70 10000 13.4 30 13:42 30.12.2019
1682 Rain 9 1019 76 10000 12.9 20 13:24 30.12.2019
1683 Rain 9 1019 76 10000 12.9 20 12:58 30.12.2019
1684 Rain 9 1019 70 10000 13.4 30 12:40 30.12.2019
1685 Clouds 9 1019 66 10000 11.8 20 12:19 30.12.2019
1686 Clouds 9 1019 66 10000 11.8 20 11:56 30.12.2019
1687 Clouds 10 1019 66 10000 11.8 20 11:38 30.12.2019
1688 Clouds 10 1020 66 10000 12.9 20 11:18 30.12.2019
1689 Clouds 10 1020 61 10000 11.8 30 10:43 30.12.2019
1690 Clouds 9 1020 66 10000 12.9 30 10:20 30.12.2019
1691 Clouds 9 1020 66 10000 10.8 30 09:55 30.12.2019
1692 Clouds 9 1020 66 10000 10.8 30 09:37 30.12.2019
1693 Clouds 9 1020 70 10000 11.8 40 09:18 30.12.2019
1694 Clouds 9 1020 66 10000 8.2 40 08:46 30.12.2019
1695 Clouds 9 1020 66 10000 9.3 40 08:23 30.12.2019
1696 Rain 9 1020 70 10000 8.7 50 07:53 30.12.2019
1697 Rain 9 1020 70 10000 8.7 50 07:32 30.12.2019
1698 Rain 8 1020 87 10000 5.7 50 06:39 30.12.2019
1699 Rain 7 1020 93 10000 7.2 20 04:45 30.12.2019
1700 Rain 7 1021 93 10000 5.7 80 03:52 30.12.2019
1701 Rain 7 1021 65 10000 6.7 30 02:47 30.12.2019
1702 Rain 7 1021 65 10000 6.7 30 02:29 30.12.2019
1703 Rain 7 1021 81 10000 3.1 50 01:43 30.12.2019
1704 Rain 7 1021 87 10000 3.1 80 01:19 30.12.2019
1705 Rain 7 1021 75 10000 5.1 20 00:42 30.12.2019
1706 Rain 7 1021 81 10000 4.6 20 23:58 29.12.2019
1707 Rain 7 1022 87 10000 2.6 20 23:38 29.12.2019
1708 Rain 7 1022 87 10000 2.6 20 23:38 29.12.2019
1709 Rain 6 1023 75 10000 11.3 40 23:19 29.12.2019
1710 Rain 6 1022 86 6000 4.1 10 22:41 29.12.2019
1711 Rain 6 1022 86 6000 4.1 10 22:41 29.12.2019
1712 Rain 6 1023 93 6000 4.1 20 22:22 29.12.2019
1713 Rain 6 1022 86 6000 4.6 360 21:56 29.12.2019
1714 Rain 6 1022 86 6000 4.6 360 21:38 29.12.2019
1715 Rain 6 1022 86 6000 6.2 20 21:20 29.12.2019
1716 Rain 6 1022 86 6000 7.2 360 20:56 29.12.2019
1717 Rain 6 1022 86 6000 7.2 360 20:38 29.12.2019
1718 Rain 6 1022 80 10000 8.2 360 20:20 29.12.2019
1719 Rain 6 1022 80 10000 8.2 360 19:58 29.12.2019
1720 Rain 6 1022 80 8000 8.7 360 19:39 29.12.2019
1721 Rain 6 1022 86 7000 8.2 360 19:20 29.12.2019
1722 Rain 6 1022 86 6000 7.2 10 18:55 29.12.2019
1723 Rain 6 1022 86 6000 7.2 10 18:37 29.12.2019
1724 Rain 6 1023 93 6000 6.7 30 18:19 29.12.2019
1725 Rain 6 1023 93 6000 6.7 30 18:19 29.12.2019
1726 Rain 6 1022 86 10000 4.1 350 17:56 29.12.2019
1727 Rain 6 1022 86 10000 4.1 350 17:38 29.12.2019
1728 Rain 6 1022 86 10000 4.1 350 17:38 29.12.2019
1729 Rain 6 1022 86 10000 6.2 360 17:19 29.12.2019
1730 Clouds 6 1022 86 10000 5.1 360 16:56 29.12.2019
1731 Clouds 6 1022 86 10000 5.1 360 16:36 29.12.2019
1732 Clouds 6 1022 86 10000 5.7 350 16:18 29.12.2019
1733 Rain 6 1022 86 4000 11.3 20 15:56 29.12.2019
1734 Rain 7 1022 75 10000 7.2 10 15:38 29.12.2019
1735 Clouds 6 1022 75 10000 6.2 360 15:19 29.12.2019
1736 Clouds 6 1021 75 10000 7.2 360 14:55 29.12.2019
1737 Clouds 6 1021 75 10000 7.2 360 14:37 29.12.2019
1738 Rain 6 1021 80 10000 7.7 360 14:18 29.12.2019
1739 Rain 6 1021 75 10000 7.2 360 13:55 29.12.2019
1740 Rain 6 1021 75 10000 7.2 360 13:37 29.12.2019
1741 Clouds 7 1021 75 10000 7.7 360 13:18 29.12.2019
1742 Clouds 6 1021 70 10000 7.7 360 12:42 29.12.2019
1743 Clouds 6 1021 86 10000 7.2 350 12:24 29.12.2019
1744 Rain 6 1021 86 7000 8.2 350 11:56 29.12.2019
1745 Rain 6 1021 86 7000 8.2 350 11:37 29.12.2019
1746 Rain 7 1021 80 7000 9.3 360 11:19 29.12.2019
1747 Rain 6 1021 80 4000 8.2 20 10:42 29.12.2019
1748 Clouds 7 1022 75 10000 3.6 20 10:22 29.12.2019
1749 Clouds 7 1022 75 10000 7.2 10 09:56 29.12.2019
1750 Clouds 6 1022 75 10000 7.2 10 09:38 29.12.2019
1751 Rain 6 1022 70 10000 5.1 10 09:19 29.12.2019
1752 Rain 6 1021 75 10000 6.7 10 08:46 29.12.2019
1753 Clouds 6 1021 81 10000 8.2 360 08:24 29.12.2019
1754 Clouds 6 1021 74 10000 7.7 10 07:54 29.12.2019
1755 Clouds 6 1021 74 10000 7.7 10 07:28 29.12.2019
1756 Clouds 5 1020 74 10000 6.7 360 06:53 29.12.2019
1757 Clouds 6 1020 74 10000 7.7 360 06:24 29.12.2019
1758 Clouds 6 1020 70 10000 7.2 360 05:51 29.12.2019
1759 Rain 6 1020 80 10000 4.1 20 04:36 29.12.2019
1760 Rain 6 1020 80 10000 7.2 10 03:43 29.12.2019
1761 Rain 6 1020 80 10000 8.2 10 03:19 29.12.2019
1762 Rain 6 1020 80 10000 7.7 360 02:20 29.12.2019
1763 Rain 6 1020 80 10000 7.7 360 02:20 29.12.2019
1764 Rain 6 1020 86 10000 3.6 350 01:31 29.12.2019
1765 Rain 6 1020 86 10000 3.6 350 01:31 29.12.2019
1766 Rain 6 1019 80 10000 4.6 20 00:55 29.12.2019
1767 Rain 6 1019 80 10000 4.6 20 00:36 29.12.2019
1768 Rain 6 1019 75 10000 9.3 60 00:18 29.12.2019
1769 Rain 6 1019 75 10000 6.2 20 23:41 28.12.2019
1770 Rain 6 1019 80 10000 6.7 30 23:18 28.12.2019
1771 Rain 6 1019 75 10000 4.1 10 22:39 28.12.2019
1772 Rain 6 1019 80 10000 4.6 340 22:20 28.12.2019
1773 Rain 6 1019 80 10000 4.6 340 21:58 28.12.2019
1774 Rain 6 1019 80 10000 6.2 360 21:39 28.12.2019
1775 Rain 6 1019 80 10000 3.6 40 21:20 28.12.2019
1776 Clouds 6 1019 80 8000 4.6 30 20:56 28.12.2019
1777 Clouds 6 1019 80 8000 4.6 30 20:37 28.12.2019
1778 Rain 6 1019 86 8000 6.2 30 20:18 28.12.2019
1779 Rain 6 1019 86 8000 5.1 30 19:55 28.12.2019
1780 Rain 6 1019 86 8000 5.1 30 19:36 28.12.2019
1781 Rain 6 1019 80 8000 6.7 20 19:18 28.12.2019
1782 Rain 6 1018 93 9000 5.1 20 18:55 28.12.2019
1783 Rain 6 1018 93 9000 5.1 20 18:37 28.12.2019
1784 Rain 5 1018 86 7000 6.2 20 18:18 28.12.2019
1785 Rain 6 1018 86 7000 6.2 10 17:42 28.12.2019
1786 Rain 6 1018 86 8000 7.2 360 17:21 28.12.2019
1787 Rain 6 1018 86 10000 5.1 360 16:55 28.12.2019
1788 Rain 6 1018 86 10000 5.1 360 16:37 28.12.2019
1789 Rain 6 1018 80 10000 5.1 10 16:19 28.12.2019
1790 Rain 6 1018 80 10000 5.1 10 15:43 28.12.2019
1791 Thunderstorm 6 1018 93 4000 5.7 350 15:21 28.12.2019
1792 Rain 6 1017 86 10000 5.7 350 14:48 28.12.2019
1793 Rain 6 1017 86 10000 5.7 20 14:26 28.12.2019
1794 Rain 6 1017 86 10000 6.2 80 13:58 28.12.2019
1795 Rain 6 1017 93 10000 5.7 360 13:40 28.12.2019
1796 Rain 6 1017 93 10000 5.1 340 13:20 28.12.2019
1797 Rain 6 1017 93 3600 2.6 200 12:57 28.12.2019
1798 Rain 6 1017 86 10000 5.7 330 12:39 28.12.2019
1799 Rain 6 1017 86 10000 2.6 340 12:20 28.12.2019
1800 Clouds 6 1017 75 10000 4.1 20 11:40 28.12.2019
1801 Clouds 6 1017 75 10000 3.1 40 11:21 28.12.2019
1802 Rain 6 1017 86 4200 3.1 160 11:21 28.12.2019
1803 Rain 7 1017 93 10000 3.6 270 10:56 28.12.2019
1804 Clouds 7 1017 70 10000 4.1 50 10:37 28.12.2019
1805 Clouds 6 1017 86 10000 3.1 300 10:18 28.12.2019
1806 Clouds 6 1018 81 10000 3.1 20 09:46 28.12.2019
1807 Clouds 6 1018 75 10000 5.1 20 09:24 28.12.2019
1808 Clouds 6 1018 75 10000 5.1 20 08:58 28.12.2019
1809 Clouds 6 1018 81 10000 3.1 20 08:40 28.12.2019
1810 Rain 5 1018 86 10000 1.5 20 08:22 28.12.2019
1811 Rain 5 1018 86 10000 2.1 70 07:43 28.12.2019
1812 Rain 5 1018 86 10000 3.1 30 07:21 28.12.2019
1813 Rain 5 1017 86 10000 5.7 10 05:45 28.12.2019
1814 Clouds 5 1017 93 10000 2.6 60 03:48 28.12.2019
1815 Clouds 6 1018 70 10000 4.6 320 02:50 28.12.2019
1816 Clouds 6 1018 75 10000 3.6 320 02:20 28.12.2019
1817 Clouds 6 1017 75 10000 4.1 350 01:54 28.12.2019
1818 Clouds 7 1018 75 10000 4.6 350 01:22 28.12.2019
1819 Clouds 7 1018 75 10000 4.6 350 00:45 28.12.2019
1820 Clouds 7 1018 76 10000 5.7 330 00:27 28.12.2019
1821 Clouds 7 1018 76 10000 5.7 330 23:57 27.12.2019
1822 Clouds 6 1017 75 10000 2.6 320 23:37 27.12.2019
1823 Rain 7 1018 81 10000 6.2 350 23:18 27.12.2019
1824 Clouds 7 1018 70 10000 2.6 340 22:55 27.12.2019
1825 Clouds 7 1018 70 10000 2.6 340 22:37 27.12.2019
1826 Clouds 6 1018 70 10000 2.6 330 22:19 27.12.2019
1827 Clouds 6 1018 75 10000 2.1 330 21:41 27.12.2019
1828 Clouds 7 1018 70 10000 2.6 350 21:23 27.12.2019
1829 Clouds 7 1018 70 10000 2.6 340 20:44 27.12.2019
1830 Clouds 7 1018 75 10000 2.1 100 20:26 27.12.2019
1831 Clouds 7 1018 75 10000 2.1 100 19:58 27.12.2019
1832 Clouds 7 1018 75 10000 2.1 100 19:58 27.12.2019
1833 Clouds 7 1018 65 10000 1.5 320 19:40 27.12.2019
1834 Clouds 7 1018 65 10000 2.1 320 19:19 27.12.2019
1835 Clouds 7 1018 70 10000 2.1 350 18:55 27.12.2019
1836 Clouds 7 1018 70 10000 2.1 350 18:36 27.12.2019
1837 Clouds 7 1018 65 10000 2.6 350 18:18 27.12.2019
1838 Clouds 7 1018 65 10000 2.6 340 17:55 27.12.2019
1839 Thunderstorm 8 1017 81 10000 2.6 40 17:36 27.12.2019
1840 Thunderstorm 8 1017 81 10000 2.6 40 17:18 27.12.2019
1841 Rain 8 1018 65 10000 2.1 330 16:41 27.12.2019
1842 Rain 8 1018 66 10000 3.1 290 16:22 27.12.2019
1843 Clouds 9 1018 61 10000 3.6 250 15:57 27.12.2019
1844 Clouds 9 1018 61 10000 3.6 250 15:37 27.12.2019
1845 Clouds 9 1018 61 10000 3.6 250 15:37 27.12.2019
1846 Clouds 9 1018 61 10000 3.6 230 15:18 27.12.2019
1847 Clouds 9 1018 61 10000 3.6 240 14:55 27.12.2019
1848 Clouds 9 1018 61 10000 3.6 240 14:37 27.12.2019
1849 Clouds 9 1018 61 10000 3.6 240 14:19 27.12.2019
1850 Clouds 9 1017 57 10000 3.1 230 13:44 27.12.2019
1851 Clouds 9 1017 53 10000 1.5 0 13:22 27.12.2019
1852 Clouds 9 1018 61 10000 1.5 30 12:48 27.12.2019
1853 Clouds 9 1018 61 10000 1.5 30 12:29 27.12.2019
1854 Clouds 8 1018 66 10000 3.1 330 11:59 27.12.2019
1855 Clouds 8 1018 66 10000 3.6 320 11:41 27.12.2019
1856 Clouds 8 1018 66 10000 3.6 310 11:20 27.12.2019
1857 Clouds 8 1018 66 10000 3.6 310 11:20 27.12.2019
1858 Clouds 8 1018 66 10000 3.6 310 11:20 27.12.2019
1859 Clouds 8 1018 66 10000 3.1 300 10:46 27.12.2019
1860 Clouds 8 1018 70 10000 3.1 330 10:24 27.12.2019
1861 Clouds 7 1019 70 10000 3.1 330 09:55 27.12.2019
1862 Clouds 7 1019 70 10000 3.1 330 09:37 27.12.2019
1863 Clouds 7 1018 70 10000 3.1 350 09:19 27.12.2019
1864 Clouds 7 1018 70 10000 3.1 350 09:19 27.12.2019
1865 Clouds 7 1018 81 10000 2.6 90 08:43 27.12.2019
1866 Clouds 7 1019 70 10000 4.6 350 08:25 27.12.2019
1867 Clouds 7 1019 75 10000 4.1 10 07:38 27.12.2019
1868 Clouds 8 1019 65 10000 4.6 350 07:19 27.12.2019
1869 Clouds 8 1018 65 10000 5.1 320 06:25 27.12.2019
1870 Clouds 8 1017 70 10000 4.1 330 04:40 27.12.2019
1871 Clouds 8 1017 81 10000 4.1 330 02:29 27.12.2019
1872 Clouds 8 1017 81 10000 4.1 320 01:45 27.12.2019
1873 Clouds 8 1016 81 10000 3.1 330 01:23 27.12.2019
1874 Clouds 9 1016 87 10000 1.5 330 00:47 27.12.2019
1875 Clouds 9 1016 81 10000 3.1 340 00:27 27.12.2019
1876 Clouds 8 1016 75 10000 3.1 350 23:56 26.12.2019
1877 Clouds 8 1016 75 10000 3.1 350 23:38 26.12.2019
1878 Clouds 8 1016 81 10000 3.1 310 23:19 26.12.2019
1879 Clouds 9 1016 81 10000 1 290 22:40 26.12.2019
1880 Clouds 8 1016 86 10000 1.5 10 22:18 26.12.2019
1881 Clouds 9 1016 81 10000 2.6 20 21:40 26.12.2019
1882 Rain 8 1016 81 10000 5.7 350 21:21 26.12.2019
1883 Rain 9 1016 75 10000 5.7 340 20:58 26.12.2019
1884 Rain 9 1016 75 10000 5.7 340 20:39 26.12.2019
1885 Rain 9 1016 75 10000 5.7 340 20:39 26.12.2019
1886 Rain 9 1016 75 10000 4.1 330 20:21 26.12.2019
1887 Rain 9 1016 75 10000 5.1 350 19:56 26.12.2019
1888 Rain 9 1016 75 10000 5.1 350 19:38 26.12.2019
1889 Clouds 9 1015 66 10000 6.2 340 19:19 26.12.2019
1890 Clouds 9 1015 66 10000 6.2 350 18:57 26.12.2019
1891 Clouds 9 1015 66 10000 6.2 350 18:36 26.12.2019
1892 Clouds 9 1015 61 10000 5.7 360 18:18 26.12.2019
1893 Clouds 9 1014 66 10000 6.7 350 17:42 26.12.2019
1894 Clouds 9 1014 66 10000 5.7 350 17:22 26.12.2019
1895 Clouds 9 1014 66 10000 6.2 350 16:50 26.12.2019
1896 Clouds 9 1013 66 10000 8.2 360 16:28 26.12.2019
1897 Clouds 9 1013 66 10000 8.2 360 15:58 26.12.2019
1898 Clouds 9 1013 66 10000 8.2 360 15:40 26.12.2019
1899 Clouds 9 1013 66 10000 7.2 350 15:19 26.12.2019
1900 Clouds 9 1013 70 10000 6.2 350 14:42 26.12.2019
1901 Clouds 9 1012 70 10000 8.7 360 14:23 26.12.2019
1902 Clouds 10 1012 70 10000 8.2 350 13:57 26.12.2019
1903 Clouds 10 1012 70 10000 8.2 350 13:39 26.12.2019
1904 Clouds 10 1012 70 10000 8.2 350 13:39 26.12.2019
1905 Clouds 10 1012 76 10000 9.3 340 13:18 26.12.2019
1906 Rain 10 1011 81 10000 5.7 350 12:45 26.12.2019
1907 Rain 9 1012 93 10000 4.6 350 12:26 26.12.2019
1908 Rain 10 1012 93 10000 4.6 350 11:59 26.12.2019
1909 Rain 10 1012 81 10000 7.7 350 11:40 26.12.2019
1910 Rain 10 1012 76 10000 5.7 350 11:22 26.12.2019
1911 Rain 10 1012 87 10000 5.1 360 10:50 26.12.2019
1912 Rain 10 1012 76 10000 6.7 360 10:27 26.12.2019
1913 Rain 10 1012 76 10000 6.7 360 09:59 26.12.2019
1914 Clouds 9 1012 76 10000 6.7 340 09:41 26.12.2019
1915 Clouds 10 1012 76 10000 5.7 350 09:22 26.12.2019
1916 Clouds 9 1011 76 10000 6.2 360 08:39 26.12.2019
1917 Clouds 9 1011 76 10000 6.2 350 08:21 26.12.2019
1918 Clouds 9 1011 76 10000 5.1 350 07:44 26.12.2019
1919 Clouds 9 1011 76 10000 5.1 350 07:24 26.12.2019
1920 Clouds 9 1010 87 10000 5.7 350 06:38 26.12.2019
1921 Clouds 9 1010 87 10000 5.7 350 06:20 26.12.2019
1922 Clouds 9 1009 81 10000 6.7 350 05:42 26.12.2019
1923 Clouds 9 1009 87 10000 6.2 350 04:33 26.12.2019
1924 Rain 9 1009 87 10000 6.7 360 03:31 26.12.2019
1925 Clouds 9 1009 87 10000 5.7 350 02:46 26.12.2019
1926 Rain 9 1009 87 10000 6.2 350 02:27 26.12.2019
1927 Rain 9 1009 87 10000 5.7 350 01:44 26.12.2019
1928 Rain 9 1009 87 10000 6.7 350 01:25 26.12.2019
1929 Rain 9 1009 93 10000 4.1 340 00:44 26.12.2019
1930 Rain 9 1009 93 10000 4.6 350 00:23 26.12.2019
1931 Rain 9 1009 93 10000 4.6 350 00:23 26.12.2019
1932 Rain 9 1009 93 10000 4.1 330 23:57 25.12.2019
1933 Rain 9 1009 93 10000 4.1 330 23:37 25.12.2019
1934 Rain 9 1008 87 10000 4.6 340 23:19 25.12.2019
1935 Rain 9 1009 93 10000 4.1 350 22:56 25.12.2019
1936 Rain 9 1009 93 10000 4.1 350 22:37 25.12.2019
1937 Clouds 9 1009 76 10000 4.6 350 22:18 25.12.2019
1938 Clouds 10 1008 81 10000 4.1 350 21:55 25.12.2019
1939 Clouds 9 1008 81 10000 4.1 350 21:37 25.12.2019
1940 Clouds 9 1008 81 10000 4.1 350 21:18 25.12.2019
1941 Clouds 10 1008 81 10000 4.1 350 20:40 25.12.2019
1942 Clouds 10 1008 81 10000 4.1 10 20:21 25.12.2019
1943 Clouds 10 1008 76 10000 5.1 10 19:59 25.12.2019
1944 Clouds 10 1008 76 10000 5.1 10 19:40 25.12.2019
1945 Clouds 10 1008 81 10000 4.1 360 19:21 25.12.2019
1946 Clouds 10 1008 76 10000 5.1 360 18:40 25.12.2019
1947 Clouds 10 1008 76 10000 5.1 10 18:20 25.12.2019
1948 Clouds 10 1008 76 10000 5.1 10 17:57 25.12.2019
1949 Clouds 10 1008 76 10000 4.1 10 17:39 25.12.2019
1950 Clouds 10 1007 81 10000 5.1 360 17:18 25.12.2019
1951 Clouds 10 1007 81 10000 5.1 10 16:39 25.12.2019
1952 Clouds 10 1007 81 8000 6.2 350 16:20 25.12.2019
1953 Clouds 10 1007 81 8000 6.2 350 15:59 25.12.2019
1954 Clouds 10 1007 81 8000 6.2 350 15:40 25.12.2019
1955 Clouds 9 1007 81 9000 6.2 340 15:21 25.12.2019
1956 Clouds 9 1007 81 9000 6.7 340 14:59 25.12.2019
1957 Clouds 9 1007 81 9000 6.7 340 14:40 25.12.2019
1958 Rain 10 1007 87 8000 5.7 350 14:22 25.12.2019
1959 Rain 10 1007 87 10000 5.7 350 13:57 25.12.2019
1960 Rain 10 1007 87 10000 5.7 350 13:39 25.12.2019
1961 Rain 10 1007 76 10000 6.2 350 13:19 25.12.2019
1962 Rain 10 1007 87 10000 5.7 350 12:43 25.12.2019
1963 Rain 10 1007 76 10000 5.1 350 12:21 25.12.2019
1964 Rain 10 1007 76 10000 5.1 350 12:21 25.12.2019
1965 Clouds 10 1007 71 10000 5.7 340 11:57 25.12.2019
1966 Clouds 10 1007 71 10000 5.7 340 11:39 25.12.2019
1967 Clouds 10 1007 76 10000 4.1 340 11:20 25.12.2019
1968 Clouds 10 1007 71 10000 4.6 330 10:39 25.12.2019
1969 Clouds 10 1007 71 10000 5.1 340 10:21 25.12.2019
1970 Clouds 10 1007 71 10000 5.1 340 09:51 25.12.2019
1971 Clouds 10 1007 71 10000 5.1 340 09:33 25.12.2019
1972 Clouds 10 1007 71 10000 4.6 340 08:51 25.12.2019
1973 Clouds 10 1007 71 10000 4.6 340 08:31 25.12.2019
1974 Clouds 10 1007 70 10000 4.1 330 07:59 25.12.2019
1975 Clouds 10 1007 70 10000 4.1 330 07:59 25.12.2019
1976 Clouds 10 1007 70 10000 3.6 330 07:37 25.12.2019
1977 Clouds 10 1007 76 10000 2.1 310 07:19 25.12.2019
1978 Clouds 10 1006 76 10000 4.1 330 06:23 25.12.2019
1979 Clouds 10 1006 76 10000 5.1 340 05:43 25.12.2019
1980 Clouds 10 1006 76 10000 5.1 330 04:39 25.12.2019
1981 Clouds 10 1006 76 10000 4.6 330 04:20 25.12.2019
1982 Clouds 9 1006 76 10000 4.6 320 03:43 25.12.2019
1983 Clouds 10 1006 76 10000 5.1 330 02:57 25.12.2019
1984 Clouds 10 1006 76 10000 5.1 330 02:28 25.12.2019
1985 Clouds 10 1006 76 10000 5.7 330 01:26 25.12.2019
1986 Clouds 10 1006 76 10000 5.1 320 00:56 25.12.2019
1987 Clouds 10 1006 76 10000 5.1 320 00:33 25.12.2019
1988 Clouds 10 1006 71 10000 4.1 320 23:59 24.12.2019
1989 Clouds 10 1006 71 10000 4.1 320 23:39 24.12.2019
1990 Clouds 10 1006 71 10000 4.1 320 23:39 24.12.2019
1991 Clouds 11 1006 71 10000 3.6 320 23:20 24.12.2019
1992 Clouds 11 1006 71 10000 3.6 320 23:20 24.12.2019
1993 Clouds 11 1006 66 10000 4.6 320 22:42 24.12.2019
1994 Clouds 11 1006 66 10000 3.6 310 22:23 24.12.2019
1995 Clouds 11 1006 71 10000 4.6 320 21:55 24.12.2019
1996 Clouds 11 1006 71 10000 4.6 320 21:37 24.12.2019
1997 Clouds 11 1005 66 10000 4.6 310 21:18 24.12.2019
1998 Clouds 11 1005 71 10000 3.6 320 20:41 24.12.2019
1999 Clouds 11 1005 71 10000 3.1 320 20:19 24.12.2019
2000 Clouds 11 1005 76 10000 3.1 330 19:46 24.12.2019
2001 Clouds 11 1004 71 10000 2.6 320 19:22 24.12.2019
2002 Clouds 11 1004 76 10000 2.6 320 18:58 24.12.2019
2003 Clouds 11 1004 76 10000 2.6 320 18:40 24.12.2019
2004 Clouds 11 1004 71 10000 3.6 340 18:18 24.12.2019
2005 Clouds 11 1004 71 10000 3.1 320 17:42 24.12.2019
2006 Clouds 11 1003 71 10000 3.6 330 17:21 24.12.2019
2007 Clouds 11 1003 71 10000 4.6 340 16:58 24.12.2019
2008 Clouds 11 1003 71 10000 4.6 340 16:58 24.12.2019
2009 Clouds 11 1003 71 10000 4.6 340 16:39 24.12.2019
2010 Clouds 11 1003 71 10000 4.6 330 16:20 24.12.2019
2011 Clouds 11 1002 71 10000 4.6 330 15:57 24.12.2019
2012 Clouds 11 1002 71 10000 4.6 330 15:36 24.12.2019
2013 Clouds 11 1002 71 10000 4.6 350 15:18 24.12.2019
2014 Clouds 11 1002 66 10000 5.7 340 14:57 24.12.2019
2015 Clouds 11 1002 66 10000 5.7 340 14:39 24.12.2019
2016 Clouds 11 1001 71 10000 6.2 350 14:21 24.12.2019
2017 Clouds 11 1001 71 10000 6.7 350 13:56 24.12.2019
2018 Clouds 11 1001 71 10000 6.7 350 13:37 24.12.2019
2019 Clouds 11 1001 71 10000 9.3 340 13:19 24.12.2019
2020 Clouds 11 1000 71 10000 9.3 350 12:55 24.12.2019
2021 Clouds 11 1000 71 10000 9.3 350 12:36 24.12.2019
2022 Rain 11 1000 76 10000 9.8 340 12:18 24.12.2019
2023 Rain 11 1000 76 10000 6.7 350 11:55 24.12.2019
2024 Rain 11 1000 76 10000 6.7 350 11:37 24.12.2019
2025 Rain 11 1000 76 10000 8.2 350 11:18 24.12.2019
2026 Rain 11 1000 81 10000 6.7 350 10:56 24.12.2019
2027 Rain 11 1000 81 10000 6.7 350 10:37 24.12.2019
2028 Rain 11 1000 81 10000 6.7 350 10:37 24.12.2019
2029 Rain 11 1000 87 10000 6.7 350 10:19 24.12.2019
2030 Rain 11 1000 87 10000 7.2 350 09:55 24.12.2019
2031 Rain 11 1000 87 10000 7.2 350 09:37 24.12.2019
2032 Clouds 11 999 87 10000 7.2 350 09:18 24.12.2019
2033 Rain 11 999 87 10000 8.2 350 08:44 24.12.2019
2034 Rain 11 999 87 10000 7.2 350 08:21 24.12.2019
2035 Clouds 11 998 87 10000 7.2 350 07:46 24.12.2019
2036 Clouds 11 998 87 10000 8.7 340 07:26 24.12.2019
2037 Clouds 11 998 87 10000 8.7 340 07:26 24.12.2019
2038 Clouds 11 998 87 10000 8.7 340 06:58 24.12.2019
2039 Clouds 11 998 87 10000 8.7 340 06:38 24.12.2019
2040 Clouds 11 997 87 10000 9.3 340 06:19 24.12.2019
2041 Clouds 11 997 87 10000 6.7 350 05:21 24.12.2019
2042 Clouds 11 997 87 10000 7.2 350 04:59 24.12.2019
2043 Clouds 11 996 87 10000 4.1 330 03:50 24.12.2019
2044 Clouds 11 996 87 10000 3.6 340 03:22 24.12.2019
2045 Clouds 12 996 81 10000 2.1 280 02:23 24.12.2019
2046 Clouds 11 996 81 10000 1 0 01:50 24.12.2019
2047 Clouds 12 996 81 10000 1 50 01:22 24.12.2019
2048 Clouds 12 996 81 10000 1.5 260 00:45 24.12.2019
2049 Clouds 12 996 76 10000 3.1 220 00:24 24.12.2019
2050 Clouds 12 996 87 10000 2.6 200 23:59 23.12.2019
2051 Clouds 12 996 76 10000 3.6 180 23:40 23.12.2019
2052 Clouds 12 996 76 10000 4.1 200 23:22 23.12.2019
2053 Clouds 12 996 81 10000 3.6 190 22:56 23.12.2019
2054 Clouds 12 996 81 10000 3.6 190 22:37 23.12.2019
2055 Clouds 12 996 76 10000 4.1 180 22:18 23.12.2019
2056 Rain 12 996 81 10000 6.2 180 21:55 23.12.2019
2057 Rain 12 996 81 10000 6.2 180 21:36 23.12.2019
2058 Rain 12 996 87 10000 5.1 180 21:18 23.12.2019
2059 Rain 12 996 87 10000 5.1 190 20:57 23.12.2019
2060 Rain 12 996 87 10000 5.1 190 20:39 23.12.2019
2061 Rain 12 995 81 10000 7.7 210 20:18 23.12.2019
2062 Rain 12 995 81 10000 9.8 190 19:55 23.12.2019
2063 Rain 12 995 81 10000 9.8 190 19:37 23.12.2019
2064 Clouds 13 996 81 10000 7.7 210 19:19 23.12.2019
2065 Clouds 13 995 76 10000 7.7 220 18:57 23.12.2019
2066 Clouds 13 996 76 10000 6.7 230 18:38 23.12.2019
2067 Clouds 13 996 76 10000 6.7 230 18:20 23.12.2019
2068 Clouds 13 996 71 10000 6.2 220 17:55 23.12.2019
2069 Clouds 13 996 71 10000 6.2 220 17:37 23.12.2019
2070 Rain 13 996 62 10000 4.6 220 17:19 23.12.2019
2071 Rain 13 996 76 8000 6.2 230 16:42 23.12.2019
2072 Rain 13 995 76 8000 5.7 250 16:19 23.12.2019
2073 Rain 13 996 76 8000 7.7 250 15:59 23.12.2019
2074 Rain 13 996 76 8000 7.7 250 15:38 23.12.2019
2075 Rain 14 995 71 8000 7.2 220 15:20 23.12.2019
2076 Rain 14 995 71 8000 7.2 220 14:59 23.12.2019
2077 Rain 15 995 67 8000 7.2 200 14:41 23.12.2019
2078 Clouds 15 995 67 10000 7.2 190 14:22 23.12.2019
2079 Clouds 15 995 62 10000 7.7 190 13:58 23.12.2019
2080 Clouds 15 995 62 10000 7.7 190 13:40 23.12.2019
2081 Clouds 16 995 67 10000 6.7 200 13:22 23.12.2019
2082 Clouds 15 995 62 10000 7.7 190 12:57 23.12.2019
2083 Clouds 15 995 62 10000 7.7 190 12:39 23.12.2019
2084 Clouds 16 995 59 10000 7.7 200 12:19 23.12.2019
2085 Clouds 15 995 67 10000 8.7 210 11:44 23.12.2019
2086 Clouds 15 996 62 10000 7.7 190 11:26 23.12.2019
2087 Rain 15 996 62 10000 9.3 200 10:59 23.12.2019
2088 Clouds 15 997 67 10000 7.7 190 10:40 23.12.2019
2089 Clouds 15 997 71 10000 8.2 200 10:21 23.12.2019
2090 Clouds 15 997 71 10000 8.2 200 09:59 23.12.2019
2091 Clouds 15 997 67 10000 9.5 197 09:40 23.12.2019
2092 Clouds 15 997 67 10000 9.5 197 09:21 23.12.2019
2093 Rain 15 997 71 10000 9.3 200 08:56 23.12.2019
2094 Rain 15 997 71 10000 9.3 200 08:38 23.12.2019
2095 Clouds 15 997 67 10000 9.19 182 08:20 23.12.2019
2096 Rain 15 997 71 10000 9.19 182 07:43 23.12.2019
2097 Clouds 15 997 71 10000 9.19 182 07:20 23.12.2019
2098 Rain 15 997 62 10000 11.8 180 06:53 23.12.2019
2099 Clouds 15 997 62 10000 13.4 190 06:25 23.12.2019
2100 Clouds 15 997 67 10000 11.3 190 05:50 23.12.2019
2101 Clouds 15 997 67 10000 11.3 190 05:27 23.12.2019
2102 Rain 15 997 67 10000 3.1 200 04:31 23.12.2019
2103 Rain 15 998 67 10000 4.1 200 03:18 23.12.2019
2104 Rain 16 998 59 10000 5.7 210 02:40 23.12.2019
2105 Rain 16 999 59 10000 5.7 180 02:18 23.12.2019
2106 Rain 16 999 59 10000 5.7 180 02:18 23.12.2019
2107 Clouds 16 999 59 10000 3.6 150 01:41 23.12.2019
2108 Rain 16 999 55 10000 7.2 170 01:19 23.12.2019
2109 Rain 16 999 63 10000 7.2 180 00:43 23.12.2019
2110 Rain 16 1000 67 10000 4.1 170 00:21 23.12.2019
2111 Clouds 16 1001 63 10000 6.2 170 23:39 22.12.2019
2112 Rain 16 1001 67 10000 7.7 180 23:21 22.12.2019
2113 Rain 16 1002 63 10000 8.2 180 22:58 22.12.2019
2114 Rain 16 1002 63 10000 8.2 180 22:39 22.12.2019
2115 Rain 17 1003 72 10000 10.3 200 22:19 22.12.2019
2116 Rain 17 1003 63 10000 13.4 200 21:57 22.12.2019
2117 Rain 17 1003 63 10000 13.4 200 21:39 22.12.2019
2118 Rain 17 1003 63 10000 5.7 200 21:21 22.12.2019
2119 Rain 17 1003 59 10000 4.1 230 20:57 22.12.2019
2120 Rain 17 1003 59 10000 4.1 230 20:38 22.12.2019
2121 Clouds 17 1003 63 10000 4.6 190 20:18 22.12.2019
2122 Clouds 17 1004 63 10000 3.6 200 19:55 22.12.2019
2123 Clouds 17 1004 63 10000 3.6 200 19:37 22.12.2019
2124 Clouds 17 1004 63 10000 4.1 200 19:18 22.12.2019
2125 Clouds 17 1004 63 10000 4.6 190 18:40 22.12.2019
2126 Clouds 17 1005 59 10000 6.7 200 18:22 22.12.2019
2127 Clouds 17 1005 59 10000 5.7 200 17:55 22.12.2019
2128 Clouds 17 1005 59 10000 5.7 200 17:37 22.12.2019
2129 Clouds 17 1005 59 10000 5.7 200 17:18 22.12.2019
2130 Clouds 17 1005 59 10000 6.7 200 16:56 22.12.2019
2131 Clouds 17 1005 59 10000 6.7 200 16:37 22.12.2019
2132 Clouds 17 1005 59 10000 7.7 200 16:19 22.12.2019
2133 Clouds 18 1006 63 10000 9.3 210 15:55 22.12.2019
2134 Clouds 18 1006 63 10000 9.3 210 15:36 22.12.2019
2135 Clouds 18 1006 63 10000 5.7 210 15:18 22.12.2019
2136 Clouds 18 1006 63 10000 6.2 210 14:54 22.12.2019
2137 Clouds 18 1006 63 10000 6.2 210 14:54 22.12.2019
2138 Clouds 18 1006 63 10000 6.2 210 14:36 22.12.2019
2139 Clouds 19 1007 59 10000 7.7 200 14:18 22.12.2019
2140 Clouds 19 1007 59 10000 7.7 200 14:18 22.12.2019
2141 Clouds 19 1007 59 10000 6.7 210 13:54 22.12.2019
2142 Clouds 18 1007 59 10000 6.7 210 13:36 22.12.2019
2143 Clouds 18 1007 59 10000 6.7 210 13:18 22.12.2019
2144 Clouds 18 1007 63 10000 7.2 210 12:54 22.12.2019
2145 Clouds 18 1007 63 10000 7.2 210 12:36 22.12.2019
2146 Clouds 19 1007 59 10000 8.2 220 12:18 22.12.2019
2147 Clouds 18 1008 63 10000 7.7 210 11:39 22.12.2019
2148 Clouds 18 1008 63 10000 7.2 210 11:20 22.12.2019
2149 Clouds 18 1008 63 10000 7.2 210 10:58 22.12.2019
2150 Clouds 18 1008 63 10000 7.2 210 10:40 22.12.2019
2151 Clouds 18 1008 63 10000 10.3 210 10:21 22.12.2019
2152 Clouds 17 1008 63 10000 10.3 210 09:58 22.12.2019
2153 Clouds 18 1009 63 10000 9.8 210 09:40 22.12.2019
2154 Clouds 17 1009 67 10000 9.8 210 09:21 22.12.2019
2155 Clouds 17 1009 72 10000 10.3 210 08:55 22.12.2019
2156 Clouds 17 1009 72 10000 10.3 210 08:37 22.12.2019
2157 Clouds 17 1010 67 10000 10.3 210 08:18 22.12.2019
2158 Clouds 17 1010 67 10000 9.8 200 07:36 22.12.2019
2159 Clouds 16 1010 72 10000 8.2 210 07:18 22.12.2019
2160 Clouds 16 1010 72 10000 8.2 220 06:40 22.12.2019
2161 Clouds 16 1010 72 10000 8.7 220 05:49 22.12.2019
2162 Clouds 17 1010 67 10000 9.3 210 05:21 22.12.2019
2163 Clouds 16 1009 67 10000 10.3 210 04:27 22.12.2019
2164 Clouds 16 1010 67 10000 9.3 200 03:28 22.12.2019
2165 Clouds 16 1010 67 10000 6.7 170 02:35 22.12.2019
2166 Clouds 16 1011 72 10000 7.2 190 01:37 22.12.2019
2167 Clouds 16 1011 67 10000 7.2 200 01:18 22.12.2019
2168 Clouds 16 1011 77 10000 7.7 200 00:45 22.12.2019
2169 Clouds 16 1011 67 10000 9.3 200 00:21 22.12.2019
2170 Clouds 16 1011 67 10000 10.3 200 23:42 21.12.2019
2171 Clouds 16 1011 72 10000 10.8 200 23:24 21.12.2019
2172 Clouds 16 1011 72 10000 8.7 210 22:59 21.12.2019
2173 Clouds 16 1011 72 10000 8.7 210 22:40 21.12.2019
2174 Clouds 16 1011 72 10000 9.8 210 22:19 21.12.2019
2175 Clouds 16 1012 72 10000 8.2 210 21:56 21.12.2019
2176 Clouds 16 1012 72 10000 8.2 210 21:37 21.12.2019
2177 Clouds 16 1012 77 10000 8.7 210 21:19 21.12.2019
2178 Clouds 16 1012 72 10000 8.7 210 20:58 21.12.2019
2179 Clouds 16 1012 72 10000 8.7 210 20:39 21.12.2019
2180 Clouds 16 1012 67 10000 9.3 210 20:21 21.12.2019
2181 Clouds 16 1012 67 10000 10.3 210 19:57 21.12.2019
2182 Clouds 16 1012 67 10000 10.3 210 19:39 21.12.2019
2183 Clouds 16 1012 67 10000 10.8 210 19:19 21.12.2019
2184 Clouds 16 1012 72 10000 8.7 200 18:44 21.12.2019
2185 Clouds 16 1012 67 10000 9.3 210 18:24 21.12.2019
2186 Clouds 16 1012 67 10000 9.8 210 17:57 21.12.2019
2187 Clouds 16 1012 67 10000 9.8 210 17:39 21.12.2019
2188 Clouds 16 1012 67 10000 8.7 200 17:21 21.12.2019
2189 Clouds 16 1012 67 10000 8.7 200 16:58 21.12.2019
2190 Clouds 16 1013 72 10000 8.2 200 16:39 21.12.2019
2191 Clouds 17 1013 72 10000 9.3 200 16:18 21.12.2019
2192 Clouds 16 1013 72 10000 7.7 200 15:56 21.12.2019
2193 Clouds 17 1014 67 10000 7.2 200 15:38 21.12.2019
2194 Clouds 17 1014 67 10000 7.2 200 15:19 21.12.2019
2195 Clouds 17 1014 67 10000 8.2 210 14:44 21.12.2019
2196 Clouds 17 1014 72 10000 7.7 200 14:25 21.12.2019
2197 Clouds 17 1014 72 10000 6.7 210 13:59 21.12.2019
2198 Clouds 17 1014 72 10000 6.7 210 13:40 21.12.2019
2199 Clouds 17 1014 72 10000 8.2 210 13:20 21.12.2019
2200 Clouds 17 1014 72 10000 8.7 200 12:58 21.12.2019
2201 Clouds 17 1014 72 10000 8.7 200 12:39 21.12.2019
2202 Clouds 17 1015 72 10000 7.2 210 12:21 21.12.2019
2203 Clouds 17 1015 72 10000 7.2 210 11:57 21.12.2019
2204 Clouds 17 1016 77 10000 6.2 200 11:39 21.12.2019
2205 Clouds 17 1016 72 10000 6.7 200 11:21 21.12.2019
2206 Clouds 17 1016 67 10000 7.2 190 10:42 21.12.2019
2207 Clouds 16 1017 72 10000 6.2 200 10:23 21.12.2019
2208 Clouds 16 1017 63 10000 6.2 200 09:59 21.12.2019
2209 Clouds 16 1017 63 10000 6.2 200 09:41 21.12.2019
2210 Clouds 16 1017 67 10000 6.2 200 09:20 21.12.2019
2211 Clouds 15 1017 71 10000 6.2 200 08:55 21.12.2019
2212 Clouds 14 1017 71 10000 6.2 200 08:36 21.12.2019
2213 Clouds 14 1017 71 10000 6.7 200 08:18 21.12.2019
2214 Clouds 14 1017 67 10000 8.2 190 07:41 21.12.2019
2215 Clouds 13 1017 67 10000 6.7 200 07:21 21.12.2019
2216 Clouds 13 1017 67 10000 7.2 190 06:42 21.12.2019
2217 Clouds 13 1017 67 10000 5.1 190 06:24 21.12.2019
2218 Clouds 13 1017 67 10000 6.2 190 05:45 21.12.2019
2219 Clouds 12 1017 71 10000 5.1 190 04:56 21.12.2019
2220 Clouds 12 1018 71 10000 6.7 190 03:56 21.12.2019
2221 Clouds 12 1018 76 10000 6.7 190 02:39 21.12.2019
2222 Clouds 12 1019 76 10000 5.1 200 01:53 21.12.2019
2223 Clouds 12 1018 76 10000 6.7 200 01:27 21.12.2019
2224 Clouds 12 1018 76 10000 7.2 200 00:50 21.12.2019
2225 Clouds 12 1018 76 10000 7.2 200 00:28 21.12.2019
2226 Clouds 13 1019 76 10000 7.2 180 23:55 20.12.2019
2227 Clouds 13 1019 76 10000 7.2 180 23:36 20.12.2019
2228 Clouds 13 1019 82 10000 6.7 180 23:18 20.12.2019
2229 Clouds 13 1020 82 10000 6.2 190 22:40 20.12.2019
2230 Clouds 13 1020 82 10000 5.1 190 22:20 20.12.2019
2231 Clouds 13 1020 82 10000 5.7 200 21:57 20.12.2019
2232 Clouds 13 1020 82 10000 5.7 200 21:39 20.12.2019
2233 Clouds 13 1020 82 10000 5.7 200 21:39 20.12.2019
2234 Clouds 13 1020 82 10000 5.7 190 21:18 20.12.2019
2235 Clouds 13 1020 82 10000 5.7 190 20:39 20.12.2019
2236 Clouds 13 1020 76 10000 6.2 190 20:19 20.12.2019
2237 Clouds 13 1020 76 10000 5.1 180 19:57 20.12.2019
2238 Clouds 13 1020 76 10000 5.1 180 19:39 20.12.2019
2239 Clouds 13 1021 76 10000 5.1 190 19:19 20.12.2019
2240 Clouds 13 1021 71 10000 5.7 180 18:42 20.12.2019
2241 Clouds 13 1021 71 10000 5.7 180 18:42 20.12.2019
2242 Clouds 13 1021 71 10000 5.1 150 18:23 20.12.2019
2243 Clouds 13 1021 71 10000 5.1 150 17:58 20.12.2019
2244 Clouds 13 1021 76 10000 4.6 150 17:40 20.12.2019
2245 Clouds 13 1021 76 10000 4.6 150 17:20 20.12.2019
2246 Clouds 13 1021 76 10000 4.6 180 16:59 20.12.2019
2247 Clouds 13 1021 76 10000 4.6 180 16:59 20.12.2019
2248 Clouds 13 1021 76 10000 4.6 180 16:38 20.12.2019
2249 Clouds 13 1021 76 10000 4.6 180 16:20 20.12.2019
2250 Clouds 13 1021 76 10000 4.6 180 16:20 20.12.2019
2251 Clouds 14 1021 76 10000 4.1 180 15:56 20.12.2019
2252 Clouds 14 1021 76 10000 3.6 180 15:38 20.12.2019
2253 Clouds 14 1021 76 10000 3.6 180 15:19 20.12.2019
2254 Clouds 15 1021 71 10000 4.1 200 14:43 20.12.2019
2255 Clouds 15 1022 71 10000 5.1 200 14:24 20.12.2019
2256 Clouds 15 1022 71 10000 5.1 200 13:57 20.12.2019
2257 Clouds 15 1022 71 10000 5.7 200 13:38 20.12.2019
2258 Clouds 15 1022 71 10000 5.7 200 13:19 20.12.2019
2259 Clouds 15 1022 71 10000 5.1 190 12:57 20.12.2019
2260 Clouds 15 1022 71 10000 5.1 190 12:37 20.12.2019
2261 Clouds 15 1022 71 10000 5.1 190 12:18 20.12.2019
2262 Clouds 15 1023 67 10000 5.7 190 11:57 20.12.2019
2263 Clouds 15 1023 67 10000 5.7 190 11:38 20.12.2019
2264 Clouds 15 1023 67 10000 5.7 190 11:38 20.12.2019
2265 Clouds 15 1023 67 10000 5.7 190 11:18 20.12.2019
2266 Clouds 15 1023 67 10000 5.7 190 11:18 20.12.2019
2267 Clouds 14 1024 67 10000 5.7 180 10:56 20.12.2019
2268 Clouds 14 1024 71 10000 3.6 170 10:37 20.12.2019
2269 Clouds 14 1024 71 10000 3.6 170 10:19 20.12.2019
2270 Clouds 13 1025 76 10000 3.6 100 09:43 20.12.2019
2271 Clouds 12 1025 76 10000 3.6 100 09:21 20.12.2019
2272 Clouds 11 1025 81 10000 2.6 120 08:55 20.12.2019
2273 Clouds 11 1025 81 10000 2.6 110 08:37 20.12.2019
2274 Clouds 10 1025 81 10000 2.6 110 08:19 20.12.2019
2275 Clouds 10 1025 81 10000 1.5 130 07:55 20.12.2019
2276 Clouds 9 1025 93 10000 1 0 07:36 20.12.2019
2277 Clouds 9 1025 87 8000 0.5 0 07:18 20.12.2019
2278 Clouds 9 1025 87 8000 0.5 0 06:43 20.12.2019
2279 Clouds 9 1025 93 10000 1.23 177 06:25 20.12.2019
2280 Clouds 9 1025 93 10000 1.23 177 05:47 20.12.2019
2281 Clouds 8 1025 93 8000 2.1 130 04:57 20.12.2019
2282 Clouds 8 1025 100 8000 1.12 155 03:49 20.12.2019
2283 Clouds 8 1026 93 8000 1.12 155 02:46 20.12.2019
2284 Clouds 8 1026 87 8000 0.5 0 01:59 20.12.2019
2285 Clouds 10 1026 93 8000 0.5 0 01:35 20.12.2019
2286 Clouds 9 1026 93 8000 0.5 0 00:54 20.12.2019
2287 Clouds 9 1026 87 8000 1 0 00:35 20.12.2019
2288 Clouds 10 1027 87 10000 2.1 110 23:58 19.12.2019
2289 Clouds 11 1027 76 10000 2.1 110 23:39 19.12.2019
2290 Clouds 10 1027 76 10000 2.1 110 23:19 19.12.2019
2291 Clouds 10 1027 76 10000 2.1 110 23:19 19.12.2019
2292 Clouds 10 1028 87 10000 0.5 0 22:39 19.12.2019
2293 Clouds 10 1028 87 10000 0.5 0 22:21 19.12.2019
2294 Clouds 10 1028 87 10000 1.5 80 21:56 19.12.2019
2295 Clouds 11 1028 87 10000 1.5 80 21:38 19.12.2019
2296 Clouds 11 1028 87 10000 1.5 80 21:19 19.12.2019
2297 Clouds 11 1028 93 10000 1.5 90 20:56 19.12.2019
2298 Clouds 11 1028 87 10000 1.5 90 20:37 19.12.2019
2299 Clouds 11 1028 87 10000 1.5 90 20:19 19.12.2019
2300 Clouds 11 1028 87 10000 1.5 90 19:58 19.12.2019
2301 Clouds 11 1028 87 10000 1.5 90 19:58 19.12.2019
2302 Clouds 11 1028 81 10000 1 0 19:39 19.12.2019
2303 Clouds 11 1028 87 10000 1.5 90 19:39 19.12.2019
2304 Clouds 11 1028 81 10000 1 0 19:19 19.12.2019
2305 Clouds 11 1028 76 10000 1.5 230 18:57 19.12.2019
2306 Clouds 11 1028 81 10000 0.5 0 18:39 19.12.2019
2307 Clouds 11 1028 81 10000 0.5 0 18:19 19.12.2019
2308 Clouds 12 1028 71 10000 2.1 220 17:55 19.12.2019
2309 Clouds 12 1028 76 10000 1 230 17:37 19.12.2019
2310 Clouds 12 1028 76 10000 1 230 17:37 19.12.2019
2311 Clouds 13 1028 71 10000 2.1 230 17:18 19.12.2019
2312 Clouds 13 1028 71 10000 2.1 230 16:55 19.12.2019
2313 Clouds 13 1028 71 10000 1 220 16:36 19.12.2019
2314 Clouds 13 1028 71 10000 1 220 16:18 19.12.2019
2315 Clouds 14 1028 67 10000 4.1 270 15:55 19.12.2019
2316 Clouds 14 1028 71 10000 3.1 260 15:36 19.12.2019
2317 Clouds 14 1028 71 10000 3.1 260 15:18 19.12.2019
2318 Clouds 15 1028 67 10000 2.1 230 14:42 19.12.2019
2319 Clouds 15 1028 71 10000 2.6 240 14:20 19.12.2019
2320 Clouds 16 1028 71 10000 3.1 240 13:58 19.12.2019
2321 Clouds 16 1029 67 10000 3.6 230 13:38 19.12.2019
2322 Clouds 16 1029 67 10000 3.6 230 13:19 19.12.2019
2323 Clouds 16 1029 67 10000 3.6 230 13:19 19.12.2019
2324 Clouds 16 1029 67 10000 3.6 230 12:57 19.12.2019
2325 Clouds 16 1029 67 10000 2.6 260 12:38 19.12.2019
2326 Clouds 16 1029 67 10000 2.6 260 12:19 19.12.2019
2327 Clouds 16 1029 67 10000 2.6 260 12:19 19.12.2019
2328 Clouds 16 1030 67 10000 3.6 240 12:19 19.12.2019
2329 Clouds 16 1030 67 10000 3.6 240 11:58 19.12.2019
2330 Clouds 16 1030 67 10000 3.1 240 11:39 19.12.2019
2331 Clouds 15 1030 67 10000 3.1 240 11:18 19.12.2019
2332 Clouds 15 1030 67 10000 3.1 240 11:18 19.12.2019
2333 Clouds 15 1030 67 10000 1.5 0 10:55 19.12.2019
2334 Clouds 15 1030 71 10000 3.1 230 10:37 19.12.2019
2335 Clouds 14 1030 71 10000 3.1 230 10:18 19.12.2019
2336 Clouds 14 1031 67 10000 3.6 230 09:40 19.12.2019
2337 Clouds 13 1031 67 10000 3.6 230 09:21 19.12.2019
2338 Clouds 13 1031 71 10000 3.6 230 08:58 19.12.2019
2339 Clouds 12 1030 71 10000 3.1 230 08:40 19.12.2019
2340 Clear 11 1030 71 10000 3.1 240 08:19 19.12.2019
2341 Clear 11 1030 71 10000 3.1 240 07:57 19.12.2019
2342 Clear 11 1030 76 10000 3.6 220 07:38 19.12.2019
2343 Clear 11 1030 76 10000 3.6 220 07:19 19.12.2019
2344 Clear 11 1030 76 10000 4.1 220 06:49 19.12.2019
2345 Clear 11 1030 76 10000 4.6 210 06:28 19.12.2019
2346 Clear 10 1029 76 10000 5.1 190 05:55 19.12.2019
2347 Clear 11 1029 76 10000 5.7 190 05:33 19.12.2019
2348 Clouds 11 1029 76 10000 6.2 190 04:51 19.12.2019
2349 Clouds 11 1029 87 10000 3.1 220 02:54 19.12.2019
2350 Clear 11 1029 87 10000 4.1 210 01:51 19.12.2019
2351 Clear 11 1029 81 10000 5.1 210 01:22 19.12.2019
2352 Clear 11 1028 81 10000 5.1 220 00:41 19.12.2019
2353 Clear 11 1028 81 10000 5.1 220 00:22 19.12.2019
2354 Clear 11 1028 71 10000 5.7 210 23:56 18.12.2019
2355 Clear 12 1028 71 10000 5.1 220 23:38 18.12.2019
2356 Clear 12 1028 71 10000 5.1 220 23:18 18.12.2019
2357 Clear 12 1028 71 10000 4.6 220 22:55 18.12.2019
2358 Clear 12 1028 76 10000 4.1 210 22:36 18.12.2019
2359 Clear 12 1028 76 10000 4.1 210 22:18 18.12.2019
2360 Clear 12 1028 76 10000 4.6 210 21:55 18.12.2019
2361 Clear 12 1028 76 10000 4.6 200 21:36 18.12.2019
2362 Clear 12 1028 76 10000 4.6 200 21:36 18.12.2019
2363 Clear 12 1028 76 10000 4.6 200 21:18 18.12.2019
2364 Clear 12 1028 76 10000 4.6 200 20:54 18.12.2019
2365 Clear 12 1029 76 10000 4.6 180 20:36 18.12.2019
2366 Clear 12 1029 76 10000 4.6 180 20:18 18.12.2019
2367 Clear 12 1028 87 10000 1 170 19:54 18.12.2019
2368 Clear 12 1028 87 10000 1 170 19:54 18.12.2019
2369 Clear 12 1028 67 10000 4.6 210 19:36 18.12.2019
2370 Clear 12 1028 67 10000 4.6 210 19:18 18.12.2019
2371 Clear 12 1028 76 10000 3.6 200 18:43 18.12.2019
2372 Clear 12 1028 76 10000 3.6 200 18:25 18.12.2019
2373 Clear 12 1028 76 10000 4.1 190 17:56 18.12.2019
2374 Clear 12 1027 82 10000 4.1 190 17:38 18.12.2019
2375 Clear 13 1027 82 10000 4.1 190 17:19 18.12.2019
2376 Clear 13 1027 82 10000 3.6 200 16:43 18.12.2019
2377 Clear 13 1027 82 10000 3.6 200 16:43 18.12.2019
2378 Clear 13 1027 82 10000 3.6 200 16:43 18.12.2019
2379 Clear 13 1027 82 10000 3.6 210 16:25 18.12.2019
2380 Clear 14 1027 71 10000 4.1 210 15:59 18.12.2019
2381 Clear 14 1027 71 10000 4.1 210 15:40 18.12.2019
2382 Clear 15 1027 71 10000 4.1 210 15:21 18.12.2019
2383 Clear 15 1027 71 10000 4.1 210 14:59 18.12.2019
2384 Clear 15 1027 71 10000 4.1 210 14:40 18.12.2019
2385 Clear 16 1027 71 10000 4.1 220 14:20 18.12.2019
2386 Clear 16 1027 67 10000 5.1 210 13:56 18.12.2019
2387 Clear 16 1027 67 10000 5.1 210 13:37 18.12.2019
2388 Clear 16 1027 67 10000 5.1 210 13:19 18.12.2019
2389 Clear 16 1027 67 10000 5.1 210 13:19 18.12.2019
2390 Clear 16 1027 71 10000 5.7 210 12:57 18.12.2019
2391 Clear 16 1027 71 10000 5.7 210 12:37 18.12.2019
2392 Clear 16 1027 71 10000 5.7 220 12:19 18.12.2019
2393 Clear 16 1027 67 10000 5.7 210 11:55 18.12.2019
2394 Clear 15 1028 67 10000 6.2 210 11:36 18.12.2019
2395 Clear 15 1028 67 10000 6.2 210 11:18 18.12.2019
2396 Clear 15 1028 67 10000 6.7 210 10:55 18.12.2019
2397 Clear 15 1028 67 10000 6.7 200 10:37 18.12.2019
2398 Clear 15 1028 67 10000 6.7 200 10:18 18.12.2019
2399 Clear 13 1028 76 10000 6.7 210 09:21 18.12.2019
2400 Clear 13 1028 76 10000 6.7 210 08:58 18.12.2019
2401 Clear 13 1028 71 10000 6.2 190 08:39 18.12.2019
2402 Clear 11 1028 71 10000 6.2 200 08:21 18.12.2019
2403 Clear 11 1027 76 10000 6.2 190 07:43 18.12.2019
2404 Clear 11 1027 76 10000 6.2 190 07:22 18.12.2019
2405 Clear 11 1027 81 10000 4.1 190 06:53 18.12.2019
2406 Clear 11 1027 76 10000 4.1 220 06:26 18.12.2019
2407 Clear 11 1026 71 10000 3.1 200 05:44 18.12.2019
2408 Clear 11 1026 76 10000 5.7 200 04:46 18.12.2019
2409 Clear 10 1027 76 10000 5.1 200 02:51 18.12.2019
2410 Clear 10 1027 76 10000 5.1 200 02:31 18.12.2019
2411 Clear 10 1027 76 10000 5.1 210 01:57 18.12.2019
2412 Clear 10 1027 76 10000 5.1 210 01:37 18.12.2019
2413 Clear 10 1027 76 10000 5.1 210 01:19 18.12.2019
2414 Clear 10 1026 81 10000 5.1 210 00:40 18.12.2019
2415 Clear 10 1026 81 10000 5.1 210 00:21 18.12.2019
2416 Clear 10 1026 81 10000 5.1 210 23:54 17.12.2019
2417 Clear 10 1026 81 10000 5.1 210 23:36 17.12.2019
2418 Clear 10 1026 71 10000 5.1 210 23:18 17.12.2019
2419 Clear 11 1027 71 10000 4.1 200 22:54 17.12.2019
2420 Clear 10 1027 71 10000 4.1 200 22:36 17.12.2019
2421 Clear 10 1027 76 10000 4.1 200 22:18 17.12.2019
2422 Clear 11 1027 76 10000 4.1 200 21:55 17.12.2019
2423 Clear 11 1027 76 10000 4.1 200 21:36 17.12.2019
2424 Clear 11 1026 71 10000 3.6 200 21:18 17.12.2019
2425 Clear 11 1026 71 10000 3.6 200 20:55 17.12.2019
2426 Clear 11 1026 71 10000 3.6 200 20:36 17.12.2019
2427 Clear 11 1026 71 10000 3.6 210 20:18 17.12.2019
2428 Clear 11 1026 71 10000 4.6 200 19:41 17.12.2019
2429 Clear 11 1026 71 10000 4.6 200 19:41 17.12.2019
2430 Clear 11 1026 76 10000 1.5 270 19:20 17.12.2019
2431 Clear 11 1026 76 10000 1.5 280 18:58 17.12.2019
2432 Clear 11 1026 76 10000 1.5 280 18:40 17.12.2019
2433 Clear 11 1026 71 10000 1.5 260 18:21 17.12.2019
2434 Clear 12 1026 76 10000 2.1 280 17:58 17.12.2019
2435 Clear 12 1026 76 10000 2.1 280 17:39 17.12.2019
2436 Clear 12 1026 76 10000 2.1 280 17:19 17.12.2019
2437 Clear 12 1026 81 10000 2.1 300 16:56 17.12.2019
2438 Clear 12 1026 81 10000 2.1 300 16:37 17.12.2019
2439 Clear 13 1025 71 10000 1.5 270 16:18 17.12.2019
2440 Clear 14 1025 76 10000 2.1 240 15:54 17.12.2019
2441 Clear 14 1025 76 10000 2.1 240 15:36 17.12.2019
2442 Clear 15 1025 67 10000 4.1 210 15:18 17.12.2019
2443 Clear 15 1025 67 10000 4.1 210 14:54 17.12.2019
2444 Clear 15 1025 67 10000 4.1 210 14:36 17.12.2019
2445 Clear 15 1025 67 10000 4.1 210 14:36 17.12.2019
2446 Clear 15 1025 62 10000 3.1 240 14:18 17.12.2019
2447 Clear 15 1025 58 10000 3.6 240 13:54 17.12.2019
2448 Clear 15 1025 62 10000 4.1 230 13:36 17.12.2019
2449 Clear 16 1025 62 10000 4.1 230 13:18 17.12.2019
2450 Clear 16 1026 62 10000 4.1 230 12:40 17.12.2019
2451 Clear 15 1026 62 10000 5.1 220 12:19 17.12.2019
2452 Clear 15 1026 62 10000 5.1 220 11:59 17.12.2019
2453 Clear 15 1026 62 10000 5.1 220 11:37 17.12.2019
2454 Clear 15 1026 62 10000 5.1 220 11:37 17.12.2019
2455 Clear 15 1026 62 10000 5.7 220 11:19 17.12.2019
2456 Clear 15 1027 62 10000 5.1 230 10:59 17.12.2019
2457 Clear 15 1027 62 10000 5.1 230 10:40 17.12.2019
2458 Clear 14 1027 67 10000 4.6 220 10:21 17.12.2019
2459 Clear 14 1027 67 10000 5.7 210 09:59 17.12.2019
2460 Clear 13 1027 67 10000 5.7 210 09:40 17.12.2019
2461 Clear 13 1027 71 10000 5.1 200 09:19 17.12.2019
2462 Clear 12 1026 71 10000 4.1 220 08:56 17.12.2019
2463 Clear 12 1026 71 10000 4.1 220 08:38 17.12.2019
2464 Clear 11 1026 76 10000 2.1 210 08:19 17.12.2019
2465 Clear 9 1026 100 10000 1 0 07:45 17.12.2019
2466 Clear 9 1026 87 10000 0.5 0 07:26 17.12.2019
2467 Clear 8 1026 93 10000 0.5 0 06:56 17.12.2019
2468 Clear 8 1025 87 8000 5.1 200 06:34 17.12.2019
2469 Clear 9 1026 87 10000 3.6 210 05:53 17.12.2019
2470 Clear 9 1026 87 10000 3.6 210 05:34 17.12.2019
2471 Clear 9 1025 70 10000 1 0 04:30 17.12.2019
2472 Clear 9 1025 81 10000 4.1 200 02:34 17.12.2019
2473 Clear 10 1025 76 10000 4.6 220 01:54 17.12.2019
2474 Clear 9 1025 70 10000 1.77 155 00:58 17.12.2019
2475 Clear 9 1025 70 10000 1.77 155 00:37 17.12.2019
2476 Clear 9 1025 93 10000 2.6 260 00:18 17.12.2019
2477 Clear 9 1026 100 10000 2.1 270 23:41 16.12.2019
2478 Clear 9 1026 93 10000 0.5 0 23:19 16.12.2019
2479 Clear 9 1026 93 10000 0.5 0 23:19 16.12.2019
2480 Clear 9 1026 100 10000 1.5 10 22:56 16.12.2019
2481 Clear 9 1026 100 10000 1.5 10 22:37 16.12.2019
2482 Clear 10 1026 93 10000 1 0 22:19 16.12.2019
2483 Clear 9 1026 100 10000 0.5 0 21:55 16.12.2019
2484 Clear 9 1026 100 10000 0.5 0 21:37 16.12.2019
2485 Clear 9 1026 100 10000 0.5 0 21:37 16.12.2019
2486 Clear 9 1026 100 10000 0.5 0 21:37 16.12.2019
2487 Clear 9 1026 100 10000 0.5 0 21:18 16.12.2019
2488 Clear 10 1026 93 10000 1 200 20:56 16.12.2019
2489 Clear 10 1026 93 10000 1 200 20:56 16.12.2019
2490 Clear 10 1026 93 10000 1 200 20:37 16.12.2019
2491 Clear 9 1026 93 10000 1 0 20:19 16.12.2019
2492 Clear 9 1026 93 10000 0.89 177 19:55 16.12.2019
2493 Clear 9 1026 93 10000 0.89 177 19:36 16.12.2019
2494 Clear 10 1026 93 10000 0.89 177 19:18 16.12.2019
2495 Clear 10 1026 93 10000 1.5 120 18:55 16.12.2019
2496 Clear 10 1026 93 10000 1.5 120 18:37 16.12.2019
2497 Clear 10 1026 93 10000 1 110 18:19 16.12.2019
2498 Clear 10 1026 87 10000 2.1 200 17:57 16.12.2019
2499 Clear 10 1026 87 10000 2.1 200 17:37 16.12.2019
2500 Clear 11 1026 93 10000 1 0 17:19 16.12.2019
2501 Clear 11 1026 87 10000 1 0 16:55 16.12.2019
2502 Clear 12 1026 87 10000 1 0 16:37 16.12.2019
2503 Clear 12 1026 81 10000 1.5 240 16:18 16.12.2019
2504 Clear 13 1026 81 10000 2.1 220 15:55 16.12.2019
2505 Clear 13 1026 81 10000 2.1 220 15:37 16.12.2019
2506 Clear 14 1026 76 10000 2.6 220 15:19 16.12.2019
2507 Clear 15 1026 71 10000 3.1 190 14:54 16.12.2019
2508 Clear 15 1026 71 10000 3.1 190 14:54 16.12.2019
2509 Clear 15 1026 71 10000 3.1 190 14:36 16.12.2019
2510 Clear 15 1026 71 10000 3.6 200 14:18 16.12.2019
2511 Clear 15 1026 71 10000 3.6 200 14:18 16.12.2019
2512 Clear 15 1026 71 10000 4.1 210 13:55 16.12.2019
2513 Clear 15 1026 71 10000 4.1 210 13:36 16.12.2019
2514 Clear 15 1026 71 10000 5.1 210 13:18 16.12.2019
2515 Clear 14 1026 71 10000 5.1 210 13:18 16.12.2019
2516 Clear 15 1026 67 10000 5.7 220 12:54 16.12.2019
2517 Clear 15 1026 67 10000 5.7 220 12:36 16.12.2019
2518 Clear 15 1026 71 10000 5.1 200 12:18 16.12.2019
2519 Clear 15 1026 71 10000 4.1 190 11:55 16.12.2019
2520 Clear 14 1026 71 10000 4.1 190 11:37 16.12.2019
2521 Clear 14 1027 71 10000 2.6 190 11:19 16.12.2019
2522 Clear 13 1027 76 10000 2.1 200 10:40 16.12.2019
2523 Clear 13 1027 76 10000 2.6 170 10:21 16.12.2019
2524 Clear 13 1027 76 10000 3.1 140 09:56 16.12.2019
2525 Clear 12 1027 76 10000 3.1 140 09:38 16.12.2019
2526 Clear 12 1027 82 10000 2.6 190 09:20 16.12.2019
2527 Clear 11 1027 82 10000 2.1 200 08:39 16.12.2019
2528 Clear 9 1027 87 10000 1.5 170 08:19 16.12.2019
2529 Clear 8 1027 100 10000 1 140 07:52 16.12.2019
2530 Clear 7 1027 93 10000 1 140 07:31 16.12.2019
2531 Clear 7 1027 100 10000 0.5 0 06:52 16.12.2019
2532 Clear 7 1026 87 10000 0.5 0 06:27 16.12.2019
2533 Fog 7 1026 100 1000 3.6 190 05:59 16.12.2019
2534 Fog 7 1026 100 600 3.6 210 05:40 16.12.2019
2535 Fog 7 1026 100 600 3.6 210 05:22 16.12.2019
2536 Mist 6 1026 93 7000 1.5 350 02:59 16.12.2019
2537 Clear 7 1026 93 7000 0.5 350 01:46 16.12.2019
2538 Clear 7 1025 100 7000 1 340 00:57 16.12.2019
2539 Clear 7 1025 100 7000 1 340 00:38 16.12.2019
2540 Clear 7 1025 100 7000 1 0 00:19 16.12.2019
2541 Clear 7 1025 93 7000 1 0 23:43 15.12.2019
2542 Clear 7 1025 93 7000 1 0 23:25 15.12.2019
2543 Clear 8 1025 93 7000 1.5 360 22:57 15.12.2019
2544 Clear 8 1025 93 7000 1.5 360 22:38 15.12.2019
2545 Clear 8 1025 93 7000 1.5 360 22:38 15.12.2019
2546 Clear 8 1025 93 7000 1 0 22:19 15.12.2019
2547 Clear 8 1025 93 8000 2.1 350 21:58 15.12.2019
2548 Clear 8 1025 93 8000 2.1 350 21:38 15.12.2019
2549 Clear 8 1025 93 8000 1.5 340 21:20 15.12.2019
2550 Clear 8 1025 93 8000 1.5 340 20:58 15.12.2019
2551 Clear 8 1024 93 8000 1.5 350 20:40 15.12.2019
2552 Clouds 9 1024 87 10000 1.05 80 20:21 15.12.2019
2553 Clouds 9 1024 87 10000 1.05 80 20:21 15.12.2019
2554 Clouds 9 1024 87 10000 1.05 80 20:21 15.12.2019
2555 Clouds 9 1024 87 10000 0.5 360 19:58 15.12.2019
2556 Clear 9 1024 87 10000 0.5 360 19:40 15.12.2019
2557 Clear 9 1024 87 10000 1.08 47 19:20 15.12.2019
2558 Clear 9 1024 87 10000 1.08 47 19:20 15.12.2019
2559 Clear 9 1024 87 10000 1 50 18:58 15.12.2019
2560 Clouds 9 1023 87 10000 1.5 30 18:39 15.12.2019
2561 Clear 10 1023 87 10000 1.5 30 18:19 15.12.2019
2562 Clear 10 1023 76 10000 1 330 17:57 15.12.2019
2563 Clear 10 1023 76 10000 1 330 17:38 15.12.2019
2564 Clear 10 1023 71 10000 2.1 40 17:38 15.12.2019
2565 Clear 10 1023 81 10000 0.5 0 17:19 15.12.2019
2566 Clouds 11 1023 81 10000 2.1 350 16:59 15.12.2019
2567 Clouds 11 1023 81 10000 2.1 350 16:41 15.12.2019
2568 Clear 11 1022 71 10000 2.1 20 16:21 15.12.2019
2569 Clouds 12 1022 62 10000 2.6 20 15:56 15.12.2019
2570 Clouds 12 1022 62 10000 2.6 20 15:38 15.12.2019
2571 Clear 13 1021 54 10000 4.1 10 15:19 15.12.2019
2572 Clear 13 1021 58 10000 4.1 360 14:56 15.12.2019
2573 Clouds 13 1021 58 10000 4.1 360 14:37 15.12.2019
2574 Rain 13 1021 71 10000 2.1 340 14:18 15.12.2019
2575 Rain 13 1021 71 10000 2.1 340 13:58 15.12.2019
2576 Rain 13 1021 71 10000 2.1 360 13:37 15.12.2019
2577 Rain 13 1021 71 10000 2.1 360 13:37 15.12.2019
2578 Rain 13 1020 76 10000 1 0 13:19 15.12.2019
2579 Clouds 12 1020 81 10000 1.5 330 12:56 15.12.2019
2580 Clouds 12 1020 81 10000 1.5 330 12:38 15.12.2019
2581 Clouds 13 1020 81 10000 1.5 10 12:20 15.12.2019
2582 Rain 13 1020 81 10000 2.1 20 11:55 15.12.2019
2583 Rain 12 1020 81 10000 2.1 20 11:36 15.12.2019
2584 Rain 12 1020 87 10000 4.1 10 11:18 15.12.2019
2585 Clouds 13 1019 81 10000 1 0 10:55 15.12.2019
2586 Rain 13 1019 76 10000 6.7 360 10:36 15.12.2019
2587 Clouds 13 1019 71 10000 5.7 360 10:18 15.12.2019
2588 Clouds 13 1018 71 10000 4.6 350 09:39 15.12.2019
2589 Clouds 13 1017 76 10000 3.6 360 09:20 15.12.2019
2590 Clouds 13 1017 76 10000 3.6 360 09:20 15.12.2019
2591 Clouds 13 1017 76 10000 3.6 10 08:57 15.12.2019
2592 Clouds 13 1017 76 10000 3.6 10 08:39 15.12.2019
2593 Clouds 13 1016 87 10000 4.1 10 08:20 15.12.2019
2594 Clouds 13 1016 82 10000 4.6 10 07:55 15.12.2019
2595 Clouds 13 1016 82 10000 4.6 10 07:34 15.12.2019
2596 Clouds 12 1015 76 10000 3.6 350 06:39 15.12.2019
2597 Clouds 12 1014 81 10000 1 220 06:19 15.12.2019
2598 Clouds 13 1013 67 10000 1.5 260 05:25 15.12.2019
2599 Clouds 11 1012 81 10000 1.5 280 04:24 15.12.2019
2600 Clouds 11 1011 81 10000 2.1 330 03:22 15.12.2019
2601 Clouds 11 1010 81 10000 2.1 350 02:33 15.12.2019
2602 Clouds 11 1010 81 8000 1 350 01:44 15.12.2019
2603 Clouds 11 1009 81 10000 1.5 350 01:25 15.12.2019
2604 Clouds 11 1009 76 10000 1.29 163 00:54 15.12.2019
2605 Clouds 11 1009 76 10000 1.29 163 00:35 15.12.2019
2606 Clouds 10 1008 81 8000 2.1 360 23:58 14.12.2019
2607 Clouds 11 1008 81 8000 3.1 350 23:38 14.12.2019
2608 Clouds 11 1008 81 8000 3.1 350 23:18 14.12.2019
2609 Clouds 11 1007 81 10000 2.1 20 22:56 14.12.2019
2610 Clouds 11 1007 81 10000 2.1 20 22:37 14.12.2019
2611 Clouds 12 1007 81 10000 2.6 360 22:19 14.12.2019
2612 Clouds 12 1006 76 10000 2.6 350 21:55 14.12.2019
2613 Clouds 11 1006 76 10000 2.6 350 21:37 14.12.2019
2614 Clouds 11 1006 76 10000 2.6 10 21:18 14.12.2019
2615 Clouds 13 1006 66 10000 2.6 30 20:43 14.12.2019
2616 Clouds 13 1005 62 10000 2.1 30 20:21 14.12.2019
2617 Clouds 13 1005 58 10000 2.6 40 19:59 14.12.2019
2618 Clouds 13 1005 58 10000 2.6 40 19:39 14.12.2019
2619 Clouds 14 1005 51 10000 3.6 50 19:21 14.12.2019
2620 Clouds 14 1004 48 10000 3.6 50 18:57 14.12.2019
2621 Clouds 14 1004 48 10000 3.6 50 18:39 14.12.2019
2622 Clouds 14 1004 48 10000 3.6 60 18:21 14.12.2019
2623 Clouds 15 1004 48 10000 2.6 60 17:57 14.12.2019
2624 Clouds 15 1004 48 10000 2.6 60 17:38 14.12.2019
2625 Clear 15 1003 48 10000 3.6 50 17:20 14.12.2019
2626 Clear 15 1003 51 10000 2.6 90 16:41 14.12.2019
2627 Clear 15 1003 51 10000 2.6 90 16:19 14.12.2019
2628 Clear 16 1003 51 10000 3.1 90 15:55 14.12.2019
2629 Clear 16 1003 51 10000 3.1 90 15:37 14.12.2019
2630 Clear 17 1003 51 10000 3.1 80 15:19 14.12.2019
2631 Clear 17 1002 55 10000 3.1 80 14:54 14.12.2019
2632 Clear 18 1002 55 10000 3.1 80 14:36 14.12.2019
2633 Clear 18 1002 55 10000 4.1 90 14:18 14.12.2019
2634 Clear 18 1002 51 10000 4.1 90 13:42 14.12.2019
2635 Clear 18 1002 48 10000 3.1 90 13:19 14.12.2019
2636 Clear 18 1002 51 10000 4.1 100 12:57 14.12.2019
2637 Clear 17 1002 51 10000 4.1 100 12:38 14.12.2019
2638 Clear 17 1002 51 10000 4.1 100 12:38 14.12.2019
2639 Clear 17 1002 51 10000 4.1 110 12:20 14.12.2019
2640 Clear 17 1002 51 10000 5.1 120 11:56 14.12.2019
2641 Clear 17 1002 51 10000 5.1 120 11:38 14.12.2019
2642 Clear 17 1002 55 10000 4.6 110 11:19 14.12.2019
2643 Clear 16 1003 55 10000 4.6 120 10:56 14.12.2019
2644 Clear 16 1003 55 10000 4.6 120 10:38 14.12.2019
2645 Clear 16 1003 63 10000 4.6 130 10:19 14.12.2019
2646 Clear 15 1003 62 10000 4.6 120 09:43 14.12.2019
2647 Clear 14 1003 67 10000 4.6 120 09:23 14.12.2019
2648 Clear 14 1003 67 10000 3.6 120 08:57 14.12.2019
2649 Clear 14 1003 67 10000 3.6 120 08:57 14.12.2019
2650 Clear 13 1003 67 10000 3.6 120 08:38 14.12.2019
2651 Clear 13 1003 67 10000 3.6 120 08:38 14.12.2019
2652 Clouds 13 1003 71 10000 4.1 120 08:19 14.12.2019
2653 Clear 11 1003 76 10000 3.6 120 07:40 14.12.2019
2654 Clouds 11 1003 76 10000 2.6 110 07:21 14.12.2019
2655 Clear 11 1002 71 10000 5.1 170 06:55 14.12.2019
2656 Clear 11 1002 71 10000 5.1 170 06:36 14.12.2019
2657 Clouds 11 1002 81 10000 1.5 170 05:50 14.12.2019
2658 Clouds 11 1002 82 10000 4.6 190 03:44 14.12.2019
2659 Clouds 11 1002 87 10000 3.6 190 02:24 14.12.2019
2660 Clouds 11 1002 87 10000 4.6 190 01:44 14.12.2019
2661 Clouds 11 1002 87 10000 4.1 200 01:20 14.12.2019
2662 Clouds 11 1002 87 10000 5.1 190 00:43 14.12.2019
2663 Clouds 11 1002 82 10000 5.1 190 00:20 14.12.2019
2664 Clouds 11 1002 87 10000 5.7 180 23:41 13.12.2019
2665 Rain 12 1002 82 10000 6.7 180 23:20 13.12.2019
2666 Rain 12 1003 82 10000 8.7 180 22:57 13.12.2019
2667 Rain 12 1003 82 10000 8.7 180 22:38 13.12.2019
2668 Clouds 12 1003 87 10000 4.6 170 22:18 13.12.2019
2669 Clouds 12 1003 87 10000 3.1 170 21:44 13.12.2019
2670 Clouds 12 1003 87 10000 3.6 170 21:22 13.12.2019
2671 Clouds 12 1003 87 10000 3.6 170 20:59 13.12.2019
2672 Clouds 12 1003 87 10000 3.6 170 20:40 13.12.2019
2673 Rain 13 1003 87 10000 6.2 190 20:20 13.12.2019
2674 Rain 13 1003 87 10000 6.2 190 19:57 13.12.2019
2675 Clouds 13 1003 82 10000 4.1 170 19:39 13.12.2019
2676 Clouds 13 1003 82 10000 4.1 170 19:20 13.12.2019
2677 Clouds 13 1003 76 10000 4.1 160 18:55 13.12.2019
2678 Rain 13 1003 76 10000 2.6 150 18:36 13.12.2019
2679 Rain 13 1003 76 10000 2.6 150 18:18 13.12.2019
2680 Rain 13 1003 76 10000 1.5 140 17:40 13.12.2019
2681 Rain 13 1003 76 10000 1.5 140 17:40 13.12.2019
2682 Rain 13 1003 76 10000 1.5 140 17:19 13.12.2019
2683 Clouds 13 1003 82 10000 2.1 120 16:57 13.12.2019
2684 Clouds 13 1003 82 10000 2.1 120 16:57 13.12.2019
2685 Clouds 14 1003 71 10000 2.1 120 16:38 13.12.2019
2686 Clouds 14 1003 71 10000 2.1 120 16:20 13.12.2019
2687 Clouds 14 1003 71 10000 2.1 140 15:43 13.12.2019
2688 Clouds 14 1003 71 10000 2.1 140 15:22 13.12.2019
2689 Clouds 15 1003 71 10000 2.1 150 14:57 13.12.2019
2690 Clouds 15 1003 67 10000 2.1 180 14:39 13.12.2019
2691 Clouds 15 1003 67 10000 2.1 180 14:19 13.12.2019
2692 Clouds 16 1003 67 10000 2.1 150 13:44 13.12.2019
2693 Clouds 16 1003 67 10000 2.1 150 13:26 13.12.2019
2694 Clouds 15 1004 67 10000 2.1 160 12:59 13.12.2019
2695 Clouds 15 1004 76 10000 2.6 130 12:40 13.12.2019
2696 Clouds 15 1004 76 10000 2.6 130 12:19 13.12.2019
2697 Clouds 14 1004 76 10000 2.1 140 11:45 13.12.2019
2698 Clouds 14 1004 76 10000 2.1 140 11:45 13.12.2019
2699 Clouds 14 1005 76 10000 2.6 0 11:26 13.12.2019
2700 Clouds 13 1005 71 10000 2.6 160 10:58 13.12.2019
2701 Clouds 14 1005 82 10000 2.6 150 10:40 13.12.2019
2702 Clouds 14 1005 82 10000 2.6 150 10:21 13.12.2019
2703 Clouds 12 1006 87 10000 3.1 200 09:43 13.12.2019
2704 Clouds 12 1006 87 10000 3.1 200 09:22 13.12.2019
2705 Clouds 12 1006 87 10000 3.1 200 08:55 13.12.2019
2706 Clouds 12 1005 87 6000 3.1 190 08:36 13.12.2019
2707 Clouds 12 1005 87 6000 3.1 190 08:18 13.12.2019
2708 Clouds 11 1005 93 6000 3.1 190 07:42 13.12.2019
2709 Clouds 11 1005 93 6000 3.1 210 07:19 13.12.2019
2710 Clouds 11 1005 93 6000 3.6 190 06:45 13.12.2019
2711 Clouds 11 1005 87 10000 2.1 200 06:25 13.12.2019
2712 Clouds 11 1005 87 10000 4.1 200 05:38 13.12.2019
2713 Clouds 11 1005 87 10000 4.1 200 05:20 13.12.2019
2714 Clouds 11 1005 100 10000 0.5 0 04:28 13.12.2019
2715 Clouds 11 1005 100 10000 2.1 350 02:56 13.12.2019
2716 Clouds 11 1005 100 10000 1 330 02:30 13.12.2019
2717 Clouds 11 1005 93 10000 1.5 120 01:34 13.12.2019
2718 Clouds 11 1005 93 10000 2.1 360 00:50 13.12.2019
2719 Clouds 12 1005 93 10000 2.6 360 00:28 13.12.2019
2720 Clouds 12 1006 93 10000 2.6 340 23:43 12.12.2019
2721 Clouds 12 1006 93 10000 2.6 340 23:25 12.12.2019
2722 Clouds 12 1006 93 10000 2.1 330 22:57 12.12.2019
2723 Clouds 12 1006 93 10000 1.5 330 22:39 12.12.2019
2724 Clouds 12 1006 93 10000 1.5 330 22:21 12.12.2019
2725 Clouds 12 1006 93 10000 2.1 330 21:56 12.12.2019
2726 Clouds 12 1006 93 10000 1.5 10 21:37 12.12.2019
2727 Clouds 12 1006 93 10000 1.5 10 21:19 12.12.2019
2728 Clouds 12 1006 87 10000 1.5 60 20:59 12.12.2019
2729 Clouds 12 1006 87 10000 1.5 70 20:40 12.12.2019
2730 Clouds 12 1006 87 10000 1.5 70 20:21 12.12.2019
2731 Clouds 12 1006 87 10000 2.1 30 19:56 12.12.2019
2732 Rain 12 1006 87 10000 3.1 30 19:37 12.12.2019
2733 Rain 12 1006 87 10000 3.1 30 19:18 12.12.2019
2734 Rain 12 1006 87 10000 4.6 10 18:56 12.12.2019
2735 Rain 13 1006 87 10000 4.6 20 18:37 12.12.2019
2736 Rain 13 1006 87 10000 4.6 20 18:37 12.12.2019
2737 Clouds 13 1006 87 10000 4.1 360 18:19 12.12.2019
2738 Clouds 13 1006 87 10000 4.1 360 17:56 12.12.2019
2739 Clouds 13 1006 82 10000 4.1 360 17:38 12.12.2019
2740 Clouds 13 1006 82 10000 4.1 360 17:19 12.12.2019
2741 Clouds 13 1006 82 10000 4.1 360 16:54 12.12.2019
2742 Clouds 13 1006 76 10000 4.1 10 16:36 12.12.2019
2743 Clouds 13 1006 76 10000 4.1 10 16:18 12.12.2019
2744 Clouds 14 1006 76 10000 4.1 20 15:42 12.12.2019
2745 Clouds 14 1006 76 10000 4.1 20 15:20 12.12.2019
2746 Clouds 14 1006 67 10000 5.1 20 14:57 12.12.2019
2747 Clouds 14 1006 72 10000 4.6 20 14:37 12.12.2019
2748 Clouds 14 1006 72 10000 4.6 20 14:19 12.12.2019
2749 Clouds 14 1006 67 10000 3.1 360 13:55 12.12.2019
2750 Clouds 14 1006 67 10000 2.6 10 13:37 12.12.2019
2751 Clouds 14 1006 67 10000 2.6 10 13:37 12.12.2019
2752 Clouds 14 1006 67 10000 2.6 10 13:19 12.12.2019
2753 Clouds 14 1007 67 10000 2.6 360 12:55 12.12.2019
2754 Clouds 14 1007 63 10000 3.1 30 12:37 12.12.2019
2755 Clouds 14 1007 63 10000 3.1 30 12:18 12.12.2019
2756 Clouds 14 1007 72 10000 4.1 50 11:43 12.12.2019
2757 Clouds 14 1007 72 10000 4.1 50 11:22 12.12.2019
2758 Clouds 13 1007 76 10000 3.6 70 10:59 12.12.2019
2759 Clouds 13 1008 76 10000 4.6 40 10:41 12.12.2019
2760 Clouds 13 1008 76 10000 4.6 40 10:23 12.12.2019
2761 Clouds 13 1008 76 10000 4.1 40 09:58 12.12.2019
2762 Clouds 12 1008 87 10000 4.1 30 09:40 12.12.2019
2763 Clouds 12 1008 87 10000 4.1 30 09:21 12.12.2019
2764 Clouds 11 1008 87 10000 2.6 20 08:54 12.12.2019
2765 Clouds 11 1008 87 10000 3.1 360 08:36 12.12.2019
2766 Clouds 11 1008 87 10000 3.6 20 08:18 12.12.2019
2767 Clouds 11 1008 87 10000 3.6 20 07:41 12.12.2019
2768 Clouds 11 1008 87 10000 3.6 20 07:21 12.12.2019
2769 Clouds 11 1008 93 10000 3.1 20 06:43 12.12.2019
2770 Clouds 11 1008 93 10000 3.1 20 06:23 12.12.2019
2771 Clouds 11 1008 93 10000 4.1 30 05:35 12.12.2019
2772 Clouds 10 1008 87 10000 4.1 20 04:49 12.12.2019
2773 Clouds 10 1009 87 10000 3.1 20 02:44 12.12.2019
2774 Clouds 11 1009 81 10000 4.1 20 02:26 12.12.2019
2775 Clouds 11 1010 81 10000 4.1 20 01:59 12.12.2019
2776 Clouds 11 1010 81 10000 3.6 10 01:36 12.12.2019
2777 Clouds 11 1010 76 10000 3.1 20 00:58 12.12.2019
2778 Clouds 11 1010 76 10000 3.1 20 00:38 12.12.2019
2779 Clouds 11 1010 76 10000 3.1 20 00:18 12.12.2019
2780 Clouds 12 1011 76 10000 3.1 20 23:40 11.12.2019
2781 Clouds 12 1011 76 10000 3.1 20 23:19 11.12.2019
2782 Clouds 12 1011 76 10000 3.6 30 22:57 11.12.2019
2783 Clouds 12 1011 71 10000 4.1 30 22:38 11.12.2019
2784 Clouds 12 1011 71 10000 4.1 30 22:19 11.12.2019
2785 Clouds 11 1011 71 10000 4.1 40 21:55 11.12.2019
2786 Clouds 11 1011 71 10000 4.1 40 21:55 11.12.2019
2787 Clouds 11 1012 71 10000 4.1 30 21:37 11.12.2019
2788 Clouds 11 1012 71 10000 4.1 30 21:19 11.12.2019
2789 Clouds 11 1012 71 10000 4.1 50 20:55 11.12.2019
2790 Clouds 11 1012 71 10000 5.1 50 20:37 11.12.2019
2791 Clouds 11 1012 71 10000 5.1 50 20:18 11.12.2019
2792 Clouds 12 1012 71 10000 5.1 50 19:55 11.12.2019
2793 Clouds 12 1012 71 10000 5.1 50 19:36 11.12.2019
2794 Clouds 12 1012 71 10000 5.1 50 19:18 11.12.2019
2795 Clouds 12 1012 71 10000 6.2 50 18:40 11.12.2019
2796 Clouds 12 1012 71 10000 6.2 50 18:21 11.12.2019
2797 Clouds 12 1012 76 10000 4.1 30 17:57 11.12.2019
2798 Clouds 12 1012 76 10000 5.1 60 17:38 11.12.2019
2799 Clouds 12 1012 71 10000 5.1 50 17:18 11.12.2019
2800 Clouds 12 1012 71 10000 5.1 50 16:56 11.12.2019
2801 Clouds 12 1013 76 10000 6.2 70 16:37 11.12.2019
2802 Clouds 12 1013 76 10000 6.2 70 16:19 11.12.2019
2803 Rain 12 1012 71 8000 4.6 40 15:57 11.12.2019
2804 Rain 12 1012 71 8000 4.6 40 15:57 11.12.2019
2805 Rain 12 1012 71 8000 3.6 40 15:37 11.12.2019
2806 Rain 12 1012 71 8000 3.6 40 15:19 11.12.2019
2807 Rain 13 1012 62 10000 3.6 40 14:55 11.12.2019
2808 Rain 13 1012 58 10000 4.1 40 14:37 11.12.2019
2809 Rain 13 1012 58 10000 4.1 40 14:18 11.12.2019
2810 Clouds 13 1012 54 10000 5.1 40 13:44 11.12.2019
2811 Clouds 13 1012 54 10000 5.1 40 13:24 11.12.2019
2812 Clouds 13 1012 54 10000 6.2 50 12:59 11.12.2019
2813 Clouds 13 1013 54 10000 4.6 50 12:40 11.12.2019
2814 Clouds 13 1013 54 10000 4.6 50 12:22 11.12.2019
2815 Clouds 13 1013 54 10000 6.2 50 11:58 11.12.2019
2816 Clouds 13 1012 54 10000 6.2 50 11:39 11.12.2019
2817 Clouds 12 1012 54 10000 6.2 50 11:19 11.12.2019
2818 Clouds 12 1013 50 10000 7.2 70 10:59 11.12.2019
2819 Clouds 12 1014 43 10000 6.2 60 10:40 11.12.2019
2820 Clouds 12 1014 43 10000 6.2 60 10:21 11.12.2019
2821 Clouds 12 1014 43 10000 6.2 60 10:21 11.12.2019
2822 Clouds 12 1014 50 10000 5.7 60 09:57 11.12.2019
2823 Clouds 11 1015 50 10000 4.6 60 09:38 11.12.2019
2824 Clouds 11 1015 50 10000 4.6 60 09:19 11.12.2019
2825 Clouds 11 1014 53 10000 5.1 50 08:55 11.12.2019
2826 Clouds 10 1014 61 10000 5.1 40 08:36 11.12.2019
2827 Clear 10 1014 61 10000 5.1 40 08:18 11.12.2019
2828 Clear 9 1014 66 10000 3.6 30 07:43 11.12.2019
2829 Clear 9 1015 66 10000 3.6 50 07:24 11.12.2019
2830 Clear 9 1015 66 10000 3.6 50 07:24 11.12.2019
2831 Clear 8 1015 70 10000 4.1 20 06:46 11.12.2019
2832 Clear 8 1014 70 10000 3.6 20 06:25 11.12.2019
2833 Clear 8 1014 70 10000 3.6 20 05:55 11.12.2019
2834 Clear 8 1014 75 10000 2.6 30 05:35 11.12.2019
2835 Clear 8 1014 70 10000 3.1 30 04:51 11.12.2019
2836 Clear 7 1014 81 10000 3.6 10 03:29 11.12.2019
2837 Clear 6 1014 86 10000 3.1 360 02:35 11.12.2019
2838 Clear 7 1014 87 10000 2.6 20 01:22 11.12.2019
2839 Clear 7 1014 81 10000 3.1 20 00:43 11.12.2019
2840 Clear 7 1014 87 10000 2.6 20 00:19 11.12.2019
2841 Clear 7 1014 81 10000 2.6 0 23:45 10.12.2019
2842 Clear 8 1014 75 10000 2.1 30 23:26 10.12.2019
2843 Clear 8 1015 76 10000 2.6 30 22:56 10.12.2019
2844 Clear 8 1014 75 10000 3.1 30 22:38 10.12.2019
2845 Clear 8 1014 75 10000 3.1 30 22:20 10.12.2019
2846 Clear 7 1014 81 10000 2.6 20 21:54 10.12.2019
2847 Clear 9 1014 66 10000 2.6 40 21:36 10.12.2019
2848 Clear 9 1014 66 10000 2.6 40 21:18 10.12.2019
2849 Clear 9 1014 66 10000 2.6 40 20:55 10.12.2019
2850 Clear 9 1014 62 10000 3.1 50 20:36 10.12.2019
2851 Clear 10 1014 62 10000 3.1 50 20:18 10.12.2019
2852 Clear 10 1014 66 10000 2.1 40 19:44 10.12.2019
2853 Clear 10 1014 66 10000 2.1 40 19:25 10.12.2019
2854 Clear 10 1014 62 10000 3.1 20 18:57 10.12.2019
2855 Clear 11 1014 66 10000 3.1 20 18:39 10.12.2019
2856 Clear 11 1014 66 10000 3.1 20 18:19 10.12.2019
2857 Clear 10 1014 66 10000 3.1 20 17:55 10.12.2019
2858 Clear 11 1013 58 10000 2.6 30 17:36 10.12.2019
2859 Clear 11 1013 58 10000 2.6 30 17:18 10.12.2019
2860 Clear 11 1013 54 10000 2.1 50 16:42 10.12.2019
2861 Clear 12 1013 54 10000 2.1 50 16:20 10.12.2019
2862 Clear 12 1013 54 10000 2.1 50 16:20 10.12.2019
2863 Clear 12 1013 54 10000 2.1 90 15:54 10.12.2019
2864 Clear 13 1013 54 10000 2.6 90 15:36 10.12.2019
2865 Clear 13 1013 54 10000 2.6 90 15:18 10.12.2019
2866 Clear 13 1013 54 10000 2.6 90 15:18 10.12.2019
2867 Clear 13 1013 47 10000 2.6 120 14:42 10.12.2019
2868 Clear 13 1013 50 10000 2.6 110 14:24 10.12.2019
2869 Clear 13 1013 47 10000 3.6 100 13:59 10.12.2019
2870 Clear 13 1013 54 10000 4.1 120 13:40 10.12.2019
2871 Clear 13 1013 54 10000 4.1 120 13:20 10.12.2019
2872 Clear 13 1013 54 10000 4.6 110 12:57 10.12.2019
2873 Clear 13 1013 54 10000 5.1 120 12:38 10.12.2019
2874 Clear 13 1013 54 10000 5.1 120 12:20 10.12.2019
2875 Clear 13 1013 54 10000 5.1 110 11:41 10.12.2019
2876 Clear 13 1013 54 10000 5.7 110 11:41 10.12.2019
2877 Clear 13 1013 54 10000 5.1 110 11:23 10.12.2019
2878 Clear 13 1013 54 10000 5.7 110 10:55 10.12.2019
2879 Clouds 12 1014 54 10000 5.1 100 10:37 10.12.2019
2880 Clouds 12 1014 54 10000 5.1 100 10:19 10.12.2019
2881 Clouds 12 1014 62 10000 3.6 90 09:54 10.12.2019
2882 Clear 11 1014 66 10000 1.5 320 09:36 10.12.2019
2883 Clear 11 1014 66 10000 1.5 320 09:18 10.12.2019
2884 Clear 10 1014 71 10000 1 0 08:41 10.12.2019
2885 Clear 9 1014 71 10000 1 0 08:22 10.12.2019
2886 Clear 8 1014 76 10000 1 0 07:57 10.12.2019
2887 Clear 7 1014 71 10000 2.1 80 07:39 10.12.2019
2888 Clear 7 1014 71 10000 2.1 80 07:21 10.12.2019
2889 Clear 7 1014 66 10000 3.1 130 06:46 10.12.2019
2890 Clear 7 1013 66 10000 4.6 110 06:19 10.12.2019
2891 Clear 6 1013 66 10000 5.7 110 05:52 10.12.2019
2892 Clear 6 1013 93 6000 1.5 360 04:51 10.12.2019
2893 Clear 5 1013 93 8000 2.6 320 03:36 10.12.2019
2894 Clear 5 1013 93 10000 3.1 350 02:44 10.12.2019
2895 Clear 6 1014 87 10000 2.6 320 01:44 10.12.2019
2896 Clear 6 1014 93 10000 2.1 300 01:20 10.12.2019
2897 Clear 6 1014 87 10000 2.46 138 00:41 10.12.2019
2898 Clear 6 1014 87 10000 2.46 138 00:20 10.12.2019
2899 Clear 7 1014 76 10000 1 110 23:41 09.12.2019
2900 Clear 7 1014 76 10000 1 110 23:22 09.12.2019
2901 Clear 8 1014 66 10000 3.1 120 22:58 09.12.2019
2902 Clear 9 1014 62 10000 5.1 130 22:39 09.12.2019
2903 Clear 9 1014 62 10000 5.1 130 22:19 09.12.2019
2904 Clear 8 1014 66 10000 4.1 140 21:56 09.12.2019
2905 Clear 8 1014 62 10000 5.7 140 21:38 09.12.2019
2906 Clear 8 1014 62 10000 5.7 140 21:18 09.12.2019
2907 Clear 8 1014 66 10000 4.1 130 20:56 09.12.2019
2908 Clear 8 1015 87 10000 1.5 40 20:38 09.12.2019
2909 Clear 8 1015 87 10000 1.5 40 20:20 09.12.2019
2910 Clear 8 1015 87 10000 1.5 10 19:55 09.12.2019
2911 Clear 8 1015 86 10000 1.5 340 19:37 09.12.2019
2912 Clear 8 1015 86 10000 1.5 340 19:19 09.12.2019
2913 Clear 8 1015 81 10000 1 350 18:56 09.12.2019
2914 Clear 8 1015 81 10000 1 340 18:37 09.12.2019
2915 Clear 9 1015 81 10000 1 340 18:19 09.12.2019
2916 -273 0 0 0 0 0 17:57 09.12.2019
2917 Clear 9 1015 75 10000 1.79 67 17:38 09.12.2019
2918 Clear 9 1015 75 10000 1.43 125 17:20 09.12.2019
2919 Clear 10 1015 66 10000 1 230 16:56 09.12.2019
2920 Clear 11 1015 66 10000 0.5 230 16:37 09.12.2019
2921 Clear 11 1015 66 10000 0.5 230 16:18 09.12.2019
2922 Clear 11 1015 62 10000 1 0 15:55 09.12.2019
2923 Clear 12 1015 66 10000 2.1 130 15:37 09.12.2019
2924 Clear 12 1015 66 10000 2.1 130 15:18 09.12.2019
2925 Clear 13 1015 62 10000 2.1 160 14:42 09.12.2019
2926 Clear 13 1015 62 10000 2.1 160 14:19 09.12.2019
2927 Clear 13 1016 58 10000 2.6 170 13:58 09.12.2019
2928 Clear 13 1016 66 10000 2.6 170 13:38 09.12.2019
2929 Clouds 12 1016 66 10000 2.6 170 13:19 09.12.2019
2930 Clouds 13 1016 66 10000 2.6 160 12:57 09.12.2019
2931 Clouds 13 1016 66 10000 2.1 130 12:38 09.12.2019
2932 Clouds 13 1016 66 10000 2.1 130 12:19 09.12.2019
2933 Clouds 13 1017 62 10000 2.1 110 11:58 09.12.2019
2934 Clouds 13 1017 71 10000 2.6 110 11:39 09.12.2019
2935 Clear 12 1017 71 10000 2.6 110 11:21 09.12.2019
2936 Clouds 12 1018 76 10000 2.1 90 10:54 09.12.2019
2937 Clouds 12 1018 76 10000 2.1 100 10:36 09.12.2019
2938 Clouds 12 1018 76 10000 2.1 100 10:18 09.12.2019
2939 Clouds 11 1018 81 10000 2.1 100 09:41 09.12.2019
2940 Clouds 10 1018 81 10000 2.1 100 09:21 09.12.2019
2941 Clouds 9 1018 93 10000 1 0 08:54 09.12.2019
2942 Clouds 8 1018 100 10000 1 0 08:36 09.12.2019
2943 Clouds 7 1018 100 10000 1.5 360 08:18 09.12.2019
2944 Clouds 7 1018 100 10000 1.5 360 07:42 09.12.2019
2945 Clouds 6 1018 100 10000 0.5 0 07:24 09.12.2019
2946 Clouds 6 1018 100 10000 1.72 86 06:49 09.12.2019
2947 Clouds 6 1018 93 10000 1.5 10 06:26 09.12.2019
2948 Clear 5 1018 93 10000 2.1 350 05:29 09.12.2019
2949 Clear 6 1018 93 10000 2.1 360 04:49 09.12.2019
2950 Clear 6 1018 93 10000 2.1 350 03:45 09.12.2019
2951 Clear 6 1019 93 10000 1 30 02:27 09.12.2019
2952 Clear 6 1019 93 10000 2.6 360 01:44 09.12.2019
2953 Clear 6 1019 93 10000 3.1 350 00:53 09.12.2019
2954 Clear 6 1019 87 10000 2.6 360 00:32 09.12.2019
2955 Clear 7 1019 93 10000 3.1 350 23:44 08.12.2019
2956 Clouds 7 1019 93 10000 3.1 350 23:24 08.12.2019
2957 Clouds 7 1019 93 10000 2.6 350 22:58 08.12.2019
2958 Clouds 8 1019 87 10000 2.1 350 22:39 08.12.2019
2959 Clouds 7 1019 87 10000 2.1 350 22:20 08.12.2019
2960 Clouds 8 1019 87 10000 1.5 40 21:59 08.12.2019
2961 Clouds 8 1019 87 10000 1.5 40 21:40 08.12.2019
2962 Clouds 8 1019 81 10000 1.74 62 21:22 08.12.2019
2963 Clouds 8 1020 71 10000 1 200 20:57 08.12.2019
2964 Clouds 9 1020 81 10000 0.5 0 20:38 08.12.2019
2965 Clouds 9 1020 81 10000 0.5 0 20:20 08.12.2019
2966 Clouds 9 1020 81 10000 1 340 19:59 08.12.2019
2967 Clouds 9 1020 81 10000 1 340 19:41 08.12.2019
2968 Clouds 10 1020 76 10000 1 300 19:23 08.12.2019
2969 Clouds 10 1020 71 10000 1.5 300 18:55 08.12.2019
2970 Clouds 10 1020 71 10000 1.5 300 18:55 08.12.2019
2971 Clouds 10 1020 76 10000 2.1 330 18:37 08.12.2019
2972 Clouds 10 1020 76 10000 2.1 330 18:19 08.12.2019
2973 Clouds 10 1019 76 10000 2.1 340 17:57 08.12.2019
2974 Clouds 10 1019 71 10000 2.1 350 17:38 08.12.2019
2975 Clouds 10 1019 71 10000 2.1 350 17:20 08.12.2019
2976 Clouds 10 1019 71 10000 2.1 350 17:20 08.12.2019
2977 Clouds 10 1019 71 10000 2.1 350 17:20 08.12.2019
2978 Clouds 10 1019 71 10000 2.1 350 17:20 08.12.2019
2979 Clouds 11 1019 71 10000 3.6 350 16:57 08.12.2019
2980 Clouds 11 1019 71 10000 4.1 350 16:39 08.12.2019
2981 Clouds 11 1019 71 10000 4.1 350 16:20 08.12.2019
2982 Clouds 11 1019 71 10000 4.1 350 15:55 08.12.2019
2983 Clouds 12 1018 62 10000 4.1 350 15:36 08.12.2019
2984 Clouds 12 1018 62 10000 4.1 350 15:18 08.12.2019
2985 Clouds 12 1018 62 10000 4.1 320 14:44 08.12.2019
2986 Clouds 12 1018 62 10000 4.1 320 14:24 08.12.2019
2987 Clouds 12 1018 62 10000 4.1 320 14:24 08.12.2019
2988 Clouds 12 1018 58 10000 4.6 350 13:59 08.12.2019
2989 Clouds 12 1018 62 10000 4.6 340 13:40 08.12.2019
2990 Clouds 12 1018 62 10000 4.6 340 13:21 08.12.2019
2991 Clouds 12 1018 62 10000 4.6 340 13:21 08.12.2019
2992 Clouds 12 1018 66 10000 5.1 320 12:57 08.12.2019
2993 Clouds 12 1018 62 10000 3.1 330 12:38 08.12.2019
2994 Clouds 12 1018 62 10000 3.1 330 12:18 08.12.2019
2995 Clouds 12 1018 66 10000 2.6 320 11:57 08.12.2019
2996 Rain 12 1017 81 10000 2.6 170 11:37 08.12.2019
2997 Rain 12 1017 81 10000 2.6 170 11:19 08.12.2019
2998 Rain 12 1017 81 10000 2.6 170 11:19 08.12.2019
2999 Clouds 12 1018 81 10000 3.1 240 11:19 08.12.2019
3000 Clouds 12 1018 76 10000 3.6 250 10:40 08.12.2019
3001 Clouds 12 1018 76 10000 3.6 250 10:21 08.12.2019
3002 Clouds 12 1018 81 10000 3.1 270 09:58 08.12.2019
3003 Clouds 11 1018 87 10000 5.1 230 09:39 08.12.2019
3004 Clouds 11 1018 87 10000 5.1 230 09:20 08.12.2019
3005 Clouds 10 1018 81 10000 5.1 220 08:59 08.12.2019
3006 Clouds 10 1018 81 10000 4.6 220 08:39 08.12.2019
3007 Clouds 10 1018 81 10000 4.6 220 08:21 08.12.2019
3008 Clouds 10 1018 81 10000 4.6 220 08:21 08.12.2019
3009 Clouds 9 1017 87 10000 4.6 210 07:45 08.12.2019
3010 Clouds 9 1017 87 10000 4.6 210 07:20 08.12.2019
3011 Clouds 9 1017 81 10000 4.6 210 06:52 08.12.2019
3012 Clouds 9 1017 75 10000 1 0 06:23 08.12.2019
3013 Clouds 9 1017 87 10000 5.7 210 05:52 08.12.2019
3014 Clouds 9 1017 87 10000 5.7 210 05:20 08.12.2019
3015 Clouds 9 1017 87 10000 5.7 200 03:55 08.12.2019
3016 Clouds 9 1017 81 10000 5.7 200 03:37 08.12.2019
3017 Clouds 10 1017 76 10000 5.7 220 02:40 08.12.2019
3018 Clouds 10 1017 71 10000 5.7 210 01:56 08.12.2019
3019 Clouds 10 1017 71 10000 5.1 220 01:33 08.12.2019
3020 Clouds 10 1017 71 10000 4.1 220 00:43 08.12.2019
3021 Clouds 10 1017 71 10000 4.1 220 00:21 08.12.2019
3022 Clouds 10 1017 71 10000 4.1 220 23:55 07.12.2019
3023 Clouds 10 1017 71 10000 5.1 210 23:36 07.12.2019
3024 Clouds 10 1017 71 10000 5.1 210 23:18 07.12.2019
3025 Clouds 10 1017 66 10000 5.1 210 22:54 07.12.2019
3026 Clouds 10 1017 66 10000 5.1 210 22:54 07.12.2019
3027 Clouds 10 1017 66 10000 3.1 200 22:36 07.12.2019
3028 Clouds 10 1017 66 10000 3.1 200 22:18 07.12.2019
3029 Clouds 10 1018 71 10000 4.1 200 21:54 07.12.2019
3030 Clouds 9 1018 76 10000 3.1 210 21:36 07.12.2019
3031 Clouds 9 1018 76 10000 3.1 210 21:18 07.12.2019
3032 Rain 9 1018 66 10000 4.1 200 20:37 07.12.2019
3033 Rain 9 1018 66 10000 4.1 200 20:19 07.12.2019
3034 Rain 9 1018 66 10000 4.1 200 20:19 07.12.2019
3035 Rain 9 1018 81 10000 4.6 230 19:57 07.12.2019
3036 Rain 9 1018 81 10000 4.6 230 19:38 07.12.2019
3037 Rain 9 1018 81 10000 4.6 230 19:20 07.12.2019
3038 Clouds 9 1018 76 10000 4.6 230 18:57 07.12.2019
3039 Clouds 10 1018 71 10000 4.1 230 18:38 07.12.2019
3040 Clouds 10 1018 71 10000 3.6 230 18:18 07.12.2019
3041 Clouds 10 1018 71 10000 3.6 230 17:55 07.12.2019
3042 Rain 10 1018 66 10000 4.1 210 17:36 07.12.2019
3043 Rain 10 1018 66 10000 4.1 210 17:18 07.12.2019
3044 Clouds 10 1018 61 10000 4.1 210 16:54 07.12.2019
3045 Clouds 10 1018 66 10000 3.6 220 16:36 07.12.2019
3046 Clouds 10 1018 66 10000 3.6 220 16:18 07.12.2019
3047 Clouds 10 1018 66 10000 4.1 240 15:40 07.12.2019
3048 Clouds 10 1018 66 10000 4.1 240 15:22 07.12.2019
3049 Clouds 10 1018 57 10000 4.1 240 14:43 07.12.2019
3050 Clouds 11 1018 57 10000 4.1 240 14:19 07.12.2019
3051 Clouds 11 1018 61 10000 3.6 220 13:59 07.12.2019
3052 Clouds 11 1018 53 10000 4.6 220 13:39 07.12.2019
3053 Clouds 11 1018 53 10000 4.6 220 13:39 07.12.2019
3054 Clouds 11 1018 53 10000 4.6 220 13:19 07.12.2019
3055 Clouds 12 1018 53 10000 5.1 220 12:54 07.12.2019
3056 Clouds 12 1019 53 10000 5.1 210 12:36 07.12.2019
3057 Clouds 12 1019 57 10000 5.7 220 12:18 07.12.2019
3058 Clouds 11 1019 57 10000 6.2 210 11:41 07.12.2019
3059 Clear 11 1019 57 10000 6.2 210 11:23 07.12.2019
3060 Clear 11 1020 57 10000 5.7 220 10:54 07.12.2019
3061 Clear 11 1020 53 10000 6.2 210 10:36 07.12.2019
3062 Clear 10 1021 50 10000 6.2 210 10:18 07.12.2019
3063 Clear 9 1021 57 10000 6.2 210 09:39 07.12.2019
3064 Clear 9 1021 57 10000 6.2 210 09:20 07.12.2019
3065 Clear 8 1021 61 10000 5.7 210 08:45 07.12.2019
3066 Clouds 8 1021 57 10000 6.7 210 08:24 07.12.2019
3067 Clouds 7 1021 61 10000 5.1 210 07:49 07.12.2019
3068 Clouds 6 1021 65 10000 4.1 0 07:28 07.12.2019
3069 Clouds 4 1021 93 10000 2.6 340 06:52 07.12.2019
3070 Clouds 5 1021 93 10000 2.1 340 06:26 07.12.2019
3071 Clouds 4 1021 86 10000 1.5 330 05:47 07.12.2019
3072 Clouds 4 1021 86 10000 2.6 340 04:43 07.12.2019
3073 Clouds 4 1021 86 10000 3.1 330 03:50 07.12.2019
3074 Clear 4 1022 80 10000 2.6 30 02:22 07.12.2019
3075 Clear 6 1023 65 10000 2.6 90 01:42 07.12.2019
3076 Clear 6 1023 65 10000 2.6 90 01:24 07.12.2019
3077 Clear 5 1023 86 10000 2.1 10 00:22 07.12.2019
3078 Clear 5 1023 86 10000 2.1 20 23:59 06.12.2019
3079 Clear 5 1023 86 10000 2.1 340 23:40 06.12.2019
3080 Clear 6 1023 86 10000 2.1 340 23:20 06.12.2019
3081 Clear 5 1024 86 10000 1 0 22:39 06.12.2019
3082 Clear 6 1024 86 10000 1 0 22:21 06.12.2019
3083 Clear 6 1024 86 10000 2.1 340 21:59 06.12.2019
3084 Clear 5 1024 86 10000 2.1 340 21:41 06.12.2019
3085 Clear 5 1024 86 10000 2.1 360 21:20 06.12.2019
3086 Clear 6 1024 86 10000 1.5 350 20:56 06.12.2019
3087 Clear 7 1024 81 10000 1.5 340 20:38 06.12.2019
3088 Clear 7 1025 75 10000 1.5 20 20:19 06.12.2019
3089 Clear 7 1025 70 10000 1.5 20 19:41 06.12.2019
3090 Clear 7 1025 70 10000 1.5 20 19:22 06.12.2019
3091 Clear 8 1025 66 10000 2.6 30 18:59 06.12.2019
3092 Clear 8 1025 66 10000 2.6 40 18:40 06.12.2019
3093 Clear 9 1025 66 10000 2.6 40 18:21 06.12.2019
3094 Clear 9 1025 66 10000 2.6 40 18:21 06.12.2019
3095 Clear 9 1025 66 10000 2.6 50 17:58 06.12.2019
3096 Clear 9 1025 66 10000 3.1 50 17:40 06.12.2019
3097 Clear 9 1025 66 10000 3.1 50 17:21 06.12.2019
3098 Clear 10 1025 66 10000 3.6 40 16:56 06.12.2019
3099 Clear 10 1025 66 10000 1.5 40 16:37 06.12.2019
3100 Clear 10 1025 66 10000 1.5 40 16:18 06.12.2019
3101 Clouds 11 1025 57 10000 0.5 270 15:41 06.12.2019
3102 Clouds 11 1025 57 10000 0.5 270 15:41 06.12.2019
3103 Clouds 11 1025 62 10000 1.5 120 15:22 06.12.2019
3104 Clouds 11 1025 54 10000 2.1 120 14:57 06.12.2019
3105 Clouds 12 1025 54 10000 3.1 130 14:39 06.12.2019
3106 Clouds 12 1025 54 10000 3.1 130 14:19 06.12.2019
3107 Clouds 12 1025 54 10000 3.1 130 13:45 06.12.2019
3108 Clouds 12 1025 57 10000 3.1 130 13:45 06.12.2019
3109 Clouds 12 1025 57 10000 3.1 130 13:26 06.12.2019
3110 Clouds 12 1026 53 10000 3.1 130 12:56 06.12.2019
3111 Clouds 12 1026 53 10000 2.1 130 12:38 06.12.2019
3112 Clouds 12 1026 53 10000 2.1 130 12:20 06.12.2019
3113 Clear 12 1027 53 10000 3.6 110 11:42 06.12.2019
3114 Clear 11 1027 53 10000 3.6 110 11:23 06.12.2019
3115 Clear 12 1027 57 10000 3.1 110 10:55 06.12.2019
3116 Clear 11 1028 61 10000 3.1 110 10:37 06.12.2019
3117 Clear 11 1028 61 10000 3.1 110 10:18 06.12.2019
3118 Clear 11 1028 61 10000 3.1 90 09:54 06.12.2019
3119 Clear 10 1028 61 10000 3.1 110 09:36 06.12.2019
3120 Clear 10 1028 61 10000 3.1 110 09:18 06.12.2019
3121 Clear 9 1028 70 10000 2.6 60 08:40 06.12.2019
3122 Clear 9 1028 70 10000 2.6 60 08:21 06.12.2019
3123 Clear 7 1028 75 10000 2.1 30 07:38 06.12.2019
3124 Clear 7 1028 75 10000 3.1 50 07:20 06.12.2019
3125 Clear 7 1028 75 10000 3.1 50 06:48 06.12.2019
3126 Clear 7 1028 75 10000 3.1 50 06:24 06.12.2019
3127 Clear 7 1028 75 10000 3.1 50 05:46 06.12.2019
3128 Clouds 7 1029 70 10000 3.1 50 02:20 06.12.2019
3129 Clear 7 1028 70 10000 3.6 40 01:43 06.12.2019
3130 Clear 7 1029 70 10000 4.1 40 00:49 06.12.2019
3131 Clear 8 1029 70 10000 3.6 40 00:22 06.12.2019
3132 Clear 8 1029 70 10000 3.6 50 23:51 05.12.2019
3133 Clear 8 1029 70 10000 3.1 60 23:20 05.12.2019
3134 Clouds 8 1029 70 10000 4.1 50 22:58 05.12.2019
3135 Clouds 8 1029 70 10000 3.1 50 22:38 05.12.2019
3136 Clouds 8 1029 70 10000 3.1 50 22:19 05.12.2019
3137 Clouds 9 1029 70 10000 3.6 70 21:55 05.12.2019
3138 Clouds 9 1029 76 10000 4.6 50 21:37 05.12.2019
3139 Clouds 9 1029 76 10000 4.6 50 21:19 05.12.2019
3140 Clouds 9 1029 76 10000 3.6 60 20:55 05.12.2019
3141 Clouds 9 1029 76 10000 3.6 60 20:36 05.12.2019
3142 Clouds 9 1029 76 10000 3.6 60 20:36 05.12.2019
3143 Clouds 9 1029 76 10000 4.1 60 20:18 05.12.2019
3144 Clouds 9 1029 76 10000 4.1 60 20:18 05.12.2019
3145 Clouds 9 1029 76 10000 4.6 50 19:40 05.12.2019
3146 Clouds 9 1029 76 10000 4.6 60 19:21 05.12.2019
3147 Clouds 10 1029 71 10000 5.7 60 18:58 05.12.2019
3148 Clouds 10 1029 71 10000 5.7 60 18:38 05.12.2019
3149 Clouds 10 1029 71 10000 5.7 60 18:38 05.12.2019
3150 Clouds 10 1029 71 10000 5.7 60 18:38 05.12.2019
3151 Clouds 10 1029 71 10000 5.1 50 18:20 05.12.2019
3152 Clouds 9 1029 76 10000 3.6 50 17:40 05.12.2019
3153 Clouds 9 1029 76 10000 4.6 60 17:20 05.12.2019
3154 Clouds 9 1029 76 10000 3.1 60 16:58 05.12.2019
3155 Clouds 9 1029 76 10000 3.1 60 16:40 05.12.2019
3156 Clouds 10 1029 81 10000 3.6 60 16:21 05.12.2019
3157 Clouds 10 1029 76 10000 6.2 50 15:58 05.12.2019
3158 Clouds 10 1029 76 10000 6.2 50 15:58 05.12.2019
3159 Clouds 10 1029 76 10000 6.2 50 15:39 05.12.2019
3160 Clouds 10 1029 76 10000 6.7 50 15:20 05.12.2019
3161 Clouds 10 1029 66 10000 7.2 50 14:56 05.12.2019
3162 Clouds 10 1029 66 10000 7.2 50 14:38 05.12.2019
3163 Clouds 10 1029 66 10000 7.2 40 14:19 05.12.2019
3164 Clouds 10 1029 66 10000 7.2 50 13:57 05.12.2019
3165 Clouds 10 1029 66 10000 7.2 50 13:39 05.12.2019
3166 Clouds 10 1029 66 10000 5.7 40 13:19 05.12.2019
3167 Clouds 10 1029 66 10000 6.7 40 12:57 05.12.2019
3168 Clouds 10 1029 66 10000 6.7 40 12:38 05.12.2019
3169 Clouds 10 1029 66 10000 7.2 50 12:20 05.12.2019
3170 Clouds 10 1029 66 10000 7.2 50 11:39 05.12.2019
3171 Clouds 10 1030 71 10000 5.7 40 11:21 05.12.2019
3172 Clouds 10 1030 71 10000 6.2 30 10:58 05.12.2019
3173 Clouds 9 1030 71 10000 6.2 30 10:40 05.12.2019
3174 Clouds 9 1030 70 10000 5.7 30 10:19 05.12.2019
3175 Clouds 9 1031 70 10000 3.6 40 09:55 05.12.2019
3176 Clouds 9 1031 70 10000 3.6 40 09:36 05.12.2019
3177 Clouds 9 1030 66 10000 4.1 30 09:18 05.12.2019
3178 Clouds 9 1031 70 10000 2.6 30 08:39 05.12.2019
3179 Clouds 8 1030 75 10000 3.1 360 08:20 05.12.2019
3180 Clouds 8 1030 75 10000 2.6 350 07:58 05.12.2019
3181 Clouds 8 1030 75 10000 2.6 350 07:38 05.12.2019
3182 Clouds 8 1030 75 10000 4.1 10 07:20 05.12.2019
3183 Clouds 8 1030 75 10000 5.7 20 06:45 05.12.2019
3184 Clouds 8 1030 75 10000 3.6 20 06:23 05.12.2019
3185 Clouds 7 1030 70 10000 4.6 20 05:48 05.12.2019
3186 Clouds 7 1030 70 10000 3.6 30 05:24 05.12.2019
3187 Clouds 7 1029 70 10000 3.1 30 04:27 05.12.2019
3188 Clouds 8 1029 52 10000 4.1 30 02:55 05.12.2019
3189 Clouds 8 1029 64 10000 4.1 40 02:25 05.12.2019
3190 Clouds 8 1029 64 10000 4.1 40 01:59 05.12.2019
3191 Clouds 8 1029 64 10000 4.6 40 01:40 05.12.2019
3192 Clouds 8 1029 61 10000 4.6 40 01:20 05.12.2019
3193 Clouds 8 1029 61 10000 4.1 50 00:37 05.12.2019
3194 Clouds 9 1029 65 10000 4.6 20 00:19 05.12.2019
3195 Clouds 8 1029 65 10000 5.1 40 23:42 04.12.2019
3196 Clouds 8 1029 75 10000 6.2 50 23:22 04.12.2019
3197 Clouds 8 1029 65 10000 8.2 50 22:57 04.12.2019
3198 Clouds 8 1029 65 10000 8.2 50 22:57 04.12.2019
3199 Clouds 8 1029 70 10000 5.7 40 22:36 04.12.2019
3200 Clouds 8 1029 70 10000 6.2 20 22:18 04.12.2019
3201 Clouds 9 1029 75 10000 4.6 20 21:55 04.12.2019
3202 Clouds 9 1029 75 10000 4.6 20 21:37 04.12.2019
3203 Clouds 8 1028 75 10000 4.6 20 21:18 04.12.2019
3204 Clouds 8 1028 75 10000 4.6 20 21:18 04.12.2019
3205 Rain 8 1029 75 10000 10.3 50 20:56 04.12.2019
3206 Clouds 9 1028 75 10000 3.6 10 20:38 04.12.2019
3207 Clouds 9 1028 75 10000 5.1 10 20:19 04.12.2019
3208 Clouds 8 1028 75 10000 6.2 20 19:40 04.12.2019
3209 Rain 8 1028 75 10000 8.7 60 19:22 04.12.2019
3210 Rain 9 1027 75 8000 6.2 30 18:59 04.12.2019
3211 Clouds 8 1027 70 10000 7.2 30 18:40 04.12.2019
3212 Clouds 9 1027 66 10000 7.7 30 18:22 04.12.2019
3213 Clouds 9 1026 66 10000 6.7 30 17:58 04.12.2019
3214 Clouds 9 1026 66 10000 6.7 30 17:38 04.12.2019
3215 Clouds 9 1026 61 10000 6.2 20 17:18 04.12.2019
3216 Clouds 9 1026 61 10000 7.2 20 16:41 04.12.2019
3217 Clouds 9 1025 57 10000 7.2 20 16:20 04.12.2019
3218 Clouds 9 1025 57 10000 8.2 30 15:58 04.12.2019
3219 Clouds 9 1025 57 10000 8.2 30 15:40 04.12.2019
3220 Clouds 9 1025 61 10000 9.3 20 15:20 04.12.2019
3221 Clouds 9 1025 61 10000 9.3 20 14:59 04.12.2019
3222 Clouds 9 1025 66 10000 7.7 20 14:40 04.12.2019
3223 Rain 9 1025 66 10000 7.7 30 14:21 04.12.2019
3224 Rain 9 1025 66 10000 8.2 20 13:55 04.12.2019
3225 Rain 9 1025 66 10000 8.2 20 13:36 04.12.2019
3226 Rain 9 1024 70 10000 7.7 40 13:18 04.12.2019
3227 Rain 9 1024 70 10000 7.7 30 12:41 04.12.2019
3228 Rain 9 1024 70 10000 7.7 30 12:41 04.12.2019
3229 Rain 9 1024 70 10000 6.7 30 12:23 04.12.2019
3230 Rain 9 1024 81 10000 7.7 30 11:44 04.12.2019
3231 Rain 9 1025 81 10000 6.7 20 11:26 04.12.2019
3232 Rain 9 1025 81 10000 6.7 30 10:58 04.12.2019
3233 Rain 9 1025 81 10000 6.7 30 10:40 04.12.2019
3234 Rain 9 1025 81 10000 7.2 40 10:21 04.12.2019
3235 Rain 9 1025 81 10000 6.2 30 09:44 04.12.2019
3236 Rain 9 1025 81 10000 6.2 30 09:24 04.12.2019
3237 Rain 9 1024 81 10000 6.2 30 08:44 04.12.2019
3238 Rain 9 1024 81 10000 6.2 30 08:26 04.12.2019
3239 Rain 9 1024 81 10000 6.2 30 07:59 04.12.2019
3240 Rain 9 1024 81 10000 7.2 20 07:40 04.12.2019
3241 Rain 9 1024 81 10000 6.7 30 07:22 04.12.2019
3242 Clouds 9 1024 81 10000 6.7 30 06:32 04.12.2019
3243 Rain 9 1023 87 10000 5.7 40 05:46 04.12.2019
3244 Rain 9 1023 87 10000 5.1 30 04:39 04.12.2019
3245 Rain 8 1023 87 10000 6.7 30 03:52 04.12.2019
3246 Rain 8 1023 87 10000 7.2 30 01:53 04.12.2019
3247 Rain 8 1022 87 10000 7.2 30 00:48 04.12.2019
3248 Rain 8 1022 87 10000 8.2 20 00:22 04.12.2019
3249 Rain 9 1022 87 10000 7.7 30 23:55 03.12.2019
3250 Rain 8 1022 87 10000 7.7 30 23:36 03.12.2019
3251 Rain 8 1023 87 10000 7.7 30 23:18 03.12.2019
3252 Rain 9 1022 87 10000 8.2 30 22:39 03.12.2019
3253 Rain 9 1022 87 10000 8.7 20 22:18 03.12.2019
3254 Rain 9 1022 93 10000 8.7 20 21:57 03.12.2019
3255 Rain 9 1022 93 10000 8.7 20 21:37 03.12.2019
3256 Rain 9 1022 87 10000 7.7 20 21:18 03.12.2019
3257 Rain 9 1022 93 7000 7.7 20 20:54 03.12.2019
3258 Rain 9 1022 93 7000 7.7 20 20:36 03.12.2019
3259 Rain 9 1022 87 10000 7.7 20 20:18 03.12.2019
3260 Rain 9 1021 87 10000 7.2 30 19:54 03.12.2019
3261 Rain 9 1021 87 10000 7.2 30 19:36 03.12.2019
3262 Rain 9 1021 87 10000 5.7 30 19:18 03.12.2019
3263 Clouds 10 1021 87 10000 5.7 10 18:55 03.12.2019
3264 Clouds 10 1021 87 10000 5.7 10 18:36 03.12.2019
3265 Rain 10 1022 93 3200 8.7 40 18:18 03.12.2019
3266 Clouds 10 1021 87 10000 6.7 360 17:39 03.12.2019
3267 Rain 10 1022 93 4000 8.2 40 17:18 03.12.2019
3268 Clouds 10 1021 81 10000 7.2 10 16:59 03.12.2019
3269 Clouds 9 1021 81 10000 7.2 360 16:39 03.12.2019
3270 Clouds 9 1021 81 10000 7.2 360 16:21 03.12.2019
3271 Clouds 10 1021 76 10000 9.3 360 15:58 03.12.2019
3272 Clouds 10 1021 76 10000 9.3 360 15:38 03.12.2019
3273 Clouds 10 1021 76 10000 8.2 360 15:19 03.12.2019
3274 Clouds 10 1020 76 10000 8.2 360 14:44 03.12.2019
3275 Clouds 11 1020 71 10000 7.7 360 14:21 03.12.2019
3276 Clouds 11 1020 71 10000 7.7 360 13:59 03.12.2019
3277 Clouds 11 1020 76 10000 7.2 360 13:38 03.12.2019
3278 Clouds 11 1020 66 10000 6.7 10 13:19 03.12.2019
3279 Clouds 11 1020 66 10000 4.6 360 12:56 03.12.2019
3280 Clouds 11 1020 66 10000 4.6 360 12:36 03.12.2019
3281 Clouds 12 1020 76 10000 5.7 360 12:18 03.12.2019
3282 Clouds 12 1020 71 10000 5.1 350 11:54 03.12.2019
3283 Clouds 12 1020 71 10000 5.1 350 11:36 03.12.2019
3284 Clouds 12 1020 71 10000 3.1 0 11:18 03.12.2019
3285 Clouds 12 1020 66 10000 3.6 210 10:42 03.12.2019
3286 Clouds 12 1021 66 10000 4.1 210 10:21 03.12.2019
3287 Clouds 12 1021 66 10000 3.6 220 09:58 03.12.2019
3288 Clouds 12 1021 66 10000 3.6 220 09:40 03.12.2019
3289 Clouds 11 1021 66 10000 3.6 210 09:21 03.12.2019
3290 Clouds 11 1021 66 10000 4.1 230 08:54 03.12.2019
3291 Clouds 11 1021 66 10000 4.1 230 08:36 03.12.2019
3292 Clouds 10 1020 71 10000 4.1 220 08:18 03.12.2019
3293 Clouds 10 1020 71 10000 4.1 210 07:49 03.12.2019
3294 Clouds 9 1020 71 10000 4.6 210 07:23 03.12.2019
3295 Clouds 10 1020 66 10000 3.6 210 06:23 03.12.2019
3296 Clouds 9 1019 71 10000 3.6 230 05:59 03.12.2019
3297 Clouds 9 1019 66 10000 4.6 240 04:50 03.12.2019
3298 Clouds 10 1019 62 10000 4.6 230 03:40 03.12.2019
3299 Clouds 9 1019 66 10000 4.6 240 03:19 03.12.2019
3300 Clouds 9 1019 66 10000 5.7 230 02:48 03.12.2019
3301 Clouds 9 1019 66 10000 5.7 230 02:27 03.12.2019
3302 Clouds 8 1020 66 10000 5.1 230 01:46 03.12.2019
3303 Clouds 8 1020 66 10000 5.1 230 01:28 03.12.2019
3304 Clouds 8 1020 66 10000 5.1 240 00:56 03.12.2019
3305 Clouds 8 1020 66 10000 5.1 240 00:38 03.12.2019
3306 Clouds 8 1020 66 10000 5.1 240 00:20 03.12.2019
3307 Clouds 8 1020 62 10000 5.7 230 23:43 02.12.2019
3308 Clouds 9 1020 66 10000 5.7 230 23:20 02.12.2019
3309 Clouds 9 1020 66 10000 5.7 230 23:20 02.12.2019
3310 Clouds 10 1020 66 10000 5.7 210 22:42 02.12.2019
3311 Clouds 8 1020 62 10000 5.7 210 22:23 02.12.2019
3312 Clouds 8 1020 62 10000 5.1 210 21:59 02.12.2019
3313 Clouds 8 1020 62 10000 5.1 210 21:37 02.12.2019
3314 Clouds 8 1020 62 10000 4.6 210 21:19 02.12.2019
3315 Clouds 8 1020 62 10000 4.6 210 21:19 02.12.2019
3316 Clouds 8 1020 62 10000 4.6 220 20:56 02.12.2019
3317 Clouds 8 1020 62 10000 4.6 220 20:38 02.12.2019
3318 Clouds 8 1021 62 10000 4.6 210 20:20 02.12.2019
3319 Clouds 8 1021 61 10000 4.6 200 19:55 02.12.2019
3320 Clouds 8 1021 61 10000 4.1 200 19:36 02.12.2019
3321 Clouds 8 1021 61 10000 4.1 200 19:18 02.12.2019
3322 Clouds 9 1021 61 10000 3.1 190 18:42 02.12.2019
3323 Clouds 9 1021 66 10000 2.1 190 18:20 02.12.2019
3324 Clouds 9 1021 65 10000 0.85 161 17:58 02.12.2019
3325 Clouds 9 1021 65 10000 0.85 161 17:40 02.12.2019
3326 Clouds 9 1022 61 10000 0.5 0 17:20 02.12.2019
3327 Clouds 10 1022 57 10000 0.5 0 16:42 02.12.2019
3328 Clouds 10 1022 57 10000 1 0 16:19 02.12.2019
3329 Clouds 11 1022 57 10000 2.1 170 15:59 02.12.2019
3330 Clouds 11 1022 57 10000 2.1 170 15:40 02.12.2019
3331 Clouds 11 1022 50 10000 2.1 170 15:22 02.12.2019
3332 Clouds 11 1022 50 10000 2.1 170 14:59 02.12.2019
3333 Clouds 12 1023 46 10000 2.1 190 14:38 02.12.2019
3334 Clear 12 1023 40 10000 2.1 150 14:20 02.12.2019
3335 Clear 12 1023 40 10000 2.1 150 14:20 02.12.2019
3336 Clear 13 1023 40 10000 2.6 90 13:58 02.12.2019
3337 Clear 12 1023 40 10000 2.6 90 13:39 02.12.2019
3338 Clear 12 1024 37 10000 2.6 90 13:20 02.12.2019
3339 Clouds 12 1024 37 10000 2.1 80 12:57 02.12.2019
3340 Clouds 12 1024 37 10000 2.1 80 12:37 02.12.2019
3341 Clouds 12 1024 46 10000 3.1 120 12:19 02.12.2019
3342 Clouds 11 1025 46 10000 3.1 100 11:55 02.12.2019
3343 Clouds 11 1025 50 10000 4.1 110 11:36 02.12.2019
3344 Clouds 11 1025 50 10000 4.1 110 11:18 02.12.2019
3345 Clouds 12 1025 54 10000 4.6 100 10:54 02.12.2019
3346 Clouds 11 1025 54 10000 4.6 100 10:36 02.12.2019
3347 Clouds 11 1026 53 10000 4.1 90 10:18 02.12.2019
3348 Clear 11 1026 50 10000 4.1 100 09:39 02.12.2019
3349 Clear 11 1026 53 10000 4.1 100 09:19 02.12.2019
3350 Clear 11 1026 53 10000 4.1 100 09:19 02.12.2019
3351 Clear 10 1026 57 10000 4.1 100 08:55 02.12.2019
3352 Clear 10 1026 57 10000 4.1 100 08:55 02.12.2019
3353 Clear 10 1026 57 10000 4.1 100 08:37 02.12.2019
3354 Clear 10 1026 57 10000 4.1 100 08:37 02.12.2019
3355 Clear 9 1027 57 10000 2.6 60 08:19 02.12.2019
3356 Clear 8 1027 61 10000 3.1 50 07:40 02.12.2019
3357 Clear 7 1027 65 10000 2.1 20 07:20 02.12.2019
3358 Clear 7 1027 61 10000 3.1 40 06:45 02.12.2019
3359 Clear 7 1027 65 10000 3.1 40 06:27 02.12.2019
3360 Clouds 7 1027 65 10000 3.1 50 05:24 02.12.2019
3361 Clouds 8 1027 61 10000 3.1 60 04:19 02.12.2019
3362 Clouds 9 1028 61 10000 2.1 30 02:51 02.12.2019
3363 Clouds 9 1028 61 10000 2.6 40 02:23 02.12.2019
3364 Clouds 9 1027 61 10000 3.1 50 01:23 02.12.2019
3365 Clouds 9 1027 61 10000 3.6 20 00:45 02.12.2019
3366 Clouds 9 1028 61 10000 3.1 30 00:23 02.12.2019
3367 Clouds 9 1028 66 10000 4.1 30 23:45 01.12.2019
3368 Clouds 9 1028 66 10000 4.6 20 23:23 01.12.2019
3369 Clouds 9 1028 66 10000 5.1 10 22:58 01.12.2019
3370 Clouds 9 1028 66 10000 5.1 10 22:39 01.12.2019
3371 Clouds 10 1028 57 10000 4.6 50 22:20 01.12.2019
3372 Clouds 10 1028 57 10000 4.6 50 21:58 01.12.2019
3373 Clouds 9 1027 57 10000 6.7 50 21:40 01.12.2019
3374 Clouds 9 1027 57 10000 5.1 50 21:22 01.12.2019
3375 Clouds 10 1027 57 10000 5.1 40 20:59 01.12.2019
3376 Clouds 10 1027 57 10000 5.1 40 20:41 01.12.2019
3377 Clouds 10 1027 57 10000 5.7 30 20:22 01.12.2019
3378 Clouds 10 1027 57 10000 5.7 30 19:59 01.12.2019
3379 Clouds 10 1027 57 10000 5.7 30 19:40 01.12.2019
3380 Clouds 10 1027 57 10000 5.7 30 19:21 01.12.2019
3381 Clouds 10 1027 57 10000 5.7 30 18:57 01.12.2019
3382 Clouds 10 1027 61 10000 5.1 20 18:39 01.12.2019
3383 Clouds 10 1027 61 10000 7.2 40 18:20 01.12.2019
3384 Clouds 10 1027 61 10000 7.2 40 17:59 01.12.2019
3385 Clouds 10 1026 66 10000 7.2 30 17:41 01.12.2019
3386 Clouds 10 1026 61 10000 5.7 20 17:23 01.12.2019
3387 Clouds 10 1026 61 10000 5.7 20 17:23 01.12.2019
3388 Clouds 10 1026 70 10000 6.2 360 16:56 01.12.2019
3389 Clouds 9 1026 70 10000 6.2 360 16:38 01.12.2019
3390 Clouds 9 1025 70 10000 7.7 360 16:20 01.12.2019
3391 Clouds 9 1025 76 10000 8.7 360 15:46 01.12.2019
3392 Clouds 10 1025 76 10000 7.7 360 15:28 01.12.2019
3393 Clouds 9 1024 76 10000 7.7 360 14:43 01.12.2019
3394 Clouds 9 1024 81 10000 6.7 360 14:20 01.12.2019
3395 Clouds 9 1024 81 10000 8.7 10 13:59 01.12.2019
3396 Clouds 9 1024 81 10000 8.7 10 13:39 01.12.2019
3397 Rain 10 1024 87 5000 10.3 10 13:19 01.12.2019
3398 Clouds 10 1023 76 10000 9.8 350 12:43 01.12.2019
3399 Clouds 10 1023 81 10000 8.7 360 11:57 01.12.2019
3400 Clouds 10 1023 81 10000 8.7 360 11:57 01.12.2019
3401 Clouds 10 1023 81 10000 8.7 360 11:57 01.12.2019
3402 Clouds 10 1023 81 10000 8.7 360 11:57 01.12.2019
3403 Clouds 10 1023 81 10000 8.7 360 11:37 01.12.2019
3404 Clouds 10 1023 81 10000 9.3 360 11:19 01.12.2019
3405 Clouds 10 1023 81 10000 10.3 340 10:43 01.12.2019
3406 Clouds 10 1022 81 10000 8.7 340 10:21 01.12.2019
3407 Clouds 10 1022 81 10000 8.7 340 09:55 01.12.2019
3408 Clouds 10 1022 81 10000 8.7 340 09:36 01.12.2019
3409 Clouds 10 1022 81 10000 9.3 330 09:18 01.12.2019
3410 Clouds 10 1021 87 10000 8.2 330 08:42 01.12.2019
3411 Clouds 10 1021 87 10000 7.7 330 08:19 01.12.2019
3412 Clouds 10 1021 87 10000 7.2 330 07:50 01.12.2019
3413 Clouds 10 1021 87 10000 7.2 330 07:29 01.12.2019
3414 Clouds 10 1020 81 10000 8.7 330 06:54 01.12.2019
3415 Clouds 10 1020 81 10000 9.3 330 06:21 01.12.2019
3416 Clouds 10 1019 76 10000 9.3 340 05:45 01.12.2019
3417 Clouds 10 1018 76 10000 12.3 340 04:30 01.12.2019
3418 Clouds 10 1017 71 10000 10.3 330 02:47 01.12.2019
3419 Clouds 10 1017 71 10000 10.8 330 02:28 01.12.2019
3420 Clouds 11 1017 71 10000 10.8 340 01:55 01.12.2019
3421 Clouds 11 1017 71 10000 10.8 340 01:37 01.12.2019
3422 Clouds 11 1016 76 10000 11.8 340 00:50 01.12.2019
3423 Clouds 12 1016 76 10000 11.8 340 00:28 01.12.2019
3424 Clouds 12 1015 81 10000 9.8 340 23:59 30.11.2019
3425 Clouds 12 1015 81 10000 9.8 340 23:40 30.11.2019
3426 Clouds 12 1015 82 10000 7.2 350 23:21 30.11.2019
3427 Clouds 13 1014 82 10000 7.7 340 22:47 30.11.2019
3428 Clouds 13 1014 87 10000 6.7 330 22:29 30.11.2019
3429 Rain 13 1014 87 10000 6.7 340 21:55 30.11.2019
3430 Rain 14 1014 87 10000 6.7 340 21:37 30.11.2019
3431 Rain 14 1013 87 8000 7.7 330 21:19 30.11.2019
3432 Rain 14 1013 82 8000 7.2 330 20:55 30.11.2019
3433 Rain 14 1013 82 8000 7.2 330 20:36 30.11.2019
3434 Thunderstorm 14 1012 87 5000 11.3 330 20:18 30.11.2019
3435 Clouds 15 1013 82 10000 9.8 340 19:54 30.11.2019
3436 Thunderstorm 15 1012 82 5000 10.3 310 19:36 30.11.2019
3437 Thunderstorm 15 1012 82 5000 10.3 310 19:36 30.11.2019
3438 Thunderstorm 15 1013 82 10000 8.7 340 19:18 30.11.2019
3439 Rain 16 1011 67 8000 4.1 290 18:54 30.11.2019
3440 Rain 16 1011 67 8000 4.1 290 18:54 30.11.2019
3441 Rain 16 1011 67 8000 4.1 290 18:36 30.11.2019
3442 Clouds 16 1011 82 10000 4.1 240 18:18 30.11.2019
3443 Clouds 17 1011 82 10000 4.1 240 17:55 30.11.2019
3444 Clouds 17 1011 82 10000 4.1 240 17:36 30.11.2019
3445 Clouds 18 1011 68 10000 4.1 250 17:18 30.11.2019
3446 Clouds 17 1011 77 10000 3.1 240 16:41 30.11.2019
3447 Clouds 17 1011 77 10000 3.1 240 16:41 30.11.2019
3448 Clouds 18 1011 72 10000 4.1 240 16:22 30.11.2019
3449 Clouds 18 1011 72 10000 3.6 240 15:55 30.11.2019
3450 Clouds 18 1011 72 10000 3.6 240 15:36 30.11.2019
3451 Clouds 19 1011 77 10000 3.1 250 15:18 30.11.2019
3452 Clouds 19 1011 72 10000 2.6 250 14:55 30.11.2019
3453 Clouds 19 1011 72 10000 2.6 250 14:37 30.11.2019
3454 Clouds 19 1011 72 10000 2.6 250 14:37 30.11.2019
3455 Clear 19 1011 72 10000 3.1 230 14:18 30.11.2019
3456 Clear 19 1011 72 10000 3.1 200 13:45 30.11.2019
3457 Clouds 19 1011 63 10000 8.7 220 13:25 30.11.2019
3458 Clear 19 1011 68 10000 4.1 200 12:58 30.11.2019
3459 Clear 19 1011 68 10000 4.1 200 12:39 30.11.2019
3460 Clear 19 1012 68 10000 5.1 190 12:21 30.11.2019
3461 Clear 19 1012 68 10000 6.2 190 11:42 30.11.2019
3462 Clear 19 1012 63 10000 4.6 190 11:19 30.11.2019
3463 Clear 19 1012 63 10000 4.6 190 11:19 30.11.2019
3464 Clear 18 1012 68 10000 6.7 190 10:55 30.11.2019
3465 Clear 18 1012 68 10000 6.7 190 10:55 30.11.2019
3466 Clear 18 1012 68 10000 6.7 190 10:37 30.11.2019
3467 Clear 18 1013 68 10000 6.2 190 10:18 30.11.2019
3468 Clear 18 1013 68 10000 6.7 190 09:46 30.11.2019
3469 Clear 17 1013 72 10000 6.2 190 09:23 30.11.2019
3470 Clear 16 1013 72 10000 6.2 190 08:44 30.11.2019
3471 Rain 16 1013 77 10000 5.7 200 08:20 30.11.2019
3472 Rain 15 1013 87 10000 3.6 190 07:56 30.11.2019
3473 Rain 14 1013 87 10000 3.6 190 07:37 30.11.2019
3474 Rain 13 1013 87 10000 4.1 210 06:56 30.11.2019
3475 Rain 13 1013 87 10000 4.1 210 06:29 30.11.2019
3476 Rain 13 1013 93 10000 1 0 05:49 30.11.2019
3477 Rain 14 1013 87 10000 3.1 250 03:48 30.11.2019
3478 Rain 14 1013 87 10000 4.1 240 02:39 30.11.2019
3479 Rain 14 1013 87 10000 3.6 250 02:21 30.11.2019
3480 Rain 14 1013 82 10000 2.6 270 01:25 30.11.2019
3481 Rain 14 1013 82 10000 2.6 270 01:25 30.11.2019
3482 Rain 14 1013 82 10000 2.6 270 01:25 30.11.2019
3483 Rain 14 1012 82 10000 4.1 250 00:50 30.11.2019
3484 Rain 14 1012 82 10000 4.1 250 00:31 30.11.2019
3485 Rain 14 1012 77 10000 4.6 240 23:59 29.11.2019
3486 Rain 14 1012 77 10000 5.1 230 23:40 29.11.2019
3487 Rain 14 1012 82 10000 4.1 220 23:21 29.11.2019
3488 Rain 14 1012 82 10000 3.1 220 22:44 29.11.2019
3489 Rain 13 1012 82 10000 3.1 210 22:25 29.11.2019
3490 Rain 14 1012 87 10000 3.1 200 21:44 29.11.2019
3491 Rain 14 1012 77 10000 4.1 230 21:24 29.11.2019
3492 Rain 14 1012 72 10000 4.1 220 20:58 29.11.2019
3493 Rain 14 1012 72 10000 4.1 220 20:38 29.11.2019
3494 Clouds 14 1012 82 10000 3.6 210 20:19 29.11.2019
3495 Clouds 14 1012 82 10000 3.6 210 19:57 29.11.2019
3496 Clouds 14 1012 67 10000 2.6 230 19:39 29.11.2019
3497 Clouds 14 1011 76 10000 2.6 180 19:19 29.11.2019
3498 Clouds 15 1011 67 10000 2.6 300 18:55 29.11.2019
3499 Clouds 15 1011 67 10000 2.6 300 18:37 29.11.2019
3500 Clouds 15 1011 67 10000 2.6 300 18:37 29.11.2019
3501 Clouds 15 1011 67 10000 2.6 300 18:37 29.11.2019
3502 Clouds 15 1011 67 10000 4.1 310 18:19 29.11.2019
3503 Clouds 15 1011 67 10000 4.1 320 17:43 29.11.2019
3504 Rain 15 1011 67 10000 4.6 320 17:24 29.11.2019
3505 Rain 15 1010 67 10000 4.6 310 16:56 29.11.2019
3506 Rain 16 1010 67 10000 4.6 310 16:37 29.11.2019
3507 Thunderstorm 16 1010 67 10000 6.7 270 16:18 29.11.2019
3508 Clouds 17 1010 59 10000 5.1 300 15:40 29.11.2019
3509 Clouds 17 1009 55 10000 6.2 280 15:22 29.11.2019
3510 Clouds 17 1009 55 10000 7.7 280 14:55 29.11.2019
3511 Clouds 17 1009 55 10000 7.7 280 14:37 29.11.2019
3512 Clouds 17 1008 59 10000 8.2 270 14:18 29.11.2019
3513 Clouds 17 1008 59 10000 11.3 270 13:40 29.11.2019
3514 Clouds 18 1007 68 10000 10.8 240 13:20 29.11.2019
3515 Clouds 18 1007 72 10000 8.7 240 12:56 29.11.2019
3516 Clouds 18 1007 72 10000 8.7 240 12:37 29.11.2019
3517 Thunderstorm 18 1006 77 2500 10.8 230 12:19 29.11.2019
3518 Clouds 18 1007 77 10000 7.7 210 11:41 29.11.2019
3519 Clouds 18 1007 88 10000 8.2 200 11:19 29.11.2019
3520 Clouds 17 1007 88 10000 8.2 200 10:59 29.11.2019
3521 Clouds 17 1007 88 10000 9.3 190 10:40 29.11.2019
3522 Clouds 16 1007 87 10000 5.7 220 10:22 29.11.2019
3523 Rain 16 1007 88 10000 6.7 210 09:59 29.11.2019
3524 Rain 16 1007 88 10000 6.7 210 09:41 29.11.2019
3525 Rain 15 1007 93 10000 8.7 190 09:22 29.11.2019
3526 Rain 15 1007 93 10000 8.7 190 08:59 29.11.2019
3527 Thunderstorm 15 1007 87 2500 9.3 190 08:38 29.11.2019
3528 Thunderstorm 15 1007 87 2500 9.3 190 08:38 29.11.2019
3529 Thunderstorm 15 1007 87 7000 9.8 190 08:20 29.11.2019
3530 Thunderstorm 15 1007 87 7000 10.3 190 07:47 29.11.2019
3531 Clouds 15 1007 82 10000 8.2 170 07:24 29.11.2019
3532 Clouds 15 1007 82 10000 9.8 180 06:58 29.11.2019
3533 Clouds 15 1007 82 10000 9.8 180 06:37 29.11.2019
3534 Clouds 16 1008 77 10000 8.7 190 05:47 29.11.2019
3535 Clouds 16 1008 72 10000 8.2 190 05:23 29.11.2019
3536 Clouds 17 1008 72 10000 4.6 200 04:20 29.11.2019
3537 Clouds 17 1009 72 10000 4.1 210 03:21 29.11.2019
3538 Clouds 17 1009 72 10000 5.1 210 02:28 29.11.2019
3539 Clouds 17 1010 67 10000 4.6 200 01:51 29.11.2019
3540 Clouds 17 1010 67 10000 5.7 190 01:25 29.11.2019
3541 Clouds 17 1010 67 10000 5.1 200 00:42 29.11.2019
3542 Clouds 17 1010 67 10000 4.1 210 00:20 29.11.2019
3543 Clouds 16 1011 67 10000 4.6 200 23:45 28.11.2019
3544 Clouds 16 1011 67 10000 5.1 190 23:22 28.11.2019
3545 Clouds 16 1012 67 10000 5.1 190 22:59 28.11.2019
3546 Clouds 16 1012 67 10000 5.1 190 22:38 28.11.2019
3547 Clouds 16 1012 72 10000 4.1 190 22:20 28.11.2019
3548 Clouds 16 1012 72 10000 4.1 190 21:58 28.11.2019
3549 Clouds 16 1012 72 10000 4.1 190 21:39 28.11.2019
3550 Clouds 16 1012 72 10000 4.6 200 21:19 28.11.2019
3551 Clouds 16 1012 72 10000 5.1 200 20:55 28.11.2019
3552 Clouds 16 1012 72 10000 5.1 200 20:37 28.11.2019
3553 Clouds 16 1012 72 10000 5.7 200 20:18 28.11.2019
3554 Clouds 16 1013 72 10000 5.7 200 19:41 28.11.2019
3555 Clouds 16 1013 72 10000 5.7 200 19:41 28.11.2019
3556 Clouds 16 1013 72 10000 6.2 200 19:23 28.11.2019
3557 Clouds 16 1013 77 10000 6.2 190 18:59 28.11.2019
3558 Clouds 16 1013 77 10000 6.2 190 18:40 28.11.2019
3559 Clouds 16 1013 72 10000 6.2 190 18:19 28.11.2019
3560 Clouds 16 1013 72 10000 6.2 190 17:59 28.11.2019
3561 Clouds 16 1013 72 10000 6.2 190 17:59 28.11.2019
3562 Clouds 16 1013 77 10000 5.7 190 17:41 28.11.2019
3563 Clouds 16 1013 77 10000 5.7 190 17:23 28.11.2019
3564 Clouds 16 1013 82 10000 4.1 190 16:58 28.11.2019
3565 Clouds 16 1013 82 10000 4.1 190 16:38 28.11.2019
3566 Clouds 16 1013 82 10000 6.2 200 16:18 28.11.2019
3567 Clouds 16 1013 82 10000 5.7 200 15:42 28.11.2019
3568 Clouds 17 1013 77 10000 5.1 200 15:21 28.11.2019
3569 Clouds 17 1013 77 10000 6.2 200 14:59 28.11.2019
3570 Clouds 17 1013 77 10000 6.2 200 14:41 28.11.2019
3571 Clouds 17 1014 72 10000 5.1 200 14:22 28.11.2019
3572 Clouds 17 1014 77 10000 5.1 200 13:57 28.11.2019
3573 Clouds 17 1014 77 10000 5.1 200 13:39 28.11.2019
3574 Clouds 17 1014 72 10000 6.7 190 13:21 28.11.2019
3575 Clouds 16 1014 67 10000 7.7 200 12:45 28.11.2019
3576 Clouds 16 1014 72 10000 6.7 200 12:27 28.11.2019
3577 Clouds 16 1014 72 10000 7.2 190 11:58 28.11.2019
3578 Clouds 16 1014 72 10000 7.2 190 11:39 28.11.2019
3579 Clouds 16 1015 72 10000 6.7 190 11:20 28.11.2019
3580 Clouds 16 1015 72 10000 6.2 200 10:56 28.11.2019
3581 Clouds 16 1015 72 10000 6.2 200 10:38 28.11.2019
3582 Clouds 16 1015 72 10000 6.7 200 10:18 28.11.2019
3583 Clouds 16 1015 72 10000 6.7 200 09:41 28.11.2019
3584 Clouds 15 1015 67 10000 7.2 200 09:22 28.11.2019
3585 Clouds 15 1015 67 10000 7.2 200 08:57 28.11.2019
3586 Clouds 14 1015 72 10000 7.7 190 08:38 28.11.2019
3587 Clouds 14 1015 77 10000 7.2 200 08:19 28.11.2019
3588 Clouds 13 1014 77 10000 6.2 190 07:42 28.11.2019
3589 Clouds 12 1015 82 10000 6.2 190 07:23 28.11.2019
3590 Clouds 12 1015 82 10000 5.7 190 06:50 28.11.2019
3591 Clouds 12 1015 82 10000 5.7 190 06:50 28.11.2019
3592 Clouds 12 1015 82 10000 5.7 190 06:29 28.11.2019
3593 Clouds 12 1014 82 10000 4.6 200 05:51 28.11.2019
3594 Clouds 12 1014 82 10000 5.1 200 05:18 28.11.2019
3595 Clouds 11 1015 82 10000 4.1 210 02:37 28.11.2019
3596 Clouds 11 1015 76 10000 5.1 190 01:47 28.11.2019
3597 Clouds 11 1015 87 10000 2.6 160 00:47 28.11.2019
3598 Clouds 10 1015 87 10000 2.6 160 00:22 28.11.2019
3599 Clouds 11 1015 87 10000 2.1 150 23:55 27.11.2019
3600 Clouds 11 1015 87 10000 2.1 150 23:36 27.11.2019
3601 Clouds 11 1015 87 10000 2.6 130 23:18 27.11.2019
3602 Clouds 11 1015 87 10000 2.1 130 22:39 27.11.2019
3603 Clouds 11 1015 87 10000 2.1 100 22:20 27.11.2019
3604 Clouds 11 1015 81 10000 2.1 100 21:56 27.11.2019
3605 Clouds 11 1015 81 10000 2.1 100 21:37 27.11.2019
3606 Clouds 11 1015 81 10000 3.1 100 21:19 27.11.2019
3607 Clouds 11 1015 81 10000 3.1 100 21:19 27.11.2019
3608 Clouds 11 1015 81 10000 3.1 100 21:19 27.11.2019
3609 Clouds 11 1015 81 10000 3.1 100 20:58 27.11.2019
3610 Clouds 11 1015 81 10000 2.1 100 20:58 27.11.2019
3611 Clouds 11 1015 81 10000 2.1 100 20:39 27.11.2019
3612 Clouds 11 1015 81 10000 1.5 90 20:21 27.11.2019
3613 Clouds 12 1015 76 10000 1 80 19:57 27.11.2019
3614 Clouds 12 1015 76 10000 1 80 19:39 27.11.2019
3615 Clouds 12 1015 76 10000 1.5 70 19:19 27.11.2019
3616 Clouds 12 1015 76 10000 2.1 70 18:58 27.11.2019
3617 Clouds 12 1015 76 10000 2.1 70 18:37 27.11.2019
3618 Clouds 12 1015 76 10000 1.5 30 18:19 27.11.2019
3619 Clouds 12 1015 71 10000 1.5 60 17:56 27.11.2019
3620 Clouds 12 1015 71 10000 1.5 60 17:38 27.11.2019
3621 Clouds 12 1015 71 10000 1.5 70 17:20 27.11.2019
3622 Clouds 12 1015 71 10000 1.5 70 17:20 27.11.2019
3623 Clouds 12 1014 76 10000 1.5 20 16:56 27.11.2019
3624 Clouds 12 1014 76 10000 1.5 20 16:56 27.11.2019
3625 Clouds 12 1014 76 10000 1.5 20 16:37 27.11.2019
3626 Clouds 12 1014 71 10000 1.5 30 16:19 27.11.2019
3627 Clouds 12 1014 71 10000 1.5 80 15:57 27.11.2019
3628 Clouds 12 1014 71 10000 1.5 80 15:38 27.11.2019
3629 Clouds 12 1014 71 10000 1.5 80 15:38 27.11.2019
3630 Clouds 12 1014 71 10000 2.1 30 15:20 27.11.2019
3631 Clouds 12 1014 71 10000 2.6 20 14:57 27.11.2019
3632 Clouds 12 1014 71 10000 2.6 20 14:38 27.11.2019
3633 Clouds 12 1014 76 10000 2.1 20 14:20 27.11.2019
3634 Clouds 12 1014 76 10000 3.6 360 13:56 27.11.2019
3635 Clouds 12 1014 76 10000 3.6 360 13:38 27.11.2019
3636 Clouds 12 1014 76 10000 3.6 360 13:38 27.11.2019
3637 Clouds 12 1014 76 10000 4.1 350 13:19 27.11.2019
3638 Clouds 12 1014 76 10000 4.1 350 12:42 27.11.2019
3639 Clouds 12 1014 81 10000 4.1 350 12:22 27.11.2019
3640 Clouds 12 1014 76 10000 4.1 350 11:59 27.11.2019
3641 Clouds 12 1014 76 10000 4.6 360 11:37 27.11.2019
3642 Clouds 11 1014 76 10000 5.7 360 11:19 27.11.2019
3643 Clouds 12 1014 76 10000 6.2 10 10:55 27.11.2019
3644 Clouds 12 1014 76 10000 6.2 10 10:37 27.11.2019
3645 Clouds 12 1014 76 10000 6.7 360 10:19 27.11.2019
3646 Clouds 12 1014 76 10000 6.2 350 09:41 27.11.2019
3647 Clouds 12 1014 81 10000 6.7 350 09:23 27.11.2019
3648 Clouds 12 1014 81 10000 6.7 350 08:43 27.11.2019
3649 Clouds 12 1013 81 10000 6.7 350 08:23 27.11.2019
3650 Clouds 12 1013 81 10000 6.7 350 08:23 27.11.2019
3651 Clouds 12 1013 81 10000 6.2 350 07:57 27.11.2019
3652 Clouds 12 1013 87 10000 6.2 350 07:39 27.11.2019
3653 Clouds 12 1013 87 10000 6.2 350 07:20 27.11.2019
3654 Clouds 12 1013 87 10000 6.2 350 07:20 27.11.2019
3655 Clouds 12 1012 87 10000 6.7 350 06:40 27.11.2019
3656 Clouds 12 1012 93 10000 6.2 350 06:20 27.11.2019
3657 Clouds 12 1012 87 10000 8.2 350 05:26 27.11.2019
3658 Clouds 12 1011 87 10000 7.2 350 04:56 27.11.2019
3659 Clouds 12 1011 87 10000 7.2 350 04:36 27.11.2019
3660 Clouds 13 1011 87 10000 8.2 350 03:48 27.11.2019
3661 Clouds 13 1010 93 10000 9.3 350 03:21 27.11.2019
3662 Clouds 13 1010 93 10000 8.2 350 02:48 27.11.2019
3663 Rain 13 1010 87 6000 7.7 350 01:34 27.11.2019
3664 Rain 13 1009 93 6000 8.2 10 00:42 27.11.2019
3665 Rain 13 1010 93 7000 8.7 360 00:24 27.11.2019
3666 Rain 13 1009 93 7000 9.8 360 23:44 26.11.2019
3667 Rain 13 1009 93 6000 10.3 350 23:25 26.11.2019
3668 Rain 13 1009 93 7000 9.8 350 22:56 26.11.2019
3669 Rain 13 1009 93 7000 9.8 350 22:38 26.11.2019
3670 Rain 13 1009 93 7000 12.3 330 22:19 26.11.2019
3671 Rain 14 1009 93 8000 11.3 330 21:57 26.11.2019
3672 Rain 14 1009 93 8000 11.3 330 21:37 26.11.2019
3673 Clouds 14 1008 87 10000 8.2 330 21:19 26.11.2019
3674 Clouds 14 1008 87 10000 8.2 330 21:19 26.11.2019
3675 Rain 14 1009 100 2400 11.3 360 20:54 26.11.2019
3676 Clouds 14 1008 87 10000 7.2 320 20:36 26.11.2019
3677 Clouds 14 1008 87 10000 7.2 320 20:18 26.11.2019
3678 Rain 14 1008 100 4800 5.7 350 19:54 26.11.2019
3679 Clouds 14 1008 87 10000 4.1 330 19:36 26.11.2019
3680 Rain 14 1008 87 8000 4.6 310 19:18 26.11.2019
3681 Clouds 15 1008 87 10000 3.1 220 18:54 26.11.2019
3682 Clouds 15 1008 82 10000 3.6 240 18:36 26.11.2019
3683 Clouds 15 1008 82 10000 3.6 240 18:18 26.11.2019
3684 Clouds 15 1007 82 10000 3.6 250 17:41 26.11.2019
3685 Clouds 15 1007 82 10000 3.1 240 17:23 26.11.2019
3686 Clouds 15 1007 82 10000 3.1 240 17:23 26.11.2019
3687 Thunderstorm 15 1007 93 7000 5.7 320 16:57 26.11.2019
3688 Clouds 15 1007 82 10000 4.6 230 16:38 26.11.2019
3689 Clouds 15 1007 82 10000 4.6 230 16:38 26.11.2019
3690 Clouds 15 1007 77 10000 4.6 250 16:19 26.11.2019
3691 Clouds 15 1007 77 10000 4.6 250 15:59 26.11.2019
3692 Clouds 16 1007 87 10000 4.1 240 15:38 26.11.2019
3693 Clouds 16 1006 82 10000 4.1 220 15:20 26.11.2019
3694 Clouds 16 1006 77 10000 4.1 220 14:58 26.11.2019
3695 Clouds 16 1006 77 10000 4.1 220 14:40 26.11.2019
3696 Clouds 17 1006 72 10000 4.1 220 14:22 26.11.2019
3697 Clouds 17 1006 72 10000 4.6 220 13:41 26.11.2019
3698 Clouds 17 1006 72 10000 4.6 220 13:41 26.11.2019
3699 Clouds 17 1006 77 10000 4.6 220 13:23 26.11.2019
3700 Clouds 17 1006 77 10000 4.6 220 13:23 26.11.2019
3701 Clouds 17 1006 72 10000 4.6 210 12:40 26.11.2019
3702 Clouds 17 1006 72 10000 3.6 230 12:22 26.11.2019
3703 Clouds 17 1006 63 10000 4.6 220 11:59 26.11.2019
3704 Clouds 17 1006 72 10000 4.1 230 11:40 26.11.2019
3705 Clouds 17 1006 72 10000 2.6 210 11:20 26.11.2019
3706 Clouds 17 1006 77 10000 3.1 240 10:59 26.11.2019
3707 Clouds 17 1006 77 10000 3.1 240 10:41 26.11.2019
3708 Clouds 16 1006 72 10000 2.6 250 10:21 26.11.2019
3709 Clouds 16 1006 72 10000 2.6 240 09:58 26.11.2019
3710 Clouds 16 1006 72 10000 2.6 240 09:38 26.11.2019
3711 Clouds 16 1006 72 10000 3.1 150 09:20 26.11.2019
3712 Clouds 15 1006 77 10000 3.1 120 08:44 26.11.2019
3713 Clouds 15 1006 72 10000 4.1 120 08:25 26.11.2019
3714 Clouds 15 1006 72 10000 3.6 120 07:47 26.11.2019
3715 Clouds 15 1006 72 10000 3.1 110 07:29 26.11.2019
3716 Clouds 15 1006 72 10000 3.1 120 06:56 26.11.2019
3717 Clouds 14 1006 82 10000 3.1 180 06:35 26.11.2019
3718 Clouds 14 1006 72 10000 3.1 110 05:53 26.11.2019
3719 Clouds 14 1006 72 10000 5.1 100 04:47 26.11.2019
3720 Clouds 14 1007 72 10000 4.6 100 02:52 26.11.2019
3721 Clouds 14 1007 77 10000 3.1 60 01:33 26.11.2019
3722 Rain 14 1007 77 10000 4.6 100 00:53 26.11.2019
3723 Rain 14 1008 82 10000 2.6 50 00:31 26.11.2019
3724 Rain 14 1008 82 10000 2.6 60 23:55 25.11.2019
3725 Rain 14 1008 82 10000 2.6 30 23:36 25.11.2019
3726 Rain 14 1008 82 10000 2.6 30 23:18 25.11.2019
3727 Rain 15 1009 82 10000 2.1 50 22:39 25.11.2019
3728 Rain 15 1009 82 10000 2.6 40 22:19 25.11.2019
3729 Rain 15 1009 82 10000 3.1 20 21:59 25.11.2019
3730 Rain 15 1009 82 10000 3.1 20 21:40 25.11.2019
3731 Rain 15 1009 82 10000 3.1 20 21:21 25.11.2019
3732 Rain 15 1010 72 10000 2.1 30 20:57 25.11.2019
3733 Rain 15 1010 72 10000 2.1 30 20:39 25.11.2019
3734 Rain 15 1010 72 10000 1.5 30 20:20 25.11.2019
3735 Rain 15 1010 72 10000 2.6 30 19:56 25.11.2019
3736 Rain 15 1010 72 10000 2.6 30 19:56 25.11.2019
3737 Rain 15 1010 72 10000 2.6 30 19:38 25.11.2019
3738 Rain 15 1010 72 10000 3.6 50 19:18 25.11.2019
3739 Rain 15 1010 72 10000 4.1 50 18:57 25.11.2019
3740 Rain 15 1010 72 10000 4.1 50 18:39 25.11.2019
3741 Rain 16 1010 72 10000 4.6 50 18:21 25.11.2019
3742 Rain 16 1010 72 10000 4.6 50 18:21 25.11.2019
3743 Clouds 16 1010 77 10000 4.1 40 17:57 25.11.2019
3744 Clouds 16 1010 87 10000 5.7 90 17:38 25.11.2019
3745 Clouds 16 1009 77 10000 4.6 40 17:20 25.11.2019
3746 Clouds 16 1010 77 10000 5.7 40 16:57 25.11.2019
3747 Clouds 16 1010 77 10000 5.7 40 16:39 25.11.2019
3748 Clouds 16 1010 77 10000 4.6 40 16:20 25.11.2019
3749 Clouds 16 1010 72 10000 5.7 40 15:54 25.11.2019
3750 Clouds 16 1010 72 10000 5.7 40 15:36 25.11.2019
3751 Clouds 16 1010 72 10000 6.2 30 15:18 25.11.2019
3752 Clouds 16 1010 72 10000 6.2 30 14:41 25.11.2019
3753 Clouds 17 1010 72 10000 5.1 30 14:22 25.11.2019
3754 Clouds 17 1011 59 10000 3.1 50 13:55 25.11.2019
3755 Clouds 17 1011 59 10000 3.1 50 13:36 25.11.2019
3756 Clouds 16 1011 63 10000 2.6 100 13:18 25.11.2019
3757 Clouds 16 1011 63 10000 2.6 100 13:18 25.11.2019
3758 Clouds 17 1011 59 10000 3.6 100 12:41 25.11.2019
3759 Clouds 17 1011 59 10000 3.6 50 12:22 25.11.2019
3760 Clouds 17 1012 55 10000 3.6 80 11:59 25.11.2019
3761 Clouds 17 1012 55 10000 3.6 80 11:40 25.11.2019
3762 Clouds 16 1012 59 10000 3.1 90 11:20 25.11.2019
3763 Clouds 16 1013 63 10000 3.1 70 10:54 25.11.2019
3764 Clouds 16 1013 63 10000 3.1 70 10:36 25.11.2019
3765 Clouds 15 1014 67 10000 2.1 60 10:18 25.11.2019
3766 Clouds 15 1014 67 10000 2.6 60 09:41 25.11.2019
3767 Clouds 14 1014 72 10000 3.1 50 09:23 25.11.2019
3768 Clouds 14 1014 77 10000 2.1 60 08:42 25.11.2019
3769 Clouds 13 1015 82 10000 2.6 60 08:23 25.11.2019
3770 Clouds 14 1015 82 10000 3.6 60 07:47 25.11.2019
3771 Clouds 13 1014 82 10000 4.1 50 07:28 25.11.2019
3772 Clouds 13 1014 82 10000 4.1 60 06:58 25.11.2019
3773 Clouds 13 1014 82 10000 4.1 60 06:23 25.11.2019
3774 Clouds 13 1014 82 10000 4.1 60 06:23 25.11.2019
3775 Clouds 13 1014 82 10000 4.6 60 05:50 25.11.2019
3776 Mist 13 1015 93 4000 4.1 90 05:30 25.11.2019
3777 Clouds 13 1014 82 10000 4.6 50 04:35 25.11.2019
3778 Clouds 12 1015 87 10000 3.6 30 02:35 25.11.2019
3779 Clear 13 1016 87 9000 3.6 30 01:43 25.11.2019
3780 Clear 13 1016 87 10000 3.1 20 01:24 25.11.2019
3781 Clear 12 1016 87 10000 3.1 30 00:39 25.11.2019
3782 Clear 13 1016 76 10000 3.6 30 00:18 25.11.2019
3783 Clear 13 1016 76 10000 3.6 40 23:44 24.11.2019
3784 Clear 13 1017 76 10000 2.6 20 23:20 24.11.2019
3785 Clear 13 1017 76 10000 2.6 20 22:57 24.11.2019
3786 Clear 13 1017 76 10000 2.6 20 22:38 24.11.2019
3787 Clear 13 1017 76 10000 2.6 30 22:19 24.11.2019
3788 Clear 13 1017 82 10000 2.6 50 21:56 24.11.2019
3789 Clear 13 1017 82 10000 3.1 40 21:37 24.11.2019
3790 Clear 14 1017 82 10000 3.1 40 21:19 24.11.2019
3791 Clear 13 1017 82 10000 3.6 50 20:56 24.11.2019
3792 Clear 13 1017 82 10000 3.6 50 20:37 24.11.2019
3793 Clear 13 1018 82 10000 3.6 50 20:37 24.11.2019
3794 Clear 13 1018 82 10000 3.6 50 20:18 24.11.2019
3795 Clear 14 1018 77 10000 3.6 50 19:55 24.11.2019
3796 Clear 14 1018 77 10000 3.6 50 19:55 24.11.2019
3797 Clear 14 1018 77 10000 3.6 50 19:37 24.11.2019
3798 Clear 14 1018 77 10000 3.1 60 19:19 24.11.2019
3799 Clear 14 1018 77 10000 3.1 60 19:19 24.11.2019
3800 Clear 14 1018 82 10000 4.1 130 18:56 24.11.2019
3801 Clear 14 1018 77 10000 2.6 70 18:36 24.11.2019
3802 Clear 14 1018 82 10000 2.6 60 18:18 24.11.2019
3803 Clear 14 1018 82 10000 4.1 40 17:55 24.11.2019
3804 Clouds 15 1019 82 10000 3.1 90 17:36 24.11.2019
3805 Clear 15 1018 77 10000 3.6 40 17:18 24.11.2019
3806 Clear 15 1018 72 10000 3.1 30 16:42 24.11.2019
3807 Clear 15 1018 72 10000 4.6 10 16:23 24.11.2019
3808 Clear 16 1018 72 10000 4.6 10 15:59 24.11.2019
3809 Clouds 16 1018 72 10000 4.1 20 15:41 24.11.2019
3810 Clouds 17 1018 72 10000 1 0 15:22 24.11.2019
3811 Clear 17 1018 72 10000 1.5 260 14:55 24.11.2019
3812 Clear 17 1018 72 10000 1.5 260 14:37 24.11.2019
3813 Clear 17 1019 72 10000 2.6 240 14:18 24.11.2019
3814 Clouds 17 1019 72 10000 2.6 210 13:39 24.11.2019
3815 Clouds 17 1019 72 10000 2.1 200 13:20 24.11.2019
3816 Clouds 17 1019 72 10000 2.1 170 12:57 24.11.2019
3817 Clouds 17 1019 72 10000 3.6 50 12:39 24.11.2019
3818 Clouds 17 1019 77 10000 2.6 160 12:18 24.11.2019
3819 Clouds 17 1019 72 10000 2.6 180 11:55 24.11.2019
3820 Clouds 17 1019 77 10000 2.6 30 11:36 24.11.2019
3821 Clouds 17 1020 72 10000 2.6 180 11:18 24.11.2019
3822 Clouds 17 1020 67 10000 2.1 120 10:44 24.11.2019
3823 Clouds 16 1020 67 10000 1.5 60 10:26 24.11.2019
3824 Clouds 16 1020 67 10000 1 0 09:54 24.11.2019
3825 Clouds 16 1020 67 10000 1 0 09:54 24.11.2019
3826 Clouds 16 1020 77 10000 1 0 09:36 24.11.2019
3827 Clouds 16 1020 67 10000 1 0 09:36 24.11.2019
3828 Clouds 16 1020 77 10000 1 0 09:18 24.11.2019
3829 Clouds 16 1020 77 10000 1 0 09:18 24.11.2019
3830 Clear 15 1020 72 10000 1 0 08:42 24.11.2019
3831 Clouds 14 1020 82 10000 2.1 20 08:21 24.11.2019
3832 Clouds 14 1020 87 10000 1 20 07:52 24.11.2019
3833 Clouds 13 1020 93 10000 1.5 350 07:34 24.11.2019
3834 Clouds 13 1020 87 10000 2.6 20 06:55 24.11.2019
3835 Rain 14 1019 82 10000 2.1 50 05:47 24.11.2019
3836 Rain 14 1019 82 10000 2.1 50 05:47 24.11.2019
3837 Rain 13 1019 93 10000 1 0 04:45 24.11.2019
3838 Rain 13 1019 93 10000 1 0 04:45 24.11.2019
3839 Clouds 13 1019 93 10000 1 20 02:49 24.11.2019
3840 Clouds 14 1019 82 10000 0.5 0 01:57 24.11.2019
3841 Clouds 14 1019 82 10000 0.5 0 01:37 24.11.2019
3842 Clouds 14 1019 82 10000 1.5 60 01:18 24.11.2019
3843 Clouds 14 1019 82 10000 2.1 50 00:42 24.11.2019
3844 Clouds 14 1019 82 10000 2.1 60 00:20 24.11.2019
3845 Clouds 14 1019 82 10000 2.1 40 23:44 23.11.2019
3846 Clouds 14 1020 82 10000 1.5 30 23:21 23.11.2019
3847 Clouds 14 1020 82 10000 2.6 40 22:57 23.11.2019
3848 Clouds 14 1020 82 10000 2.6 40 22:38 23.11.2019
3849 Clouds 14 1020 82 10000 2.6 50 22:20 23.11.2019
3850 Clouds 14 1020 82 10000 2.6 30 21:57 23.11.2019
3851 Clouds 14 1020 82 10000 2.6 30 21:39 23.11.2019
3852 Clouds 14 1020 82 10000 2.1 30 21:21 23.11.2019
3853 Clouds 14 1020 82 10000 2.1 30 21:21 23.11.2019
3854 Clouds 14 1020 82 10000 3.1 30 20:39 23.11.2019
3855 Clouds 14 1019 77 10000 3.1 20 20:21 23.11.2019
3856 Clouds 14 1019 77 10000 3.1 20 20:21 23.11.2019
3857 Clouds 14 1019 82 10000 3.1 30 19:58 23.11.2019
3858 Clouds 15 1019 82 10000 3.1 30 19:39 23.11.2019
3859 Clouds 15 1019 77 10000 3.6 20 19:19 23.11.2019
3860 Clouds 15 1019 77 10000 3.6 20 19:19 23.11.2019
3861 Clouds 15 1019 77 10000 3.6 20 19:19 23.11.2019
3862 Clouds 15 1019 77 10000 3.1 30 18:59 23.11.2019
3863 Clouds 15 1020 77 10000 4.1 60 18:39 23.11.2019
3864 Clouds 15 1019 77 10000 4.1 30 18:19 23.11.2019
3865 Clouds 15 1019 77 10000 4.6 40 17:45 23.11.2019
3866 Clouds 15 1019 82 10000 5.1 30 17:23 23.11.2019
3867 Clouds 16 1019 77 10000 5.1 20 16:57 23.11.2019
3868 Clouds 16 1019 77 10000 5.1 20 16:39 23.11.2019
3869 Clouds 16 1019 77 10000 4.6 20 16:21 23.11.2019
3870 Clouds 16 1019 72 10000 4.1 30 15:59 23.11.2019
3871 Clouds 16 1019 72 10000 4.1 30 15:39 23.11.2019
3872 Clouds 17 1018 67 10000 4.1 30 15:19 23.11.2019
3873 Clouds 17 1018 67 10000 4.1 40 14:57 23.11.2019
3874 Clouds 17 1018 67 10000 4.1 40 14:39 23.11.2019
3875 Clouds 17 1018 63 10000 3.6 30 14:20 23.11.2019
3876 Clouds 17 1018 59 10000 3.6 20 13:44 23.11.2019
3877 Clouds 18 1019 59 10000 2.1 110 13:23 23.11.2019
3878 Clouds 18 1019 59 10000 2.6 120 12:59 23.11.2019
3879 Clouds 17 1019 59 10000 2.6 120 12:40 23.11.2019
3880 Clouds 17 1019 63 10000 2.6 110 12:22 23.11.2019
3881 Clouds 17 1019 63 10000 3.1 80 11:43 23.11.2019
3882 Clouds 17 1019 63 10000 3.1 80 11:43 23.11.2019
3883 Clouds 17 1019 63 10000 3.1 90 11:21 23.11.2019
3884 Clouds 17 1020 59 10000 3.1 60 10:45 23.11.2019
3885 Clouds 16 1020 67 10000 4.1 70 10:22 23.11.2019
3886 Clouds 16 1020 67 10000 4.1 80 09:43 23.11.2019
3887 Clouds 15 1020 72 10000 3.6 60 09:21 23.11.2019
3888 Clouds 15 1020 77 10000 3.6 60 08:56 23.11.2019
3889 Clouds 15 1020 77 10000 3.6 60 08:37 23.11.2019
3890 Clouds 14 1020 76 10000 3.6 50 08:18 23.11.2019
3891 Clouds 14 1020 82 10000 3.6 50 07:39 23.11.2019
3892 Clouds 13 1020 76 10000 2.6 40 06:50 23.11.2019
3893 Clouds 13 1020 87 10000 2.6 40 06:23 23.11.2019
3894 Clouds 13 1019 82 10000 2.6 30 05:53 23.11.2019
3895 Clouds 13 1020 87 10000 2.6 100 05:31 23.11.2019
3896 Clouds 13 1019 87 10000 2.6 50 04:50 23.11.2019
3897 Clouds 13 1019 87 10000 2.6 50 04:31 23.11.2019
3898 Rain 13 1019 87 10000 3.6 50 03:21 23.11.2019
3899 Rain 14 1019 82 10000 3.1 70 02:27 23.11.2019
3900 Clouds 14 1019 76 10000 4.1 80 01:38 23.11.2019
3901 Clouds 14 1019 76 10000 4.1 60 00:45 23.11.2019
3902 Clouds 14 1019 76 10000 3.6 70 00:19 23.11.2019
3903 Clouds 14 1019 76 10000 3.6 70 23:43 22.11.2019
3904 Clouds 14 1019 77 10000 3.1 70 23:23 22.11.2019
3905 Clouds 14 1019 76 10000 4.1 70 22:59 22.11.2019
3906 Clouds 14 1019 76 10000 4.1 70 22:59 22.11.2019
3907 Clouds 14 1019 76 10000 4.1 70 22:41 22.11.2019
3908 Clouds 14 1019 76 10000 4.1 70 22:23 22.11.2019
3909 Clouds 14 1019 76 10000 4.1 70 21:59 22.11.2019
3910 Clouds 14 1019 76 10000 4.1 60 21:40 22.11.2019
3911 Clouds 14 1019 72 10000 4.6 60 21:20 22.11.2019
3912 Clouds 14 1019 72 10000 5.1 70 20:44 22.11.2019
3913 Clouds 14 1019 72 10000 6.2 70 20:22 22.11.2019
3914 Clouds 14 1018 72 10000 5.7 60 19:58 22.11.2019
3915 Clouds 14 1018 72 10000 5.7 60 19:39 22.11.2019
3916 Clouds 14 1018 72 10000 5.7 50 19:19 22.11.2019
3917 Clouds 14 1018 72 10000 4.6 50 18:58 22.11.2019
3918 Clouds 14 1018 72 10000 4.6 50 18:36 22.11.2019
3919 Clouds 14 1018 72 10000 6.2 60 18:18 22.11.2019
3920 Clouds 14 1018 72 10000 6.7 60 17:41 22.11.2019
3921 Clouds 14 1018 72 10000 6.2 50 17:22 22.11.2019
3922 Clouds 15 1018 77 10000 6.2 40 16:48 22.11.2019
3923 Clouds 15 1018 77 10000 6.2 40 16:29 22.11.2019
3924 Clouds 15 1018 77 10000 6.2 40 16:29 22.11.2019
3925 Clouds 15 1017 77 10000 6.2 40 15:54 22.11.2019
3926 Clouds 15 1017 77 10000 6.2 40 15:36 22.11.2019
3927 Clouds 15 1017 77 10000 6.2 40 15:18 22.11.2019
3928 Clouds 16 1017 72 10000 6.7 30 14:54 22.11.2019
3929 Clouds 16 1017 72 10000 6.7 30 14:36 22.11.2019
3930 Clouds 16 1017 67 10000 6.2 50 14:18 22.11.2019
3931 Clouds 16 1017 67 10000 6.2 50 14:18 22.11.2019
3932 Clouds 16 1017 63 10000 5.1 40 13:37 22.11.2019
3933 Clouds 16 1017 67 10000 7.7 30 13:19 22.11.2019
3934 Clouds 16 1017 63 10000 6.7 30 12:57 22.11.2019
3935 Clouds 16 1017 63 10000 6.7 30 12:39 22.11.2019
3936 Clouds 16 1017 63 10000 5.7 50 12:19 22.11.2019
3937 Clouds 16 1017 63 10000 5.7 50 12:19 22.11.2019
3938 Clouds 16 1017 63 10000 6.2 40 11:56 22.11.2019
3939 Clouds 16 1017 63 10000 6.2 40 11:36 22.11.2019
3940 Clouds 16 1017 63 10000 6.2 40 11:36 22.11.2019
3941 Clouds 16 1017 59 10000 6.2 50 11:18 22.11.2019
3942 Clouds 15 1017 59 10000 6.7 80 10:42 22.11.2019
3943 Clouds 15 1018 63 10000 6.2 60 10:23 22.11.2019
3944 Clouds 15 1018 67 10000 6.7 70 09:59 22.11.2019
3945 Clouds 15 1018 67 10000 6.7 70 09:40 22.11.2019
3946 Clouds 15 1018 67 10000 6.2 70 09:21 22.11.2019
3947 Clouds 15 1018 67 10000 7.2 60 08:57 22.11.2019
3948 Clouds 15 1018 67 10000 7.2 60 08:37 22.11.2019
3949 Clouds 15 1018 72 10000 6.7 60 08:19 22.11.2019
3950 Clouds 15 1018 72 10000 6.7 60 07:40 22.11.2019
3951 Clouds 15 1018 72 10000 5.7 50 07:19 22.11.2019
3952 Clouds 14 1018 76 10000 6.2 50 06:42 22.11.2019
3953 Clouds 14 1018 82 10000 5.7 50 06:18 22.11.2019
3954 Clouds 14 1018 76 10000 5.1 50 05:32 22.11.2019
3955 Clouds 15 1018 72 10000 5.1 50 03:25 22.11.2019
3956 Clouds 15 1018 72 10000 5.1 50 03:25 22.11.2019
3957 Clouds 15 1017 72 10000 4.1 40 02:39 22.11.2019
3958 Clouds 15 1017 77 10000 5.1 50 02:19 22.11.2019
3959 Clouds 15 1017 72 10000 5.7 60 01:42 22.11.2019
3960 Clouds 15 1017 77 10000 5.1 50 01:18 22.11.2019
3961 Clouds 14 1017 82 10000 5.7 50 00:26 22.11.2019
3962 Clouds 15 1017 77 10000 6.7 60 23:59 21.11.2019
3963 Clouds 15 1017 77 10000 6.7 60 23:41 21.11.2019
3964 Clouds 15 1017 77 10000 5.1 50 23:23 21.11.2019
3965 Clouds 15 1017 77 10000 6.2 60 22:54 21.11.2019
3966 Clouds 15 1017 77 10000 6.2 60 22:36 21.11.2019
3967 Clouds 15 1017 77 10000 5.1 60 22:18 21.11.2019
3968 Clouds 15 1017 77 10000 6.2 50 21:54 21.11.2019
3969 Clouds 15 1017 77 10000 6.2 50 21:36 21.11.2019
3970 Clouds 15 1017 77 10000 6.2 60 21:18 21.11.2019
3971 Clouds 15 1017 77 10000 6.2 50 20:54 21.11.2019
3972 Clouds 15 1017 77 10000 6.2 50 20:36 21.11.2019
3973 Clouds 15 1017 77 10000 6.7 50 20:18 21.11.2019
3974 Clouds 15 1017 77 10000 6.2 50 19:41 21.11.2019
3975 Clouds 15 1017 77 10000 6.2 50 19:23 21.11.2019
3976 Clouds 15 1017 77 10000 6.2 50 18:58 21.11.2019
3977 Clouds 15 1017 72 10000 5.7 40 18:40 21.11.2019
3978 Clouds 15 1017 67 10000 5.1 40 18:21 21.11.2019
3979 Clouds 15 1017 67 10000 5.7 40 17:58 21.11.2019
3980 Clouds 15 1017 67 10000 5.7 40 17:39 21.11.2019
3981 Clear 15 1017 67 10000 5.7 40 17:21 21.11.2019
3982 Clear 16 1017 72 10000 5.7 30 16:56 21.11.2019
3983 Clear 16 1017 72 10000 5.7 30 16:56 21.11.2019
3984 Clear 16 1017 72 10000 5.7 30 16:37 21.11.2019
3985 Clear 16 1017 77 10000 5.7 20 16:19 21.11.2019
3986 Clear 16 1017 72 10000 7.2 20 15:42 21.11.2019
3987 Clear 17 1016 63 10000 5.7 20 15:21 21.11.2019
3988 Clear 17 1017 55 10000 4.6 30 14:57 21.11.2019
3989 Clear 18 1017 55 10000 4.6 30 14:37 21.11.2019
3990 Clear 18 1017 45 10000 4.1 30 14:19 21.11.2019
3991 Clear 18 1017 42 10000 3.1 40 13:56 21.11.2019
3992 Clear 18 1017 42 10000 3.1 40 13:36 21.11.2019
3993 Clear 19 1017 35 10000 2.6 60 13:18 21.11.2019
3994 Clear 19 1017 35 10000 2.6 60 13:18 21.11.2019
3995 Clear 19 1017 35 10000 2.6 60 13:18 21.11.2019
3996 Clear 19 1017 37 10000 3.1 70 12:40 21.11.2019
3997 Clear 18 1017 49 10000 3.1 50 12:22 21.11.2019
3998 Clear 18 1018 45 10000 3.1 30 11:55 21.11.2019
3999 Clear 18 1018 45 10000 3.1 30 11:36 21.11.2019
4000 Clear 18 1018 45 10000 2.6 360 11:18 21.11.2019
4001 Clear 17 1019 45 10000 1.5 20 10:42 21.11.2019
4002 Clear 17 1019 45 10000 1.5 40 10:23 21.11.2019
4003 Clear 17 1019 45 10000 1.5 40 10:23 21.11.2019
4004 Clear 16 1019 51 10000 2.6 70 09:57 21.11.2019
4005 Clear 16 1019 51 10000 2.6 70 09:39 21.11.2019
4006 Clear 16 1019 51 10000 2.1 70 09:20 21.11.2019
4007 Clear 16 1019 51 10000 2.1 70 09:20 21.11.2019
4008 Clear 15 1019 63 10000 3.1 50 08:44 21.11.2019
4009 Clouds 14 1019 72 10000 2.1 10 08:22 21.11.2019
4010 Clouds 14 1019 72 10000 2.6 50 07:44 21.11.2019
4011 Clouds 14 1019 72 10000 3.1 40 07:19 21.11.2019
4012 Clouds 14 1019 82 10000 2.6 50 06:58 21.11.2019
4013 Clouds 14 1019 82 10000 2.6 50 06:34 21.11.2019
4014 Clouds 14 1019 82 10000 3.6 20 05:50 21.11.2019
4015 Clouds 13 1019 82 10000 3.1 10 03:36 21.11.2019
4016 Clouds 13 1019 87 10000 3.1 360 02:42 21.11.2019
4017 Clouds 13 1019 81 10000 3.1 360 02:23 21.11.2019
4018 Clouds 12 1019 87 10000 3.6 350 01:47 21.11.2019
4019 Clouds 12 1019 87 10000 3.1 340 01:20 21.11.2019
4020 Clouds 13 1019 93 10000 2.6 350 00:38 21.11.2019
4021 Clouds 13 1019 82 10000 3.6 20 00:19 21.11.2019
4022 Clouds 13 1020 87 10000 3.6 350 23:42 20.11.2019
4023 Clouds 13 1020 87 10000 3.1 10 23:21 20.11.2019
4024 Clouds 13 1020 87 10000 2.6 10 22:57 20.11.2019
4025 Clouds 13 1020 87 10000 2.6 10 22:37 20.11.2019
4026 Clouds 14 1020 82 10000 2.6 20 22:19 20.11.2019
4027 Clouds 14 1020 82 10000 2.6 20 21:57 20.11.2019
4028 Clouds 14 1020 87 10000 2.1 20 21:38 20.11.2019
4029 Clouds 14 1020 93 10000 2.6 360 21:19 20.11.2019
4030 Clouds 13 1020 87 10000 2.1 10 20:55 20.11.2019
4031 Clouds 13 1020 87 10000 2.1 10 20:55 20.11.2019
4032 Clouds 13 1020 87 10000 2.1 10 20:37 20.11.2019
4033 Clouds 13 1020 87 10000 2.1 10 20:37 20.11.2019
4034 Clouds 15 1020 82 10000 3.1 20 20:19 20.11.2019
4035 Clouds 15 1020 82 10000 3.1 10 19:55 20.11.2019
4036 Clouds 15 1020 82 10000 3.1 10 19:36 20.11.2019
4037 Clouds 15 1020 82 10000 2.6 30 19:18 20.11.2019
4038 Clouds 15 1020 82 10000 3.1 30 18:57 20.11.2019
4039 Clouds 15 1020 82 10000 3.6 30 18:37 20.11.2019
4040 Clouds 15 1020 82 10000 3.6 30 18:19 20.11.2019
4041 Clouds 15 1020 77 10000 3.1 30 17:55 20.11.2019
4042 Clouds 16 1020 77 10000 3.1 30 17:36 20.11.2019
4043 Clouds 16 1020 77 10000 3.6 20 17:18 20.11.2019
4044 Clouds 16 1020 72 10000 3.6 20 16:41 20.11.2019
4045 Clouds 17 1020 59 10000 2.1 50 16:20 20.11.2019
4046 Clouds 17 1020 59 10000 1.5 120 15:58 20.11.2019
4047 Clouds 17 1020 59 10000 1.5 120 15:40 20.11.2019
4048 Clouds 17 1020 48 10000 1.5 120 15:20 20.11.2019
4049 Clouds 18 1020 45 10000 2.1 100 14:57 20.11.2019
4050 Clouds 18 1020 45 10000 2.1 100 14:57 20.11.2019
4051 Clouds 18 1020 45 10000 2.1 100 14:38 20.11.2019
4052 Clear 18 1020 42 10000 2.6 110 14:19 20.11.2019
4053 Clear 19 1020 39 10000 2.6 100 13:56 20.11.2019
4054 Clouds 19 1020 39 10000 2.6 100 13:37 20.11.2019
4055 Clouds 19 1020 42 10000 3.1 120 13:18 20.11.2019
4056 Clouds 19 1020 42 10000 3.6 100 12:40 20.11.2019
4057 Clouds 19 1021 37 10000 2.6 110 12:22 20.11.2019
4058 Clouds 19 1021 45 10000 3.1 100 11:55 20.11.2019
4059 Clouds 19 1021 45 10000 3.1 100 11:37 20.11.2019
4060 Clouds 18 1021 55 10000 2.6 150 11:18 20.11.2019
4061 Clouds 18 1021 56 10000 1 0 10:54 20.11.2019
4062 Clouds 18 1021 56 10000 1 0 10:36 20.11.2019
4063 Clouds 18 1022 59 10000 2.1 90 10:18 20.11.2019
4064 Clouds 17 1022 63 10000 3.1 70 09:42 20.11.2019
4065 Clouds 17 1022 68 10000 4.1 80 09:20 20.11.2019
4066 Clouds 16 1022 72 10000 4.1 70 08:47 20.11.2019
4067 Clouds 16 1022 77 10000 3.1 60 08:28 20.11.2019
4068 Clouds 15 1022 87 10000 3.6 50 07:57 20.11.2019
4069 Clouds 15 1022 87 10000 3.6 50 07:37 20.11.2019
4070 Clouds 15 1022 82 10000 2.6 40 07:18 20.11.2019
4071 Clouds 15 1022 87 10000 2.6 40 06:45 20.11.2019
4072 Clouds 15 1021 82 10000 5.1 50 06:19 20.11.2019
4073 Clouds 15 1022 87 10000 5.1 50 04:50 20.11.2019
4074 Clouds 15 1022 87 10000 5.1 50 04:50 20.11.2019
4075 Clouds 15 1022 87 10000 4.6 40 02:47 20.11.2019
4076 Clear 15 1022 87 7000 2.6 30 01:39 20.11.2019
4077 Clear 15 1022 87 7000 3.1 30 00:59 20.11.2019
4078 Clear 15 1022 87 7000 4.1 40 00:34 20.11.2019
4079 Clear 15 1023 87 7000 4.1 40 23:43 19.11.2019
4080 Clear 15 1023 93 7000 4.1 30 23:24 19.11.2019
4081 Clear 15 1023 93 7000 5.7 20 22:56 19.11.2019
4082 Clear 16 1023 87 7000 5.1 20 22:38 19.11.2019
4083 Clear 16 1023 87 7000 5.1 20 22:18 19.11.2019
4084 Clear 16 1023 82 8000 5.7 10 21:55 19.11.2019
4085 Clear 16 1023 82 8000 5.7 10 21:37 19.11.2019
4086 Clear 16 1023 82 8000 6.2 20 21:18 19.11.2019
4087 Clear 16 1023 87 8000 5.1 20 20:55 19.11.2019
4088 Clear 16 1023 87 8000 5.1 20 20:36 19.11.2019
4089 Clear 16 1023 87 8000 5.1 20 20:36 19.11.2019
4090 Clear 16 1023 87 7000 5.7 20 20:18 19.11.2019
4091 Clear 16 1024 87 7000 2.6 30 19:54 19.11.2019
4092 Clear 16 1024 87 7000 2.6 30 19:36 19.11.2019
4093 Mist 16 1023 87 2100 4.6 30 19:18 19.11.2019
4094 Clear 16 1023 87 8000 4.1 30 18:41 19.11.2019
4095 Clear 16 1023 82 10000 4.1 30 18:21 19.11.2019
4096 Clear 16 1023 82 10000 4.1 30 17:58 19.11.2019
4097 Clear 16 1023 82 10000 4.1 20 17:40 19.11.2019
4098 Clear 17 1023 82 10000 5.7 20 17:20 19.11.2019
4099 Clear 16 1023 82 10000 5.7 20 16:59 19.11.2019
4100 Clear 17 1023 77 10000 6.2 20 16:40 19.11.2019
4101 Clear 17 1023 77 10000 6.2 20 16:40 19.11.2019
4102 Clear 17 1023 72 10000 6.2 20 16:20 19.11.2019
4103 Clear 18 1023 68 10000 5.1 20 15:47 19.11.2019
4104 Clear 18 1023 68 10000 5.1 20 15:47 19.11.2019
4105 Clear 18 1023 64 10000 5.1 10 15:27 19.11.2019
4106 Clear 19 1023 64 10000 4.6 10 14:58 19.11.2019
4107 Clear 19 1023 64 10000 4.6 10 14:39 19.11.2019
4108 Clouds 19 1023 56 10000 4.1 20 14:21 19.11.2019
4109 Clouds 20 1023 60 10000 3.1 20 13:42 19.11.2019
4110 Clouds 20 1023 60 10000 2.1 0 13:21 19.11.2019
4111 Clouds 20 1024 68 10000 2.6 240 12:57 19.11.2019
4112 Clouds 20 1024 68 10000 2.6 240 12:39 19.11.2019
4113 Clouds 20 1024 60 10000 2.1 180 12:20 19.11.2019
4114 Clouds 19 1024 64 10000 2.6 170 11:55 19.11.2019
4115 Clouds 19 1024 64 10000 2.6 170 11:36 19.11.2019
4116 Clouds 19 1024 60 10000 2.6 210 11:18 19.11.2019
4117 Clouds 19 1025 60 10000 1 0 10:44 19.11.2019
4118 Clouds 18 1025 60 10000 1 0 10:21 19.11.2019
4119 Clouds 18 1025 63 10000 1.5 210 09:43 19.11.2019
4120 Fog 17 1026 100 800 3.1 340 09:21 19.11.2019
4121 Clouds 16 1025 72 6000 0.5 80 08:58 19.11.2019
4122 Clouds 16 1025 72 6000 0.5 80 08:39 19.11.2019
4123 Clear 15 1025 82 6000 0.83 72 08:21 19.11.2019
4124 Mist 14 1025 87 4000 1 0 07:55 19.11.2019
4125 Mist 13 1025 87 4000 1 0 07:36 19.11.2019
4126 Fog 12 1025 100 200 2.1 310 07:18 19.11.2019
4127 Mist 12 1024 93 3300 2.6 360 06:42 19.11.2019
4128 Fog 12 1025 100 150 1.5 0 06:18 19.11.2019
4129 Fog 12 1025 100 150 1.5 0 06:18 19.11.2019
4130 Mist 12 1024 87 2800 2.1 350 05:18 19.11.2019
4131 Mist 12 1024 87 2800 2.1 360 03:40 19.11.2019
4132 Mist 12 1024 93 3200 3.1 350 03:19 19.11.2019
4133 Mist 12 1024 87 3200 2.6 350 02:47 19.11.2019
4134 Mist 12 1024 87 3500 1.5 340 01:48 19.11.2019
4135 Mist 13 1023 82 3500 1 0 00:48 19.11.2019
4136 Mist 13 1023 87 3500 2.1 360 00:19 19.11.2019
4137 Mist 14 1023 82 4000 1.5 350 23:40 18.11.2019
4138 Mist 15 1023 87 4000 2.1 340 23:19 18.11.2019
4139 Mist 15 1023 87 3200 3.1 350 22:46 18.11.2019
4140 Mist 15 1023 82 4000 2.6 340 22:24 18.11.2019
4141 Clouds 15 1023 82 6000 2.1 340 21:58 18.11.2019
4142 Clouds 15 1023 82 6000 2.1 340 21:40 18.11.2019
4143 Clouds 15 1022 82 10000 1.5 10 21:21 18.11.2019
4144 Clouds 15 1022 76 10000 1 350 20:59 18.11.2019
4145 Clouds 15 1022 76 10000 1 350 20:40 18.11.2019
4146 Clouds 15 1022 87 10000 2.04 2 20:19 18.11.2019
4147 Clouds 15 1022 72 10000 0.5 0 19:57 18.11.2019
4148 Clouds 15 1022 72 10000 0.5 0 19:38 18.11.2019
4149 Clouds 15 1022 72 10000 0.5 0 19:20 18.11.2019
4150 Clouds 16 1022 67 10000 0.5 80 18:56 18.11.2019
4151 Clouds 16 1022 67 10000 0.5 80 18:38 18.11.2019
4152 Clouds 16 1022 67 10000 0.5 0 18:19 18.11.2019
4153 -273 0 0 0 0 0 17:55 18.11.2019
4154 -273 0 0 0 0 0 17:55 18.11.2019
4155 Clouds 16 1022 59 10000 2.04 2 17:37 18.11.2019
4156 Clouds 17 1022 63 10000 0.59 238 17:18 18.11.2019
4157 Clouds 17 1021 59 10000 0.5 100 16:42 18.11.2019
4158 Clouds 17 1021 63 10000 1 70 16:24 18.11.2019
4159 Clouds 18 1021 55 10000 0.59 238 15:57 18.11.2019
4160 Clouds 18 1021 55 10000 0.59 238 15:39 18.11.2019
4161 Clouds 18 1021 59 10000 1 140 15:20 18.11.2019
4162 Clouds 19 1021 52 10000 0.59 238 14:44 18.11.2019
4163 Clouds 19 1021 49 10000 1 0 14:24 18.11.2019
4164 Clouds 19 1020 52 10000 1 0 13:57 18.11.2019
4165 Clouds 20 1020 52 10000 1 0 13:39 18.11.2019
4166 Clouds 20 1020 52 10000 1 0 13:21 18.11.2019
4167 Clouds 19 1020 63 10000 2.1 220 12:40 18.11.2019
4168 Clouds 19 1021 63 10000 2.1 240 12:20 18.11.2019
4169 Clouds 19 1021 55 10000 1 0 11:55 18.11.2019
4170 Clouds 19 1021 55 10000 1 0 11:37 18.11.2019
4171 Clouds 19 1021 56 10000 0.5 0 11:19 18.11.2019
4172 Clouds 18 1021 59 10000 1.5 10 10:42 18.11.2019
4173 Mist 18 1021 87 3200 2.1 330 10:23 18.11.2019
4174 Clouds 17 1021 68 10000 2.1 90 09:57 18.11.2019
4175 Clouds 17 1021 68 10000 2.1 90 09:38 18.11.2019
4176 Clouds 17 1021 82 7000 1 0 09:19 18.11.2019
4177 Clouds 17 1021 82 7000 1 0 09:19 18.11.2019
4178 Fog 16 1021 93 1000 1 0 08:46 18.11.2019
4179 Mist 14 1021 93 2500 2.1 90 08:22 18.11.2019
4180 Mist 13 1021 100 3000 1 0 07:49 18.11.2019
4181 Mist 12 1021 93 2900 1.5 180 07:31 18.11.2019
4182 Mist 12 1021 100 4000 2.1 330 06:59 18.11.2019
4183 Mist 12 1021 100 4000 2.1 330 06:41 18.11.2019
4184 Mist 12 1020 100 4000 2.1 330 06:21 18.11.2019
4185 Clear 12 1020 100 7000 2.6 350 05:25 18.11.2019
4186 Mist 13 1020 100 7000 0.5 30 03:40 18.11.2019
4187 Clear 14 1020 93 7000 2.1 350 01:39 18.11.2019
4188 Clear 14 1020 93 7000 2.1 340 00:53 18.11.2019
4189 Clear 14 1020 93 8000 2.1 10 23:59 17.11.2019
4190 Clear 14 1020 93 8000 2.1 10 23:40 17.11.2019
4191 Clear 14 1020 93 8000 2.6 360 23:21 17.11.2019
4192 Clear 14 1020 93 8000 2.6 10 22:57 17.11.2019
4193 Clear 14 1020 93 8000 2.6 10 22:38 17.11.2019
4194 Clear 14 1020 93 8000 3.1 10 22:20 17.11.2019
4195 Clear 14 1020 93 8000 3.1 360 21:42 17.11.2019
4196 Clear 15 1020 87 8000 4.1 360 21:20 17.11.2019
4197 Clear 15 1020 87 8000 4.1 10 20:59 17.11.2019
4198 Clear 15 1020 87 8000 4.1 10 20:39 17.11.2019
4199 Clear 15 1020 87 10000 4.1 20 20:20 17.11.2019
4200 Clear 15 1020 87 10000 3.6 10 19:57 17.11.2019
4201 Clear 16 1020 87 10000 3.6 10 19:39 17.11.2019
4202 Clear 16 1020 87 10000 4.6 20 19:20 17.11.2019
4203 Clear 16 1020 87 10000 5.1 20 18:57 17.11.2019
4204 Clear 16 1020 87 10000 5.1 20 18:57 17.11.2019
4205 Clear 16 1020 87 10000 5.1 20 18:39 17.11.2019
4206 Clear 16 1020 82 10000 5.1 20 18:19 17.11.2019
4207 Clear 16 1020 87 10000 5.1 20 17:58 17.11.2019
4208 Clear 16 1020 82 10000 5.1 20 17:58 17.11.2019
4209 Clear 16 1020 87 10000 5.1 20 17:40 17.11.2019
4210 Clear 16 1020 82 10000 4.6 10 17:21 17.11.2019
4211 Clear 17 1020 82 10000 5.7 20 16:59 17.11.2019
4212 Clear 17 1020 82 10000 5.7 20 16:41 17.11.2019
4213 Clear 17 1019 77 10000 6.7 20 16:21 17.11.2019
4214 Clear 17 1019 77 10000 6.7 30 15:57 17.11.2019
4215 Clear 17 1019 77 10000 6.7 30 15:39 17.11.2019
4216 Clear 18 1019 77 10000 7.2 20 15:19 17.11.2019
4217 Clear 18 1019 72 10000 6.2 10 14:57 17.11.2019
4218 Clear 18 1019 72 10000 6.2 10 14:38 17.11.2019
4219 Clear 19 1019 68 10000 6.7 360 14:20 17.11.2019
4220 Clear 19 1019 68 10000 5.7 10 13:58 17.11.2019
4221 Clear 19 1019 68 10000 5.7 10 13:39 17.11.2019
4222 Clear 19 1019 68 10000 6.2 10 13:19 17.11.2019
4223 Clear 20 1019 64 10000 5.7 20 12:45 17.11.2019
4224 Clear 20 1020 56 10000 4.1 20 12:23 17.11.2019
4225 Clear 20 1020 56 10000 3.6 30 11:58 17.11.2019
4226 Clear 20 1020 56 10000 3.6 30 11:39 17.11.2019
4227 Clear 20 1020 56 10000 4.1 30 11:20 17.11.2019
4228 Clear 20 1020 60 10000 4.1 30 10:45 17.11.2019
4229 Clear 19 1021 68 10000 3.6 40 10:23 17.11.2019
4230 Clear 18 1021 72 10000 3.6 30 09:58 17.11.2019
4231 Clear 18 1021 72 10000 3.6 30 09:58 17.11.2019
4232 Clear 18 1021 72 10000 3.6 30 09:39 17.11.2019
4233 Clear 18 1021 72 10000 4.1 40 09:21 17.11.2019
4234 Clear 17 1021 77 10000 3.1 40 08:40 17.11.2019
4235 Clear 17 1021 82 10000 3.1 30 08:22 17.11.2019
4236 Clear 17 1021 82 10000 3.6 40 07:55 17.11.2019
4237 Clear 17 1021 82 10000 3.6 40 07:37 17.11.2019
4238 Clear 16 1021 87 10000 3.6 40 07:18 17.11.2019
4239 Clear 16 1021 87 10000 3.6 30 06:44 17.11.2019
4240 Clear 16 1021 93 10000 2.6 30 06:25 17.11.2019
4241 Clear 16 1020 87 10000 3.6 50 04:38 17.11.2019
4242 Clear 16 1020 87 10000 4.1 40 03:51 17.11.2019
4243 Clear 16 1020 87 10000 4.1 40 03:32 17.11.2019
4244 Clear 16 1021 87 10000 3.1 10 02:31 17.11.2019
4245 Clear 16 1020 87 10000 4.1 30 01:42 17.11.2019
4246 Clear 16 1020 87 10000 3.6 30 00:55 17.11.2019
4247 Clear 16 1020 87 10000 4.1 40 00:22 17.11.2019
4248 Clear 16 1020 87 10000 5.1 40 23:48 16.11.2019
4249 Clouds 17 1020 82 10000 6.7 50 23:20 16.11.2019
4250 Clouds 17 1020 82 10000 6.7 50 22:59 16.11.2019
4251 Clouds 17 1020 82 10000 6.2 50 22:40 16.11.2019
4252 Clouds 16 1021 82 10000 4.6 50 22:19 16.11.2019
4253 Clouds 17 1021 82 10000 5.1 50 21:56 16.11.2019
4254 Clouds 17 1021 82 10000 5.1 50 21:37 16.11.2019
4255 Clouds 17 1021 82 10000 5.1 50 21:19 16.11.2019
4256 Clouds 17 1021 82 10000 7.2 50 20:42 16.11.2019
4257 Clear 17 1021 82 10000 5.1 50 20:21 16.11.2019
4258 Clear 17 1021 82 10000 5.1 50 19:58 16.11.2019
4259 Clear 17 1021 82 10000 5.1 50 19:58 16.11.2019
4260 Clear 17 1021 82 10000 5.1 50 19:40 16.11.2019
4261 Clear 17 1021 82 10000 5.7 50 19:21 16.11.2019
4262 Clear 17 1021 82 10000 5.1 40 18:47 16.11.2019
4263 Clear 17 1021 82 10000 5.7 50 18:29 16.11.2019
4264 Clear 17 1022 72 10000 5.7 40 17:57 16.11.2019
4265 Clear 17 1022 72 10000 5.7 40 17:38 16.11.2019
4266 Clear 17 1021 72 10000 5.7 40 17:19 16.11.2019
4267 Clear 18 1021 72 10000 6.2 50 16:48 16.11.2019
4268 Clear 18 1021 72 10000 6.2 50 16:30 16.11.2019
4269 Clear 18 1021 68 10000 5.7 50 15:59 16.11.2019
4270 Clear 18 1021 68 10000 5.7 50 15:39 16.11.2019
4271 Clear 19 1021 60 10000 5.7 60 15:20 16.11.2019
4272 Clear 19 1021 60 10000 5.1 50 14:57 16.11.2019
4273 Clear 19 1021 60 10000 5.1 50 14:57 16.11.2019
4274 Clear 19 1021 60 10000 5.1 50 14:39 16.11.2019
4275 Clear 19 1021 60 10000 5.7 40 14:20 16.11.2019
4276 Clear 20 1021 56 10000 5.7 50 13:55 16.11.2019
4277 Clear 20 1021 56 10000 5.7 50 13:37 16.11.2019
4278 Clear 20 1022 60 10000 5.1 60 13:18 16.11.2019
4279 Clear 20 1022 64 10000 4.1 60 12:43 16.11.2019
4280 Clear 20 1022 68 10000 6.2 50 12:23 16.11.2019
4281 Clear 19 1022 64 10000 4.1 40 11:57 16.11.2019
4282 Clear 19 1022 64 10000 4.1 40 11:38 16.11.2019
4283 Clear 19 1023 64 10000 5.7 50 11:20 16.11.2019
4284 Clear 19 1023 60 10000 4.6 40 10:44 16.11.2019
4285 Clear 19 1023 60 10000 4.1 50 10:25 16.11.2019
4286 Clear 18 1023 60 10000 4.1 50 09:59 16.11.2019
4287 Clear 18 1023 60 10000 4.1 50 09:59 16.11.2019
4288 Clear 18 1023 63 10000 3.6 40 09:40 16.11.2019
4289 Clear 17 1023 68 10000 2.6 30 09:20 16.11.2019
4290 Clear 16 1023 68 10000 3.1 40 08:41 16.11.2019
4291 Clear 16 1023 68 10000 3.1 40 08:41 16.11.2019
4292 Clear 15 1023 72 10000 2.1 30 08:21 16.11.2019
4293 Clear 15 1023 77 10000 2.1 350 07:46 16.11.2019
4294 Clear 14 1023 87 10000 2.6 350 07:22 16.11.2019
4295 Clear 13 1023 87 10000 3.1 340 06:59 16.11.2019
4296 Clear 13 1023 87 10000 2.6 350 06:59 16.11.2019
4297 Clear 13 1023 87 10000 2.6 350 06:59 16.11.2019
4298 Clear 13 1023 87 10000 3.1 340 06:41 16.11.2019
4299 Clear 12 1023 93 10000 3.1 360 06:20 16.11.2019
4300 Clear 12 1022 81 10000 0.5 0 04:34 16.11.2019
4301 Clear 12 1022 87 10000 1 0 03:26 16.11.2019
4302 Clear 12 1022 87 10000 1 0 03:26 16.11.2019
4303 Clear 12 1022 87 10000 3.6 350 02:36 16.11.2019
4304 Clear 13 1022 93 10000 4.1 340 01:38 16.11.2019
4305 Clear 14 1022 87 10000 3.6 350 00:49 16.11.2019
4306 Clear 13 1022 93 10000 3.1 340 00:30 16.11.2019
4307 Clear 13 1022 87 10000 3.1 340 23:56 15.11.2019
4308 Clear 14 1022 87 10000 3.1 340 23:38 15.11.2019
4309 Clear 14 1022 87 10000 2.1 10 23:20 15.11.2019
4310 Clear 15 1022 87 10000 2.1 10 22:40 15.11.2019
4311 Clear 15 1021 77 10000 1.5 30 22:20 15.11.2019
4312 Clear 15 1021 77 10000 1.5 30 22:20 15.11.2019
4313 Clear 15 1021 72 10000 2.1 70 21:57 15.11.2019
4314 Clear 15 1021 72 10000 2.1 70 21:38 15.11.2019
4315 Clear 15 1021 72 10000 2.1 60 21:20 15.11.2019
4316 Clear 15 1021 72 10000 2.6 40 20:56 15.11.2019
4317 Clear 15 1021 72 10000 2.6 40 20:38 15.11.2019
4318 Clouds 16 1021 72 10000 3.1 60 20:19 15.11.2019
4319 Clouds 16 1021 72 10000 2.6 50 19:57 15.11.2019
4320 Clouds 16 1021 72 10000 2.6 50 19:38 15.11.2019
4321 Clouds 16 1021 77 10000 2.6 70 19:19 15.11.2019
4322 Clouds 16 1021 82 10000 1 0 18:43 15.11.2019
4323 Clouds 16 1021 82 10000 1 340 18:25 15.11.2019
4324 Clouds 17 1020 77 10000 1.5 280 17:59 15.11.2019
4325 Clouds 17 1020 77 10000 1.5 280 17:40 15.11.2019
4326 Clouds 17 1020 82 10000 1 0 17:22 15.11.2019
4327 Clouds 18 1020 77 10000 2.1 280 16:55 15.11.2019
4328 Clouds 18 1020 77 10000 2.1 280 16:37 15.11.2019
4329 Clouds 18 1019 68 10000 2.1 290 16:18 15.11.2019
4330 Clouds 19 1019 68 10000 0.5 0 15:38 15.11.2019
4331 Clouds 20 1019 72 10000 1 0 15:19 15.11.2019
4332 Clouds 20 1020 72 10000 2.1 150 14:56 15.11.2019
4333 Clouds 20 1020 72 10000 2.1 150 14:38 15.11.2019
4334 Clear 20 1019 63 10000 2.1 200 14:19 15.11.2019
4335 Clear 20 1019 63 10000 2.1 200 14:19 15.11.2019
4336 Clear 21 1019 56 10000 2.6 190 13:57 15.11.2019
4337 Clear 21 1019 56 10000 2.6 190 13:39 15.11.2019
4338 Clear 21 1019 60 10000 2.6 220 13:20 15.11.2019
4339 Clear 21 1019 56 10000 3.1 250 12:57 15.11.2019
4340 Clear 21 1019 56 10000 3.1 250 12:39 15.11.2019
4341 Clear 20 1019 64 10000 3.1 250 12:19 15.11.2019
4342 Clear 20 1019 72 10000 3.1 230 11:56 15.11.2019
4343 Clear 20 1019 72 10000 3.1 230 11:37 15.11.2019
4344 Clear 20 1019 68 10000 2.6 250 11:19 15.11.2019
4345 Clear 20 1019 68 10000 2.1 210 10:40 15.11.2019
4346 Clear 20 1019 68 10000 1.5 110 10:22 15.11.2019
4347 Clear 19 1019 68 10000 1.5 110 09:58 15.11.2019
4348 Clear 19 1019 68 10000 3.6 190 09:40 15.11.2019
4349 Clear 19 1019 72 10000 4.6 190 09:19 15.11.2019
4350 Clear 18 1018 72 10000 4.1 200 08:43 15.11.2019
4351 Clear 17 1018 82 10000 4.1 180 08:22 15.11.2019
4352 Clear 15 1018 82 10000 3.1 170 07:47 15.11.2019
4353 Clear 14 1018 87 10000 2.6 160 07:28 15.11.2019
4354 Clear 14 1017 87 10000 2.6 190 06:38 15.11.2019
4355 Clear 14 1016 87 10000 3.6 220 05:59 15.11.2019
4356 Clear 14 1016 87 10000 3.6 220 05:39 15.11.2019
4357 Clear 14 1016 82 10000 2.1 220 05:20 15.11.2019
4358 Clear 14 1016 87 10000 3.6 210 03:48 15.11.2019
4359 Clear 14 1016 82 10000 3.1 180 02:52 15.11.2019
4360 Clouds 14 1015 82 10000 3.1 180 02:18 15.11.2019
4361 Clouds 15 1015 82 10000 4.1 190 01:33 15.11.2019
4362 Clouds 14 1015 82 10000 3.6 180 00:49 15.11.2019
4363 Clouds 14 1015 93 8000 4.6 200 00:31 15.11.2019
4364 Clouds 15 1015 87 10000 2.1 170 23:50 14.11.2019
4365 Clouds 15 1014 87 8000 4.1 200 23:28 14.11.2019
4366 Clouds 16 1014 87 10000 2.1 160 22:58 14.11.2019
4367 Clouds 16 1014 87 10000 2.1 160 22:39 14.11.2019
4368 Clouds 16 1014 93 10000 2.6 170 22:20 14.11.2019
4369 Clouds 16 1014 93 10000 2.1 170 21:55 14.11.2019
4370 Clouds 16 1014 93 10000 2.1 170 21:36 14.11.2019
4371 Clouds 16 1014 87 10000 2.1 220 21:18 14.11.2019
4372 Clouds 16 1014 93 10000 1.5 180 20:41 14.11.2019
4373 Clouds 16 1013 87 10000 1 210 20:22 14.11.2019
4374 Clouds 16 1013 87 10000 1 210 19:58 14.11.2019
4375 Clouds 16 1013 87 10000 1 210 19:40 14.11.2019
4376 Rain 16 1013 93 8000 1 0 19:18 14.11.2019
4377 Rain 17 1013 93 8000 1.5 190 18:54 14.11.2019
4378 Clouds 17 1013 77 8000 2.6 190 18:36 14.11.2019
4379 Clouds 17 1013 77 8000 2.6 190 18:18 14.11.2019
4380 Clouds 17 1012 93 10000 2.1 180 17:39 14.11.2019
4381 Clouds 17 1012 93 10000 2.1 210 17:20 14.11.2019
4382 Clouds 17 1012 93 10000 2.1 210 17:20 14.11.2019
4383 Clouds 18 1012 88 10000 3.1 140 16:58 14.11.2019
4384 Clouds 18 1012 88 10000 3.1 140 16:39 14.11.2019
4385 Clouds 18 1011 68 10000 1 0 16:21 14.11.2019
4386 Clouds 18 1011 93 10000 1.5 300 15:58 14.11.2019
4387 Clouds 18 1011 93 10000 1.5 300 15:39 14.11.2019
4388 Clouds 18 1012 88 10000 2.1 220 15:20 14.11.2019
4389 Clouds 18 1012 77 8000 3.1 230 14:58 14.11.2019
4390 Clouds 19 1011 82 10000 2.1 210 14:40 14.11.2019
4391 Clouds 19 1011 77 10000 2.1 170 14:22 14.11.2019
4392 Clouds 19 1012 88 10000 3.1 190 13:55 14.11.2019
4393 Clouds 19 1012 88 10000 3.1 190 13:36 14.11.2019
4394 Clouds 19 1011 82 10000 2.6 210 13:18 14.11.2019
4395 Clouds 20 1011 72 10000 2.6 200 12:44 14.11.2019
4396 Clouds 20 1011 72 10000 1 0 12:25 14.11.2019
4397 Clouds 19 1011 82 10000 1.5 170 11:56 14.11.2019
4398 Clouds 19 1011 82 10000 1.5 170 11:38 14.11.2019
4399 Clouds 19 1011 77 10000 2.1 200 11:19 14.11.2019
4400 Clouds 19 1011 88 10000 2.1 260 10:57 14.11.2019
4401 Clouds 19 1011 88 10000 2.1 260 10:37 14.11.2019
4402 Clouds 19 1012 88 10000 2.6 220 10:19 14.11.2019
4403 Clouds 18 1012 88 10000 3.1 190 09:54 14.11.2019
4404 Clouds 18 1012 88 10000 3.1 190 09:36 14.11.2019
4405 Clouds 17 1011 88 10000 1 0 09:18 14.11.2019
4406 Clouds 17 1011 88 10000 1 0 08:41 14.11.2019
4407 Mist 17 1011 93 3800 2.1 310 08:23 14.11.2019
4408 Clouds 16 1011 93 10000 1.5 330 07:42 14.11.2019
4409 Clouds 15 1011 100 6000 3.1 350 07:24 14.11.2019
4410 Clouds 15 1011 100 6000 3.1 340 06:46 14.11.2019
4411 Clouds 14 1011 93 8000 2.6 350 06:21 14.11.2019
4412 Clouds 14 1011 93 10000 2.6 350 05:40 14.11.2019
4413 Mist 14 1011 93 8000 2.6 310 04:38 14.11.2019
4414 Mist 15 1010 87 8000 3.6 360 03:28 14.11.2019
4415 Clouds 14 1011 93 8000 3.6 350 02:38 14.11.2019
4416 Clouds 15 1011 87 10000 3.1 360 01:41 14.11.2019
4417 Clouds 15 1011 82 10000 3.6 360 00:57 14.11.2019
4418 Clouds 16 1011 82 10000 3.6 360 00:38 14.11.2019
4419 Clouds 15 1011 82 10000 2.6 340 00:19 14.11.2019
4420 Clouds 15 1011 82 10000 1 0 23:38 13.11.2019
4421 Clouds 16 1011 67 10000 1.5 240 23:20 13.11.2019
4422 Fog 16 1012 93 2800 2.1 30 22:55 13.11.2019
4423 Clouds 16 1011 77 10000 1.5 20 22:37 13.11.2019
4424 Clouds 16 1012 82 10000 2.1 10 22:19 13.11.2019
4425 Clouds 17 1012 77 10000 1.5 20 21:55 13.11.2019
4426 Clouds 17 1012 77 10000 1.5 20 21:36 13.11.2019
4427 Clouds 17 1012 77 10000 2.1 360 21:18 13.11.2019
4428 Clouds 17 1013 77 10000 1 0 20:54 13.11.2019
4429 Clouds 17 1013 77 10000 1 0 20:36 13.11.2019
4430 Clouds 17 1013 77 10000 1 330 20:18 13.11.2019
4431 Clouds 18 1013 72 10000 1 0 19:42 13.11.2019
4432 Clouds 18 1013 77 10000 1 0 19:19 13.11.2019
4433 Clouds 18 1013 68 10000 1.5 80 18:56 13.11.2019
4434 Clouds 18 1013 68 10000 1.5 80 18:56 13.11.2019
4435 Clouds 18 1013 68 10000 1.5 80 18:38 13.11.2019
4436 Clouds 17 1013 77 10000 4.1 350 18:19 13.11.2019
4437 Clouds 18 1013 68 10000 2.6 360 17:57 13.11.2019
4438 Clouds 18 1013 68 10000 2.6 360 17:38 13.11.2019
4439 Clouds 18 1013 68 10000 2.6 10 17:19 13.11.2019
4440 Clouds 19 1013 56 10000 2.1 260 16:57 13.11.2019
4441 Clouds 19 1013 56 10000 2.1 260 16:39 13.11.2019
4442 Clouds 19 1013 52 10000 3.1 340 16:21 13.11.2019
4443 Clouds 20 1013 43 10000 1 310 15:57 13.11.2019
4444 Clouds 20 1013 43 10000 1 310 15:38 13.11.2019
4445 Clouds 20 1013 40 10000 1.42 347 15:19 13.11.2019
4446 Clouds 21 1013 43 10000 1.5 290 14:42 13.11.2019
4447 Clouds 21 1013 43 10000 1.5 190 14:21 13.11.2019
4448 Clouds 21 1013 33 10000 3.1 100 13:57 13.11.2019
4449 Clouds 21 1013 33 10000 3.1 90 13:36 13.11.2019
4450 Clouds 21 1013 33 10000 3.1 90 13:18 13.11.2019
4451 Clouds 21 1013 31 10000 3.6 90 12:43 13.11.2019
4452 Clouds 21 1013 33 10000 4.1 100 12:25 13.11.2019
4453 Clouds 21 1013 38 10000 4.1 100 11:59 13.11.2019
4454 Clouds 22 1013 38 10000 4.1 100 11:38 13.11.2019
4455 Clouds 21 1013 38 10000 3.6 90 11:19 13.11.2019
4456 Clouds 21 1013 43 10000 4.6 110 10:57 13.11.2019
4457 Clouds 21 1013 43 10000 4.6 110 10:39 13.11.2019
4458 Clouds 20 1014 43 10000 4.6 100 10:19 13.11.2019
4459 Clouds 20 1014 43 10000 4.6 100 10:19 13.11.2019
4460 Clouds 20 1014 43 10000 4.6 100 10:19 13.11.2019
4461 Clouds 20 1014 43 10000 5.7 110 09:45 13.11.2019
4462 Clouds 19 1014 43 10000 3.6 100 09:21 13.11.2019
4463 Clouds 19 1014 43 10000 3.6 100 09:21 13.11.2019
4464 Clouds 19 1014 43 10000 3.6 100 09:21 13.11.2019
4465 -273 0 0 0 0 0 08:55 13.11.2019
4466 Clouds 18 1014 49 10000 2.1 60 08:36 13.11.2019
4467 Clouds 17 1014 49 10000 2.1 60 08:18 13.11.2019
4468 Clouds 16 1014 63 8000 2.6 360 07:42 13.11.2019
4469 Clouds 16 1014 59 10000 2.1 10 07:20 13.11.2019
4470 Clouds 16 1014 59 10000 2.1 20 06:43 13.11.2019
4471 Clouds 15 1014 67 10000 3.1 20 06:19 13.11.2019
4472 Clouds 15 1014 67 10000 3.1 20 06:19 13.11.2019
4473 Clouds 15 1014 67 10000 3.1 20 06:19 13.11.2019
4474 Clouds 15 1014 67 10000 3.1 20 06:19 13.11.2019
4475 Clouds 15 1014 71 10000 2.1 10 05:51 13.11.2019
4476 Clouds 14 1014 76 10000 3.1 10 05:30 13.11.2019
4477 Clouds 14 1014 76 10000 4.6 350 04:20 13.11.2019
4478 Mist 14 1014 76 4000 4.1 360 01:58 13.11.2019
4479 Mist 14 1014 76 4000 4.1 360 01:40 13.11.2019
4480 Clear 15 1015 82 10000 4.1 350 00:44 13.11.2019
4481 Clear 15 1015 67 10000 3.6 350 23:59 12.11.2019
4482 Clear 15 1015 67 10000 3.6 350 23:41 12.11.2019
4483 Clear 16 1015 67 10000 3.6 360 23:21 12.11.2019
4484 Clear 16 1015 67 10000 3.1 360 22:43 12.11.2019
4485 Clear 16 1016 63 10000 3.6 360 22:21 12.11.2019
4486 Clear 16 1015 63 10000 3.6 10 21:59 12.11.2019
4487 Clear 16 1015 63 10000 3.6 10 21:40 12.11.2019
4488 Clear 16 1016 63 10000 3.6 10 21:22 12.11.2019
4489 Clear 16 1016 67 10000 4.1 10 20:56 12.11.2019
4490 Clear 16 1016 67 10000 4.1 10 20:37 12.11.2019
4491 Clear 17 1016 67 10000 3.6 10 20:18 12.11.2019
4492 Clear 16 1016 72 10000 4.1 10 19:57 12.11.2019
4493 Clear 16 1016 72 10000 4.1 10 19:38 12.11.2019
4494 Clear 16 1016 72 10000 3.6 20 19:19 12.11.2019
4495 Clear 17 1016 72 10000 4.6 10 18:58 12.11.2019
4496 Clear 17 1016 72 10000 4.6 10 18:39 12.11.2019
4497 Clear 17 1016 72 10000 4.6 20 18:21 12.11.2019
4498 Clear 17 1016 72 10000 4.1 30 17:57 12.11.2019
4499 Clear 17 1016 72 10000 4.1 30 17:39 12.11.2019
4500 Clear 18 1016 72 10000 4.6 20 17:20 12.11.2019
4501 Clear 18 1016 72 10000 4.6 20 16:44 12.11.2019
4502 Clear 18 1016 68 10000 5.1 20 16:26 12.11.2019
4503 Clear 19 1016 64 10000 4.6 20 15:58 12.11.2019
4504 Clear 19 1016 64 10000 4.6 20 15:40 12.11.2019
4505 Clear 20 1016 38 10000 0.5 0 15:21 12.11.2019
4506 Clear 20 1016 53 10000 1 0 14:56 12.11.2019
4507 Clear 20 1016 53 10000 1 0 14:36 12.11.2019
4508 Clear 20 1017 41 10000 1 0 14:36 12.11.2019
4509 Clouds 20 1017 41 10000 1 0 14:18 12.11.2019
4510 Clouds 21 1017 40 10000 1.5 160 13:55 12.11.2019
4511 Clouds 20 1017 46 10000 2.1 160 13:36 12.11.2019
4512 Clouds 20 1017 46 10000 2.1 160 13:36 12.11.2019
4513 Clear 21 1017 46 10000 2.1 160 13:18 12.11.2019
4514 Clear 21 1017 46 10000 2.1 160 13:18 12.11.2019
4515 Clear 21 1017 53 10000 2.6 130 12:40 12.11.2019
4516 Clear 21 1017 46 10000 1.5 360 12:19 12.11.2019
4517 Clouds 20 1018 46 10000 1 0 11:57 12.11.2019
4518 Clear 21 1018 46 10000 1 0 11:39 12.11.2019
4519 Clouds 20 1018 56 10000 1 0 11:21 12.11.2019
4520 Clouds 20 1019 64 10000 1.5 0 10:55 12.11.2019
4521 Clouds 19 1019 64 10000 1.5 0 10:37 12.11.2019
4522 Clouds 19 1019 64 10000 1 0 10:19 12.11.2019
4523 Clouds 18 1019 64 10000 1.5 190 09:40 12.11.2019
4524 Clouds 18 1019 64 10000 1.5 110 09:20 12.11.2019
4525 Clouds 17 1019 68 10000 2.1 80 08:51 12.11.2019
4526 Clouds 16 1019 87 10000 2.6 340 08:30 12.11.2019
4527 Clouds 15 1019 87 10000 2.6 340 07:44 12.11.2019
4528 Clouds 15 1019 87 10000 3.1 340 07:25 12.11.2019
4529 Mist 14 1019 93 3200 2.6 60 06:56 12.11.2019
4530 Fog 14 1019 93 1600 1.34 80 06:29 12.11.2019
4531 Clouds 13 1019 93 10000 2.1 360 05:57 12.11.2019
4532 Clouds 13 1019 87 10000 2.1 340 05:29 12.11.2019
4533 Clouds 14 1018 93 8000 2.1 60 04:39 12.11.2019
4534 Fog 14 1019 93 300 1.5 30 02:51 12.11.2019
4535 Clear 17 1018 82 10000 3.1 80 01:39 12.11.2019
4536 Clear 17 1019 72 10000 2.1 20 01:19 12.11.2019
4537 Clear 16 1018 77 10000 3.1 20 00:44 12.11.2019
4538 Clear 16 1019 82 10000 2.1 360 00:21 12.11.2019
4539 Clear 16 1019 68 10000 2.1 30 23:42 11.11.2019
4540 Clear 16 1019 72 10000 3.1 20 23:21 11.11.2019
4541 Clear 16 1019 72 10000 3.1 20 23:21 11.11.2019
4542 Clear 17 1019 72 10000 3.1 40 22:40 11.11.2019
4543 Clear 17 1019 72 10000 3.1 60 22:20 11.11.2019
4544 Clear 17 1019 72 10000 3.1 60 21:59 11.11.2019
4545 Clear 17 1019 72 10000 3.1 60 21:40 11.11.2019
4546 Clear 17 1019 72 10000 4.1 40 21:21 11.11.2019
4547 Clear 17 1019 72 10000 2.6 40 20:59 11.11.2019
4548 Clear 17 1019 72 10000 2.6 40 20:41 11.11.2019
4549 Clouds 18 1018 68 10000 3.6 30 20:20 11.11.2019
4550 Clouds 18 1019 72 10000 3.1 30 19:56 11.11.2019
4551 Clouds 18 1019 72 10000 3.1 30 19:38 11.11.2019
4552 Clouds 18 1019 72 10000 2.6 60 19:18 11.11.2019
4553 Clouds 18 1019 72 10000 2.6 60 19:18 11.11.2019
4554 Clouds 18 1019 77 10000 1.5 340 18:41 11.11.2019
4555 Clouds 18 1019 72 10000 2.1 130 18:21 11.11.2019
4556 Clouds 18 1019 72 10000 1.5 60 17:59 11.11.2019
4557 Clouds 18 1019 72 10000 1.5 60 17:40 11.11.2019
4558 Clouds 19 1019 68 10000 3.1 90 17:22 11.11.2019
4559 Clouds 19 1019 60 10000 2.1 90 16:39 11.11.2019
4560 Clouds 19 1018 63 10000 5.1 340 16:20 11.11.2019
4561 Clouds 19 1018 63 10000 5.1 340 16:20 11.11.2019
4562 -273 0 0 0 0 0 15:55 11.11.2019
4563 Clouds 19 1019 68 10000 0.5 0 15:37 11.11.2019
4564 Clouds 19 1019 68 10000 2.6 250 15:19 11.11.2019
4565 Rain 19 1018 64 10000 4.1 260 14:42 11.11.2019
4566 Clouds 20 1019 56 10000 2.6 180 14:24 11.11.2019
4567 Clouds 20 1019 56 10000 2.6 180 13:57 11.11.2019
4568 Clouds 20 1018 56 10000 3.1 220 13:37 11.11.2019
4569 Clouds 21 1018 49 10000 1.53 71 13:19 11.11.2019
4570 Clouds 21 1018 49 10000 1.53 71 12:56 11.11.2019
4571 Clouds 21 1018 46 10000 1.53 71 12:38 11.11.2019
4572 Clouds 21 1018 46 10000 1 0 12:19 11.11.2019
4573 Clouds 21 1019 46 10000 1.5 120 11:41 11.11.2019
4574 Clouds 21 1019 46 10000 1.5 80 11:21 11.11.2019
4575 Clouds 21 1019 49 10000 2.6 110 10:55 11.11.2019
4576 Clouds 21 1019 49 10000 2.6 110 10:37 11.11.2019
4577 Clouds 21 1019 49 10000 2.6 90 10:18 11.11.2019
4578 Clouds 20 1019 49 10000 2.6 90 09:42 11.11.2019
4579 Clouds 20 1020 52 10000 2.6 100 09:21 11.11.2019
4580 Clouds 19 1020 60 10000 1.5 50 08:43 11.11.2019
4581 Rain 19 1019 72 10000 1 0 08:23 11.11.2019
4582 Rain 18 1019 72 10000 1 0 07:58 11.11.2019
4583 Rain 17 1019 77 10000 1 0 07:39 11.11.2019
4584 Rain 17 1019 77 10000 1 0 07:39 11.11.2019
4585 Rain 17 1019 82 10000 1.5 30 07:20 11.11.2019
4586 Rain 16 1019 82 10000 1.5 10 06:57 11.11.2019
4587 Rain 17 1019 82 10000 1.5 10 06:38 11.11.2019
4588 Rain 16 1019 82 10000 1 0 06:20 11.11.2019
4589 Rain 16 1019 82 10000 0.5 0 05:48 11.11.2019
4590 Rain 16 1018 87 10000 1 0 03:34 11.11.2019
4591 Clouds 16 1018 77 10000 1.5 50 02:39 11.11.2019
4592 Rain 16 1018 82 10000 1 0 01:59 11.11.2019
4593 Rain 17 1018 82 10000 1 0 01:36 11.11.2019
4594 Rain 17 1017 82 10000 1 30 00:55 11.11.2019
4595 Rain 16 1017 82 10000 1 30 00:33 11.11.2019
4596 Rain 17 1017 82 10000 2.1 10 23:58 10.11.2019
4597 Rain 17 1017 82 10000 2.1 10 23:38 10.11.2019
4598 Clear 17 1017 77 10000 1.5 60 23:19 10.11.2019
4599 Clear 17 1017 72 10000 1.5 70 22:56 10.11.2019
4600 Clear 17 1017 72 10000 1.5 70 22:38 10.11.2019
4601 Clear 17 1017 72 10000 2.1 80 22:19 10.11.2019
4602 Clear 17 1017 72 10000 2.1 80 21:55 10.11.2019
4603 Clear 17 1017 72 10000 1 0 21:36 10.11.2019
4604 Clear 17 1016 59 10000 1.5 80 21:18 10.11.2019
4605 Clear 17 1016 63 10000 1.5 50 20:41 10.11.2019
4606 Clouds 17 1016 63 10000 2.1 50 20:22 10.11.2019
4607 Clouds 17 1016 63 10000 2.1 50 19:56 10.11.2019
4608 Clouds 17 1016 67 10000 2.1 20 19:56 10.11.2019
4609 Clouds 17 1016 67 10000 2.1 20 19:37 10.11.2019
4610 Clouds 18 1016 63 10000 2.1 70 19:19 10.11.2019
4611 Clouds 18 1015 63 10000 1.5 60 18:58 10.11.2019
4612 Clouds 18 1015 63 10000 1.5 60 18:58 10.11.2019
4613 Clouds 18 1015 63 10000 1.5 60 18:58 10.11.2019
4614 Clouds 18 1015 63 10000 1.5 60 18:39 10.11.2019
4615 Clouds 18 1015 52 10000 2.1 90 18:19 10.11.2019
4616 Clouds 18 1015 52 10000 2.1 90 18:19 10.11.2019
4617 Clouds 18 1015 52 10000 2.1 90 18:19 10.11.2019
4618 Clouds 18 1015 48 10000 1.5 50 17:56 10.11.2019
4619 Clouds 19 1015 48 10000 1.5 50 17:38 10.11.2019
4620 Clouds 19 1015 55 10000 1.5 40 17:19 10.11.2019
4621 Clouds 20 1015 56 10000 2.6 90 16:58 10.11.2019
4622 Clouds 20 1015 56 10000 2.6 90 16:38 10.11.2019
4623 Clouds 21 1015 43 10000 2.1 90 16:20 10.11.2019
4624 Clouds 21 1015 43 10000 2.1 90 15:55 10.11.2019
4625 Clouds 21 1015 43 10000 1.5 130 15:36 10.11.2019
4626 Clouds 22 1015 46 10000 2.1 200 15:18 10.11.2019
4627 Clouds 22 1015 40 10000 2.1 190 14:41 10.11.2019
4628 Clouds 23 1015 38 10000 1.5 180 14:22 10.11.2019
4629 Clouds 23 1015 38 10000 1.5 180 13:58 10.11.2019
4630 Clouds 23 1015 38 10000 2.6 190 13:40 10.11.2019
4631 Clouds 24 1015 36 10000 2.1 170 13:20 10.11.2019
4632 Clouds 23 1015 38 10000 2.6 160 12:43 10.11.2019
4633 Clouds 23 1015 40 10000 3.1 150 12:21 10.11.2019
4634 Clouds 23 1015 43 10000 3.1 170 11:57 10.11.2019
4635 Clouds 23 1015 43 10000 3.1 170 11:39 10.11.2019
4636 Clouds 22 1016 46 10000 2.1 170 11:20 10.11.2019
4637 Clouds 22 1016 46 10000 2.1 170 11:20 10.11.2019
4638 Clouds 22 1016 53 10000 2.1 170 10:59 10.11.2019
4639 Clouds 22 1016 53 10000 2.1 170 10:40 10.11.2019
4640 Clouds 22 1016 56 10000 2.6 180 10:20 10.11.2019
4641 Clouds 21 1016 56 10000 2.6 200 09:43 10.11.2019
4642 Clouds 21 1016 56 10000 2.6 200 09:43 10.11.2019
4643 Clouds 20 1016 46 10000 2.1 150 09:23 10.11.2019
4644 Clouds 20 1016 60 10000 1 0 08:43 10.11.2019
4645 Clear 18 1016 72 10000 1.5 80 08:21 10.11.2019
4646 Clear 18 1016 72 10000 1.5 80 07:59 10.11.2019
4647 Clear 17 1016 72 10000 0.5 0 07:40 10.11.2019
4648 Clear 15 1016 93 10000 2.1 350 07:21 10.11.2019
4649 Clear 14 1016 93 10000 1 350 06:31 10.11.2019
4650 Clear 14 1016 87 8000 1 320 05:32 10.11.2019
4651 Clouds 15 1016 93 10000 1.4 160 03:22 10.11.2019
4652 Clouds 16 1016 82 10000 0.5 0 01:47 10.11.2019
4653 Clouds 16 1016 72 10000 1.5 110 01:19 10.11.2019
4654 Clouds 15 1016 82 10000 0.5 0 00:40 10.11.2019
4655 Clouds 15 1016 77 10000 0.5 0 23:48 09.11.2019
4656 Clouds 17 1016 72 10000 1.5 190 23:21 09.11.2019
4657 Clouds 17 1016 72 10000 1.5 190 22:59 09.11.2019
4658 Clouds 17 1016 77 10000 1.5 60 22:41 09.11.2019
4659 Clouds 17 1017 63 10000 2.1 80 22:20 09.11.2019
4660 Clouds 17 1017 63 10000 2.1 80 21:56 09.11.2019
4661 Clouds 17 1017 63 10000 2.1 60 21:37 09.11.2019
4662 Clouds 18 1017 68 10000 2.6 80 21:19 09.11.2019
4663 Clouds 17 1017 72 10000 2.6 90 20:42 09.11.2019
4664 Clouds 18 1017 64 10000 4.6 100 20:22 09.11.2019
4665 Clouds 18 1017 56 10000 2.1 80 19:58 09.11.2019
4666 Clouds 18 1017 56 10000 2.1 80 19:39 09.11.2019
4667 Clouds 19 1017 56 10000 3.1 50 19:21 09.11.2019
4668 Clouds 18 1017 56 10000 2.1 50 18:54 09.11.2019
4669 Clouds 18 1017 56 10000 2.1 50 18:36 09.11.2019
4670 Clouds 18 1017 59 10000 2.1 90 18:18 09.11.2019
4671 Clouds 18 1017 63 10000 2.1 350 17:41 09.11.2019
4672 Clear 19 1017 55 10000 1.5 350 17:22 09.11.2019
4673 Clear 20 1017 52 10000 1 340 16:43 09.11.2019
4674 Clear 21 1017 40 10000 1 0 16:22 09.11.2019
4675 Clear 21 1017 40 10000 1 0 15:59 09.11.2019
4676 Clear 22 1017 46 10000 1 120 15:41 09.11.2019
4677 Clear 23 1017 40 10000 2.6 110 15:23 09.11.2019
4678 Clear 23 1017 40 10000 2.6 90 14:44 09.11.2019
4679 Clear 24 1017 41 10000 1 0 14:22 09.11.2019
4680 Clear 24 1017 41 10000 1 0 13:58 09.11.2019
4681 Clear 24 1018 41 10000 1.5 0 13:39 09.11.2019
4682 Clear 23 1018 43 10000 1.5 0 13:19 09.11.2019
4683 Clear 24 1018 43 10000 2.1 160 12:56 09.11.2019
4684 Clear 24 1018 43 10000 2.1 160 12:38 09.11.2019
4685 Clear 24 1018 43 10000 2.1 200 12:19 09.11.2019
4686 Clear 23 1018 40 10000 2.6 210 11:47 09.11.2019
4687 Clear 23 1018 40 10000 2.1 190 11:21 09.11.2019
4688 Clear 23 1019 49 10000 1 0 10:57 09.11.2019
4689 Clear 23 1019 49 10000 1 0 10:38 09.11.2019
4690 Clear 23 1019 53 10000 1.5 120 10:18 09.11.2019
4691 Clear 22 1019 49 10000 1 0 09:44 09.11.2019
4692 Clear 22 1019 56 10000 2.1 120 09:21 09.11.2019
4693 Clear 20 1019 64 10000 2.1 90 08:53 09.11.2019
4694 Clear 19 1019 64 10000 1.5 110 08:26 09.11.2019
4695 Clear 18 1019 68 10000 1 80 07:57 09.11.2019
4696 Clear 18 1019 68 10000 1 80 07:57 09.11.2019
4697 Clear 17 1019 68 10000 1 80 07:39 09.11.2019
4698 Clear 17 1019 77 10000 1 0 07:20 09.11.2019
4699 Clear 15 1018 82 10000 1.5 360 06:46 09.11.2019
4700 Clear 16 1018 82 10000 1 0 06:28 09.11.2019
4701 Clear 16 1018 82 10000 0.5 0 05:40 09.11.2019
4702 Clear 16 1017 87 10000 1 0 04:48 09.11.2019
4703 Clear 15 1017 82 10000 1 0 02:57 09.11.2019
4704 Clear 16 1017 82 10000 1 0 02:38 09.11.2019
4705 Clear 16 1017 77 10000 1 0 01:40 09.11.2019
4706 Clear 16 1017 77 10000 1 0 00:46 09.11.2019
4707 Clear 16 1016 72 10000 1.5 20 00:27 09.11.2019
4708 Clear 16 1016 72 10000 1.5 0 23:42 08.11.2019
4709 Clear 17 1016 63 10000 3.1 90 23:23 08.11.2019
4710 Clear 17 1016 63 10000 1.5 100 22:59 08.11.2019
4711 Clear 17 1016 63 10000 1.5 100 22:40 08.11.2019
4712 Clear 18 1016 68 10000 3.1 100 22:21 08.11.2019
4713 Clear 19 1016 63 10000 4.1 120 21:43 08.11.2019
4714 Clear 18 1016 63 10000 2.1 90 21:24 08.11.2019
4715 Clear 18 1016 63 10000 2.1 90 20:59 08.11.2019
4716 Clear 18 1016 68 10000 2.6 90 20:41 08.11.2019
4717 Clear 18 1016 56 10000 1.5 90 20:20 08.11.2019
4718 Clear 18 1015 56 10000 2.6 90 19:56 08.11.2019
4719 Clear 18 1015 56 10000 2.6 90 19:37 08.11.2019
4720 Clear 18 1015 56 10000 2.1 80 19:18 08.11.2019
4721 Clear 18 1015 56 10000 2.1 80 19:18 08.11.2019
4722 Clear 18 1015 59 10000 1.5 60 18:55 08.11.2019
4723 Clear 18 1015 59 10000 1.5 60 18:36 08.11.2019
4724 Clear 19 1015 56 10000 2.1 70 18:18 08.11.2019
4725 Clear 19 1015 60 10000 2.1 80 17:55 08.11.2019
4726 Clear 19 1015 60 10000 2.1 80 17:36 08.11.2019
4727 Clear 19 1015 56 10000 2.6 110 17:18 08.11.2019
4728 Clear 20 1015 56 10000 1.5 100 16:57 08.11.2019
4729 Clear 20 1015 56 10000 1.5 100 16:57 08.11.2019
4730 Clear 20 1015 56 10000 1.5 100 16:38 08.11.2019
4731 Clear 21 1015 52 10000 0.73 68 16:18 08.11.2019
4732 Clear 22 1014 49 10000 1.5 120 15:55 08.11.2019
4733 Clear 22 1014 49 10000 1.5 120 15:36 08.11.2019
4734 Clear 22 1014 49 10000 1.5 120 15:36 08.11.2019
4735 Clear 23 1014 46 10000 2.1 200 15:18 08.11.2019
4736 Clear 24 1014 44 10000 3.1 190 14:54 08.11.2019
4737 Clear 24 1014 44 10000 3.1 190 14:36 08.11.2019
4738 Clear 24 1014 44 10000 3.1 190 14:36 08.11.2019
4739 Clouds 24 1014 41 10000 3.1 170 14:18 08.11.2019
4740 Clouds 24 1014 41 10000 3.1 180 13:42 08.11.2019
4741 Clouds 24 1014 44 10000 3.6 180 13:22 08.11.2019
4742 Clouds 24 1014 49 10000 2.6 180 12:49 08.11.2019
4743 Clouds 24 1014 49 10000 2.6 180 12:31 08.11.2019
4744 Clouds 24 1014 46 10000 3.1 180 11:59 08.11.2019
4745 Clouds 24 1015 46 10000 3.1 190 11:41 08.11.2019
4746 Clouds 24 1015 46 10000 3.1 190 11:22 08.11.2019
4747 Clouds 24 1015 46 10000 3.1 190 10:59 08.11.2019
4748 Clouds 24 1015 43 10000 2.6 190 10:41 08.11.2019
4749 Clouds 23 1015 49 10000 2.1 130 10:22 08.11.2019
4750 Clouds 23 1015 49 10000 2.1 130 09:58 08.11.2019
4751 Clouds 22 1015 49 10000 3.1 130 09:39 08.11.2019
4752 Clouds 21 1015 56 10000 3.6 130 09:19 08.11.2019
4753 Clouds 21 1015 56 10000 3.1 100 08:46 08.11.2019
4754 Clear 21 1015 64 10000 2.6 110 08:23 08.11.2019
4755 Clear 20 1015 64 10000 2.1 90 07:56 08.11.2019
4756 Clear 18 1015 64 10000 2.1 90 07:37 08.11.2019
4757 Clear 18 1015 77 10000 1.5 60 07:19 08.11.2019
4758 Clear 17 1014 82 10000 1 80 06:38 08.11.2019
4759 Clear 17 1014 82 10000 1 80 06:19 08.11.2019
4760 Clear 18 1014 82 10000 1.5 80 05:36 08.11.2019
4761 Clear 18 1014 82 10000 1.5 90 04:30 08.11.2019
4762 Clear 18 1013 77 10000 2.1 100 03:43 08.11.2019
4763 Clear 18 1013 82 10000 1 0 03:19 08.11.2019
4764 Clear 17 1014 88 10000 1.5 60 02:24 08.11.2019
4765 Clouds 18 1014 88 10000 1.5 110 01:42 08.11.2019
4766 Clouds 17 1014 93 10000 1 0 00:59 08.11.2019
4767 Clouds 17 1014 87 10000 1 0 00:24 08.11.2019
4768 Clouds 17 1014 88 10000 1.5 80 23:55 07.11.2019
4769 Clouds 17 1014 88 10000 1.5 80 23:33 07.11.2019
4770 Clouds 18 1014 82 10000 2.1 110 22:59 07.11.2019
4771 Clouds 17 1014 82 10000 1 0 22:41 07.11.2019
4772 Clouds 17 1014 82 10000 1 0 22:21 07.11.2019
4773 Clouds 18 1014 77 10000 0.5 0 21:55 07.11.2019
4774 Clouds 18 1014 77 10000 0.5 0 21:37 07.11.2019
4775 Clouds 18 1014 77 10000 1.5 100 21:18 07.11.2019
4776 Clouds 18 1014 68 10000 2.03 167 20:55 07.11.2019
4777 Clouds 18 1014 68 10000 2.03 167 20:37 07.11.2019
4778 Clouds 18 1014 68 10000 1.5 60 20:18 07.11.2019
4779 Clouds 19 1014 68 10000 1.5 70 19:41 07.11.2019
4780 Clouds 18 1014 68 10000 1.5 50 19:23 07.11.2019
4781 Clouds 19 1013 72 10000 1.5 110 18:58 07.11.2019
4782 Clouds 19 1013 72 10000 1.5 110 18:39 07.11.2019
4783 Clouds 19 1014 68 10000 2.1 110 18:19 07.11.2019
4784 Clouds 20 1013 64 10000 2.6 210 17:59 07.11.2019
4785 Clouds 20 1013 64 10000 2.6 210 17:38 07.11.2019
4786 Clouds 20 1013 60 10000 1 0 17:20 07.11.2019
4787 Clouds 21 1013 60 10000 2.6 290 16:56 07.11.2019
4788 Clouds 21 1012 56 10000 3.1 270 16:37 07.11.2019
4789 Clouds 22 1013 53 10000 2.6 260 16:19 07.11.2019
4790 Clouds 22 1013 53 10000 2.6 260 15:54 07.11.2019
4791 Clouds 23 1013 49 10000 2.1 240 15:36 07.11.2019
4792 Clouds 23 1013 49 10000 2.1 240 15:18 07.11.2019
4793 Clouds 24 1013 49 10000 3.1 250 14:41 07.11.2019
4794 Clouds 24 1013 49 10000 3.1 250 14:23 07.11.2019
4795 Clouds 24 1013 53 10000 3.1 240 13:56 07.11.2019
4796 Clouds 24 1013 53 10000 3.1 210 13:37 07.11.2019
4797 Clouds 24 1013 53 10000 3.1 210 13:19 07.11.2019
4798 Clouds 24 1013 53 10000 3.6 190 12:57 07.11.2019
4799 Clouds 24 1013 53 10000 4.1 200 12:39 07.11.2019
4800 Clouds 24 1013 53 10000 4.1 200 12:20 07.11.2019
4801 Clouds 23 1013 53 10000 4.6 190 11:43 07.11.2019
4802 Clouds 23 1013 53 10000 4.6 190 11:23 07.11.2019
4803 Clouds 24 1013 53 10000 4.6 180 10:57 07.11.2019
4804 Clouds 23 1013 53 10000 4.6 180 10:55 07.11.2019
4805 Clouds 23 1014 53 10000 6.2 180 10:37 07.11.2019
4806 Clouds 22 1014 53 10000 6.2 180 10:18 07.11.2019
4807 Clouds 22 1014 64 10000 3.6 160 09:42 07.11.2019
4808 Clouds 21 1014 64 10000 3.6 160 09:21 07.11.2019
4809 Clouds 21 1014 64 10000 4.6 180 08:48 07.11.2019
4810 Clouds 21 1014 64 10000 4.6 180 08:44 07.11.2019
4811 Clouds 21 1014 64 10000 4.6 180 08:44 07.11.2019
4812 Clouds 20 1014 60 10000 3.1 0 08:44 07.11.2019
4813 Clouds 20 1014 60 10000 3.1 0 08:23 07.11.2019
4814 Clouds 20 1014 60 10000 3.1 0 08:23 07.11.2019
4815 Clouds 19 1014 72 10000 3.1 160 07:57 07.11.2019
4816 Clouds 18 1014 77 10000 1.5 120 07:39 07.11.2019
4817 Clouds 18 1014 77 10000 1.5 120 07:20 07.11.2019
4818 Clouds 17 1014 82 10000 2.1 140 06:46 07.11.2019
4819 Clouds 16 1014 88 10000 3.1 140 06:25 07.11.2019
4820 Clouds 16 1014 77 10000 4.1 170 05:51 07.11.2019
4821 Clouds 16 1014 77 10000 4.1 170 05:51 07.11.2019
4822 Clouds 17 1014 88 10000 3.6 170 05:32 07.11.2019
4823 Clouds 17 1014 88 10000 3.6 170 05:32 07.11.2019
4824 -273 0 0 0 0 0 04:52 07.11.2019
4825 Clear 16 1014 93 10000 2.1 180 04:52 07.11.2019
4826 -273 0 0 0 0 0 04:52 07.11.2019
4827 Clear 16 1014 93 10000 2.1 180 04:52 07.11.2019
4828 Clear 16 1014 93 10000 1.5 130 04:29 07.11.2019
4829 Clear 17 1014 82 10000 2.1 260 01:30 07.11.2019
4830 Clear 17 1014 82 10000 2.1 260 01:29 07.11.2019
4831 Clear 17 1013 82 10000 3.6 250 00:32 07.11.2019
4832 -273 0 0 0 0 0 23:59 06.11.2019
4833 Clear 17 1013 82 10000 3.6 220 23:40 06.11.2019
4834 Clear 17 1013 82 10000 3.6 220 23:20 06.11.2019
4835 Clear 17 1013 88 10000 2.1 230 22:41 06.11.2019
4836 Clear 18 1013 88 10000 2.1 230 22:21 06.11.2019
4837 Clear 18 1013 88 10000 1 0 21:58 06.11.2019
4838 Clear 18 1013 82 10000 2.6 250 21:39 06.11.2019
4839 Clear 18 1013 82 10000 2.6 250 21:20 06.11.2019
4840 Clear 18 1013 82 10000 2.6 250 21:20 06.11.2019
4841 Clear 18 1013 82 10000 2.6 270 20:58 06.11.2019
4842 Clouds 18 1013 82 10000 3.6 260 20:39 06.11.2019
4843 Clouds 19 1013 82 10000 3.6 260 20:20 06.11.2019
4844 Clouds 19 1013 82 10000 3.6 250 19:58 06.11.2019
4845 Clouds 19 1013 77 10000 4.1 250 19:37 06.11.2019
4846 Clouds 19 1013 72 10000 3.6 210 19:19 06.11.2019
4847 Clouds 19 1013 72 10000 3.6 210 18:56 06.11.2019
4848 Clouds 19 1013 77 10000 3.6 250 18:38 06.11.2019
4849 Clouds 19 1013 77 10000 3.6 250 18:18 06.11.2019
4850 Clouds 20 1013 77 10000 4.1 250 17:42 06.11.2019
4851 Clouds 20 1013 77 10000 4.1 250 17:42 06.11.2019
4852 Clear 20 1012 77 10000 3.6 250 17:24 06.11.2019
4853 Clear 20 1012 77 10000 3.1 260 16:58 06.11.2019
4854 Clear 21 1012 77 10000 3.1 260 16:39 06.11.2019
4855 Clear 22 1012 73 10000 2.6 260 16:21 06.11.2019
4856 Clear 22 1012 73 10000 3.1 260 15:58 06.11.2019
4857 Clear 23 1012 73 10000 3.1 260 15:38 06.11.2019
4858 Clear 23 1012 73 10000 2.1 220 15:19 06.11.2019
4859 Clear 24 1012 68 10000 3.6 190 14:59 06.11.2019
4860 Clear 24 1012 68 10000 3.6 190 14:41 06.11.2019
4861 Clear 24 1012 64 10000 3.6 230 14:22 06.11.2019
4862 Clear 24 1012 68 10000 3.6 240 13:59 06.11.2019
4863 Clear 24 1012 68 10000 3.6 240 13:38 06.11.2019
4864 Clear 24 1012 64 10000 4.1 230 13:19 06.11.2019
4865 Clear 24 1012 60 10000 5.1 230 12:55 06.11.2019
4866 Clear 24 1012 60 10000 5.1 230 12:37 06.11.2019
4867 Clear 23 1013 68 10000 5.7 240 12:18 06.11.2019
4868 Clear 23 1013 68 10000 5.7 240 12:18 06.11.2019
4869 Clear 23 1013 68 10000 6.2 230 11:57 06.11.2019
4870 Clear 24 1013 68 10000 6.2 230 11:36 06.11.2019
4871 Clear 24 1013 68 10000 6.2 220 11:18 06.11.2019
4872 Clear 23 1013 68 10000 6.2 220 10:55 06.11.2019
4873 Clear 23 1013 68 10000 6.2 220 10:37 06.11.2019
4874 Clear 23 1013 64 10000 8.2 210 10:18 06.11.2019
4875 Clear 22 1013 68 10000 9.3 210 09:41 06.11.2019
4876 Clear 22 1013 68 10000 7.7 210 09:21 06.11.2019
4877 Clear 21 1013 68 10000 7.7 200 08:56 06.11.2019
4878 Clear 21 1013 68 10000 7.7 200 08:38 06.11.2019
4879 Clear 20 1014 72 10000 6.7 200 08:18 06.11.2019
4880 Clear 19 1013 72 10000 6.7 190 07:47 06.11.2019
4881 Clear 19 1013 77 10000 7.2 190 07:29 06.11.2019
4882 Clear 18 1013 77 10000 6.7 190 06:54 06.11.2019
4883 Clear 18 1013 77 10000 6.7 190 06:36 06.11.2019
4884 Clear 18 1013 77 10000 5.7 200 05:58 06.11.2019
4885 Clear 18 1014 88 10000 4.1 200 03:48 06.11.2019
4886 Clear 18 1014 93 10000 3.6 180 01:59 06.11.2019
4887 Clear 18 1014 82 10000 3.6 200 00:51 06.11.2019
4888 Clear 18 1014 82 10000 5.7 200 00:26 06.11.2019
4889 Clear 17 1014 82 10000 5.7 210 23:56 05.11.2019
4890 Clear 17 1014 82 10000 5.7 210 23:37 05.11.2019
4891 Clear 17 1014 82 10000 5.7 210 23:37 05.11.2019
4892 Clear 18 1014 82 10000 5.7 210 23:18 05.11.2019
4893 Clear 18 1014 82 10000 5.7 210 23:18 05.11.2019
4894 Clear 17 1014 82 10000 5.7 210 22:41 05.11.2019
4895 Clear 18 1014 82 10000 3.1 200 22:19 05.11.2019
4896 Clear 18 1014 82 10000 3.6 200 21:57 05.11.2019
4897 Clear 18 1014 82 10000 3.6 200 21:39 05.11.2019
4898 Clear 18 1014 82 10000 3.1 220 21:19 05.11.2019
4899 Clear 18 1014 88 10000 1.5 190 20:56 05.11.2019
4900 Clear 18 1014 88 10000 1.5 190 20:38 05.11.2019
4901 Clear 18 1014 88 10000 1 0 20:19 05.11.2019
4902 Clear 18 1014 88 10000 2.1 210 19:42 05.11.2019
4903 Clear 18 1014 88 10000 2.1 210 19:23 05.11.2019
4904 Clear 18 1014 88 10000 2.1 220 18:59 05.11.2019
4905 Clear 18 1014 88 10000 2.1 220 18:40 05.11.2019
4906 Clear 18 1014 82 10000 2.1 220 18:22 05.11.2019
4907 Clear 19 1014 77 10000 1 0 17:59 05.11.2019
4908 Clear 19 1014 77 10000 1 0 17:39 05.11.2019
4909 Clear 20 1014 77 10000 1.5 140 17:20 05.11.2019
4910 Clear 20 1014 68 10000 1.5 180 16:58 05.11.2019
4911 Clear 20 1014 68 10000 1.5 180 16:40 05.11.2019
4912 Clear 21 1014 68 10000 1 180 16:20 05.11.2019
4913 Clear 22 1014 64 10000 1.5 190 15:39 05.11.2019
4914 Clear 23 1014 64 10000 2.6 200 15:20 05.11.2019
4915 Clear 23 1014 64 10000 2.6 200 15:20 05.11.2019
4916 Clear 22 1014 64 10000 2.6 200 15:20 05.11.2019
4917 Clear 23 1014 68 10000 3.1 200 14:59 05.11.2019
4918 Clear 23 1014 68 10000 3.1 200 14:40 05.11.2019
4919 Clear 23 1014 68 10000 3.1 210 14:22 05.11.2019
4920 Clear 23 1014 68 10000 4.1 240 13:58 05.11.2019
4921 Clear 23 1014 68 10000 4.1 240 13:40 05.11.2019
4922 Clear 23 1014 64 10000 4.1 210 13:22 05.11.2019
4923 Clear 23 1014 68 10000 5.1 210 12:40 05.11.2019
4924 Clear 23 1015 68 10000 5.1 210 12:21 05.11.2019
4925 Clear 23 1015 68 10000 4.1 210 11:56 05.11.2019
4926 Clear 22 1015 68 10000 4.1 210 11:37 05.11.2019
4927 Clouds 22 1015 77 10000 4.6 210 11:19 05.11.2019
4928 Clouds 22 1015 77 10000 5.7 220 10:48 05.11.2019
4929 Clouds 22 1015 73 10000 5.7 220 10:27 05.11.2019
4930 Clouds 22 1015 77 10000 5.7 220 09:59 05.11.2019
4931 Clouds 22 1015 77 10000 5.7 220 09:59 05.11.2019
4932 Clouds 22 1015 77 10000 5.7 220 09:41 05.11.2019
4933 Clouds 21 1015 77 10000 6.2 210 09:20 05.11.2019
4934 Clouds 21 1015 73 10000 6.2 200 08:56 05.11.2019
4935 Clouds 20 1015 77 10000 7.2 210 08:37 05.11.2019
4936 Clouds 20 1015 77 10000 7.2 210 08:18 05.11.2019
4937 Clouds 19 1014 77 10000 6.2 210 07:45 05.11.2019
4938 Clouds 19 1014 82 10000 5.7 200 07:25 05.11.2019
4939 Clouds 19 1014 82 10000 6.2 210 06:51 05.11.2019
4940 Clouds 19 1014 72 10000 7.2 220 06:28 05.11.2019
4941 Rain 19 1013 82 10000 5.7 210 05:40 05.11.2019
4942 Clouds 19 1013 77 10000 6.7 210 05:19 05.11.2019
4943 Clouds 19 1013 82 10000 5.1 210 04:20 05.11.2019
4944 Clouds 20 1012 77 10000 6.7 200 03:29 05.11.2019
4945 Clouds 20 1012 72 10000 7.7 200 02:42 05.11.2019
4946 Clouds 20 1012 72 10000 7.7 200 02:42 05.11.2019
4947 Clouds 20 1012 72 10000 7.7 200 01:53 05.11.2019
4948 Clouds 20 1012 77 10000 5.7 200 00:46 05.11.2019
4949 Clouds 20 1012 72 10000 6.2 200 00:25 05.11.2019
4950 Clouds 19 1011 72 10000 6.2 200 23:42 04.11.2019
4951 Clouds 19 1012 72 10000 6.2 200 23:19 04.11.2019
4952 Clouds 19 1011 77 10000 5.7 190 22:56 04.11.2019
4953 Clouds 20 1011 77 10000 5.7 190 22:37 04.11.2019
4954 Clouds 19 1011 72 10000 6.2 210 22:19 04.11.2019
4955 Clouds 19 1011 72 10000 6.2 200 21:54 04.11.2019
4956 Clouds 19 1012 68 10000 4.6 200 21:36 04.11.2019
4957 Clouds 19 1012 68 10000 4.6 200 21:18 04.11.2019
4958 Clouds 19 1011 82 10000 2.6 170 20:55 04.11.2019
4959 Clouds 19 1011 82 10000 2.6 170 20:36 04.11.2019
4960 Clouds 20 1012 72 10000 2.1 230 20:18 04.11.2019
4961 Clouds 20 1012 68 10000 3.6 200 19:42 04.11.2019
4962 Clouds 20 1012 72 10000 3.1 200 19:23 04.11.2019
4963 Clouds 20 1012 77 10000 1.5 160 18:59 04.11.2019
4964 Clouds 20 1012 77 10000 1.5 160 18:40 04.11.2019
4965 Clouds 20 1012 68 10000 4.6 180 18:21 04.11.2019
4966 Clouds 21 1012 72 10000 3.1 180 17:59 04.11.2019
4967 Clouds 21 1012 72 10000 3.1 180 17:37 04.11.2019
4968 Clouds 21 1012 64 10000 3.1 160 17:19 04.11.2019
4969 Clouds 21 1012 72 10000 1 0 16:44 04.11.2019
4970 Clouds 22 1012 64 10000 3.1 220 16:25 04.11.2019
4971 Clouds 22 1012 64 10000 3.1 220 16:25 04.11.2019
4972 Clouds 22 1012 64 10000 4.6 210 15:59 04.11.2019
4973 Clouds 22 1012 64 10000 4.6 210 15:41 04.11.2019
4974 Clouds 22 1013 60 10000 5.1 200 15:21 04.11.2019
4975 Clouds 22 1013 64 10000 4.6 190 14:58 04.11.2019
4976 Clouds 22 1013 64 10000 4.6 190 14:40 04.11.2019
4977 Clouds 22 1013 64 10000 5.7 190 14:20 04.11.2019
4978 Clouds 22 1013 56 10000 7.7 190 13:58 04.11.2019
4979 Clouds 22 1013 56 10000 7.7 190 13:39 04.11.2019
4980 Clouds 22 1013 56 10000 5.7 200 13:21 04.11.2019
4981 Clouds 22 1013 60 10000 4.6 190 12:55 04.11.2019
4982 Clouds 22 1013 60 10000 4.6 190 12:37 04.11.2019
4983 Clouds 22 1014 56 10000 6.2 180 12:18 04.11.2019
4984 Clouds 22 1014 56 10000 5.7 190 11:42 04.11.2019
4985 Clouds 22 1014 52 10000 5.7 190 11:23 04.11.2019
4986 Clouds 22 1014 52 10000 5.7 190 11:23 04.11.2019
4987 Clouds 22 1015 56 10000 4.6 200 10:58 04.11.2019
4988 Clouds 21 1015 56 10000 4.6 200 10:39 04.11.2019
4989 Clouds 21 1015 56 10000 6.2 200 10:20 04.11.2019
4990 Clouds 20 1015 63 10000 7.2 190 09:44 04.11.2019
4991 Clouds 20 1015 60 10000 6.2 200 09:26 04.11.2019
4992 Clouds 19 1015 63 10000 4.6 210 08:56 04.11.2019
4993 Clouds 19 1015 63 10000 4.6 210 08:37 04.11.2019
4994 Clouds 19 1015 68 10000 4.1 230 08:18 04.11.2019
4995 Clouds 18 1015 68 10000 5.1 230 07:42 04.11.2019
4996 Clouds 18 1015 59 10000 5.1 200 07:20 04.11.2019
4997 Clouds 17 1015 68 10000 2.6 250 06:49 04.11.2019
4998 Clouds 17 1015 68 10000 2.6 250 06:49 04.11.2019
4999 Clouds 17 1015 72 10000 4.1 220 06:18 04.11.2019
5000 Clouds 17 1015 72 10000 4.6 230 05:38 04.11.2019
5001 Clouds 17 1015 68 10000 5.1 200 04:41 04.11.2019
5002 Clouds 17 1015 68 10000 5.7 200 03:48 04.11.2019
5003 Clouds 16 1015 68 10000 6.7 200 01:45 04.11.2019
5004 Clouds 16 1016 68 10000 6.2 210 01:19 04.11.2019
5005 Clouds 16 1016 68 10000 5.7 200 00:39 04.11.2019
5006 Clouds 15 1016 82 10000 5.1 190 00:19 04.11.2019
5007 Clouds 16 1016 82 10000 3.6 180 23:40 03.11.2019
5008 Clouds 15 1016 82 10000 2.6 160 23:21 03.11.2019
5009 Clouds 15 1016 77 10000 3.1 200 22:57 03.11.2019
5010 Clouds 15 1017 82 10000 3.1 200 22:39 03.11.2019
5011 Clouds 15 1017 82 10000 3.1 200 22:19 03.11.2019
5012 Clouds 14 1017 87 10000 2.1 210 21:44 03.11.2019
5013 Clouds 14 1017 93 10000 1.5 150 21:22 03.11.2019
5014 Clouds 14 1017 93 10000 1.5 150 20:59 03.11.2019
5015 Clouds 14 1017 93 10000 1.5 170 20:38 03.11.2019
5016 Clouds 14 1017 82 10000 2.1 170 20:20 03.11.2019
5017 Clouds 14 1017 82 10000 2.1 170 19:58 03.11.2019
5018 Clouds 14 1017 82 10000 2.1 170 19:58 03.11.2019
5019 Clouds 14 1017 77 10000 2.1 170 19:39 03.11.2019
5020 Clouds 14 1017 77 10000 2.1 170 19:21 03.11.2019
5021 Clouds 15 1017 82 10000 2.1 160 18:58 03.11.2019
5022 Clouds 15 1017 82 10000 2.1 160 18:38 03.11.2019
5023 Clouds 15 1017 77 10000 3.1 160 18:18 03.11.2019
5024 Clouds 16 1017 77 10000 3.1 160 17:55 03.11.2019
5025 Clouds 16 1017 77 10000 3.1 160 17:37 03.11.2019
5026 Clouds 16 1016 77 10000 2.1 160 17:18 03.11.2019
5027 Clouds 16 1016 77 10000 2.1 190 16:42 03.11.2019
5028 Clouds 16 1016 67 10000 1.5 240 16:22 03.11.2019
5029 Clouds 17 1016 63 10000 2.6 250 15:59 03.11.2019
5030 Clouds 18 1016 63 10000 2.6 250 15:41 03.11.2019
5031 Clouds 18 1016 63 10000 3.6 250 15:23 03.11.2019
5032 Clouds 18 1016 63 10000 4.6 230 14:56 03.11.2019
5033 Clouds 18 1016 63 10000 4.6 230 14:37 03.11.2019
5034 Clouds 18 1016 63 10000 4.6 230 14:37 03.11.2019
5035 Clear 18 1016 67 10000 4.6 230 14:18 03.11.2019
5036 Clear 18 1016 63 10000 4.6 210 13:42 03.11.2019
5037 Clear 19 1017 63 10000 5.1 210 13:20 03.11.2019
5038 Clear 18 1017 59 10000 5.1 220 12:58 03.11.2019
5039 Clear 18 1017 59 10000 5.1 220 12:37 03.11.2019
5040 Clear 19 1017 55 10000 5.7 220 12:18 03.11.2019
5041 Clear 18 1017 55 10000 6.2 210 11:42 03.11.2019
5042 Clear 18 1018 55 10000 6.7 210 11:22 03.11.2019
5043 Clear 17 1018 55 10000 6.7 210 10:56 03.11.2019
5044 Clear 17 1018 55 10000 6.7 210 10:37 03.11.2019
5045 Clear 17 1018 52 10000 6.2 210 10:19 03.11.2019
5046 Clear 16 1018 59 10000 5.1 210 09:43 03.11.2019
5047 Clear 16 1018 67 10000 4.1 210 09:25 03.11.2019
5048 Clear 15 1018 67 10000 2.1 230 08:57 03.11.2019
5049 Clear 14 1018 67 10000 2.1 230 08:38 03.11.2019
5050 Clear 14 1018 67 10000 0.5 0 08:19 03.11.2019
5051 Clear 12 1018 82 10000 1.5 340 07:45 03.11.2019
5052 Clear 11 1018 87 10000 2.1 340 07:22 03.11.2019
5053 Clear 10 1018 87 10000 2.1 350 06:39 03.11.2019
5054 Clear 9 1018 87 10000 1.5 360 05:57 03.11.2019
5055 Clear 10 1018 87 10000 1.5 360 05:38 03.11.2019
5056 Clear 9 1018 87 10000 2.1 350 04:56 03.11.2019
5057 Clear 9 1018 87 10000 2.1 350 04:28 03.11.2019
5058 Clear 8 1018 87 10000 2.6 350 03:28 03.11.2019
5059 Clear 8 1018 87 10000 3.1 350 02:30 03.11.2019
5060 Clear 8 1018 87 10000 3.1 350 01:57 03.11.2019
5061 Clear 9 1018 87 10000 3.1 350 01:37 03.11.2019
5062 Clear 9 1018 87 10000 2.6 340 01:19 03.11.2019
5063 Clear 9 1018 87 10000 2.6 340 00:41 03.11.2019
5064 Clear 9 1018 81 10000 2.6 340 00:22 03.11.2019
5065 Clear 9 1018 81 10000 3.1 340 23:57 02.11.2019
5066 Clear 9 1018 81 10000 3.1 340 23:37 02.11.2019
5067 Clear 9 1019 81 10000 2.6 350 23:18 02.11.2019
5068 Clear 10 1019 81 10000 2.1 10 22:55 02.11.2019
5069 Clear 10 1019 81 10000 2.1 10 22:37 02.11.2019
5070 Clear 10 1019 81 10000 2.1 10 22:37 02.11.2019
5071 Clear 11 1019 66 10000 2.1 40 22:18 02.11.2019
5072 Clear 11 1019 66 10000 2.1 40 21:55 02.11.2019
5073 Clear 11 1019 66 10000 2.1 40 21:55 02.11.2019
5074 Clear 12 1019 66 10000 2.1 40 21:37 02.11.2019
5075 Clear 11 1019 71 10000 2.1 20 21:18 02.11.2019
5076 Clear 11 1019 66 10000 2.6 40 20:56 02.11.2019
5077 Clear 12 1019 66 10000 2.6 40 20:38 02.11.2019
5078 Clouds 12 1019 66 10000 2.6 30 20:19 02.11.2019
5079 Clouds 12 1019 71 10000 2.6 20 19:40 02.11.2019
5080 Clouds 12 1019 66 10000 3.1 30 19:21 02.11.2019
5081 Clouds 12 1019 58 10000 4.1 40 18:56 02.11.2019
5082 Clouds 12 1019 58 10000 4.1 40 18:56 02.11.2019
5083 Clouds 12 1019 58 10000 4.1 40 18:37 02.11.2019
5084 Clouds 13 1019 62 10000 4.1 40 18:19 02.11.2019
5085 Clouds 13 1019 58 10000 4.1 40 17:56 02.11.2019
5086 Clouds 13 1019 58 10000 4.1 40 17:56 02.11.2019
5087 Clouds 13 1019 58 10000 4.1 40 17:37 02.11.2019
5088 Clear 14 1019 58 10000 4.6 30 17:18 02.11.2019
5089 Clear 14 1019 54 10000 5.1 20 16:40 02.11.2019
5090 Clear 14 1019 54 10000 5.1 20 16:40 02.11.2019
5091 Clear 14 1019 54 10000 5.1 20 16:21 02.11.2019
5092 Clear 15 1019 51 10000 2.6 60 15:56 02.11.2019
5093 Clear 15 1019 51 10000 2.6 60 15:37 02.11.2019
5094 Clear 16 1019 45 10000 2.6 100 15:19 02.11.2019
5095 Clear 16 1019 39 10000 3.1 100 14:42 02.11.2019
5096 Clear 16 1019 39 10000 2.6 80 14:23 02.11.2019
5097 Clear 16 1019 39 10000 3.1 80 13:57 02.11.2019
5098 Clear 16 1019 39 10000 3.1 80 13:38 02.11.2019
5099 Clear 15 1019 41 10000 3.6 100 13:18 02.11.2019
5100 Clear 16 1020 38 10000 3.1 120 12:40 02.11.2019
5101 Clear 16 1020 36 10000 3.1 100 12:22 02.11.2019
5102 Clear 15 1020 41 10000 3.1 110 11:57 02.11.2019
5103 Clear 15 1020 41 10000 3.1 110 11:38 02.11.2019
5104 Clear 15 1021 38 10000 3.1 110 11:20 02.11.2019
5105 Clear 15 1021 36 10000 4.1 100 10:44 02.11.2019
5106 Clear 15 1021 36 10000 2.6 80 10:25 02.11.2019
5107 Clear 14 1022 44 10000 3.1 80 09:56 02.11.2019
5108 Clear 14 1022 44 10000 3.1 80 09:38 02.11.2019
5109 Clear 14 1022 44 10000 3.1 80 09:38 02.11.2019
5110 Clear 13 1022 50 10000 4.1 70 09:18 02.11.2019
5111 Clear 13 1022 54 10000 4.6 60 08:42 02.11.2019
5112 Clear 12 1022 58 10000 4.6 60 08:21 02.11.2019
5113 Clear 11 1022 62 10000 4.1 50 07:47 02.11.2019
5114 Clear 11 1022 62 10000 4.1 50 07:28 02.11.2019
5115 Clear 10 1022 66 10000 2.6 30 06:54 02.11.2019
5116 Clear 10 1022 71 10000 3.1 40 06:29 02.11.2019
5117 Clear 10 1022 62 10000 3.1 60 05:56 02.11.2019
5118 Clear 10 1022 71 10000 2.1 80 04:53 02.11.2019
5119 Clear 10 1022 66 10000 3.6 60 04:20 02.11.2019
5120 Clear 10 1022 66 10000 3.6 60 03:46 02.11.2019
5121 Clear 11 1022 66 10000 4.6 60 02:40 02.11.2019
5122 Clear 11 1023 66 10000 4.1 80 01:42 02.11.2019
5123 Clear 11 1023 66 10000 4.1 60 01:21 02.11.2019
5124 Clear 12 1023 66 10000 5.1 60 00:43 02.11.2019
5125 Clear 12 1023 66 10000 5.7 50 00:25 02.11.2019
5126 Clear 12 1024 62 10000 4.6 50 23:46 01.11.2019
5127 Clear 12 1023 62 10000 5.7 60 23:20 01.11.2019
5128 Clear 12 1023 62 10000 5.7 60 22:57 01.11.2019
5129 Clear 12 1023 62 10000 5.7 60 22:38 01.11.2019
5130 Clear 12 1023 62 10000 5.7 60 22:20 01.11.2019
5131 Clear 12 1023 62 10000 7.2 60 21:40 01.11.2019
5132 Clear 12 1023 66 10000 7.2 60 21:22 01.11.2019
5133 Clear 12 1023 66 10000 7.7 50 20:56 01.11.2019
5134 Clear 12 1023 66 10000 7.7 50 20:38 01.11.2019
5135 Clouds 13 1022 62 10000 9.3 50 20:18 01.11.2019
5136 Clouds 13 1022 62 10000 7.2 60 19:41 01.11.2019
5137 Clouds 13 1022 62 10000 8.2 60 19:22 01.11.2019
5138 Clouds 13 1022 66 10000 7.2 50 18:58 01.11.2019
5139 Clouds 13 1022 66 10000 7.2 50 18:39 01.11.2019
5140 Clouds 13 1022 66 10000 6.7 60 18:18 01.11.2019
5141 Clouds 13 1022 71 10000 6.7 60 17:41 01.11.2019
5142 Clouds 14 1022 71 10000 9.8 70 17:23 01.11.2019
5143 Clouds 14 1021 71 10000 6.2 50 16:58 01.11.2019
5144 Clouds 14 1021 71 10000 6.2 50 16:36 01.11.2019
5145 Clouds 14 1021 71 10000 6.2 60 16:18 01.11.2019
5146 Clouds 14 1021 67 10000 7.2 50 15:41 01.11.2019
5147 Clouds 14 1020 71 10000 6.7 50 15:22 01.11.2019
5148 Clouds 14 1020 71 10000 7.2 50 14:57 01.11.2019
5149 Clouds 14 1020 71 10000 7.2 50 14:39 01.11.2019
5150 Clouds 14 1020 82 10000 6.7 40 14:21 01.11.2019
5151 Clouds 14 1020 76 10000 7.7 20 13:55 01.11.2019
5152 Clouds 14 1020 76 10000 7.7 20 13:36 01.11.2019
5153 Clouds 14 1020 67 10000 7.7 40 13:18 01.11.2019
5154 Clouds 14 1020 67 10000 7.7 40 13:18 01.11.2019
5155 Clouds 14 1020 72 10000 7.7 50 12:43 01.11.2019
5156 Clouds 15 1019 77 10000 8.2 40 12:24 01.11.2019
5157 Clouds 14 1019 82 10000 5.7 20 11:43 01.11.2019
5158 Rain 14 1019 77 8000 6.7 30 11:24 01.11.2019
5159 Clouds 14 1020 77 10000 6.7 40 10:57 01.11.2019
5160 Clouds 14 1020 77 10000 6.7 40 10:38 01.11.2019
5161 Clouds 14 1019 77 10000 6.2 40 10:20 01.11.2019
5162 Clouds 14 1019 77 10000 7.2 50 09:45 01.11.2019
5163 Clouds 14 1019 82 10000 6.2 30 09:26 01.11.2019
5164 Clouds 14 1019 87 10000 7.2 30 08:58 01.11.2019
5165 Clouds 14 1019 87 10000 7.2 30 08:40 01.11.2019
5166 Rain 14 1019 93 8000 8.2 20 08:20 01.11.2019
5167 Rain 14 1018 87 7000 7.2 20 07:52 01.11.2019
5168 Rain 14 1018 87 10000 7.2 20 07:24 01.11.2019
5169 Rain 14 1018 87 6000 5.7 30 06:56 01.11.2019
5170 Rain 14 1017 87 6000 5.7 30 06:23 01.11.2019
5171 Rain 14 1017 87 6000 5.7 30 05:59 01.11.2019
5172 Rain 14 1017 93 6000 5.1 20 05:38 01.11.2019
5173 Clouds 14 1017 87 7000 7.7 20 03:32 01.11.2019
5174 Rain 14 1017 87 6000 7.2 30 01:49 01.11.2019
5175 Rain 15 1017 87 6000 9.3 30 01:22 01.11.2019
5176 Rain 15 1017 93 6000 7.7 20 00:20 01.11.2019
5177 Rain 15 1017 93 4000 7.2 20 23:45 31.10.2019
5178 Rain 15 1017 93 2200 7.2 30 23:27 31.10.2019
5179 Rain 15 1017 93 5000 5.1 20 22:59 31.10.2019
5180 Rain 15 1017 93 5000 5.1 20 22:59 31.10.2019
5181 Rain 15 1017 93 5000 5.1 20 22:40 31.10.2019
5182 Rain 15 1017 87 7000 5.1 350 22:22 31.10.2019
5183 Clouds 15 1017 93 10000 4.1 350 21:56 31.10.2019
5184 Clouds 15 1017 93 10000 4.1 350 21:56 31.10.2019
5185 Clouds 15 1017 93 10000 4.1 360 21:37 31.10.2019
5186 Clouds 15 1017 93 10000 4.1 360 21:18 31.10.2019
5187 Clouds 15 1017 87 10000 2.6 10 20:41 31.10.2019
5188 Clouds 15 1017 87 10000 2.1 30 20:22 31.10.2019
5189 Clouds 15 1017 87 10000 2.1 30 20:22 31.10.2019
5190 Clouds 15 1017 93 10000 3.1 20 19:48 31.10.2019
5191 Clouds 15 1017 93 8000 3.6 350 19:29 31.10.2019
5192 Rain 15 1017 100 8000 4.1 340 18:59 31.10.2019
5193 Rain 15 1017 100 8000 4.1 340 18:41 31.10.2019
5194 Rain 15 1017 93 9000 3.6 350 18:22 31.10.2019
5195 Rain 15 1017 93 10000 3.1 340 17:55 31.10.2019
5196 Rain 15 1017 93 10000 3.1 340 17:36 31.10.2019
5197 Rain 15 1017 93 10000 3.6 330 17:18 31.10.2019
5198 Rain 14 1017 93 10000 4.1 350 16:41 31.10.2019
5199 Rain 14 1017 93 10000 5.1 340 16:20 31.10.2019
5200 Rain 14 1017 93 10000 5.1 340 16:20 31.10.2019
5201 Rain 15 1018 87 10000 6.7 330 15:58 31.10.2019
5202 Rain 15 1018 87 10000 6.7 330 15:40 31.10.2019
5203 Rain 15 1018 87 10000 8.2 330 15:20 31.10.2019
5204 Rain 15 1018 87 10000 8.7 330 14:57 31.10.2019
5205 Rain 15 1018 87 10000 8.7 330 14:39 31.10.2019
5206 Rain 15 1017 87 10000 10.3 330 14:20 31.10.2019
5207 Clouds 16 1018 82 10000 9.3 330 13:57 31.10.2019
5208 Clouds 16 1018 82 10000 9.3 330 13:38 31.10.2019
5209 Clouds 16 1018 82 10000 10.3 340 13:19 31.10.2019
5210 Clouds 16 1018 82 10000 7.2 330 12:54 31.10.2019
5211 Clouds 16 1018 82 10000 7.2 330 12:36 31.10.2019
5212 Clouds 16 1018 77 10000 9.3 320 12:18 31.10.2019
5213 Clouds 18 1018 72 10000 2.1 280 11:43 31.10.2019
5214 Clouds 17 1018 77 10000 2.1 210 11:19 31.10.2019
5215 Clouds 18 1018 68 10000 1.5 150 10:57 31.10.2019
5216 Clouds 18 1018 68 10000 1.5 150 10:38 31.10.2019
5217 Clouds 18 1018 72 10000 2.6 120 10:19 31.10.2019
5218 Clouds 18 1019 68 10000 2.6 100 09:43 31.10.2019
5219 Clouds 18 1019 68 10000 2.1 110 09:19 31.10.2019
5220 Clouds 17 1019 82 10000 1.5 40 08:55 31.10.2019
5221 Clouds 17 1019 88 10000 1 0 08:36 31.10.2019
5222 Clouds 17 1019 88 10000 1 0 08:18 31.10.2019
5223 Clouds 16 1019 87 10000 1.5 50 07:42 31.10.2019
5224 Clouds 16 1019 87 10000 1.5 50 07:42 31.10.2019
5225 Rain 16 1019 87 10000 1.5 70 07:23 31.10.2019
5226 Rain 16 1019 93 10000 1 50 06:39 31.10.2019
5227 Rain 16 1019 93 10000 2.1 70 06:20 31.10.2019
5228 Clouds 15 1019 93 10000 2.1 20 04:40 31.10.2019
5229 Clouds 15 1019 93 10000 3.1 360 02:46 31.10.2019
5230 Clouds 15 1019 93 10000 3.1 350 01:53 31.10.2019
5231 Clouds 16 1020 93 10000 2.1 340 00:42 31.10.2019
5232 Clouds 16 1020 93 10000 1.5 10 00:23 31.10.2019
5233 Clouds 16 1020 87 10000 2.6 10 23:34 30.10.2019
5234 Clouds 16 1020 87 10000 2.6 20 22:56 30.10.2019
5235 Clouds 16 1020 87 10000 2.6 20 22:38 30.10.2019
5236 Clouds 16 1020 87 10000 2.6 20 22:18 30.10.2019
5237 Clouds 16 1020 82 10000 3.1 40 21:54 30.10.2019
5238 Clouds 16 1020 82 10000 3.1 40 21:36 30.10.2019
5239 Clouds 16 1020 82 10000 2.6 40 21:18 30.10.2019
5240 Clouds 16 1021 82 10000 2.1 20 20:42 30.10.2019
5241 Clouds 16 1020 82 10000 2.6 50 20:22 30.10.2019
5242 Clouds 17 1020 82 10000 2.6 60 19:59 30.10.2019
5243 Clouds 17 1020 82 10000 2.6 60 19:39 30.10.2019
5244 Clouds 17 1020 82 10000 3.6 40 19:21 30.10.2019
5245 Clouds 17 1020 82 10000 3.6 40 18:59 30.10.2019
5246 Clouds 17 1020 82 10000 3.6 40 18:37 30.10.2019
5247 Clouds 17 1020 77 10000 4.1 50 18:18 30.10.2019
5248 Clouds 17 1020 82 10000 3.6 20 17:55 30.10.2019
5249 Clouds 17 1020 82 10000 3.6 20 17:36 30.10.2019
5250 Clouds 17 1020 82 10000 4.6 360 17:18 30.10.2019
5251 Clouds 18 1020 77 10000 5.7 350 16:41 30.10.2019
5252 Clouds 18 1020 72 10000 5.1 350 16:23 30.10.2019
5253 Clouds 18 1020 68 10000 5.1 10 15:57 30.10.2019
5254 Clouds 18 1020 68 10000 5.1 10 15:38 30.10.2019
5255 Clouds 19 1019 68 10000 5.1 350 15:19 30.10.2019
5256 Clouds 19 1020 77 10000 3.1 210 14:56 30.10.2019
5257 Clouds 19 1020 77 10000 3.1 240 14:38 30.10.2019
5258 Clouds 19 1020 77 10000 3.1 240 14:20 30.10.2019
5259 Clouds 20 1020 68 10000 2.6 220 13:54 30.10.2019
5260 Clouds 20 1020 68 10000 2.6 220 13:36 30.10.2019
5261 Clouds 20 1020 72 10000 2.1 200 13:18 30.10.2019
5262 Clouds 19 1020 72 10000 3.1 200 12:42 30.10.2019
5263 Clouds 20 1020 72 10000 3.1 190 12:23 30.10.2019
5264 Clouds 20 1020 68 10000 3.1 200 11:54 30.10.2019
5265 Clouds 19 1020 68 10000 3.1 200 11:36 30.10.2019
5266 Clouds 19 1020 68 10000 3.1 200 11:36 30.10.2019
5267 Clouds 19 1020 72 10000 2.6 200 11:18 30.10.2019
5268 Clouds 18 1020 77 8000 2.6 200 10:41 30.10.2019
5269 Clouds 19 1020 72 8000 1.5 0 10:22 30.10.2019
5270 Clouds 18 1020 72 7000 2.1 90 09:41 30.10.2019
5271 Clouds 17 1020 82 6000 2.1 100 09:22 30.10.2019
5272 Clouds 17 1020 82 6000 2.1 100 09:22 30.10.2019
5273 Mist 17 1020 77 5000 1 0 08:56 30.10.2019
5274 Mist 17 1020 77 5000 1 0 08:38 30.10.2019
5275 Clear 16 1020 82 6000 1 0 08:18 30.10.2019
5276 Mist 14 1020 93 4000 1.5 330 07:43 30.10.2019
5277 Mist 13 1019 93 4000 1.5 360 06:59 30.10.2019
5278 Mist 13 1019 93 4000 1.5 360 06:40 30.10.2019
5279 Clouds 12 1018 93 6000 2.1 350 05:58 30.10.2019
5280 Clouds 12 1018 93 6000 2.1 350 05:39 30.10.2019
5281 Clouds 13 1018 93 6000 3.1 350 03:54 30.10.2019
5282 Clouds 12 1018 100 7000 2.6 350 03:23 30.10.2019
5283 Clouds 12 1018 93 7000 3.1 360 02:49 30.10.2019
5284 Clouds 12 1018 93 7000 3.1 350 01:49 30.10.2019
5285 Clouds 13 1018 100 10000 3.1 350 00:43 30.10.2019
5286 Clouds 13 1018 93 10000 2.6 350 00:25 30.10.2019
5287 Clouds 13 1018 93 10000 2.1 350 23:41 29.10.2019
5288 Clouds 14 1018 87 10000 2.1 350 23:22 29.10.2019
5289 Clouds 14 1017 93 10000 1.5 20 22:45 29.10.2019
5290 Clouds 14 1017 87 10000 1.5 20 22:20 29.10.2019
5291 Clouds 15 1017 82 10000 2.1 50 21:55 29.10.2019
5292 Clouds 15 1017 82 10000 2.1 50 21:37 29.10.2019
5293 Clouds 15 1017 77 10000 2.1 60 21:19 29.10.2019
5294 Clouds 15 1017 77 10000 2.1 50 20:42 29.10.2019
5295 Clouds 16 1017 82 10000 2.1 40 20:23 29.10.2019
5296 Clouds 16 1017 82 10000 1.5 60 19:59 29.10.2019
5297 Clouds 16 1017 77 10000 1.5 40 19:40 29.10.2019
5298 Clouds 16 1017 77 10000 1.5 40 19:22 29.10.2019
5299 Clouds 16 1017 82 10000 2.6 50 18:59 29.10.2019
5300 Clouds 16 1017 82 10000 2.6 50 18:40 29.10.2019
5301 Clouds 17 1017 72 10000 3.6 40 18:21 29.10.2019
5302 Clouds 17 1017 72 10000 3.1 50 17:58 29.10.2019
5303 Clouds 17 1017 72 10000 3.1 50 17:39 29.10.2019
5304 Clear 17 1017 72 10000 3.6 40 17:21 29.10.2019
5305 Clear 17 1017 72 10000 3.6 40 17:21 29.10.2019
5306 Clear 17 1016 68 10000 3.1 40 16:57 29.10.2019
5307 Clear 18 1016 68 10000 3.1 40 16:38 29.10.2019
5308 Clouds 18 1016 72 10000 1.5 290 16:18 29.10.2019
5309 Clouds 19 1016 68 10000 2.1 250 15:42 29.10.2019
5310 Clouds 19 1016 72 10000 3.6 240 15:21 29.10.2019
5311 Clouds 19 1016 72 10000 3.6 240 14:58 29.10.2019
5312 Clouds 19 1016 72 10000 3.6 240 14:39 29.10.2019
5313 Clouds 19 1016 72 10000 3.6 240 14:39 29.10.2019
5314 Clouds 19 1016 68 10000 3.6 240 14:21 29.10.2019
5315 Clouds 19 1016 68 10000 3.6 240 13:57 29.10.2019
5316 Clouds 19 1016 68 10000 3.6 240 13:38 29.10.2019
5317 Clouds 19 1017 72 10000 4.1 220 13:20 29.10.2019
5318 Clouds 20 1017 68 10000 3.6 230 12:42 29.10.2019
5319 Clouds 20 1017 68 10000 3.1 210 12:24 29.10.2019
5320 Clouds 20 1017 64 10000 3.6 200 11:55 29.10.2019
5321 Clouds 19 1017 64 10000 3.6 200 11:36 29.10.2019
5322 Clouds 19 1017 64 10000 3.1 190 11:18 29.10.2019
5323 Clouds 19 1017 64 10000 3.6 200 10:56 29.10.2019
5324 Clouds 19 1017 64 10000 3.6 200 10:37 29.10.2019
5325 Clouds 19 1017 64 10000 1.5 0 10:19 29.10.2019
5326 Clouds 19 1017 64 10000 1.5 20 09:41 29.10.2019
5327 Clouds 19 1017 64 10000 1.5 20 09:41 29.10.2019
5328 Clouds 18 1017 64 10000 1 0 09:23 29.10.2019
5329 Clouds 18 1017 68 10000 1.5 50 08:56 29.10.2019
5330 Clouds 18 1017 68 10000 1.5 50 08:37 29.10.2019
5331 Clouds 17 1017 77 10000 1.5 360 08:18 29.10.2019
5332 Clouds 16 1017 87 10000 2.6 340 07:47 29.10.2019
5333 Clouds 15 1016 93 10000 2.6 350 07:20 29.10.2019
5334 Clouds 14 1016 100 8000 3.1 350 06:52 29.10.2019
5335 Clouds 14 1016 100 8000 3.1 350 06:29 29.10.2019
5336 Clouds 14 1015 100 7000 3.1 350 05:54 29.10.2019
5337 Clouds 14 1015 100 7000 3.1 350 05:36 29.10.2019
5338 Clouds 14 1015 93 7000 3.1 340 04:39 29.10.2019
5339 Clouds 14 1015 100 6000 2.6 360 02:34 29.10.2019
5340 Clouds 14 1015 100 8000 3.1 350 01:56 29.10.2019
5341 Clouds 14 1015 100 8000 3.1 350 01:34 29.10.2019
5342 Clouds 14 1015 93 8000 3.6 350 00:52 29.10.2019
5343 Clouds 14 1015 93 10000 3.1 350 23:59 28.10.2019
5344 Clouds 14 1015 93 10000 3.1 350 23:37 28.10.2019
5345 Clouds 14 1015 93 10000 3.6 350 23:19 28.10.2019
5346 Clouds 15 1015 100 10000 3.6 350 22:39 28.10.2019
5347 Clouds 15 1015 93 10000 3.1 340 22:20 28.10.2019
5348 Clouds 15 1015 93 10000 3.1 340 21:57 28.10.2019
5349 Clouds 15 1015 93 10000 3.1 340 21:39 28.10.2019
5350 Clouds 15 1015 93 10000 2.1 340 21:21 28.10.2019
5351 Clouds 15 1015 93 10000 2.1 340 20:57 28.10.2019
5352 Clouds 15 1015 93 10000 1.5 10 20:39 28.10.2019
5353 Clear 16 1015 82 10000 1.5 20 20:20 28.10.2019
5354 Clear 16 1015 82 10000 1.5 20 20:20 28.10.2019
5355 Clear 17 1015 82 10000 2.6 20 19:54 28.10.2019
5356 Clear 17 1015 82 10000 2.6 20 19:36 28.10.2019
5357 Clear 17 1015 82 10000 2.6 40 19:18 28.10.2019
5358 Clear 17 1015 77 10000 2.6 30 18:55 28.10.2019
5359 Clear 17 1015 77 10000 2.6 30 18:37 28.10.2019
5360 Clear 17 1015 77 10000 4.1 30 18:18 28.10.2019
5361 Clear 17 1014 77 10000 3.6 20 17:55 28.10.2019
5362 Clear 17 1014 77 10000 3.6 20 17:36 28.10.2019
5363 Clear 18 1014 72 10000 4.6 20 17:18 28.10.2019
5364 Clear 18 1014 72 10000 5.1 30 16:44 28.10.2019
5365 Clear 18 1014 72 10000 5.7 20 16:24 28.10.2019
5366 Clear 18 1014 72 10000 5.7 10 15:59 28.10.2019
5367 Clear 18 1014 72 10000 5.7 10 15:40 28.10.2019
5368 Clear 18 1014 72 10000 5.7 10 15:22 28.10.2019
5369 Clear 19 1014 68 10000 4.1 40 14:58 28.10.2019
5370 Clear 19 1014 68 10000 4.1 40 14:40 28.10.2019
5371 Clouds 19 1014 68 10000 4.1 30 14:19 28.10.2019
5372 Clouds 20 1014 68 10000 4.1 350 13:58 28.10.2019
5373 Clouds 20 1014 68 10000 4.1 350 13:40 28.10.2019
5374 Clouds 20 1014 60 10000 3.1 40 13:18 28.10.2019
5375 Clouds 20 1014 64 10000 3.1 20 12:43 28.10.2019
5376 Clouds 19 1014 68 10000 3.1 30 12:21 28.10.2019
5377 Clouds 19 1014 68 10000 2.6 0 11:57 28.10.2019
5378 Clouds 19 1014 68 10000 2.6 0 11:37 28.10.2019
5379 Clouds 19 1015 64 10000 3.1 80 11:18 28.10.2019
5380 Clouds 19 1015 68 10000 2.6 40 10:40 28.10.2019
5381 Clouds 18 1015 72 10000 3.1 30 10:21 28.10.2019
5382 Clouds 18 1015 72 10000 3.6 50 09:57 28.10.2019
5383 Clouds 18 1015 72 10000 3.6 50 09:39 28.10.2019
5384 Clouds 18 1015 77 10000 3.1 50 09:19 28.10.2019
5385 Clouds 18 1015 72 10000 3.1 60 08:57 28.10.2019
5386 Clouds 17 1015 72 10000 3.1 60 08:38 28.10.2019
5387 Clouds 17 1015 77 10000 2.6 70 08:19 28.10.2019
5388 Clouds 16 1015 77 10000 3.6 40 07:56 28.10.2019
5389 Clouds 16 1015 77 10000 3.6 40 07:56 28.10.2019
5390 Clouds 16 1015 77 10000 3.6 40 07:36 28.10.2019
5391 Clouds 15 1015 82 10000 3.1 60 07:18 28.10.2019
5392 Clouds 14 1015 87 10000 1.5 40 06:39 28.10.2019
5393 Clouds 14 1015 82 10000 2.6 30 05:40 28.10.2019
5394 Clouds 14 1016 87 10000 3.6 350 03:45 28.10.2019
5395 Clouds 14 1016 87 10000 2.6 20 02:46 28.10.2019
5396 Clear 15 1016 82 10000 3.6 20 01:55 28.10.2019
5397 Clear 15 1016 82 10000 4.6 350 00:56 28.10.2019
5398 Clear 15 1016 82 10000 4.6 350 00:32 28.10.2019
5399 Clear 16 1017 82 10000 4.1 350 23:47 27.10.2019
5400 Clear 16 1017 87 10000 3.1 10 23:23 27.10.2019
5401 Clear 16 1017 87 10000 3.1 10 23:23 27.10.2019
5402 Clear 16 1017 82 10000 2.6 20 22:58 27.10.2019
5403 Clear 16 1017 87 10000 3.1 10 22:58 27.10.2019
5404 Clear 15 1017 82 10000 2.6 20 22:39 27.10.2019
5405 Clear 16 1017 72 10000 3.1 30 22:21 27.10.2019
5406 Clear 16 1018 72 10000 2.6 50 21:57 27.10.2019
5407 Clear 16 1018 72 10000 2.6 50 21:39 27.10.2019
5408 Clear 16 1018 72 10000 2.6 60 21:20 27.10.2019
5409 Clear 16 1018 67 10000 3.1 70 20:56 27.10.2019
5410 Clear 16 1018 67 10000 3.1 70 20:38 27.10.2019
5411 Clear 16 1018 67 10000 3.6 50 20:19 27.10.2019
5412 Clear 16 1018 67 10000 4.1 50 19:54 27.10.2019
5413 Clear 16 1018 67 10000 4.1 50 19:36 27.10.2019
5414 Clear 17 1018 72 10000 4.6 60 19:18 27.10.2019
5415 Clear 17 1018 72 10000 5.1 50 18:54 27.10.2019
5416 Clear 17 1018 72 10000 5.1 50 18:36 27.10.2019
5417 Clear 17 1018 72 10000 4.1 50 18:18 27.10.2019
5418 Clear 17 1018 68 10000 4.6 40 17:39 27.10.2019
5419 Clear 17 1018 68 10000 4.6 40 17:39 27.10.2019
5420 Clear 17 1018 68 10000 5.1 30 17:19 27.10.2019
5421 Clear 18 1018 68 10000 5.7 30 16:57 27.10.2019
5422 Clear 18 1018 68 10000 5.7 30 16:39 27.10.2019
5423 Clouds 18 1018 68 10000 6.2 20 16:20 27.10.2019
5424 Clouds 18 1018 63 10000 6.2 20 15:56 27.10.2019
5425 Clouds 18 1018 63 10000 6.2 20 15:37 27.10.2019
5426 Clouds 19 1018 63 10000 5.7 30 15:19 27.10.2019
5427 Clouds 18 1018 68 10000 5.7 30 14:42 27.10.2019
5428 Clouds 19 1018 64 10000 6.7 10 14:20 27.10.2019
5429 Clouds 19 1019 60 10000 6.2 10 13:57 27.10.2019
5430 Clouds 19 1019 56 10000 5.7 40 13:38 27.10.2019
5431 Clouds 19 1019 56 10000 5.7 40 13:19 27.10.2019
5432 Clouds 20 1019 60 10000 6.7 10 12:45 27.10.2019
5433 Clouds 19 1019 60 10000 6.2 10 12:24 27.10.2019
5434 Clouds 19 1019 60 10000 6.2 10 11:59 27.10.2019
5435 Clouds 18 1020 68 10000 6.7 10 11:40 27.10.2019
5436 Clouds 19 1020 68 10000 6.2 10 11:21 27.10.2019
5437 Clouds 18 1020 68 10000 5.7 20 10:44 27.10.2019
5438 Clouds 18 1021 63 10000 7.2 20 10:24 27.10.2019
5439 Clouds 19 1021 68 10000 5.7 10 09:56 27.10.2019
5440 Clouds 19 1021 68 10000 5.7 10 09:37 27.10.2019
5441 Clouds 19 1021 68 10000 5.1 10 09:18 27.10.2019
5442 Clouds 19 1021 68 10000 5.1 10 09:18 27.10.2019
5443 Clouds 19 1021 68 10000 5.1 10 09:18 27.10.2019
5444 Clouds 18 1021 72 10000 5.1 50 08:41 27.10.2019
5445 Clouds 17 1021 77 10000 4.1 20 08:22 27.10.2019
5446 Clouds 17 1021 77 10000 4.6 10 07:56 27.10.2019
5447 Clouds 17 1021 77 10000 4.6 10 07:38 27.10.2019
5448 Clouds 17 1021 77 10000 5.1 10 07:19 27.10.2019
5449 Clouds 16 1021 82 10000 4.1 10 06:42 27.10.2019
5450 Clouds 16 1021 82 10000 4.1 20 06:23 27.10.2019
5451 Clouds 16 1021 82 10000 4.6 10 05:38 27.10.2019
5452 Clouds 17 1021 87 10000 3.1 10 04:49 27.10.2019
5453 Clouds 17 1021 77 10000 5.7 20 02:48 27.10.2019
5454 Clouds 17 1021 77 10000 3.1 30 02:18 27.10.2019
5455 Clouds 17 1022 82 10000 2.6 30 01:51 27.10.2019
5456 Clouds 17 1022 82 10000 3.6 10 01:23 27.10.2019
5457 Clouds 17 1022 77 10000 4.1 20 00:48 27.10.2019
5458 Clouds 17 1022 72 10000 4.1 10 00:28 27.10.2019
5459 Clouds 17 1022 77 10000 5.1 20 23:56 26.10.2019
5460 Clouds 17 1022 77 10000 5.1 20 23:38 26.10.2019
5461 Clouds 17 1022 77 10000 4.1 20 23:20 26.10.2019
5462 Clouds 17 1022 77 10000 4.1 30 22:55 26.10.2019
5463 Clouds 17 1022 77 10000 4.6 30 22:36 26.10.2019
5464 Clouds 17 1022 77 10000 4.6 30 22:18 26.10.2019
5465 Clouds 17 1022 77 10000 4.6 30 22:18 26.10.2019
5466 Clouds 17 1022 72 10000 5.1 10 21:43 26.10.2019
5467 Clouds 17 1023 72 10000 5.1 20 21:21 26.10.2019
5468 Clouds 17 1023 72 10000 5.7 10 20:55 26.10.2019
5469 Clouds 18 1023 72 10000 5.7 10 20:36 26.10.2019
5470 Clouds 18 1023 72 10000 5.7 10 20:36 26.10.2019
5471 Clouds 18 1023 72 10000 6.2 20 20:18 26.10.2019
5472 Clouds 18 1023 72 10000 5.1 20 19:41 26.10.2019
5473 Clouds 18 1023 72 10000 5.1 20 19:20 26.10.2019
5474 Clouds 18 1023 68 10000 6.2 20 18:57 26.10.2019
5475 Clouds 18 1023 68 10000 6.2 20 18:38 26.10.2019
5476 Clouds 18 1022 68 10000 6.2 10 18:18 26.10.2019
5477 Clouds 18 1022 68 10000 6.7 30 17:56 26.10.2019
5478 Clouds 18 1022 68 10000 6.7 30 17:37 26.10.2019
5479 Clouds 18 1022 63 10000 7.2 10 17:18 26.10.2019
5480 Clouds 19 1022 59 10000 5.1 20 16:43 26.10.2019
5481 Clouds 19 1022 63 10000 6.7 20 16:24 26.10.2019
5482 Clouds 19 1022 60 10000 6.7 10 15:43 26.10.2019
5483 Clouds 19 1022 56 10000 7.2 360 15:21 26.10.2019
5484 Clouds 20 1022 52 10000 5.7 10 14:56 26.10.2019
5485 Clouds 20 1022 52 10000 5.7 10 14:37 26.10.2019
5486 Clouds 20 1022 46 10000 5.7 30 14:18 26.10.2019
5487 Clouds 19 1022 65 0 4.97 26 13:42 26.10.2019
5488 Clouds 19 1022 65 0 4.97 26 13:22 26.10.2019
5489 Clouds 19 1022 56 10000 4.6 10 12:49 26.10.2019
5490 Clouds 19 1023 60 10000 6.7 10 12:25 26.10.2019
5491 Clouds 20 1023 60 10000 6.7 10 11:56 26.10.2019
5492 Clouds 19 1023 60 10000 6.7 10 11:37 26.10.2019
5493 Clouds 19 1023 60 10000 6.7 10 11:18 26.10.2019
5494 Clouds 19 1023 60 10000 6.2 10 10:44 26.10.2019
5495 Clouds 19 1023 63 10000 5.1 30 10:24 26.10.2019
5496 Clouds 19 1023 56 10000 5.7 10 09:48 26.10.2019
5497 Clouds 18 1023 59 10000 3.6 30 09:28 26.10.2019
5498 Clouds 17 1023 63 10000 2.1 40 08:44 26.10.2019
5499 Clouds 17 1023 63 10000 3.1 30 08:26 26.10.2019
5500 Clouds 17 1022 63 10000 3.1 20 07:56 26.10.2019
5501 Clouds 17 1022 63 10000 3.1 20 07:33 26.10.2019
5502 Clouds 16 1022 72 10000 3.6 10 06:48 26.10.2019
5503 Clouds 16 1022 72 10000 3.6 10 06:29 26.10.2019
5504 Clouds 16 1021 72 10000 4.1 20 05:21 26.10.2019
5505 Clouds 16 1021 77 10000 3.1 30 04:44 26.10.2019
5506 Clear 17 1021 77 10000 4.6 10 03:22 26.10.2019
5507 Clear 17 1021 82 10000 4.1 20 01:58 26.10.2019
5508 Clear 17 1021 82 10000 4.1 20 01:37 26.10.2019
5509 Clear 17 1021 82 10000 3.1 20 00:31 26.10.2019
5510 Clear 17 1021 82 10000 3.1 20 23:47 25.10.2019
5511 Clear 17 1021 82 10000 3.6 10 23:21 25.10.2019
5512 Clear 17 1021 82 10000 3.6 360 22:43 25.10.2019
5513 Clouds 17 1020 82 10000 3.1 20 22:25 25.10.2019
5514 Clouds 17 1020 77 10000 3.1 40 21:58 25.10.2019
5515 Clouds 18 1020 77 10000 3.1 40 21:40 25.10.2019
5516 Clouds 18 1020 77 10000 3.1 50 21:22 25.10.2019
5517 Clouds 18 1020 77 10000 3.1 50 20:59 25.10.2019
5518 Clouds 18 1020 77 10000 3.1 50 20:59 25.10.2019
5519 Clouds 18 1020 77 10000 3.6 30 20:41 25.10.2019
5520 Clouds 18 1020 77 10000 4.1 40 20:19 25.10.2019
5521 Clouds 18 1020 82 10000 5.1 30 19:45 25.10.2019
5522 Clouds 18 1020 77 10000 5.1 30 19:26 25.10.2019
5523 Clouds 18 1020 77 10000 5.1 30 18:47 25.10.2019
5524 Clouds 18 1019 77 10000 6.2 20 18:28 25.10.2019
5525 Clouds 18 1019 72 10000 6.7 30 17:54 25.10.2019
5526 Clouds 19 1019 72 10000 6.7 30 17:36 25.10.2019
5527 Clouds 19 1019 72 10000 6.7 20 17:18 25.10.2019
5528 Clouds 19 1018 68 10000 7.2 20 16:42 25.10.2019
5529 Clouds 20 1018 68 10000 7.2 20 16:21 25.10.2019
5530 Clouds 20 1018 64 10000 6.2 40 15:41 25.10.2019
5531 Clouds 20 1018 60 10000 7.2 30 15:23 25.10.2019
5532 Clouds 21 1018 60 10000 6.7 20 14:59 25.10.2019
5533 Clouds 20 1018 60 10000 6.7 20 14:40 25.10.2019
5534 Clouds 21 1018 56 10000 7.2 10 14:22 25.10.2019
5535 Clouds 21 1018 56 10000 5.7 60 13:44 25.10.2019
5536 Clouds 20 1018 56 10000 5.1 30 13:25 25.10.2019
5537 Clouds 21 1019 56 10000 5.1 30 12:58 25.10.2019
5538 Clouds 21 1019 56 10000 5.1 30 12:40 25.10.2019
5539 Clouds 21 1019 56 10000 5.1 30 12:40 25.10.2019
5540 Clouds 21 1019 56 10000 4.1 60 12:20 25.10.2019
5541 Clouds 20 1019 60 10000 5.1 20 11:42 25.10.2019
5542 -273 0 0 0 0 0 11:24 25.10.2019
5543 Clouds 20 1019 60 10000 4.6 70 10:59 25.10.2019
5544 Clouds 19 1019 64 10000 5.7 30 10:39 25.10.2019
5545 Clouds 19 1019 68 10000 4.6 40 10:21 25.10.2019
5546 Clouds 18 1019 68 10000 5.1 50 09:57 25.10.2019
5547 Clouds 18 1019 68 10000 5.1 50 09:38 25.10.2019
5548 Clouds 18 1019 68 10000 5.1 50 09:38 25.10.2019
5549 Clouds 18 1019 72 10000 3.6 40 09:19 25.10.2019
5550 Clouds 18 1019 82 10000 3.6 30 08:44 25.10.2019
5551 Clouds 17 1019 82 10000 3.1 30 08:24 25.10.2019
5552 Clouds 17 1019 88 10000 2.6 50 07:52 25.10.2019
5553 Clouds 17 1019 88 10000 2.6 50 07:34 25.10.2019
5554 Clouds 16 1018 87 10000 3.6 20 06:41 25.10.2019
5555 Clouds 16 1018 87 10000 3.6 10 05:51 25.10.2019
5556 Clouds 16 1018 87 10000 3.6 10 05:32 25.10.2019
5557 Clouds 16 1018 87 10000 2.1 30 04:42 25.10.2019
5558 Clouds 15 1018 87 10000 2.6 20 03:29 25.10.2019
5559 Clear 16 1018 82 10000 2.6 20 01:53 25.10.2019
5560 Clouds 16 1018 82 10000 2.1 50 00:47 25.10.2019
5561 Clouds 17 1018 82 10000 3.1 20 00:18 25.10.2019
5562 Clear 17 1018 82 10000 3.1 20 23:40 24.10.2019
5563 Clear 17 1018 82 10000 3.1 30 23:21 24.10.2019
5564 Clear 17 1019 77 10000 3.1 30 22:54 24.10.2019
5565 Clouds 17 1019 77 10000 2.6 20 22:36 24.10.2019
5566 Clouds 17 1019 77 10000 2.6 20 22:18 24.10.2019
5567 Clear 18 1019 72 10000 3.6 50 21:55 24.10.2019
5568 Clear 18 1019 72 10000 3.6 50 21:37 24.10.2019
5569 Clear 18 1019 72 10000 3.6 50 21:37 24.10.2019
5570 Clear 18 1019 72 10000 4.1 40 21:18 24.10.2019
5571 Clear 18 1019 72 10000 4.1 40 21:18 24.10.2019
5572 Clear 18 1019 72 10000 5.1 50 20:55 24.10.2019
5573 Clear 18 1019 72 10000 5.1 50 20:55 24.10.2019
5574 Clear 18 1019 72 10000 5.1 50 20:37 24.10.2019
5575 Clear 18 1019 72 10000 4.6 50 20:18 24.10.2019
5576 Clear 18 1019 77 10000 5.1 50 19:42 24.10.2019
5577 Clear 18 1019 72 10000 5.7 40 19:23 24.10.2019
5578 Clear 18 1019 72 10000 5.1 40 18:58 24.10.2019
5579 Clear 18 1019 72 10000 5.1 40 18:39 24.10.2019
5580 Clear 18 1019 68 10000 5.7 40 18:21 24.10.2019
5581 Clear 19 1019 68 10000 7.2 30 17:57 24.10.2019
5582 Clear 19 1018 68 10000 7.2 30 17:37 24.10.2019
5583 Clear 19 1018 68 10000 7.2 30 17:18 24.10.2019
5584 Clear 19 1018 64 10000 6.7 40 16:42 24.10.2019
5585 Clear 20 1018 60 10000 6.2 40 16:23 24.10.2019
5586 Clear 20 1018 60 10000 6.2 30 15:59 24.10.2019
5587 Clear 20 1018 60 10000 6.2 40 15:59 24.10.2019
5588 Clear 20 1018 60 10000 6.2 30 15:41 24.10.2019
5589 Clear 20 1019 60 10000 5.7 40 15:23 24.10.2019
5590 Clear 20 1019 60 10000 5.7 40 14:59 24.10.2019
5591 Clear 21 1018 56 10000 6.7 40 14:41 24.10.2019
5592 Clear 21 1018 56 10000 6.7 40 14:41 24.10.2019
5593 Clouds 20 1019 53 10000 6.2 30 14:22 24.10.2019
5594 Clouds 21 1019 56 10000 5.7 40 13:57 24.10.2019
5595 Clouds 21 1019 56 10000 5.7 40 13:37 24.10.2019
5596 Clouds 21 1019 56 10000 6.2 30 13:18 24.10.2019
5597 Clouds 21 1019 56 10000 6.7 20 12:55 24.10.2019
5598 Clouds 21 1019 56 10000 6.7 20 12:37 24.10.2019
5599 Clouds 21 1020 56 10000 5.7 20 12:18 24.10.2019
5600 Clouds 21 1020 53 10000 5.7 50 11:54 24.10.2019
5601 Clouds 20 1020 53 10000 5.7 50 11:36 24.10.2019
5602 Clouds 20 1020 56 10000 4.6 60 11:18 24.10.2019
5603 Clouds 20 1021 60 10000 5.1 70 10:41 24.10.2019
5604 Clouds 19 1021 60 10000 5.7 70 10:22 24.10.2019
5605 Clouds 19 1021 63 10000 5.1 70 09:39 24.10.2019
5606 Clouds 19 1021 63 10000 4.6 70 09:19 24.10.2019
5607 Clouds 18 1021 72 10000 3.1 50 08:57 24.10.2019
5608 Clouds 18 1021 72 10000 3.1 50 08:38 24.10.2019
5609 Clouds 18 1021 72 10000 3.1 30 08:18 24.10.2019
5610 Clouds 18 1021 72 10000 3.1 30 08:18 24.10.2019
5611 Clouds 17 1021 77 10000 2.1 30 07:46 24.10.2019
5612 Clouds 17 1020 77 10000 2.6 20 07:23 24.10.2019
5613 Clouds 17 1020 77 10000 3.1 50 06:50 24.10.2019
5614 Clouds 17 1020 77 10000 3.1 50 06:32 24.10.2019
5615 Clouds 16 1020 77 10000 3.1 30 05:52 24.10.2019
5616 Clouds 16 1020 77 10000 3.1 30 05:30 24.10.2019
5617 Clouds 16 1020 82 10000 3.1 20 03:51 24.10.2019
5618 Clouds 16 1020 87 10000 2.6 10 03:26 24.10.2019
5619 Clouds 16 1020 87 10000 2.6 10 02:29 24.10.2019
5620 Clouds 16 1021 87 10000 2.6 20 01:57 24.10.2019
5621 Clouds 16 1021 87 10000 2.6 20 01:30 24.10.2019
5622 Clouds 16 1021 87 10000 3.1 340 00:47 24.10.2019
5623 Clouds 16 1021 82 10000 1.5 20 00:23 24.10.2019
5624 Clouds 16 1021 82 10000 2.1 10 23:44 23.10.2019
5625 Clear 16 1021 77 10000 2.6 40 23:24 23.10.2019
5626 Clear 17 1021 77 10000 3.6 60 22:57 23.10.2019
5627 Clear 17 1021 77 10000 3.6 60 22:38 23.10.2019
5628 Clear 17 1021 82 10000 3.1 60 22:19 23.10.2019
5629 Clear 17 1021 82 10000 3.1 40 21:58 23.10.2019
5630 Clear 17 1021 82 10000 3.1 40 21:39 23.10.2019
5631 Clear 17 1021 82 10000 3.1 30 21:20 23.10.2019
5632 Clear 17 1021 77 10000 3.6 20 20:58 23.10.2019
5633 Clear 18 1021 77 10000 3.6 20 20:39 23.10.2019
5634 Clear 18 1021 72 10000 5.1 40 20:20 23.10.2019
5635 Clear 18 1021 77 10000 3.1 40 19:58 23.10.2019
5636 Clear 18 1021 77 10000 3.1 40 19:39 23.10.2019
5637 Clouds 18 1021 77 10000 4.6 40 19:18 23.10.2019
5638 Clouds 18 1021 72 10000 5.1 40 18:55 23.10.2019
5639 Clouds 18 1021 72 10000 6.2 40 18:36 23.10.2019
5640 Clouds 18 1021 72 10000 6.2 40 18:18 23.10.2019
5641 Clouds 18 1021 72 10000 6.7 30 17:44 23.10.2019
5642 Clouds 19 1021 68 10000 7.2 30 17:20 23.10.2019
5643 Clouds 19 1021 68 10000 7.2 30 17:20 23.10.2019
5644 Clouds 19 1021 68 10000 8.7 20 16:57 23.10.2019
5645 Clouds 19 1021 68 10000 8.7 20 16:38 23.10.2019
5646 Clouds 19 1021 64 10000 7.7 30 16:19 23.10.2019
5647 Clouds 20 1021 64 10000 7.7 20 15:42 23.10.2019
5648 Clouds 20 1021 56 10000 7.7 20 15:22 23.10.2019
5649 Clear 20 1021 60 10000 7.2 20 14:58 23.10.2019
5650 Clear 20 1021 60 10000 7.2 20 14:38 23.10.2019
5651 Clouds 20 1021 56 10000 7.7 20 14:20 23.10.2019
5652 Clouds 20 1021 56 10000 7.2 20 13:59 23.10.2019
5653 Clouds 20 1021 56 10000 7.2 20 13:40 23.10.2019
5654 Clouds 21 1021 53 10000 7.2 10 13:22 23.10.2019
5655 Clouds 20 1021 56 10000 5.7 60 12:56 23.10.2019
5656 Clouds 20 1021 56 10000 5.7 60 12:37 23.10.2019
5657 Clouds 20 1022 56 10000 5.7 40 12:18 23.10.2019
5658 Clouds 20 1022 56 10000 6.2 40 11:56 23.10.2019
5659 Clouds 20 1022 56 10000 6.2 40 11:37 23.10.2019
5660 Clouds 20 1022 60 10000 6.2 20 11:19 23.10.2019
5661 Clouds 20 1022 60 10000 6.2 20 11:19 23.10.2019
5662 Clouds 19 1023 64 10000 5.7 50 10:45 23.10.2019
5663 Clouds 19 1023 68 10000 6.7 30 10:25 23.10.2019
5664 Clouds 19 1023 68 10000 6.7 40 09:55 23.10.2019
5665 Clouds 19 1023 68 10000 6.7 40 09:36 23.10.2019
5666 Clouds 18 1023 72 10000 5.1 30 09:18 23.10.2019
5667 Clouds 18 1023 77 10000 5.1 30 08:41 23.10.2019
5668 Clouds 17 1023 77 10000 4.1 20 08:23 23.10.2019
5669 Clouds 17 1023 77 10000 4.1 20 07:46 23.10.2019
5670 Clouds 17 1022 77 10000 5.7 10 07:22 23.10.2019
5671 Clouds 16 1022 82 10000 3.6 20 06:47 23.10.2019
5672 Clouds 16 1022 82 10000 4.6 20 06:22 23.10.2019
5673 Clouds 16 1022 82 10000 5.1 20 05:47 23.10.2019
5674 Clouds 16 1022 82 10000 5.1 20 04:54 23.10.2019
5675 Clouds 16 1022 82 10000 4.1 30 03:35 23.10.2019
5676 Clouds 17 1022 77 10000 4.6 30 02:41 23.10.2019
5677 Clouds 17 1022 72 10000 4.6 20 01:33 23.10.2019
5678 Clouds 17 1022 77 10000 6.2 10 00:56 23.10.2019
5679 Clouds 17 1022 72 10000 5.1 10 00:28 23.10.2019
5680 Clouds 17 1022 77 10000 6.2 20 23:40 22.10.2019
5681 Clouds 17 1023 77 10000 5.7 10 23:18 22.10.2019
5682 Clouds 17 1023 77 10000 4.6 20 22:57 22.10.2019
5683 Clouds 17 1023 77 10000 4.6 20 22:57 22.10.2019
5684 Clouds 17 1023 77 10000 4.6 20 22:38 22.10.2019
5685 Clouds 18 1023 72 10000 6.2 20 22:20 22.10.2019
5686 Clouds 18 1023 72 10000 5.7 30 21:56 22.10.2019
5687 Clouds 18 1023 72 10000 5.7 30 21:37 22.10.2019
5688 Clouds 18 1023 72 10000 5.7 10 21:18 22.10.2019
5689 Clouds 18 1023 72 10000 5.1 20 20:56 22.10.2019
5690 Clouds 18 1023 72 10000 5.1 20 20:38 22.10.2019
5691 Clouds 18 1023 72 10000 5.1 20 20:19 22.10.2019
5692 Clouds 18 1023 72 10000 4.6 30 19:54 22.10.2019
5693 Clouds 18 1023 72 10000 4.6 30 19:36 22.10.2019
5694 Clouds 18 1023 77 10000 5.7 20 19:18 22.10.2019
5695 Clouds 18 1023 77 10000 6.2 20 18:40 22.10.2019
5696 Clouds 18 1023 77 10000 6.2 20 18:22 22.10.2019
5697 Clouds 19 1023 72 10000 5.7 30 17:57 22.10.2019
5698 Clouds 19 1023 72 10000 5.7 30 17:38 22.10.2019
5699 Clouds 19 1023 72 10000 5.7 30 17:38 22.10.2019
5700 Clouds 19 1022 72 10000 7.2 20 17:20 22.10.2019
5701 Clouds 19 1022 77 10000 7.2 10 16:57 22.10.2019
5702 Clouds 19 1022 77 10000 7.2 10 16:37 22.10.2019
5703 Clouds 19 1022 72 10000 7.2 10 16:19 22.10.2019
5704 Clouds 19 1022 77 10000 7.7 10 15:56 22.10.2019
5705 Clouds 19 1022 77 10000 7.7 10 15:38 22.10.2019
5706 Clouds 19 1022 72 10000 8.2 20 15:18 22.10.2019
5707 Clouds 19 1022 72 10000 9.3 20 14:43 22.10.2019
5708 Clouds 20 1022 77 10000 6.7 10 14:20 22.10.2019
5709 Clouds 19 1022 82 10000 7.7 10 13:42 22.10.2019
5710 Clouds 20 1022 77 10000 6.2 20 13:22 22.10.2019
5711 Clouds 20 1022 72 10000 5.7 30 12:58 22.10.2019
5712 Clouds 20 1022 72 10000 5.7 30 12:40 22.10.2019
5713 Clouds 19 1022 64 10000 6.2 30 12:21 22.10.2019
5714 Clouds 20 1022 68 10000 6.2 30 11:56 22.10.2019
5715 Clouds 20 1022 68 10000 6.2 30 11:37 22.10.2019
5716 Clouds 20 1022 64 10000 6.7 10 11:19 22.10.2019
5717 Clouds 20 1023 64 10000 6.7 20 10:55 22.10.2019
5718 Clouds 20 1023 64 10000 6.7 20 10:37 22.10.2019
5719 Clouds 20 1023 68 10000 7.2 10 10:18 22.10.2019
5720 Clouds 19 1023 64 10000 6.7 20 09:42 22.10.2019
5721 Clouds 19 1023 64 10000 6.2 10 09:22 22.10.2019
5722 Clouds 19 1023 64 10000 6.2 10 08:59 22.10.2019
5723 Clouds 18 1023 68 10000 4.6 10 08:41 22.10.2019
5724 Clouds 18 1023 63 10000 4.1 20 08:20 22.10.2019
5725 Clouds 18 1022 68 10000 5.7 20 07:45 22.10.2019
5726 Clouds 18 1022 68 10000 4.1 10 07:26 22.10.2019
5727 Clouds 18 1022 68 10000 4.6 20 06:47 22.10.2019
5728 Clouds 18 1022 68 10000 4.6 20 06:29 22.10.2019
5729 Clouds 18 1022 72 10000 3.6 30 05:48 22.10.2019
5730 Clouds 17 1022 72 10000 4.1 20 05:18 22.10.2019
5731 Clouds 17 1022 82 10000 4.6 10 02:32 22.10.2019
5732 Clouds 17 1022 82 10000 4.1 20 01:50 22.10.2019
5733 Clouds 18 1022 82 10000 4.1 10 01:24 22.10.2019
5734 Clouds 18 1022 82 10000 3.6 10 00:56 22.10.2019
5735 Clouds 18 1022 82 10000 3.6 10 00:38 22.10.2019
5736 Clouds 18 1022 82 10000 3.1 20 00:19 22.10.2019
5737 Clouds 18 1022 82 10000 3.6 10 23:39 21.10.2019
5738 Clouds 18 1022 82 10000 3.6 10 23:20 21.10.2019
5739 Clouds 18 1022 82 10000 3.6 10 22:59 21.10.2019
5740 Clouds 18 1022 77 10000 4.1 20 22:40 21.10.2019
5741 Clouds 18 1022 77 10000 4.1 20 22:40 21.10.2019
5742 Clouds 18 1022 72 10000 4.6 20 22:20 21.10.2019
5743 Clouds 18 1022 77 10000 5.1 20 21:58 21.10.2019
5744 Clouds 18 1022 77 10000 5.1 20 21:39 21.10.2019
5745 Clear 18 1022 77 10000 4.6 20 21:20 21.10.2019
5746 Clear 18 1022 77 10000 4.6 20 20:58 21.10.2019
5747 Clear 18 1022 77 10000 5.1 20 20:39 21.10.2019
5748 Clear 18 1022 77 10000 5.1 20 20:20 21.10.2019
5749 Clear 18 1022 77 10000 5.1 20 20:20 21.10.2019
5750 Clear 18 1022 77 10000 5.7 20 19:57 21.10.2019
5751 Clear 18 1022 77 10000 5.7 20 19:38 21.10.2019
5752 Clear 18 1022 77 10000 5.1 30 19:20 21.10.2019
5753 Clear 19 1022 72 10000 5.1 30 18:55 21.10.2019
5754 Clear 19 1022 72 10000 5.1 30 18:55 21.10.2019
5755 Clear 19 1022 72 10000 5.1 30 18:36 21.10.2019
5756 Clear 19 1022 72 10000 6.2 20 18:18 21.10.2019
5757 Clear 19 1022 72 10000 6.7 20 17:55 21.10.2019
5758 Clouds 19 1022 64 10000 6.7 10 17:37 21.10.2019
5759 Clouds 19 1022 64 10000 6.7 10 17:18 21.10.2019
5760 Clouds 20 1022 60 10000 6.7 10 16:54 21.10.2019
5761 Clouds 20 1022 60 10000 6.7 10 16:36 21.10.2019
5762 Clouds 20 1022 60 10000 5.7 20 16:18 21.10.2019
5763 Clouds 21 1022 60 10000 5.7 30 15:42 21.10.2019
5764 Clouds 21 1022 60 10000 6.2 30 15:22 21.10.2019
5765 Clouds 21 1022 56 10000 5.7 30 14:56 21.10.2019
5766 Clouds 21 1022 56 10000 5.7 30 14:37 21.10.2019
5767 Clouds 22 1022 56 10000 6.2 10 14:18 21.10.2019
5768 Clouds 21 1022 56 10000 5.7 40 13:42 21.10.2019
5769 Clouds 21 1022 53 10000 5.1 50 13:21 21.10.2019
5770 Clouds 22 1022 53 10000 5.1 50 12:59 21.10.2019
5771 Clouds 21 1023 56 10000 6.2 40 12:40 21.10.2019
5772 Clouds 21 1023 60 10000 5.1 40 12:21 21.10.2019
5773 Clouds 22 1023 56 10000 4.6 70 11:55 21.10.2019
5774 Clouds 21 1023 56 10000 4.6 70 11:37 21.10.2019
5775 Clouds 21 1023 60 10000 4.6 60 11:18 21.10.2019
5776 Clouds 21 1023 60 10000 5.1 70 10:54 21.10.2019
5777 Clouds 21 1023 60 10000 5.1 70 10:54 21.10.2019
5778 Clouds 21 1023 60 10000 5.1 70 10:36 21.10.2019
5779 Clouds 21 1023 64 10000 4.1 50 10:18 21.10.2019
5780 Clouds 20 1024 77 10000 3.6 80 09:41 21.10.2019
5781 Clouds 20 1023 77 10000 2.1 60 09:22 21.10.2019
5782 Clouds 19 1023 82 10000 4.1 60 08:43 21.10.2019
5783 Clouds 18 1023 82 10000 4.1 50 08:23 21.10.2019
5784 Mist 18 1023 82 7000 4.1 50 07:56 21.10.2019
5785 Mist 18 1023 82 7000 4.1 50 07:37 21.10.2019
5786 Mist 17 1022 93 7000 3.1 20 07:18 21.10.2019
5787 Mist 17 1022 100 7000 3.1 360 06:44 21.10.2019
5788 Mist 17 1022 93 7000 3.1 340 06:25 21.10.2019
5789 Mist 17 1022 93 7000 3.1 350 05:41 21.10.2019
5790 Mist 16 1022 93 7000 3.1 10 03:41 21.10.2019
5791 Mist 16 1022 100 6000 3.6 350 02:40 21.10.2019
5792 Mist 16 1022 93 6000 3.6 350 02:20 21.10.2019
5793 Mist 16 1022 93 6000 3.6 350 02:20 21.10.2019
5794 Mist 16 1022 93 8000 3.1 360 01:48 21.10.2019
5795 Mist 16 1022 93 8000 2.6 10 01:20 21.10.2019
5796 Mist 17 1022 88 10000 2.1 20 00:40 21.10.2019
5797 Clear 17 1022 88 10000 3.1 40 00:22 21.10.2019
5798 Clear 17 1022 88 10000 2.6 20 23:40 20.10.2019
5799 Clear 17 1022 88 10000 2.6 20 23:21 20.10.2019
5800 Clear 17 1022 88 10000 2.1 20 22:54 20.10.2019
5801 Clear 16 1022 88 10000 2.1 20 22:36 20.10.2019
5802 Clear 17 1022 82 10000 2.6 20 22:18 20.10.2019
5803 Clear 17 1022 82 10000 2.1 20 21:40 20.10.2019
5804 Clear 17 1022 82 10000 2.6 20 21:22 20.10.2019
5805 Clear 17 1022 82 10000 3.6 20 20:57 20.10.2019
5806 Clear 17 1022 82 10000 3.6 20 20:38 20.10.2019
5807 Clear 18 1022 77 10000 4.6 40 20:18 20.10.2019
5808 Clear 18 1022 77 10000 4.6 40 20:18 20.10.2019
5809 Clear 18 1022 77 10000 3.1 30 19:55 20.10.2019
5810 Clear 18 1022 77 10000 3.1 30 19:37 20.10.2019
5811 Clear 18 1022 77 10000 4.1 40 19:19 20.10.2019
5812 Clear 18 1022 77 10000 4.1 30 18:40 20.10.2019
5813 Clear 18 1022 72 10000 4.6 30 18:22 20.10.2019
5814 Clear 19 1022 72 10000 4.6 360 17:57 20.10.2019
5815 Clear 19 1022 72 10000 4.6 360 17:39 20.10.2019
5816 Clear 19 1021 68 10000 5.1 360 17:20 20.10.2019
5817 Clear 20 1021 64 10000 4.6 20 16:55 20.10.2019
5818 Clear 19 1021 64 10000 4.6 20 16:36 20.10.2019
5819 Clear 20 1021 56 10000 4.1 10 16:18 20.10.2019
5820 Clear 21 1021 53 10000 3.6 20 15:41 20.10.2019
5821 Clear 21 1021 73 10000 2.6 230 15:23 20.10.2019
5822 Clear 21 1021 73 10000 2.6 230 14:59 20.10.2019
5823 Clear 21 1021 68 10000 2.6 220 14:38 20.10.2019
5824 Clear 21 1021 73 10000 3.1 210 14:19 20.10.2019
5825 Clear 21 1021 72 10000 3.1 190 13:56 20.10.2019
5826 Clear 21 1021 72 10000 3.1 190 13:37 20.10.2019
5827 Clear 21 1022 72 10000 3.1 190 13:19 20.10.2019
5828 Clear 21 1022 72 10000 2.1 190 12:57 20.10.2019
5829 Clear 21 1022 72 10000 2.1 190 12:39 20.10.2019
5830 Clear 20 1022 77 10000 2.6 190 12:21 20.10.2019
5831 Clear 20 1022 77 10000 2.6 140 11:57 20.10.2019
5832 Clear 20 1022 77 10000 2.6 140 11:39 20.10.2019
5833 Clear 20 1022 72 10000 3.1 130 11:21 20.10.2019
5834 Clear 19 1022 77 10000 3.1 120 10:54 20.10.2019
5835 Clear 19 1022 77 10000 3.1 120 10:54 20.10.2019
5836 Clear 19 1022 77 10000 3.1 120 10:36 20.10.2019
5837 Clear 19 1022 72 10000 2.6 70 10:18 20.10.2019
5838 Clouds 18 1022 72 8000 3.1 60 09:42 20.10.2019
5839 Mist 18 1022 72 10000 3.1 60 09:22 20.10.2019
5840 Mist 18 1022 82 7000 2.6 60 08:49 20.10.2019
5841 Mist 17 1022 82 6000 2.1 30 08:28 20.10.2019
5842 Fog 16 1022 88 7000 2.1 30 07:57 20.10.2019
5843 Fog 16 1022 88 7000 2.1 30 07:39 20.10.2019
5844 Fog 16 1021 100 7000 3.1 350 07:20 20.10.2019
5845 Fog 16 1021 93 7000 3.1 350 06:23 20.10.2019
5846 Fog 16 1021 93 7000 3.1 360 04:28 20.10.2019
5847 Fog 16 1021 93 7000 3.1 360 04:28 20.10.2019
5848 Fog 15 1021 88 8000 2.6 20 03:48 20.10.2019
5849 Fog 16 1020 88 9000 2.6 10 03:21 20.10.2019
5850 Mist 16 1021 93 8000 2.6 360 02:44 20.10.2019
5851 Mist 17 1021 88 8000 3.6 10 01:59 20.10.2019
5852 Mist 17 1020 82 10000 4.1 10 01:24 20.10.2019
5853 Mist 17 1020 82 8000 3.1 10 00:58 20.10.2019
5854 Mist 17 1020 82 8000 3.1 10 00:39 20.10.2019
5855 Mist 17 1020 88 8000 3.1 10 00:20 20.10.2019
5856 Mist 17 1020 82 7000 3.6 10 23:42 19.10.2019
5857 Mist 17 1020 82 8000 3.1 10 23:23 19.10.2019
5858 Clear 17 1020 88 10000 2.6 10 22:57 19.10.2019
5859 Clear 17 1020 88 10000 2.6 10 22:38 19.10.2019
5860 Clear 17 1020 82 10000 3.1 10 22:20 19.10.2019
5861 Clear 17 1020 82 10000 3.1 40 21:46 19.10.2019
5862 Clear 18 1020 82 10000 1.5 50 21:24 19.10.2019
5863 Clear 18 1020 82 10000 2.6 40 20:54 19.10.2019
5864 Clear 18 1020 82 10000 2.6 40 20:36 19.10.2019
5865 Clear 18 1020 82 10000 2.1 40 20:36 19.10.2019
5866 Clear 18 1020 82 10000 2.1 40 20:18 19.10.2019
5867 Clear 19 1020 82 10000 3.1 40 19:41 19.10.2019
5868 Clear 19 1020 82 8000 3.1 30 19:23 19.10.2019
5869 Clear 19 1020 77 7000 4.1 30 18:43 19.10.2019
5870 Clear 19 1019 77 7000 4.1 30 18:25 19.10.2019
5871 Clouds 19 1019 77 7000 4.1 30 17:59 19.10.2019
5872 Clouds 20 1019 73 7000 4.6 30 17:37 19.10.2019
5873 Clouds 20 1019 68 7000 5.1 30 17:19 19.10.2019
5874 Clouds 20 1019 68 7000 4.6 10 16:40 19.10.2019
5875 Clouds 21 1019 69 7000 0.5 0 16:20 19.10.2019
5876 Clouds 21 1019 73 6000 1.5 240 15:59 19.10.2019
5877 Clouds 21 1019 73 6000 1.5 240 15:39 19.10.2019
5878 Clouds 22 1019 73 6000 2.1 220 15:21 19.10.2019
5879 Clouds 21 1019 73 6000 3.1 230 14:38 19.10.2019
5880 Clouds 21 1019 73 6000 3.1 230 14:38 19.10.2019
5881 Clear 21 1019 73 7000 2.6 220 14:20 19.10.2019
5882 Clear 21 1019 73 7000 2.6 210 13:56 19.10.2019
5883 Clear 21 1019 73 7000 2.6 210 13:38 19.10.2019
5884 Clear 21 1019 73 6000 2.1 210 13:18 19.10.2019
5885 Mist 21 1019 88 4000 3.6 220 12:41 19.10.2019
5886 Mist 21 1019 88 4000 3.6 220 12:22 19.10.2019
5887 Mist 21 1019 88 4000 3.6 220 11:59 19.10.2019
5888 Mist 20 1020 83 4500 4.1 240 11:40 19.10.2019
5889 Clouds 20 1020 77 7000 2.6 240 11:22 19.10.2019
5890 Mist 19 1020 73 7000 1 0 10:42 19.10.2019
5891 Mist 19 1020 73 7000 1 0 10:23 19.10.2019
5892 Mist 19 1020 82 6000 1 0 09:59 19.10.2019
5893 Mist 18 1019 88 2100 3.1 50 09:41 19.10.2019
5894 Mist 18 1019 88 2100 3.1 50 09:23 19.10.2019
5895 Mist 17 1019 93 1100 3.6 40 08:57 19.10.2019
5896 Mist 17 1020 88 4000 3.1 100 08:39 19.10.2019
5897 Mist 17 1020 88 4000 3.1 100 08:39 19.10.2019
5898 Mist 16 1020 93 2000 2.6 90 08:19 19.10.2019
5899 Mist 16 1020 93 1100 2.1 170 07:42 19.10.2019
5900 Mist 15 1019 93 2800 1 0 07:23 19.10.2019
5901 Mist 16 1019 93 7000 2.1 110 06:39 19.10.2019
5902 Mist 15 1019 93 2000 1 0 05:54 19.10.2019
5903 Mist 15 1019 93 3000 0.5 0 05:26 19.10.2019
5904 Mist 15 1018 93 4000 2.1 350 03:22 19.10.2019
5905 Mist 15 1018 93 4000 2.1 350 03:22 19.10.2019
5906 Mist 15 1018 93 4500 2.1 360 02:34 19.10.2019
5907 Mist 15 1018 93 4500 2.6 360 01:50 19.10.2019
5908 Mist 15 1018 93 4500 2.1 360 00:59 19.10.2019
5909 Mist 16 1018 93 4500 2.1 360 00:41 19.10.2019
5910 Fog 16 1018 93 7000 2.1 350 00:21 19.10.2019
5911 Clear 16 1018 93 7000 2.1 340 23:39 18.10.2019
5912 Clear 17 1018 88 7000 2.6 340 23:21 18.10.2019
5913 Clear 17 1018 93 7000 2.1 340 22:55 18.10.2019
5914 Clear 17 1018 93 7000 2.1 340 22:37 18.10.2019
5915 Clear 17 1018 93 7000 2.1 340 22:37 18.10.2019
5916 Clear 17 1019 82 7000 1 30 22:18 18.10.2019
5917 Clear 17 1019 82 7000 2.1 50 21:56 18.10.2019
5918 Clear 17 1019 82 7000 2.1 50 21:36 18.10.2019
5919 Clear 17 1018 82 7000 2.6 50 21:18 18.10.2019
5920 Clear 18 1018 88 7000 2.6 50 20:43 18.10.2019
5921 Clear 18 1018 88 6000 1 20 20:24 18.10.2019
5922 Mist 18 1018 82 4500 1 50 19:58 18.10.2019
5923 Mist 18 1018 82 4500 1 50 19:40 18.10.2019
5924 Mist 18 1018 82 4500 1 50 19:40 18.10.2019
5925 Mist 18 1018 88 4000 0.5 40 19:22 18.10.2019
5926 Mist 19 1018 88 4000 0.5 40 18:59 18.10.2019
5927 Mist 19 1018 88 4000 1 0 18:41 18.10.2019
5928 Clouds 19 1018 93 6000 0.5 0 18:23 18.10.2019
5929 Clouds 19 1018 82 7000 1.5 250 17:56 18.10.2019
5930 Clouds 20 1018 82 7000 1.5 250 17:37 18.10.2019
5931 Clear 20 1018 82 10000 2.1 200 17:19 18.10.2019
5932 Clear 20 1018 82 10000 2.1 200 16:40 18.10.2019
5933 Clear 21 1018 77 10000 2.1 230 16:21 18.10.2019
5934 Clear 21 1018 77 10000 2.6 220 15:57 18.10.2019
5935 Clear 21 1018 77 10000 2.6 220 15:38 18.10.2019
5936 Clear 21 1018 73 10000 2.1 220 15:20 18.10.2019
5937 Clear 21 1018 73 10000 2.6 200 14:57 18.10.2019
5938 Clear 21 1018 73 10000 2.6 200 14:38 18.10.2019
5939 Clear 22 1018 69 10000 2.6 180 14:19 18.10.2019
5940 Mist 21 1018 73 10000 2.6 170 13:55 18.10.2019
5941 Mist 21 1018 73 10000 2.6 170 13:36 18.10.2019
5942 Mist 21 1019 73 10000 3.6 190 13:18 18.10.2019
5943 Mist 21 1019 73 10000 3.1 180 12:54 18.10.2019
5944 -273 0 0 0 0 0 12:54 18.10.2019
5945 Mist 21 1019 73 10000 3.1 180 12:36 18.10.2019
5946 Mist 21 1019 73 10000 2.6 140 12:18 18.10.2019
5947 Mist 21 1019 73 10000 2.1 100 11:41 18.10.2019
5948 Mist 21 1020 73 10000 2.1 120 11:20 18.10.2019
5949 Mist 20 1020 77 10000 2.1 110 10:57 18.10.2019
5950 Mist 20 1020 77 10000 2.1 110 10:57 18.10.2019
5951 Mist 20 1020 77 10000 2.1 110 10:39 18.10.2019
5952 Clear 20 1020 77 10000 2.1 80 10:19 18.10.2019
5953 -273 0 0 0 0 0 09:57 18.10.2019
5954 Clear 19 1020 77 10000 2.6 20 09:39 18.10.2019
5955 Clouds 19 1020 82 10000 3.1 40 09:19 18.10.2019
5956 Clouds 19 1019 82 10000 3.1 30 08:43 18.10.2019
5957 Clouds 18 1019 82 10000 2.6 40 08:24 18.10.2019
5958 Clouds 18 1019 82 10000 3.1 40 07:51 18.10.2019
5959 Clouds 17 1019 82 10000 3.1 40 07:33 18.10.2019
5960 Clouds 17 1019 82 6000 3.1 30 06:55 18.10.2019
5961 Clouds 17 1019 82 6000 3.1 30 06:34 18.10.2019
5962 Clouds 17 1019 88 7000 3.6 10 05:59 18.10.2019
5963 Clouds 18 1019 88 7000 3.6 30 05:41 18.10.2019
5964 Clouds 17 1019 88 6000 3.1 30 05:18 18.10.2019
5965 Clouds 17 1018 93 10000 3.1 340 03:35 18.10.2019
5966 Clear 17 1018 93 10000 2.1 330 02:51 18.10.2019
5967 Clear 17 1018 93 10000 2.1 330 02:32 18.10.2019
5968 Clear 18 1018 88 10000 2.1 320 01:39 18.10.2019
5969 Clouds 18 1019 82 10000 1.5 320 01:18 18.10.2019
5970 Clouds 18 1019 82 10000 1 360 00:40 18.10.2019
5971 Clouds 18 1019 77 10000 2.1 20 00:19 18.10.2019
5972 Clouds 18 1019 77 10000 2.1 20 00:19 18.10.2019
5973 Clouds 19 1019 77 10000 2.1 50 23:39 17.10.2019
5974 Clouds 19 1019 77 10000 2.6 30 23:20 17.10.2019
5975 Clouds 19 1019 77 10000 2.6 20 22:56 17.10.2019
5976 Clouds 19 1019 77 10000 2.6 20 22:56 17.10.2019
5977 Clouds 19 1019 77 10000 2.6 20 22:38 17.10.2019
5978 Clouds 19 1019 77 10000 3.1 40 22:19 17.10.2019
5979 Clouds 19 1019 77 10000 3.1 30 21:56 17.10.2019
5980 Clouds 19 1019 77 10000 3.1 30 21:38 17.10.2019
5981 Clouds 19 1019 77 10000 3.1 20 21:20 17.10.2019
5982 Clouds 19 1019 77 10000 3.1 20 21:20 17.10.2019
5983 -273 0 0 0 0 0 20:57 17.10.2019
5984 Clouds 19 1019 82 10000 2.6 30 20:38 17.10.2019
5985 Clouds 19 1019 77 10000 3.1 30 20:19 17.10.2019
5986 Clouds 19 1019 77 10000 3.6 30 19:56 17.10.2019
5987 Clouds 19 1019 77 10000 3.6 30 19:38 17.10.2019
5988 Clouds 19 1019 77 10000 4.6 40 19:19 17.10.2019
5989 Clouds 19 1019 77 10000 6.2 20 18:43 17.10.2019
5990 Clouds 19 1019 77 10000 5.7 10 18:21 17.10.2019
5991 Clouds 20 1018 77 10000 4.6 30 17:58 17.10.2019
5992 Clouds 20 1018 77 10000 4.6 30 17:40 17.10.2019
5993 Clouds 20 1018 73 10000 3.6 30 17:22 17.10.2019
5994 Clouds 20 1018 73 10000 5.1 10 16:55 17.10.2019
5995 Clouds 20 1018 73 10000 5.1 10 16:36 17.10.2019
5996 Clouds 21 1018 73 10000 5.7 20 16:18 17.10.2019
5997 -273 0 0 0 0 0 15:41 17.10.2019
5998 Clouds 21 1018 68 10000 4.6 20 15:21 17.10.2019
5999 Clouds 21 1018 68 10000 4.6 20 14:59 17.10.2019
6000 Clouds 21 1018 68 10000 4.6 20 14:59 17.10.2019
6001 Clouds 21 1018 64 10000 3.6 20 14:41 17.10.2019
6002 Clouds 21 1018 68 10000 4.1 20 14:23 17.10.2019
6003 Clouds 21 1018 68 10000 3.1 40 13:42 17.10.2019
6004 Clouds 21 1018 68 10000 4.1 210 13:21 17.10.2019
6005 Clouds 21 1018 68 10000 4.1 210 12:59 17.10.2019
6006 Clouds 21 1018 68 10000 2.6 200 12:40 17.10.2019
6007 Clouds 21 1019 64 10000 2.1 0 12:20 17.10.2019
6008 Clouds 21 1019 64 10000 1.5 90 11:57 17.10.2019
6009 Clouds 21 1019 64 10000 1.5 90 11:39 17.10.2019
6010 Clouds 20 1019 68 10000 2.1 100 11:18 17.10.2019
6011 Clouds 20 1019 72 10000 3.1 110 10:42 17.10.2019
6012 Clouds 20 1019 72 10000 3.1 110 10:21 17.10.2019
6013 Clouds 20 1019 72 10000 3.1 110 10:21 17.10.2019
6014 Clouds 20 1019 68 10000 2.6 80 09:59 17.10.2019
6015 Clouds 20 1019 68 10000 2.6 80 09:41 17.10.2019
6016 Clouds 20 1019 68 10000 2.6 80 09:41 17.10.2019
6017 Clouds 19 1019 72 10000 2.6 70 09:21 17.10.2019
6018 Clouds 19 1019 72 10000 2.6 70 08:58 17.10.2019
6019 Clouds 19 1019 72 10000 2.6 70 08:39 17.10.2019
6020 Clouds 19 1018 77 10000 2.6 70 08:19 17.10.2019
6021 Clouds 19 1018 77 10000 2.1 80 07:50 17.10.2019
6022 Clouds 19 1018 77 10000 1.5 70 07:21 17.10.2019
6023 Clouds 19 1018 77 10000 1.5 70 07:21 17.10.2019
6024 Clouds 19 1018 77 10000 1.5 30 06:59 17.10.2019
6025 Clouds 19 1018 77 10000 1.5 30 06:39 17.10.2019
6026 Clouds 19 1018 77 10000 2.1 20 06:20 17.10.2019
6027 Clouds 19 1018 77 10000 1.5 30 05:46 17.10.2019
6028 Clouds 19 1018 77 10000 2.1 10 05:28 17.10.2019
6029 Clouds 19 1018 77 10000 1 40 04:50 17.10.2019
6030 Clouds 19 1017 77 10000 2.1 20 03:52 17.10.2019
6031 Clouds 19 1017 77 10000 3.1 20 02:35 17.10.2019
6032 Clouds 19 1017 77 10000 3.1 20 00:54 17.10.2019
6033 Clouds 19 1017 77 10000 3.1 20 00:36 17.10.2019
6034 Clouds 19 1017 77 10000 3.6 20 00:18 17.10.2019
6035 Clouds 19 1017 77 10000 3.1 20 23:42 16.10.2019
6036 Clouds 19 1017 77 10000 2.6 30 23:20 16.10.2019
6037 Clouds 19 1018 77 10000 3.1 30 22:55 16.10.2019
6038 Clouds 19 1018 77 10000 3.1 30 22:36 16.10.2019
6039 Clouds 19 1018 77 10000 2.6 30 22:18 16.10.2019
6040 Clouds 19 1018 77 10000 3.1 40 21:55 16.10.2019
6041 Clouds 19 1018 72 10000 3.1 30 21:37 16.10.2019
6042 Clouds 19 1018 72 10000 3.1 30 21:18 16.10.2019
6043 Clouds 19 1017 77 10000 4.1 20 20:56 16.10.2019
6044 Clouds 19 1017 77 10000 4.1 20 20:38 16.10.2019
6045 Clouds 19 1017 77 10000 4.1 30 20:20 16.10.2019
6046 Clouds 19 1017 77 10000 4.1 30 19:42 16.10.2019
6047 Clouds 19 1017 77 10000 4.1 30 19:21 16.10.2019
6048 Clouds 19 1017 77 10000 4.1 30 19:21 16.10.2019
6049 Clouds 19 1017 77 10000 3.6 30 18:58 16.10.2019
6050 Clouds 19 1017 77 10000 3.6 30 18:39 16.10.2019
6051 Clouds 19 1017 72 10000 5.1 30 18:19 16.10.2019
6052 Clouds 19 1017 72 10000 5.1 30 18:19 16.10.2019
6053 Clouds 19 1017 68 10000 4.6 20 17:56 16.10.2019
6054 Clouds 19 1017 68 10000 4.6 20 17:37 16.10.2019
6055 Clouds 19 1017 68 10000 4.6 20 17:19 16.10.2019
6056 Clouds 20 1017 64 10000 5.1 20 16:57 16.10.2019
6057 Clouds 20 1017 64 10000 5.1 20 16:38 16.10.2019
6058 Clouds 20 1017 68 10000 3.1 30 16:20 16.10.2019
6059 Clouds 20 1017 73 10000 2.6 250 15:42 16.10.2019
6060 Clouds 20 1017 73 10000 2.6 250 15:41 16.10.2019
6061 Clouds 20 1017 73 10000 2.6 250 15:41 16.10.2019
6062 Clouds 20 1017 68 10000 2.1 190 15:20 16.10.2019
6063 Clouds 20 1017 68 10000 2.1 190 14:59 16.10.2019
6064 Clouds 20 1017 68 10000 2.1 190 14:41 16.10.2019
6065 Clouds 21 1017 68 10000 1.5 0 14:23 16.10.2019
6066 Clouds 21 1017 68 10000 1.5 0 13:59 16.10.2019
6067 -273 0 0 0 0 0 13:41 16.10.2019
6068 Clouds 21 1017 68 10000 2.6 120 13:22 16.10.2019
6069 Clouds 21 1018 68 10000 2.1 70 12:44 16.10.2019
6070 Clouds 21 1018 68 10000 2.6 60 12:20 16.10.2019
6071 Clouds 20 1018 77 10000 2.1 100 11:58 16.10.2019
6072 Clouds 20 1018 77 10000 2.1 100 11:40 16.10.2019
6073 Clouds 20 1018 77 10000 2.6 120 11:18 16.10.2019
6074 Clouds 20 1018 77 10000 2.1 110 10:37 16.10.2019
6075 Clouds 20 1018 72 10000 3.1 50 10:19 16.10.2019
6076 Clouds 19 1018 72 10000 4.1 60 09:41 16.10.2019
6077 Clouds 19 1018 72 10000 4.1 50 09:22 16.10.2019
6078 Clouds 19 1018 72 10000 4.1 50 08:58 16.10.2019
6079 Clouds 19 1018 77 7000 3.6 60 08:40 16.10.2019
6080 Clouds 19 1018 77 10000 3.6 70 08:21 16.10.2019
6081 Clouds 19 1018 77 6000 3.1 80 07:43 16.10.2019
6082 Clouds 19 1017 77 6000 3.6 40 07:24 16.10.2019
6083 Clouds 19 1018 77 7000 3.1 60 06:56 16.10.2019
6084 Clouds 19 1018 77 7000 3.1 60 06:56 16.10.2019
6085 Clouds 19 1018 77 7000 3.1 60 06:35 16.10.2019
6086 Clouds 19 1018 77 6000 3.1 50 05:23 16.10.2019
6087 Mist 18 1018 82 4000 4.1 70 02:57 16.10.2019
6088 Mist 18 1018 82 4000 3.6 40 01:39 16.10.2019
6089 Mist 18 1018 82 4000 3.6 40 01:18 16.10.2019
6090 Mist 18 1018 82 4000 4.1 30 00:45 16.10.2019
6091 Clouds 18 1018 82 10000 3.6 40 00:25 16.10.2019
6092 Clear 18 1018 82 10000 3.6 20 23:39 15.10.2019
6093 Clear 18 1018 82 10000 3.6 30 23:21 15.10.2019
6094 Clear 18 1018 82 10000 3.6 30 23:21 15.10.2019
6095 Clear 18 1018 82 10000 3.6 30 22:55 15.10.2019
6096 Clear 18 1018 82 10000 3.6 30 22:37 15.10.2019
6097 Clear 18 1018 82 10000 3.6 30 22:19 15.10.2019
6098 Clear 18 1018 82 10000 4.6 30 21:55 15.10.2019
6099 Clear 18 1018 82 10000 4.6 30 21:55 15.10.2019
6100 Clear 18 1018 82 10000 4.6 30 21:37 15.10.2019
6101 Clear 18 1018 82 10000 4.1 30 21:19 15.10.2019
6102 Clear 18 1018 82 10000 4.6 30 20:57 15.10.2019
6103 Clear 18 1018 82 10000 4.6 30 20:38 15.10.2019
6104 Clear 18 1018 77 10000 4.6 30 20:19 15.10.2019
6105 Clear 19 1018 77 10000 4.6 30 19:56 15.10.2019
6106 Clear 19 1018 77 10000 4.6 30 19:56 15.10.2019
6107 Clear 19 1018 77 10000 4.6 30 19:37 15.10.2019
6108 Clear 19 1018 77 10000 4.6 30 19:19 15.10.2019
6109 Clear 19 1018 77 10000 5.7 30 18:44 15.10.2019
6110 Clouds 19 1018 77 10000 5.1 30 18:26 15.10.2019
6111 Clouds 19 1017 72 10000 5.7 20 17:58 15.10.2019
6112 Clouds 19 1017 72 10000 5.7 20 17:38 15.10.2019
6113 Clear 20 1017 68 10000 4.6 30 17:19 15.10.2019
6114 Clear 20 1017 64 10000 5.1 20 16:46 15.10.2019
6115 Clear 20 1017 64 10000 2.1 0 16:23 15.10.2019
6116 Clear 20 1017 64 10000 2.1 0 15:59 15.10.2019
6117 Clear 20 1018 73 10000 2.1 210 15:41 15.10.2019
6118 Clear 20 1018 73 10000 2.1 210 15:41 15.10.2019
6119 Clear 21 1018 73 10000 1.5 0 15:20 15.10.2019
6120 Clear 21 1018 73 10000 2.6 170 14:57 15.10.2019
6121 Clear 21 1018 73 10000 2.6 170 14:38 15.10.2019
6122 Clear 21 1019 73 10000 2.1 160 14:19 15.10.2019
6123 Clear 20 1019 72 10000 3.1 150 13:44 15.10.2019
6124 Clear 20 1019 77 10000 3.6 150 13:21 15.10.2019
6125 Clear 20 1019 77 10000 3.1 130 12:59 15.10.2019
6126 Clear 20 1019 77 10000 3.1 130 12:39 15.10.2019
6127 Clear 20 1020 77 10000 2.6 110 12:21 15.10.2019
6128 Clouds 20 1020 77 10000 3.6 120 11:55 15.10.2019
6129 Clouds 20 1020 77 10000 3.6 120 11:37 15.10.2019
6130 Clouds 20 1020 77 10000 3.1 110 11:18 15.10.2019
6131 Clouds 19 1020 77 8000 2.6 120 10:42 15.10.2019
6132 Clouds 18 1020 77 8000 2.6 110 10:19 15.10.2019
6133 Clouds 18 1020 77 8000 2.6 70 09:57 15.10.2019
6134 Clouds 18 1020 77 8000 2.6 70 09:37 15.10.2019
6135 Mist 18 1020 82 8000 2.6 60 09:19 15.10.2019
6136 Mist 18 1020 82 6000 3.1 80 08:42 15.10.2019
6137 Mist 18 1020 82 6000 3.1 80 08:22 15.10.2019
6138 Mist 17 1020 82 4000 2.6 70 07:56 15.10.2019
6139 -273 0 0 0 0 0 07:56 15.10.2019
6140 Mist 17 1020 82 4000 2.6 70 07:56 15.10.2019
6141 Mist 17 1020 82 4000 2.6 70 07:38 15.10.2019
6142 Mist 17 1020 82 4000 2.1 70 07:19 15.10.2019
6143 Mist 17 1020 93 4000 0.5 0 06:44 15.10.2019
6144 Mist 17 1020 87 4000 1 340 06:24 15.10.2019
6145 Mist 16 1020 93 4000 1 350 05:41 15.10.2019
6146 Mist 16 1020 93 4000 2.1 350 05:22 15.10.2019
6147 Mist 17 1020 93 4000 2.6 350 04:23 15.10.2019
6148 Mist 16 1020 100 10000 2.1 350 03:37 15.10.2019
6149 Mist 16 1020 93 4000 1.5 20 02:23 15.10.2019
6150 Mist 16 1020 93 4000 2.1 360 01:47 15.10.2019
6151 Clear 17 1020 87 10000 2.1 10 01:19 15.10.2019
6152 Clear 16 1020 93 10000 2.1 360 00:48 15.10.2019
6153 Clear 17 1020 82 10000 2.1 20 00:21 15.10.2019
6154 Clear 17 1020 82 10000 2.6 20 23:43 14.10.2019
6155 Clear 17 1020 82 10000 3.6 20 23:20 14.10.2019
6156 Clear 17 1021 82 10000 3.6 20 22:55 14.10.2019
6157 Clear 18 1021 82 10000 3.1 20 22:37 14.10.2019
6158 Clear 17 1021 82 10000 3.1 20 22:18 14.10.2019
6159 Clear 18 1021 77 10000 3.1 30 21:41 14.10.2019
6160 Clear 18 1021 77 10000 4.6 30 21:22 14.10.2019
6161 Clear 18 1021 77 10000 4.6 30 20:59 14.10.2019
6162 Clear 18 1021 77 10000 5.1 20 20:40 14.10.2019
6163 Clear 18 1021 77 10000 5.1 30 20:21 14.10.2019
6164 Clear 19 1021 77 10000 5.1 20 19:59 14.10.2019
6165 Clouds 19 1021 77 10000 5.1 20 19:40 14.10.2019
6166 Clouds 19 1021 77 10000 5.7 20 19:22 14.10.2019
6167 Clear 19 1021 77 10000 6.2 20 18:58 14.10.2019
6168 Clear 19 1020 72 10000 6.7 10 18:38 14.10.2019
6169 Clear 19 1020 72 10000 6.7 10 18:19 14.10.2019
6170 Clear 20 1020 72 10000 5.7 20 17:44 14.10.2019
6171 Clear 20 1020 68 10000 5.1 30 17:26 14.10.2019
6172 Clear 21 1020 64 10000 6.2 20 16:59 14.10.2019
6173 -273 0 0 0 0 0 16:40 14.10.2019
6174 Clear 21 1020 64 10000 5.1 10 16:20 14.10.2019
6175 Clear 21 1020 64 10000 5.1 10 16:20 14.10.2019
6176 Clear 22 1020 60 10000 5.1 20 15:42 14.10.2019
6177 Clear 22 1020 56 10000 5.1 20 15:22 14.10.2019
6178 Clear 23 1021 57 10000 4.6 10 14:56 14.10.2019
6179 Clear 23 1021 57 10000 4.6 10 14:56 14.10.2019
6180 Clear 23 1021 57 10000 4.6 10 14:38 14.10.2019
6181 Clear 23 1021 53 10000 3.6 30 14:18 14.10.2019
6182 Clear 23 1021 57 10000 3.6 360 13:42 14.10.2019
6183 Clear 23 1021 57 10000 3.1 360 13:21 14.10.2019
6184 Clear 22 1022 64 10000 2.1 220 12:54 14.10.2019
6185 Clear 22 1022 64 10000 2.1 220 12:36 14.10.2019
6186 Clear 22 1022 64 10000 2.6 130 12:18 14.10.2019
6187 Clear 21 1022 68 10000 3.1 130 11:44 14.10.2019
6188 Clear 21 1023 73 10000 2.6 100 11:24 14.10.2019
6189 Clear 21 1023 64 10000 2.1 0 10:55 14.10.2019
6190 Clear 20 1023 68 10000 3.1 50 10:37 14.10.2019
6191 Clear 20 1023 68 10000 3.1 50 10:18 14.10.2019
6192 Clear 19 1023 72 10000 3.6 60 09:41 14.10.2019
6193 Clear 19 1023 72 10000 3.6 60 09:41 14.10.2019
6194 Clear 19 1023 72 10000 4.1 50 09:20 14.10.2019
6195 Clear 18 1023 77 10000 3.6 50 08:49 14.10.2019
6196 Fog 18 1023 77 10000 3.1 40 08:23 14.10.2019
6197 Fog 17 1023 82 10000 2.1 50 07:47 14.10.2019
6198 Fog 17 1022 88 10000 2.1 20 07:25 14.10.2019
6199 Fog 16 1022 88 10000 2.1 30 06:57 14.10.2019
6200 Mist 16 1022 88 10000 2.6 50 06:28 14.10.2019
6201 Mist 16 1022 88 10000 2.1 30 05:56 14.10.2019
6202 Mist 16 1022 88 10000 2.6 30 05:25 14.10.2019
6203 Fog 16 1022 88 10000 3.1 30 03:50 14.10.2019
6204 Fog 16 1022 88 10000 3.6 20 03:23 14.10.2019
6205 Mist 17 1022 88 10000 3.6 20 02:31 14.10.2019
6206 Clear 17 1022 93 10000 3.1 10 01:21 14.10.2019
6207 Clear 18 1022 88 10000 4.1 20 00:42 14.10.2019
6208 Clear 17 1022 88 10000 3.6 10 00:18 14.10.2019
6209 Clear 18 1023 82 10000 3.1 20 23:40 13.10.2019
6210 Clear 18 1023 82 10000 3.1 20 23:19 13.10.2019
6211 Clear 18 1023 82 10000 3.1 20 23:19 13.10.2019
6212 Clear 18 1023 82 10000 3.6 40 22:57 13.10.2019
6213 Clear 18 1023 82 10000 3.6 40 22:57 13.10.2019
6214 Clear 18 1023 82 10000 3.6 40 22:39 13.10.2019
6215 Clear 17 1023 82 10000 4.1 30 22:20 13.10.2019
6216 Clear 17 1023 82 10000 3.6 40 21:57 13.10.2019
6217 Clear 18 1023 82 10000 3.6 40 21:36 13.10.2019
6218 Clear 18 1023 77 10000 5.1 30 21:18 13.10.2019
6219 Clear 18 1023 77 10000 5.1 30 20:56 13.10.2019
6220 Clear 18 1023 77 10000 5.1 30 20:37 13.10.2019
6221 Clear 18 1023 77 10000 5.1 30 20:37 13.10.2019
6222 Clear 18 1023 77 10000 5.1 30 20:37 13.10.2019
6223 Clear 18 1023 77 10000 5.1 30 20:18 13.10.2019
6224 Clear 18 1023 77 10000 5.1 40 19:55 13.10.2019
6225 Clear 18 1023 77 10000 5.1 40 19:36 13.10.2019
6226 Clear 18 1023 77 10000 5.1 40 19:36 13.10.2019
6227 Clear 19 1023 77 10000 5.7 30 19:18 13.10.2019
6228 Clear 19 1022 72 10000 6.2 30 18:41 13.10.2019
6229 Clear 19 1022 72 10000 6.2 30 18:21 13.10.2019
6230 Clear 19 1022 72 10000 5.7 30 17:59 13.10.2019
6231 -273 0 0 0 0 0 17:41 13.10.2019
6232 Clear 20 1022 72 10000 5.7 30 17:41 13.10.2019
6233 Clear 20 1022 68 10000 6.2 20 17:23 13.10.2019
6234 Clear 21 1022 64 10000 7.7 20 16:44 13.10.2019
6235 Clear 21 1022 60 10000 7.2 10 16:20 13.10.2019
6236 Clear 22 1022 56 10000 6.2 20 15:58 13.10.2019
6237 Clear 22 1022 56 10000 6.2 20 15:39 13.10.2019
6238 Clear 22 1022 56 10000 6.2 20 15:39 13.10.2019
6239 Clear 22 1022 56 10000 6.2 30 15:20 13.10.2019
6240 Clear 22 1022 53 10000 6.2 20 14:58 13.10.2019
6241 Clear 22 1022 53 10000 6.2 20 14:39 13.10.2019
6242 Clear 23 1022 53 10000 5.1 20 14:21 13.10.2019
6243 Clear 23 1023 53 10000 5.7 10 13:56 13.10.2019
6244 Clear 23 1023 47 10000 4.6 30 13:37 13.10.2019
6245 Clear 23 1023 47 10000 4.6 30 13:18 13.10.2019
6246 Clear 22 1023 50 10000 4.6 50 12:55 13.10.2019
6247 Clear 22 1023 50 10000 4.6 50 12:37 13.10.2019
6248 Clear 22 1023 47 10000 4.1 60 12:18 13.10.2019
6249 Clear 22 1023 49 10000 4.1 50 11:55 13.10.2019
6250 Clear 22 1023 49 10000 4.1 50 11:37 13.10.2019
6251 Clear 21 1024 53 10000 4.1 20 11:18 13.10.2019
6252 Clear 20 1024 60 10000 5.1 10 10:41 13.10.2019
6253 Clear 20 1024 64 10000 4.1 50 10:22 13.10.2019
6254 Clear 19 1024 68 10000 4.6 60 09:41 13.10.2019
6255 Clear 19 1024 72 10000 4.1 60 09:21 13.10.2019
6256 Clear 18 1024 77 10000 3.6 40 08:58 13.10.2019
6257 Clear 18 1024 77 10000 3.6 40 08:38 13.10.2019
6258 Clear 18 1024 82 10000 2.1 30 08:19 13.10.2019
6259 Mist 16 1024 82 10000 2.1 10 07:46 13.10.2019
6260 Fog 16 1023 87 10000 2.6 20 06:59 13.10.2019
6261 Fog 16 1023 87 10000 2.6 20 06:41 13.10.2019
6262 Clear 16 1023 82 10000 3.1 20 05:39 13.10.2019
6263 Clear 16 1023 82 10000 3.1 20 04:46 13.10.2019
6264 Clear 16 1024 82 10000 3.1 20 03:40 13.10.2019
6265 Clear 17 1024 77 10000 4.1 40 02:39 13.10.2019
6266 Clear 16 1024 82 10000 3.6 30 01:53 13.10.2019
6267 Clear 16 1024 82 10000 3.6 20 01:26 13.10.2019
6268 Clear 16 1024 82 10000 3.6 20 01:26 13.10.2019
6269 Clear 17 1024 82 10000 3.1 10 00:46 13.10.2019
6270 Clear 17 1024 82 10000 3.1 10 00:21 13.10.2019
6271 Clear 17 1024 82 10000 3.1 10 23:55 12.10.2019
6272 Clear 17 1024 82 10000 3.1 10 23:36 12.10.2019
6273 Clear 17 1025 82 10000 2.6 20 23:18 12.10.2019
6274 Clear 17 1025 72 10000 2.6 30 22:56 12.10.2019
6275 Clear 17 1025 72 10000 2.6 30 22:37 12.10.2019
6276 Clear 17 1025 72 10000 3.1 40 22:19 12.10.2019
6277 Clear 17 1025 72 10000 3.6 50 21:42 12.10.2019
6278 Clear 17 1025 72 10000 4.1 50 21:24 12.10.2019
6279 Clear 18 1025 72 10000 4.6 50 20:58 12.10.2019
6280 Clear 18 1025 72 10000 4.6 50 20:58 12.10.2019
6281 Clear 18 1025 72 10000 4.6 50 20:39 12.10.2019
6282 Clear 18 1025 68 10000 4.6 50 20:21 12.10.2019
6283 Clear 18 1025 68 10000 5.1 50 19:37 12.10.2019
6284 Clear 18 1025 68 10000 6.2 50 19:19 12.10.2019
6285 Clear 18 1025 68 10000 6.2 50 18:56 12.10.2019
6286 Clear 19 1025 68 10000 6.2 50 18:36 12.10.2019
6287 Clear 19 1024 68 10000 6.7 40 18:18 12.10.2019
6288 Clear 19 1024 64 10000 7.2 50 17:42 12.10.2019
6289 Clear 20 1024 64 10000 6.7 20 17:19 12.10.2019
6290 Clear 20 1024 64 10000 7.2 20 16:41 12.10.2019
6291 Clear 20 1024 64 10000 7.2 20 16:41 12.10.2019
6292 Clear 20 1024 60 10000 6.7 30 16:22 12.10.2019
6293 Clear 21 1024 56 10000 7.2 30 15:59 12.10.2019
6294 Clear 21 1024 56 10000 7.2 30 15:40 12.10.2019
6295 Clear 21 1024 56 10000 7.2 30 15:21 12.10.2019
6296 Clear 22 1025 49 10000 5.7 40 14:41 12.10.2019
6297 Clear 22 1024 49 10000 5.1 40 14:22 12.10.2019
6298 Clear 22 1024 49 10000 5.1 40 14:21 12.10.2019
6299 Clear 22 1025 49 10000 5.1 30 13:53 12.10.2019
6300 Clear 22 1025 49 10000 5.1 30 13:33 12.10.2019
6301 Clear 22 1025 46 10000 4.6 50 12:59 12.10.2019
6302 Clear 22 1025 46 10000 4.6 50 12:59 12.10.2019
6303 Clear 22 1025 46 10000 4.6 50 12:38 12.10.2019
6304 Clear 22 1025 46 10000 5.1 10 12:20 12.10.2019
6305 Clear 21 1026 49 10000 4.6 60 11:58 12.10.2019
6306 Clear 21 1026 49 10000 4.6 60 11:38 12.10.2019
6307 Clear 21 1026 49 10000 4.6 60 11:38 12.10.2019
6308 Clear 21 1026 53 10000 5.1 70 11:18 12.10.2019
6309 Clouds 21 1026 52 10000 5.1 60 10:41 12.10.2019
6310 Clouds 21 1026 60 10000 6.2 60 10:23 12.10.2019
6311 Clear 20 1026 68 10000 5.7 60 09:57 12.10.2019
6312 Clear 20 1026 68 10000 5.7 60 09:57 12.10.2019
6313 Clear 20 1026 68 10000 5.7 60 09:38 12.10.2019
6314 Clouds 20 1026 68 10000 5.1 60 09:19 12.10.2019
6315 Clear 19 1026 68 10000 6.2 60 08:44 12.10.2019
6316 Clear 18 1026 68 10000 4.1 50 08:25 12.10.2019
6317 Clear 18 1026 72 10000 3.1 60 07:57 12.10.2019
6318 Clear 18 1026 77 10000 3.6 50 07:31 12.10.2019
6319 Clear 17 1025 77 10000 3.1 40 06:28 12.10.2019
6320 Clear 17 1025 82 10000 3.6 40 05:43 12.10.2019
6321 Clear 17 1025 82 10000 4.1 30 04:34 12.10.2019
6322 Clear 17 1025 82 10000 4.6 40 03:53 12.10.2019
6323 Clear 18 1025 82 10000 4.6 50 02:45 12.10.2019
6324 Clear 18 1025 82 10000 4.6 40 01:32 12.10.2019
6325 Clear 18 1025 82 10000 3.6 40 00:55 12.10.2019
6326 Clear 18 1025 82 10000 3.6 40 00:37 12.10.2019
6327 Clear 18 1025 77 10000 4.1 30 23:55 11.10.2019
6328 Clear 18 1025 77 10000 4.1 30 23:36 11.10.2019
6329 Clear 18 1025 77 10000 4.1 30 23:18 11.10.2019
6330 Clear 18 1025 77 10000 4.1 40 22:37 11.10.2019
6331 Clouds 18 1025 77 10000 4.6 30 22:19 11.10.2019
6332 Clouds 18 1025 77 10000 4.6 40 21:42 11.10.2019
6333 Clouds 18 1025 77 10000 5.1 30 21:21 11.10.2019
6334 Clouds 18 1025 77 10000 5.1 30 21:21 11.10.2019
6335 Clouds 18 1025 77 10000 5.7 30 20:57 11.10.2019
6336 Clouds 18 1025 77 10000 5.7 30 20:38 11.10.2019
6337 Clouds 18 1025 77 10000 5.7 30 20:38 11.10.2019
6338 Clouds 19 1025 77 10000 4.6 30 20:19 11.10.2019
6339 Clouds 19 1024 77 10000 4.1 30 19:55 11.10.2019
6340 Clouds 19 1024 77 10000 4.1 30 19:36 11.10.2019
6341 Clouds 19 1024 77 10000 5.1 30 19:18 11.10.2019
6342 Clouds 19 1024 77 10000 5.1 30 19:18 11.10.2019
6343 Clouds 19 1024 77 10000 5.1 30 19:18 11.10.2019
6344 Clouds 19 1024 77 10000 5.1 30 19:18 11.10.2019
6345 Clouds 19 1024 77 10000 5.1 30 19:18 11.10.2019
6346 Clouds 19 1024 77 10000 4.6 20 18:54 11.10.2019
6347 Clouds 19 1024 77 10000 4.6 20 18:36 11.10.2019
6348 Clouds 19 1024 72 10000 6.2 30 18:18 11.10.2019
6349 Clouds 20 1023 72 10000 5.7 20 17:55 11.10.2019
6350 Clouds 20 1023 72 10000 5.7 20 17:36 11.10.2019
6351 Clouds 20 1023 72 10000 6.2 20 17:18 11.10.2019
6352 Clouds 20 1023 64 10000 6.7 20 16:40 11.10.2019
6353 Clouds 20 1023 68 10000 6.2 30 16:19 11.10.2019
6354 Clouds 20 1023 64 10000 7.7 20 15:58 11.10.2019
6355 Clouds 21 1023 64 10000 7.7 20 15:38 11.10.2019
6356 Clouds 21 1023 64 10000 8.2 20 15:18 11.10.2019
6357 Clouds 21 1023 60 10000 7.2 10 14:44 11.10.2019
6358 Clouds 22 1023 60 10000 6.2 20 14:25 11.10.2019
6359 Clouds 21 1023 60 10000 6.2 20 13:47 11.10.2019
6360 Clouds 21 1022 64 10000 6.2 30 13:27 11.10.2019
6361 Clouds 21 1022 64 10000 6.2 30 12:59 11.10.2019
6362 Clouds 21 1022 64 10000 6.2 30 12:41 11.10.2019
6363 Clouds 21 1022 64 10000 8.2 20 12:22 11.10.2019
6364 Clouds 21 1022 60 10000 7.2 20 11:59 11.10.2019
6365 Clouds 21 1022 60 10000 7.2 20 11:39 11.10.2019
6366 Clouds 21 1022 64 10000 6.2 20 11:21 11.10.2019
6367 Rain 20 1022 73 10000 6.2 360 10:56 11.10.2019
6368 Rain 20 1022 73 10000 5.1 360 10:38 11.10.2019
6369 Rain 20 1022 73 10000 5.1 360 10:19 11.10.2019
6370 Rain 20 1022 88 10000 4.1 340 09:54 11.10.2019
6371 Rain 20 1022 88 10000 4.1 340 09:54 11.10.2019
6372 Rain 20 1022 88 10000 4.1 340 09:36 11.10.2019
6373 Clouds 19 1021 82 10000 2.1 320 09:18 11.10.2019
6374 Clouds 19 1021 82 10000 1 0 08:39 11.10.2019
6375 Clouds 19 1021 82 10000 3.1 330 08:21 11.10.2019
6376 Clouds 18 1020 93 10000 1.5 300 07:58 11.10.2019
6377 Clouds 18 1020 93 10000 1 0 07:40 11.10.2019
6378 Clouds 18 1020 93 10000 1 0 07:20 11.10.2019
6379 Clouds 18 1019 93 10000 1 0 06:43 11.10.2019
6380 Clouds 18 1019 93 10000 2.1 250 06:21 11.10.2019
6381 Clear 18 1018 93 10000 2.1 220 05:32 11.10.2019
6382 Clear 18 1018 93 10000 1.5 240 04:59 11.10.2019
6383 Clear 17 1018 93 10000 0.5 230 03:46 11.10.2019
6384 Clear 17 1018 88 10000 1 190 01:58 11.10.2019
6385 Clear 17 1018 93 10000 1 0 00:42 11.10.2019
6386 Clear 17 1018 88 10000 0.5 0 00:23 11.10.2019
6387 Clear 17 1018 93 10000 1 0 23:42 10.10.2019
6388 Clear 17 1018 93 10000 1 170 23:20 10.10.2019
6389 Clear 18 1018 88 10000 1 0 22:57 10.10.2019
6390 Clear 18 1018 88 10000 1 0 22:37 10.10.2019
6391 Clear 18 1018 82 10000 1.5 150 22:19 10.10.2019
6392 Clear 17 1018 88 10000 1.5 120 21:54 10.10.2019
6393 Clear 17 1018 88 10000 1.5 120 21:36 10.10.2019
6394 Clear 18 1018 88 10000 1.5 100 21:18 10.10.2019
6395 Clear 18 1018 88 10000 1 0 20:41 10.10.2019
6396 Clear 18 1018 88 10000 1.5 180 20:21 10.10.2019
6397 Clear 18 1018 88 10000 1 0 19:58 10.10.2019
6398 Clear 19 1018 88 10000 1 0 19:39 10.10.2019
6399 Clear 19 1018 77 10000 2.6 230 19:19 10.10.2019
6400 Clear 19 1018 72 10000 3.1 220 18:54 10.10.2019
6401 Clear 19 1018 72 10000 3.1 220 18:36 10.10.2019
6402 Clouds 20 1018 68 10000 2.1 220 18:36 10.10.2019
6403 Clouds 20 1018 68 10000 2.1 220 18:18 10.10.2019
6404 Clouds 21 1018 64 10000 2.6 220 17:41 10.10.2019
6405 Clouds 21 1018 60 10000 3.6 250 17:20 10.10.2019
6406 Clouds 21 1018 64 10000 4.1 250 16:58 10.10.2019
6407 Clouds 22 1018 64 10000 4.1 250 16:40 10.10.2019
6408 Clouds 22 1018 64 10000 4.1 240 16:21 10.10.2019
6409 Clouds 22 1018 64 10000 5.1 250 15:43 10.10.2019
6410 Clouds 22 1018 64 10000 5.1 250 15:43 10.10.2019
6411 Clear 22 1018 60 10000 5.1 240 15:24 10.10.2019
6412 Clear 22 1018 64 10000 5.1 220 14:59 10.10.2019
6413 Clear 22 1018 64 10000 5.1 220 14:37 10.10.2019
6414 Clear 22 1019 60 10000 4.1 230 14:19 10.10.2019
6415 Clouds 22 1019 68 10000 5.1 230 13:59 10.10.2019
6416 Clouds 22 1019 68 10000 5.1 230 13:39 10.10.2019
6417 Clouds 22 1019 68 10000 4.6 230 13:18 10.10.2019
6418 Clouds 22 1019 68 10000 4.6 230 13:18 10.10.2019
6419 Clouds 22 1019 68 10000 5.1 230 12:54 10.10.2019
6420 Clouds 21 1019 68 10000 5.1 230 12:36 10.10.2019
6421 Clouds 21 1020 73 10000 6.2 240 12:18 10.10.2019
6422 Clouds 21 1020 68 10000 5.7 240 11:42 10.10.2019
6423 Clouds 21 1020 73 10000 6.2 230 11:42 10.10.2019
6424 Clouds 21 1020 73 10000 6.2 230 11:20 10.10.2019
6425 Clouds 21 1020 73 10000 6.2 230 11:20 10.10.2019
6426 Clouds 20 1020 73 10000 6.2 230 10:58 10.10.2019
6427 Clear 20 1020 72 10000 5.1 220 10:40 10.10.2019
6428 Clear 20 1020 72 10000 5.1 220 10:21 10.10.2019
6429 Clear 20 1020 77 10000 5.1 230 09:41 10.10.2019
6430 Clear 19 1020 77 10000 5.1 230 09:41 10.10.2019
6431 Clear 19 1019 77 10000 5.1 230 09:23 10.10.2019
6432 Clear 18 1019 72 10000 4.1 230 08:59 10.10.2019
6433 Clear 18 1019 72 10000 4.1 230 08:41 10.10.2019
6434 Clear 17 1019 82 10000 2.6 270 08:21 10.10.2019
6435 Clear 16 1019 82 8000 3.6 240 07:57 10.10.2019
6436 Clear 16 1019 82 8000 3.6 240 07:36 10.10.2019
6437 Clouds 15 1018 82 8000 4.1 230 07:18 10.10.2019
6438 Clouds 15 1018 93 8000 2.1 240 06:39 10.10.2019
6439 Clear 15 1018 93 10000 1.5 260 05:56 10.10.2019
6440 Clear 14 1019 93 10000 2.1 240 05:21 10.10.2019
6441 Clear 14 1019 93 10000 1 0 04:36 10.10.2019
6442 Clear 14 1019 93 10000 0.5 330 02:46 10.10.2019
6443 Clear 14 1019 93 10000 1 20 01:38 10.10.2019
6444 Clear 14 1020 87 10000 1 0 01:19 10.10.2019
6445 Clear 14 1020 87 10000 1 10 00:39 10.10.2019
6446 Clear 14 1020 87 10000 1.5 350 23:55 09.10.2019
6447 Clear 15 1020 87 10000 1.5 350 23:36 09.10.2019
6448 Clear 15 1020 87 10000 1.5 10 23:18 09.10.2019
6449 Clear 15 1020 87 10000 1.5 10 23:18 09.10.2019
6450 Clear 15 1020 87 10000 2.6 350 22:41 09.10.2019
6451 Clear 16 1021 82 10000 1.5 20 22:22 09.10.2019
6452 Clear 16 1021 77 10000 1 40 21:58 09.10.2019
6453 Clear 16 1021 77 10000 1 40 21:39 09.10.2019
6454 Clear 16 1021 77 10000 1 40 21:39 09.10.2019
6455 Clear 16 1021 72 10000 2.1 60 21:19 09.10.2019
6456 Clear 17 1021 72 10000 2.1 50 20:55 09.10.2019
6457 Clear 17 1021 72 10000 2.1 50 20:37 09.10.2019
6458 Clear 17 1021 68 10000 2.1 60 20:18 09.10.2019
6459 Clear 17 1021 68 10000 2.1 60 20:18 09.10.2019
6460 Clear 17 1021 68 10000 2.1 80 19:44 09.10.2019
6461 Clear 17 1021 72 10000 1 0 19:23 09.10.2019
6462 Clear 18 1021 72 10000 1.5 230 18:55 09.10.2019
6463 Clear 18 1021 72 10000 1.5 230 18:37 09.10.2019
6464 Clear 18 1021 72 10000 1.5 230 18:18 09.10.2019
6465 Clear 19 1021 68 10000 2.1 240 17:40 09.10.2019
6466 Clear 20 1021 68 10000 2.1 210 17:22 09.10.2019
6467 Clouds 20 1020 68 10000 2.1 200 16:58 09.10.2019
6468 Clouds 20 1020 68 10000 2.1 200 16:40 09.10.2019
6469 Clouds 20 1021 56 10000 2.1 200 16:21 09.10.2019
6470 Clouds 21 1021 56 10000 2.1 230 15:57 09.10.2019
6471 Clouds 21 1021 56 10000 2.1 230 15:38 09.10.2019
6472 Clouds 21 1021 56 10000 2.6 160 15:19 09.10.2019
6473 Clouds 21 1022 60 10000 3.1 150 14:55 09.10.2019
6474 Clouds 21 1022 60 10000 3.1 150 14:37 09.10.2019
6475 Clouds 20 1022 60 10000 3.1 150 14:18 09.10.2019
6476 Clouds 20 1022 60 10000 3.6 150 13:39 09.10.2019
6477 Clouds 20 1022 64 10000 3.6 150 13:20 09.10.2019
6478 Clouds 20 1023 60 10000 3.1 130 12:57 09.10.2019
6479 Clouds 20 1023 60 10000 3.1 130 12:37 09.10.2019
6480 Clear 20 1023 64 10000 3.1 110 12:19 09.10.2019
6481 Clear 19 1024 68 10000 3.6 110 11:40 09.10.2019
6482 Clear 19 1024 68 10000 3.6 110 11:21 09.10.2019
6483 Clear 19 1024 68 10000 4.1 110 10:59 09.10.2019
6484 Clear 19 1024 68 10000 4.1 110 10:40 09.10.2019
6485 Clear 18 1024 72 10000 3.6 110 10:19 09.10.2019
6486 Clear 18 1025 72 10000 4.6 100 09:56 09.10.2019
6487 Clear 17 1025 72 10000 4.6 80 09:38 09.10.2019
6488 Clear 17 1025 72 10000 4.6 80 09:38 09.10.2019
6489 Clear 17 1025 72 10000 4.6 80 09:18 09.10.2019
6490 Clear 16 1024 72 10000 4.6 80 08:39 09.10.2019
6491 Clear 15 1024 77 10000 3.1 60 08:20 09.10.2019
6492 Clear 15 1024 77 10000 3.1 60 08:20 09.10.2019
6493 Mist 15 1024 77 10000 3.1 60 07:47 09.10.2019
6494 Mist 15 1024 77 10000 3.1 60 07:47 09.10.2019
6495 Mist 14 1024 82 10000 4.1 40 07:25 09.10.2019
6496 Mist 14 1024 82 10000 4.1 40 07:25 09.10.2019
6497 Clear 14 1024 82 10000 4.1 50 06:58 09.10.2019
6498 Clear 14 1024 82 10000 4.1 50 06:40 09.10.2019
6499 Clear 13 1024 82 10000 2.6 40 05:53 09.10.2019
6500 Clear 14 1024 77 10000 3.6 50 05:18 09.10.2019
6501 Clear 13 1024 87 10000 3.1 30 03:48 09.10.2019
6502 Clear 14 1024 82 10000 3.1 60 02:34 09.10.2019
6503 Clear 15 1024 82 10000 3.6 60 01:39 09.10.2019
6504 Clear 15 1024 82 10000 3.6 60 01:39 09.10.2019
6505 Clear 15 1025 82 10000 3.1 50 01:18 09.10.2019
6506 Clouds 15 1025 82 10000 3.6 60 00:42 09.10.2019
6507 Clear 15 1025 82 10000 4.1 60 00:23 09.10.2019
6508 Clouds 15 1024 77 10000 4.1 80 23:58 08.10.2019
6509 Clouds 15 1024 77 10000 4.1 80 23:38 08.10.2019
6510 Clouds 15 1025 77 10000 4.1 50 23:18 08.10.2019
6511 Clouds 15 1025 77 10000 4.1 50 23:18 08.10.2019
6512 Clouds 15 1025 77 10000 3.6 60 22:55 08.10.2019
6513 Clouds 15 1025 77 10000 3.6 60 22:36 08.10.2019
6514 Clouds 15 1024 77 10000 4.6 70 22:18 08.10.2019
6515 Clouds 15 1024 82 10000 5.1 70 21:55 08.10.2019
6516 Clouds 15 1024 82 10000 5.1 70 21:36 08.10.2019
6517 Clouds 15 1024 77 10000 5.7 60 21:18 08.10.2019
6518 Drizzle 15 1024 82 10000 6.2 60 20:54 08.10.2019
6519 Drizzle 15 1024 82 10000 6.2 60 20:36 08.10.2019
6520 Clouds 15 1024 82 10000 5.7 60 20:18 08.10.2019
6521 Clouds 15 1023 82 10000 6.2 60 19:41 08.10.2019
6522 Drizzle 15 1023 82 10000 6.2 60 19:23 08.10.2019
6523 Drizzle 15 1023 82 10000 5.1 60 18:57 08.10.2019
6524 Drizzle 15 1023 82 10000 5.1 60 18:39 08.10.2019
6525 Rain 15 1023 82 10000 5.7 60 18:19 08.10.2019
6526 Rain 15 1022 87 10000 5.7 50 17:56 08.10.2019
6527 Rain 15 1022 87 10000 5.7 50 17:56 08.10.2019
6528 Rain 15 1022 87 10000 5.7 50 17:38 08.10.2019
6529 Rain 15 1022 87 10000 6.7 40 17:18 08.10.2019
6530 Clouds 15 1022 87 10000 5.7 40 16:41 08.10.2019
6531 Clouds 15 1021 87 10000 5.7 40 16:22 08.10.2019
6532 Rain 16 1021 87 8000 5.7 40 15:57 08.10.2019
6533 Rain 16 1021 87 8000 5.7 40 15:38 08.10.2019
6534 Rain 16 1021 93 7000 6.7 50 15:19 08.10.2019
6535 Rain 15 1020 93 7000 6.7 40 14:42 08.10.2019
6536 Rain 15 1020 93 7000 6.7 40 14:42 08.10.2019
6537 Rain 15 1021 93 6000 9.8 40 14:21 08.10.2019
6538 Rain 16 1020 93 1600 9.8 40 13:59 08.10.2019
6539 Rain 16 1020 87 10000 6.2 360 13:39 08.10.2019
6540 Rain 16 1019 82 10000 6.2 20 13:21 08.10.2019
6541 Rain 16 1019 82 10000 5.7 20 12:59 08.10.2019
6542 Rain 16 1019 82 10000 5.7 20 12:39 08.10.2019
6543 Rain 16 1018 82 10000 7.7 20 12:19 08.10.2019
6544 Rain 16 1018 87 8000 7.2 30 11:55 08.10.2019
6545 Rain 16 1018 87 8000 7.2 30 11:37 08.10.2019
6546 Rain 15 1018 87 8000 7.7 20 11:19 08.10.2019
6547 Rain 15 1018 87 8000 8.2 20 10:40 08.10.2019
6548 Rain 15 1017 87 8000 9.3 10 10:21 08.10.2019
6549 Rain 15 1017 87 8000 9.8 10 09:58 08.10.2019
6550 Rain 15 1017 87 8000 9.8 10 09:39 08.10.2019
6551 Rain 15 1016 87 7000 9.3 10 09:20 08.10.2019
6552 Rain 15 1016 93 7000 8.7 20 08:43 08.10.2019
6553 Rain 15 1016 93 8000 6.2 30 08:25 08.10.2019
6554 Rain 16 1016 87 6000 5.1 40 07:46 08.10.2019
6555 Rain 16 1015 87 6000 7.2 50 07:23 08.10.2019
6556 Rain 16 1015 87 8000 6.7 30 06:56 08.10.2019
6557 Rain 16 1015 87 6000 5.7 40 06:34 08.10.2019
6558 Rain 16 1015 87 7000 6.2 40 05:57 08.10.2019
6559 Rain 16 1015 87 7000 6.2 40 05:57 08.10.2019
6560 Rain 16 1015 87 7000 6.2 40 05:36 08.10.2019
6561 Rain 17 1015 82 10000 5.1 60 04:36 08.10.2019
6562 Rain 17 1014 72 10000 5.7 50 03:29 08.10.2019
6563 Rain 17 1014 77 10000 5.7 50 02:39 08.10.2019
6564 Rain 17 1015 77 10000 4.6 60 01:49 08.10.2019
6565 Clouds 17 1015 77 10000 4.6 60 01:31 08.10.2019
6566 Clouds 17 1015 77 10000 4.6 60 01:31 08.10.2019
6567 Clouds 17 1014 77 10000 6.2 60 00:51 08.10.2019
6568 Clouds 17 1014 77 10000 6.7 70 00:22 08.10.2019
6569 Rain 17 1015 68 10000 6.2 70 23:42 07.10.2019
6570 Rain 17 1015 72 10000 5.1 50 23:21 07.10.2019
6571 Rain 17 1015 72 10000 5.1 50 23:21 07.10.2019
6572 Rain 17 1014 72 10000 5.7 40 22:58 07.10.2019
6573 Rain 17 1014 72 10000 5.7 40 22:40 07.10.2019
6574 Rain 18 1014 72 10000 5.7 40 22:21 07.10.2019
6575 Rain 18 1015 72 10000 5.7 30 21:58 07.10.2019
6576 Rain 18 1015 72 10000 5.7 30 21:39 07.10.2019
6577 Rain 18 1015 72 10000 6.2 40 21:20 07.10.2019
6578 Rain 18 1015 72 10000 6.2 40 21:20 07.10.2019
6579 Clouds 18 1014 72 10000 7.2 20 20:58 07.10.2019
6580 Clouds 18 1014 72 10000 7.2 20 20:39 07.10.2019
6581 Clouds 18 1014 72 10000 5.7 30 20:20 07.10.2019
6582 Clear 18 1014 68 10000 5.7 30 19:58 07.10.2019
6583 Clear 18 1014 68 10000 5.7 30 19:40 07.10.2019
6584 Clouds 18 1013 68 10000 6.7 40 19:19 07.10.2019
6585 Clouds 18 1013 68 10000 6.2 40 18:58 07.10.2019
6586 Clouds 18 1013 68 10000 6.2 40 18:38 07.10.2019
6587 Clouds 18 1013 68 10000 5.7 40 18:18 07.10.2019
6588 Clouds 18 1013 68 10000 8.2 20 17:43 07.10.2019
6589 Clouds 18 1013 68 10000 7.7 30 17:22 07.10.2019
6590 Clouds 19 1013 63 10000 8.2 20 16:58 07.10.2019
6591 Clouds 19 1013 63 10000 8.2 20 16:39 07.10.2019
6592 Clouds 19 1013 63 10000 8.2 20 16:39 07.10.2019
6593 Clouds 19 1012 63 10000 8.2 10 16:20 07.10.2019
6594 Clouds 19 1012 60 10000 7.2 30 15:45 07.10.2019
6595 Clouds 19 1012 60 10000 7.2 20 15:26 07.10.2019
6596 Clouds 19 1012 60 10000 7.7 10 14:55 07.10.2019
6597 Clouds 19 1012 60 10000 7.7 10 14:37 07.10.2019
6598 Clouds 19 1012 49 10000 6.2 40 14:19 07.10.2019
6599 Clouds 19 1012 52 10000 4.6 30 13:41 07.10.2019
6600 Clouds 19 1012 56 10000 5.1 20 13:20 07.10.2019
6601 Clouds 19 1012 56 10000 5.7 20 12:55 07.10.2019
6602 Clouds 19 1012 56 10000 5.7 20 12:37 07.10.2019
6603 Clouds 19 1013 52 10000 3.6 50 12:19 07.10.2019
6604 Clouds 19 1013 49 10000 4.6 70 11:57 07.10.2019
6605 Clouds 19 1013 52 10000 4.6 40 11:37 07.10.2019
6606 Clouds 18 1013 52 10000 4.6 40 11:18 07.10.2019
6607 Clouds 18 1013 59 10000 4.6 60 10:41 07.10.2019
6608 Clouds 18 1013 59 10000 4.6 60 10:41 07.10.2019
6609 Clouds 18 1013 59 10000 4.6 70 10:20 07.10.2019
6610 Clouds 18 1013 63 10000 4.6 60 09:42 07.10.2019
6611 Clouds 17 1013 63 10000 3.1 70 09:24 07.10.2019
6612 Clouds 17 1013 63 10000 4.1 50 08:57 07.10.2019
6613 Clouds 17 1013 63 10000 4.1 50 08:57 07.10.2019
6614 Clouds 16 1013 63 10000 4.1 50 08:39 07.10.2019
6615 Clouds 16 1013 67 10000 2.6 60 08:19 07.10.2019
6616 Clouds 16 1013 63 10000 1.5 10 07:41 07.10.2019
6617 Clouds 15 1013 76 10000 2.6 360 07:23 07.10.2019
6618 Clear 14 1013 76 10000 3.6 360 06:54 07.10.2019
6619 Clear 14 1013 76 10000 3.6 360 06:34 07.10.2019
6620 Clear 14 1013 82 10000 3.1 350 05:49 07.10.2019
6621 Clear 14 1013 82 10000 2.1 20 05:23 07.10.2019
6622 Clear 14 1013 82 10000 2.1 10 04:42 07.10.2019
6623 Clear 14 1013 82 10000 2.1 10 03:45 07.10.2019
6624 Clear 14 1013 76 10000 2.6 10 03:23 07.10.2019
6625 Clear 14 1013 76 10000 2.1 10 02:23 07.10.2019
6626 Clear 13 1013 71 10000 2.1 10 01:52 07.10.2019
6627 Clear 14 1013 67 10000 2.1 30 01:22 07.10.2019
6628 Clear 14 1013 63 10000 2.1 50 00:41 07.10.2019
6629 Clear 14 1013 63 10000 1.5 70 00:22 07.10.2019
6630 Clear 15 1013 59 10000 1.5 50 23:54 06.10.2019
6631 Clear 15 1013 59 10000 1.5 50 23:36 06.10.2019
6632 Clear 15 1013 59 10000 2.1 40 23:18 06.10.2019
6633 Clear 15 1013 59 10000 2.1 50 22:41 06.10.2019
6634 Clear 15 1013 55 10000 3.1 30 22:22 06.10.2019
6635 Clear 15 1013 59 10000 2.6 60 21:58 06.10.2019
6636 Clear 15 1013 59 10000 2.6 60 21:38 06.10.2019
6637 Clear 16 1013 59 10000 2.6 60 21:19 06.10.2019
6638 Clear 16 1013 59 10000 2.1 60 20:58 06.10.2019
6639 Clear 16 1013 59 10000 2.1 60 20:40 06.10.2019
6640 Clear 16 1013 55 10000 2.1 40 20:21 06.10.2019
6641 Clear 16 1013 67 10000 3.1 350 19:58 06.10.2019
6642 Clear 16 1013 67 10000 3.1 350 19:38 06.10.2019
6643 Clear 16 1013 59 10000 0.5 0 19:20 06.10.2019
6644 Clear 16 1013 59 10000 0.5 0 19:20 06.10.2019
6645 Clear 16 1013 59 10000 1 270 18:57 06.10.2019
6646 Clear 17 1013 59 10000 1 270 18:39 06.10.2019
6647 Clouds 17 1013 59 10000 2.1 230 18:20 06.10.2019
6648 Clouds 17 1013 55 10000 2.6 240 17:59 06.10.2019
6649 Clouds 18 1013 55 10000 2.6 240 17:39 06.10.2019
6650 Clouds 18 1013 55 10000 3.6 230 17:19 06.10.2019
6651 Clouds 19 1012 52 10000 3.6 220 16:43 06.10.2019
6652 Clouds 19 1012 52 10000 4.1 220 16:24 06.10.2019
6653 Clouds 19 1012 52 10000 4.1 220 16:24 06.10.2019
6654 Clouds 19 1012 52 10000 4.1 220 15:59 06.10.2019
6655 Clouds 19 1012 55 10000 4.1 250 15:41 06.10.2019
6656 Clouds 19 1012 55 10000 5.1 230 15:19 06.10.2019
6657 Clouds 19 1012 55 10000 4.1 220 14:43 06.10.2019
6658 Clouds 18 1012 63 10000 4.6 230 14:24 06.10.2019
6659 Clouds 19 1012 55 10000 5.1 220 13:58 06.10.2019
6660 Clouds 19 1012 55 10000 5.1 220 13:39 06.10.2019
6661 Clouds 19 1012 59 10000 4.6 230 13:21 06.10.2019
6662 Clouds 18 1012 68 10000 4.6 220 12:57 06.10.2019
6663 Clouds 18 1012 68 10000 4.6 220 12:39 06.10.2019
6664 Clouds 18 1012 63 10000 5.1 240 12:20 06.10.2019
6665 Clouds 18 1012 63 10000 5.1 240 12:20 06.10.2019
6666 Clouds 18 1012 55 10000 1 30 11:57 06.10.2019
6667 Clouds 18 1012 55 10000 1 30 11:38 06.10.2019
6668 Clouds 17 1012 63 10000 1 0 11:20 06.10.2019
6669 Clouds 17 1012 59 10000 1.5 0 10:44 06.10.2019
6670 Clouds 17 1012 59 10000 1.5 0 10:44 06.10.2019
6671 Clouds 16 1012 67 10000 2.6 0 10:25 06.10.2019
6672 Clouds 16 1012 72 10000 1 0 09:58 06.10.2019
6673 Clouds 16 1012 72 10000 1 0 09:39 06.10.2019
6674 Clouds 15 1011 77 10000 0.5 0 09:18 06.10.2019
6675 Rain 15 1011 82 10000 1 0 08:43 06.10.2019
6676 Rain 15 1011 82 10000 2.6 360 08:20 06.10.2019
6677 Rain 15 1010 87 10000 5.1 350 07:44 06.10.2019
6678 Rain 15 1009 87 10000 5.1 360 07:19 06.10.2019
6679 Rain 14 1009 93 8000 6.7 360 06:20 06.10.2019
6680 Rain 14 1009 93 8000 6.7 350 05:34 06.10.2019
6681 Rain 16 1009 72 10000 5.1 360 03:42 06.10.2019
6682 Clouds 16 1009 77 10000 4.1 20 02:42 06.10.2019
6683 Clouds 16 1009 77 10000 4.1 40 02:21 06.10.2019
6684 Clouds 17 1009 77 10000 2.1 50 01:44 06.10.2019
6685 Clouds 17 1009 72 10000 3.1 50 01:26 06.10.2019
6686 Clouds 17 1010 72 10000 3.1 20 00:46 06.10.2019
6687 Clouds 17 1010 72 10000 3.1 20 00:25 06.10.2019
6688 Clouds 17 1010 72 10000 2.6 20 23:44 05.10.2019
6689 Clouds 17 1010 72 10000 3.1 20 23:22 05.10.2019
6690 Clouds 17 1011 72 10000 3.6 10 22:58 05.10.2019
6691 Clouds 17 1011 72 10000 3.6 10 22:40 05.10.2019
6692 Clouds 17 1011 72 10000 4.1 360 22:20 05.10.2019
6693 Clouds 17 1011 72 10000 4.1 360 22:20 05.10.2019
6694 Clouds 17 1010 72 10000 5.1 10 21:56 05.10.2019
6695 Clouds 17 1010 72 10000 5.1 10 21:37 05.10.2019
6696 Clouds 17 1010 72 10000 3.1 20 21:18 05.10.2019
6697 Clouds 17 1011 72 10000 4.1 20 20:55 05.10.2019
6698 Clouds 17 1011 72 10000 4.1 20 20:36 05.10.2019
6699 Clouds 17 1011 72 10000 4.6 10 20:18 05.10.2019
6700 Clouds 17 1010 77 10000 4.1 20 19:37 05.10.2019
6701 Clouds 17 1010 77 10000 4.1 20 19:19 05.10.2019
6702 Clouds